<?xml version='1.0' encoding='UTF-8'?><gpx version="1.1" creator="JPX - https://github.com/jenetics/jpx" xmlns="http://www.topografix.com/GPX/1/1"><trk><trkseg><trkpt lat="37.815405" lon="12.4776667"><ele>13.0</ele><time>2026-03-25T08:11:37.019Z</time></trkpt><trkpt lat="37.815495" lon="12.477745"><ele>13.0</ele><time>2026-03-25T08:11:38.023Z</time></trkpt><trkpt lat="37.8156233" lon="12.4778783"><ele>13.0</ele><time>2026-03-25T08:11:39.52Z</time></trkpt><trkpt lat="37.815715" lon="12.4779733"><ele>13.0</ele><time>2026-03-25T08:11:40.519Z</time></trkpt><trkpt lat="37.8158083" lon="12.4780817"><ele>13.0</ele><time>2026-03-25T08:11:41.519Z</time></trkpt><trkpt lat="37.8158967" lon="12.4781883"><ele>13.0</ele><time>2026-03-25T08:11:42.52Z</time></trkpt><trkpt lat="37.8159867" lon="12.478275"><ele>13.0</ele><time>2026-03-25T08:11:43.522Z</time></trkpt><trkpt lat="37.81607" lon="12.4783483"><ele>13.0</ele><time>2026-03-25T08:11:44.524Z</time></trkpt><trkpt lat="37.8161467" lon="12.4784183"><ele>13.0</ele><time>2026-03-25T08:11:45.518Z</time></trkpt><trkpt lat="37.8162167" lon="12.4784833"><ele>12.999999999999998</ele><time>2026-03-25T08:11:46.517Z</time></trkpt><trkpt lat="37.8162867" lon="12.4785467"><ele>13.0</ele><time>2026-03-25T08:11:47.517Z</time></trkpt><trkpt lat="37.816355" lon="12.4786117"><ele>13.0</ele><time>2026-03-25T08:11:48.522Z</time></trkpt><trkpt lat="37.81642" lon="12.4786717"><ele>13.0</ele><time>2026-03-25T08:11:49.519Z</time></trkpt><trkpt lat="37.8164833" lon="12.4787333"><ele>12.999999999999998</ele><time>2026-03-25T08:11:50.522Z</time></trkpt><trkpt lat="37.816545" lon="12.4787967"><ele>13.0</ele><time>2026-03-25T08:11:51.523Z</time></trkpt><trkpt lat="37.81661" lon="12.47886"><ele>13.166666666666666</ele><time>2026-03-25T08:11:52.524Z</time></trkpt><trkpt lat="37.8166733" lon="12.4789183"><ele>13.333333333333332</ele><time>2026-03-25T08:11:53.523Z</time></trkpt><trkpt lat="37.816735" lon="12.4789767"><ele>13.5</ele><time>2026-03-25T08:11:54.522Z</time></trkpt><trkpt lat="37.8167867" lon="12.4790283"><ele>13.666666666666668</ele><time>2026-03-25T08:11:55.523Z</time></trkpt><trkpt lat="37.816855" lon="12.47909"><ele>13.833333333333334</ele><time>2026-03-25T08:11:57.52Z</time></trkpt><trkpt lat="37.8169067" lon="12.47914"><ele>14.0</ele><time>2026-03-25T08:11:59.526Z</time></trkpt><trkpt lat="37.816975" lon="12.4792033"><ele>14.0</ele><time>2026-03-25T08:12:01.522Z</time></trkpt><trkpt lat="37.8170817" lon="12.4793033"><ele>13.999999999999998</ele><time>2026-03-25T08:12:03.519Z</time></trkpt><trkpt lat="37.8171483" lon="12.47937"><ele>13.999999999999998</ele><time>2026-03-25T08:12:04.516Z</time></trkpt><trkpt lat="37.817225" lon="12.4794367"><ele>14.0</ele><time>2026-03-25T08:12:05.518Z</time></trkpt><trkpt lat="37.8173083" lon="12.479515"><ele>14.0</ele><time>2026-03-25T08:12:06.522Z</time></trkpt><trkpt lat="37.8174" lon="12.4796017"><ele>14.0</ele><time>2026-03-25T08:12:07.52Z</time></trkpt><trkpt lat="37.817495" lon="12.4796983"><ele>14.0</ele><time>2026-03-25T08:12:08.521Z</time></trkpt><trkpt lat="37.817595" lon="12.4798"><ele>14.0</ele><time>2026-03-25T08:12:09.52Z</time></trkpt><trkpt lat="37.8177" lon="12.479905"><ele>14.0</ele><time>2026-03-25T08:12:10.518Z</time></trkpt><trkpt lat="37.81781" lon="12.4800117"><ele>13.75</ele><time>2026-03-25T08:12:11.521Z</time></trkpt><trkpt lat="37.8179233" lon="12.4801233"><ele>13.5</ele><time>2026-03-25T08:12:12.518Z</time></trkpt><trkpt lat="37.81804" lon="12.4802367"><ele>13.25</ele><time>2026-03-25T08:12:13.517Z</time></trkpt><trkpt lat="37.818165" lon="12.4803533"><ele>13.0</ele><time>2026-03-25T08:12:14.523Z</time></trkpt><trkpt lat="37.818295" lon="12.480475"><ele>13.333333333333332</ele><time>2026-03-25T08:12:15.516Z</time></trkpt><trkpt lat="37.8184283" lon="12.4805983"><ele>13.666666666666668</ele><time>2026-03-25T08:12:16.523Z</time></trkpt><trkpt lat="37.8185633" lon="12.48072"><ele>14.0</ele><time>2026-03-25T08:12:17.525Z</time></trkpt><trkpt lat="37.8186983" lon="12.4808433"><ele>14.0</ele><time>2026-03-25T08:12:18.528Z</time></trkpt><trkpt lat="37.81883" lon="12.48097"><ele>14.0</ele><time>2026-03-25T08:12:19.525Z</time></trkpt><trkpt lat="37.81896" lon="12.4810967"><ele>14.0</ele><time>2026-03-25T08:12:20.524Z</time></trkpt><trkpt lat="37.8190783" lon="12.4812167"><ele>14.25</ele><time>2026-03-25T08:12:21.522Z</time></trkpt><trkpt lat="37.8191983" lon="12.481325"><ele>14.5</ele><time>2026-03-25T08:12:22.522Z</time></trkpt><trkpt lat="37.8193133" lon="12.4814333"><ele>14.75</ele><time>2026-03-25T08:12:23.526Z</time></trkpt><trkpt lat="37.81943" lon="12.4815433"><ele>15.0</ele><time>2026-03-25T08:12:24.521Z</time></trkpt><trkpt lat="37.8195483" lon="12.481655"><ele>15.0</ele><time>2026-03-25T08:12:25.518Z</time></trkpt><trkpt lat="37.8196667" lon="12.4817683"><ele>15.0</ele><time>2026-03-25T08:12:26.52Z</time></trkpt><trkpt lat="37.8197867" lon="12.4818817"><ele>15.0</ele><time>2026-03-25T08:12:27.521Z</time></trkpt><trkpt lat="37.819905" lon="12.4819917"><ele>15.0</ele><time>2026-03-25T08:12:28.521Z</time></trkpt><trkpt lat="37.8200233" lon="12.4821"><ele>15.75</ele><time>2026-03-25T08:12:29.52Z</time></trkpt><trkpt lat="37.8201383" lon="12.4822083"><ele>16.5</ele><time>2026-03-25T08:12:30.524Z</time></trkpt><trkpt lat="37.8202533" lon="12.4823183"><ele>17.25</ele><time>2026-03-25T08:12:31.524Z</time></trkpt><trkpt lat="37.82037" lon="12.482425"><ele>18.0</ele><time>2026-03-25T08:12:32.527Z</time></trkpt><trkpt lat="37.8204817" lon="12.4825333"><ele>18.0</ele><time>2026-03-25T08:12:33.521Z</time></trkpt><trkpt lat="37.820595" lon="12.4826417"><ele>18.0</ele><time>2026-03-25T08:12:34.517Z</time></trkpt><trkpt lat="37.8207067" lon="12.4827467"><ele>18.0</ele><time>2026-03-25T08:12:35.522Z</time></trkpt><trkpt lat="37.8208167" lon="12.4828517"><ele>18.0</ele><time>2026-03-25T08:12:36.518Z</time></trkpt><trkpt lat="37.820925" lon="12.482955"><ele>17.75</ele><time>2026-03-25T08:12:37.517Z</time></trkpt><trkpt lat="37.8210317" lon="12.4830567"><ele>17.5</ele><time>2026-03-25T08:12:38.521Z</time></trkpt><trkpt lat="37.821125" lon="12.4831483"><ele>17.25</ele><time>2026-03-25T08:12:39.52Z</time></trkpt><trkpt lat="37.82121" lon="12.4832317"><ele>17.0</ele><time>2026-03-25T08:12:40.521Z</time></trkpt><trkpt lat="37.8212883" lon="12.48331"><ele>17.0</ele><time>2026-03-25T08:12:41.518Z</time></trkpt><trkpt lat="37.8213633" lon="12.4833817"><ele>17.0</ele><time>2026-03-25T08:12:42.518Z</time></trkpt><trkpt lat="37.8214383" lon="12.483455"><ele>17.0</ele><time>2026-03-25T08:12:43.52Z</time></trkpt><trkpt lat="37.8215233" lon="12.4835367"><ele>17.0</ele><time>2026-03-25T08:12:44.521Z</time></trkpt><trkpt lat="37.82162" lon="12.4836217"><ele>17.0</ele><time>2026-03-25T08:12:45.52Z</time></trkpt><trkpt lat="37.8217283" lon="12.4837183"><ele>17.0</ele><time>2026-03-25T08:12:46.52Z</time></trkpt><trkpt lat="37.8218467" lon="12.4838233"><ele>17.0</ele><time>2026-03-25T08:12:47.521Z</time></trkpt><trkpt lat="37.821965" lon="12.4839367"><ele>17.0</ele><time>2026-03-25T08:12:48.519Z</time></trkpt><trkpt lat="37.8220983" lon="12.4840617"><ele>17.0</ele><time>2026-03-25T08:12:49.521Z</time></trkpt><trkpt lat="37.8222333" lon="12.4841883"><ele>17.0</ele><time>2026-03-25T08:12:50.52Z</time></trkpt><trkpt lat="37.822375" lon="12.48432"><ele>17.0</ele><time>2026-03-25T08:12:51.523Z</time></trkpt><trkpt lat="37.82252" lon="12.4844533"><ele>16.666666666666668</ele><time>2026-03-25T08:12:52.521Z</time></trkpt><trkpt lat="37.8226633" lon="12.484585"><ele>16.333333333333332</ele><time>2026-03-25T08:12:53.521Z</time></trkpt><trkpt lat="37.822805" lon="12.4847167"><ele>16.0</ele><time>2026-03-25T08:12:54.52Z</time></trkpt><trkpt lat="37.8229467" lon="12.4848483"><ele>17.0</ele><time>2026-03-25T08:12:55.524Z</time></trkpt><trkpt lat="37.8230833" lon="12.4849783"><ele>18.0</ele><time>2026-03-25T08:12:56.521Z</time></trkpt><trkpt lat="37.8232183" lon="12.4851017"><ele>19.0</ele><time>2026-03-25T08:12:57.524Z</time></trkpt><trkpt lat="37.8233467" lon="12.48522"><ele>19.0</ele><time>2026-03-25T08:12:58.522Z</time></trkpt><trkpt lat="37.823465" lon="12.4853333"><ele>19.0</ele><time>2026-03-25T08:12:59.525Z</time></trkpt><trkpt lat="37.823575" lon="12.48544"><ele>19.0</ele><time>2026-03-25T08:13:00.524Z</time></trkpt><trkpt lat="37.823685" lon="12.4855433"><ele>19.0</ele><time>2026-03-25T08:13:01.52Z</time></trkpt><trkpt lat="37.8237933" lon="12.4856467"><ele>18.666666666666664</ele><time>2026-03-25T08:13:02.521Z</time></trkpt><trkpt lat="37.823905" lon="12.4857567"><ele>18.333333333333332</ele><time>2026-03-25T08:13:03.52Z</time></trkpt><trkpt lat="37.824025" lon="12.4858717"><ele>18.0</ele><time>2026-03-25T08:13:04.519Z</time></trkpt><trkpt lat="37.8241533" lon="12.48599"><ele>18.0</ele><time>2026-03-25T08:13:05.521Z</time></trkpt><trkpt lat="37.8242817" lon="12.4861083"><ele>18.0</ele><time>2026-03-25T08:13:06.523Z</time></trkpt><trkpt lat="37.824405" lon="12.4862217"><ele>18.0</ele><time>2026-03-25T08:13:07.52Z</time></trkpt><trkpt lat="37.8245183" lon="12.4863267"><ele>18.25</ele><time>2026-03-25T08:13:08.522Z</time></trkpt><trkpt lat="37.8246233" lon="12.4864267"><ele>18.5</ele><time>2026-03-25T08:13:09.519Z</time></trkpt><trkpt lat="37.8247233" lon="12.4865183"><ele>18.75</ele><time>2026-03-25T08:13:10.523Z</time></trkpt><trkpt lat="37.8248183" lon="12.486605"><ele>19.0</ele><time>2026-03-25T08:13:11.524Z</time></trkpt><trkpt lat="37.8249067" lon="12.4866883"><ele>19.0</ele><time>2026-03-25T08:13:12.52Z</time></trkpt><trkpt lat="37.8249883" lon="12.4867617"><ele>19.0</ele><time>2026-03-25T08:13:13.523Z</time></trkpt><trkpt lat="37.825055" lon="12.4868217"><ele>19.0</ele><time>2026-03-25T08:13:14.522Z</time></trkpt><trkpt lat="37.825145" lon="12.4869"><ele>19.0</ele><time>2026-03-25T08:13:16.519Z</time></trkpt><trkpt lat="37.8252433" lon="12.4869817"><ele>19.0</ele><time>2026-03-25T08:13:18.52Z</time></trkpt><trkpt lat="37.825315" lon="12.4870467"><ele>19.0</ele><time>2026-03-25T08:13:19.519Z</time></trkpt><trkpt lat="37.8253967" lon="12.4871317"><ele>19.0</ele><time>2026-03-25T08:13:20.524Z</time></trkpt><trkpt lat="37.8254883" lon="12.48723"><ele>19.0</ele><time>2026-03-25T08:13:21.521Z</time></trkpt><trkpt lat="37.8255917" lon="12.4873383"><ele>19.0</ele><time>2026-03-25T08:13:22.524Z</time></trkpt><trkpt lat="37.8257117" lon="12.4874533"><ele>19.0</ele><time>2026-03-25T08:13:23.525Z</time></trkpt><trkpt lat="37.8258433" lon="12.4875767"><ele>19.0</ele><time>2026-03-25T08:13:24.519Z</time></trkpt><trkpt lat="37.8259783" lon="12.4877067"><ele>19.0</ele><time>2026-03-25T08:13:25.525Z</time></trkpt><trkpt lat="37.82612" lon="12.4878383"><ele>19.333333333333332</ele><time>2026-03-25T08:13:26.523Z</time></trkpt><trkpt lat="37.8262633" lon="12.48797"><ele>19.666666666666668</ele><time>2026-03-25T08:13:27.525Z</time></trkpt><trkpt lat="37.8264067" lon="12.488105"><ele>20.0</ele><time>2026-03-25T08:13:28.527Z</time></trkpt><trkpt lat="37.8265517" lon="12.4882417"><ele>20.0</ele><time>2026-03-25T08:13:29.523Z</time></trkpt><trkpt lat="37.8267017" lon="12.4883783"><ele>20.0</ele><time>2026-03-25T08:13:30.52Z</time></trkpt><trkpt lat="37.826845" lon="12.4885133"><ele>20.0</ele><time>2026-03-25T08:13:31.521Z</time></trkpt><trkpt lat="37.8271317" lon="12.4887817"><ele>20.0</ele><time>2026-03-25T08:13:33.52Z</time></trkpt><trkpt lat="37.8272767" lon="12.488915"><ele>20.0</ele><time>2026-03-25T08:13:34.519Z</time></trkpt><trkpt lat="37.8274233" lon="12.4890517"><ele>20.0</ele><time>2026-03-25T08:13:35.523Z</time></trkpt><trkpt lat="37.8275733" lon="12.4891917"><ele>19.666666666666668</ele><time>2026-03-25T08:13:36.533Z</time></trkpt><trkpt lat="37.8277283" lon="12.489335"><ele>19.333333333333332</ele><time>2026-03-25T08:13:37.52Z</time></trkpt><trkpt lat="37.8278867" lon="12.48948"><ele>19.0</ele><time>2026-03-25T08:13:38.523Z</time></trkpt><trkpt lat="37.828045" lon="12.4896283"><ele>19.666666666666664</ele><time>2026-03-25T08:13:39.522Z</time></trkpt><trkpt lat="37.8282017" lon="12.4897733"><ele>20.333333333333332</ele><time>2026-03-25T08:13:40.52Z</time></trkpt><trkpt lat="37.82835" lon="12.4899133"><ele>21.0</ele><time>2026-03-25T08:13:41.522Z</time></trkpt><trkpt lat="37.82849" lon="12.490045"><ele>21.0</ele><time>2026-03-25T08:13:42.518Z</time></trkpt><trkpt lat="37.8286267" lon="12.4901767"><ele>21.0</ele><time>2026-03-25T08:13:43.522Z</time></trkpt><trkpt lat="37.8287633" lon="12.4903167"><ele>21.0</ele><time>2026-03-25T08:13:44.517Z</time></trkpt><trkpt lat="37.8289067" lon="12.4904583"><ele>21.333333333333332</ele><time>2026-03-25T08:13:45.521Z</time></trkpt><trkpt lat="37.829055" lon="12.4905983"><ele>21.666666666666664</ele><time>2026-03-25T08:13:46.522Z</time></trkpt><trkpt lat="37.8292083" lon="12.4907383"><ele>22.0</ele><time>2026-03-25T08:13:47.523Z</time></trkpt><trkpt lat="37.8293617" lon="12.4908817"><ele>22.0</ele><time>2026-03-25T08:13:48.521Z</time></trkpt><trkpt lat="37.8295167" lon="12.491025"><ele>22.0</ele><time>2026-03-25T08:13:49.519Z</time></trkpt><trkpt lat="37.8296767" lon="12.4911733"><ele>22.0</ele><time>2026-03-25T08:13:50.522Z</time></trkpt><trkpt lat="37.8298333" lon="12.4913217"><ele>22.333333333333332</ele><time>2026-03-25T08:13:51.52Z</time></trkpt><trkpt lat="37.8299883" lon="12.49147"><ele>22.666666666666668</ele><time>2026-03-25T08:13:52.518Z</time></trkpt><trkpt lat="37.8301433" lon="12.4916167"><ele>23.0</ele><time>2026-03-25T08:13:53.521Z</time></trkpt><trkpt lat="37.8302983" lon="12.4917633"><ele>23.0</ele><time>2026-03-25T08:13:54.523Z</time></trkpt><trkpt lat="37.83045" lon="12.4919033"><ele>23.0</ele><time>2026-03-25T08:13:55.517Z</time></trkpt><trkpt lat="37.8305967" lon="12.49204"><ele>23.0</ele><time>2026-03-25T08:13:56.521Z</time></trkpt><trkpt lat="37.830735" lon="12.4921683"><ele>24.0</ele><time>2026-03-25T08:13:57.523Z</time></trkpt><trkpt lat="37.8308683" lon="12.49229"><ele>25.0</ele><time>2026-03-25T08:13:58.524Z</time></trkpt><trkpt lat="37.8309933" lon="12.4924083"><ele>26.0</ele><time>2026-03-25T08:13:59.522Z</time></trkpt><trkpt lat="37.8311167" lon="12.4925233"><ele>26.0</ele><time>2026-03-25T08:14:00.521Z</time></trkpt><trkpt lat="37.831235" lon="12.492635"><ele>26.0</ele><time>2026-03-25T08:14:01.522Z</time></trkpt><trkpt lat="37.83135" lon="12.49274"><ele>26.0</ele><time>2026-03-25T08:14:02.521Z</time></trkpt><trkpt lat="37.8314617" lon="12.492845"><ele>26.0</ele><time>2026-03-25T08:14:03.52Z</time></trkpt><trkpt lat="37.831575" lon="12.4929583"><ele>26.0</ele><time>2026-03-25T08:14:04.52Z</time></trkpt><trkpt lat="37.83169" lon="12.4930783"><ele>26.0</ele><time>2026-03-25T08:14:05.52Z</time></trkpt><trkpt lat="37.831815" lon="12.4932"><ele>26.0</ele><time>2026-03-25T08:14:06.523Z</time></trkpt><trkpt lat="37.8319417" lon="12.4933267"><ele>25.666666666666664</ele><time>2026-03-25T08:14:07.52Z</time></trkpt><trkpt lat="37.8320733" lon="12.493455"><ele>25.333333333333336</ele><time>2026-03-25T08:14:08.522Z</time></trkpt><trkpt lat="37.8322083" lon="12.4935867"><ele>25.0</ele><time>2026-03-25T08:14:09.522Z</time></trkpt><trkpt lat="37.8323467" lon="12.4937217"><ele>26.0</ele><time>2026-03-25T08:14:10.52Z</time></trkpt><trkpt lat="37.8324883" lon="12.49386"><ele>27.0</ele><time>2026-03-25T08:14:11.524Z</time></trkpt><trkpt lat="37.832635" lon="12.4939967"><ele>28.0</ele><time>2026-03-25T08:14:12.521Z</time></trkpt><trkpt lat="37.8327833" lon="12.4941367"><ele>28.0</ele><time>2026-03-25T08:14:13.522Z</time></trkpt><trkpt lat="37.8329333" lon="12.4942783"><ele>28.0</ele><time>2026-03-25T08:14:14.522Z</time></trkpt><trkpt lat="37.833085" lon="12.4944233"><ele>28.0</ele><time>2026-03-25T08:14:15.519Z</time></trkpt><trkpt lat="37.833235" lon="12.4945667"><ele>28.333333333333336</ele><time>2026-03-25T08:14:16.52Z</time></trkpt><trkpt lat="37.8333817" lon="12.4947067"><ele>28.666666666666664</ele><time>2026-03-25T08:14:17.52Z</time></trkpt><trkpt lat="37.833525" lon="12.494845"><ele>29.0</ele><time>2026-03-25T08:14:18.525Z</time></trkpt><trkpt lat="37.833665" lon="12.4949817"><ele>29.0</ele><time>2026-03-25T08:14:19.525Z</time></trkpt><trkpt lat="37.8338067" lon="12.4951217"><ele>29.0</ele><time>2026-03-25T08:14:20.524Z</time></trkpt><trkpt lat="37.8339517" lon="12.4952633"><ele>29.0</ele><time>2026-03-25T08:14:21.525Z</time></trkpt><trkpt lat="37.8341017" lon="12.4954067"><ele>30.333333333333332</ele><time>2026-03-25T08:14:22.521Z</time></trkpt><trkpt lat="37.8342517" lon="12.49555"><ele>31.666666666666664</ele><time>2026-03-25T08:14:23.519Z</time></trkpt><trkpt lat="37.8344033" lon="12.4956933"><ele>33.0</ele><time>2026-03-25T08:14:24.525Z</time></trkpt><trkpt lat="37.8345483" lon="12.49583"><ele>33.333333333333336</ele><time>2026-03-25T08:14:25.522Z</time></trkpt><trkpt lat="37.834685" lon="12.49596"><ele>33.66666666666667</ele><time>2026-03-25T08:14:26.523Z</time></trkpt><trkpt lat="37.8348183" lon="12.4960767"><ele>34.0</ele><time>2026-03-25T08:14:27.524Z</time></trkpt><trkpt lat="37.834935" lon="12.4961933"><ele>34.0</ele><time>2026-03-25T08:14:28.52Z</time></trkpt><trkpt lat="37.83504" lon="12.496295"><ele>34.0</ele><time>2026-03-25T08:14:29.523Z</time></trkpt><trkpt lat="37.8351317" lon="12.49638"><ele>34.0</ele><time>2026-03-25T08:14:30.524Z</time></trkpt><trkpt lat="37.8352133" lon="12.496455"><ele>34.0</ele><time>2026-03-25T08:14:31.522Z</time></trkpt><trkpt lat="37.8352967" lon="12.4965283"><ele>34.0</ele><time>2026-03-25T08:14:32.522Z</time></trkpt><trkpt lat="37.8353883" lon="12.4966117"><ele>34.0</ele><time>2026-03-25T08:14:33.518Z</time></trkpt><trkpt lat="37.8354883" lon="12.496705"><ele>34.0</ele><time>2026-03-25T08:14:34.521Z</time></trkpt><trkpt lat="37.8355983" lon="12.49681"><ele>34.0</ele><time>2026-03-25T08:14:35.521Z</time></trkpt><trkpt lat="37.8357133" lon="12.4969233"><ele>34.0</ele><time>2026-03-25T08:14:36.523Z</time></trkpt><trkpt lat="37.835835" lon="12.497045"><ele>34.0</ele><time>2026-03-25T08:14:37.52Z</time></trkpt><trkpt lat="37.835965" lon="12.497175"><ele>34.0</ele><time>2026-03-25T08:14:38.522Z</time></trkpt><trkpt lat="37.8360967" lon="12.497315"><ele>34.0</ele><time>2026-03-25T08:14:39.52Z</time></trkpt><trkpt lat="37.836235" lon="12.4974583"><ele>34.0</ele><time>2026-03-25T08:14:40.519Z</time></trkpt><trkpt lat="37.83638" lon="12.4976067"><ele>34.0</ele><time>2026-03-25T08:14:41.524Z</time></trkpt><trkpt lat="37.8365317" lon="12.49776"><ele>34.0</ele><time>2026-03-25T08:14:42.52Z</time></trkpt><trkpt lat="37.83669" lon="12.4979133"><ele>34.0</ele><time>2026-03-25T08:14:43.524Z</time></trkpt><trkpt lat="37.8368483" lon="12.4980683"><ele>34.0</ele><time>2026-03-25T08:14:44.526Z</time></trkpt><trkpt lat="37.8370117" lon="12.4982267"><ele>34.0</ele><time>2026-03-25T08:14:45.518Z</time></trkpt><trkpt lat="37.8371767" lon="12.4983833"><ele>34.0</ele><time>2026-03-25T08:14:46.527Z</time></trkpt><trkpt lat="37.8373417" lon="12.49854"><ele>34.0</ele><time>2026-03-25T08:14:47.527Z</time></trkpt><trkpt lat="37.8375067" lon="12.4986983"><ele>34.0</ele><time>2026-03-25T08:14:48.525Z</time></trkpt><trkpt lat="37.8376683" lon="12.4988483"><ele>34.333333333333336</ele><time>2026-03-25T08:14:49.524Z</time></trkpt><trkpt lat="37.8378217" lon="12.4989883"><ele>34.666666666666664</ele><time>2026-03-25T08:14:50.524Z</time></trkpt><trkpt lat="37.8379633" lon="12.4991233"><ele>35.0</ele><time>2026-03-25T08:14:51.524Z</time></trkpt><trkpt lat="37.8380983" lon="12.4992533"><ele>35.0</ele><time>2026-03-25T08:14:52.516Z</time></trkpt><trkpt lat="37.8382267" lon="12.499375"><ele>35.0</ele><time>2026-03-25T08:14:53.521Z</time></trkpt><trkpt lat="37.8383467" lon="12.4994883"><ele>35.0</ele><time>2026-03-25T08:14:54.519Z</time></trkpt><trkpt lat="37.838455" lon="12.4995933"><ele>35.0</ele><time>2026-03-25T08:14:55.52Z</time></trkpt><trkpt lat="37.83856" lon="12.4996933"><ele>35.25</ele><time>2026-03-25T08:14:56.525Z</time></trkpt><trkpt lat="37.8386567" lon="12.4997883"><ele>35.5</ele><time>2026-03-25T08:14:57.52Z</time></trkpt><trkpt lat="37.8387467" lon="12.4998817"><ele>35.75</ele><time>2026-03-25T08:14:58.519Z</time></trkpt><trkpt lat="37.8388367" lon="12.4999767"><ele>36.0</ele><time>2026-03-25T08:14:59.524Z</time></trkpt><trkpt lat="37.8389267" lon="12.5000717"><ele>36.0</ele><time>2026-03-25T08:15:00.518Z</time></trkpt><trkpt lat="37.8390217" lon="12.5001683"><ele>36.0</ele><time>2026-03-25T08:15:01.521Z</time></trkpt><trkpt lat="37.8391217" lon="12.500265"><ele>36.0</ele><time>2026-03-25T08:15:02.521Z</time></trkpt><trkpt lat="37.839225" lon="12.500365"><ele>36.0</ele><time>2026-03-25T08:15:03.523Z</time></trkpt><trkpt lat="37.8393267" lon="12.500465"><ele>36.25</ele><time>2026-03-25T08:15:04.519Z</time></trkpt><trkpt lat="37.8394283" lon="12.500565"><ele>36.5</ele><time>2026-03-25T08:15:05.518Z</time></trkpt><trkpt lat="37.8395333" lon="12.5006583"><ele>36.75</ele><time>2026-03-25T08:15:06.52Z</time></trkpt><trkpt lat="37.8396283" lon="12.5007483"><ele>37.0</ele><time>2026-03-25T08:15:07.519Z</time></trkpt><trkpt lat="37.8397167" lon="12.5008333"><ele>37.0</ele><time>2026-03-25T08:15:08.521Z</time></trkpt><trkpt lat="37.8397983" lon="12.500915"><ele>37.0</ele><time>2026-03-25T08:15:09.518Z</time></trkpt><trkpt lat="37.8398767" lon="12.5009917"><ele>37.0</ele><time>2026-03-25T08:15:10.523Z</time></trkpt><trkpt lat="37.8399517" lon="12.5010667"><ele>37.0</ele><time>2026-03-25T08:15:11.518Z</time></trkpt><trkpt lat="37.84002" lon="12.5011317"><ele>37.0</ele><time>2026-03-25T08:15:12.517Z</time></trkpt><trkpt lat="37.840075" lon="12.5011833"><ele>37.0</ele><time>2026-03-25T08:15:13.518Z</time></trkpt><trkpt lat="37.84016" lon="12.50127"><ele>37.0</ele><time>2026-03-25T08:15:15.519Z</time></trkpt><trkpt lat="37.8402267" lon="12.5013433"><ele>37.0</ele><time>2026-03-25T08:15:17.52Z</time></trkpt><trkpt lat="37.8402783" lon="12.5013983"><ele>37.0</ele><time>2026-03-25T08:15:19.519Z</time></trkpt><trkpt lat="37.8404033" lon="12.50148"><ele>37.0</ele><time>2026-03-25T08:16:06.52Z</time></trkpt><trkpt lat="37.8405133" lon="12.5015883"><ele>37.0</ele><time>2026-03-25T08:16:08.522Z</time></trkpt><trkpt lat="37.8405833" lon="12.5016617"><ele>37.0</ele><time>2026-03-25T08:16:09.524Z</time></trkpt><trkpt lat="37.840665" lon="12.5017383"><ele>37.0</ele><time>2026-03-25T08:16:10.524Z</time></trkpt><trkpt lat="37.84076" lon="12.5018283"><ele>37.0</ele><time>2026-03-25T08:16:11.521Z</time></trkpt><trkpt lat="37.8408617" lon="12.5019283"><ele>37.0</ele><time>2026-03-25T08:16:12.523Z</time></trkpt><trkpt lat="37.84097" lon="12.5020317"><ele>36.333333333333336</ele><time>2026-03-25T08:16:13.523Z</time></trkpt><trkpt lat="37.8410817" lon="12.5021433"><ele>35.666666666666664</ele><time>2026-03-25T08:16:14.524Z</time></trkpt><trkpt lat="37.8412017" lon="12.50226"><ele>35.0</ele><time>2026-03-25T08:16:15.522Z</time></trkpt><trkpt lat="37.8413283" lon="12.5023833"><ele>35.0</ele><time>2026-03-25T08:16:16.52Z</time></trkpt><trkpt lat="37.84146" lon="12.502515"><ele>35.0</ele><time>2026-03-25T08:16:17.521Z</time></trkpt><trkpt lat="37.8416" lon="12.502655"><ele>35.0</ele><time>2026-03-25T08:16:18.518Z</time></trkpt><trkpt lat="37.841745" lon="12.5028017"><ele>35.666666666666664</ele><time>2026-03-25T08:16:19.523Z</time></trkpt><trkpt lat="37.8418933" lon="12.50295"><ele>36.333333333333336</ele><time>2026-03-25T08:16:20.52Z</time></trkpt><trkpt lat="37.842045" lon="12.5031"><ele>37.0</ele><time>2026-03-25T08:16:21.519Z</time></trkpt><trkpt lat="37.8421983" lon="12.5032517"><ele>37.0</ele><time>2026-03-25T08:16:22.52Z</time></trkpt><trkpt lat="37.842355" lon="12.5034067"><ele>37.0</ele><time>2026-03-25T08:16:23.52Z</time></trkpt><trkpt lat="37.842515" lon="12.5035633"><ele>37.0</ele><time>2026-03-25T08:16:24.52Z</time></trkpt><trkpt lat="37.8426767" lon="12.50372"><ele>37.0</ele><time>2026-03-25T08:16:25.519Z</time></trkpt><trkpt lat="37.8428417" lon="12.5038767"><ele>37.0</ele><time>2026-03-25T08:16:26.523Z</time></trkpt><trkpt lat="37.843005" lon="12.504035"><ele>37.0</ele><time>2026-03-25T08:16:27.521Z</time></trkpt><trkpt lat="37.8431683" lon="12.5041967"><ele>37.0</ele><time>2026-03-25T08:16:28.521Z</time></trkpt><trkpt lat="37.8433333" lon="12.5043567"><ele>37.0</ele><time>2026-03-25T08:16:29.52Z</time></trkpt><trkpt lat="37.843495" lon="12.5045167"><ele>37.0</ele><time>2026-03-25T08:16:30.521Z</time></trkpt><trkpt lat="37.8436533" lon="12.5046733"><ele>37.66666666666667</ele><time>2026-03-25T08:16:31.519Z</time></trkpt><trkpt lat="37.84381" lon="12.5048233"><ele>38.333333333333336</ele><time>2026-03-25T08:16:32.522Z</time></trkpt><trkpt lat="37.843965" lon="12.5049717"><ele>39.0</ele><time>2026-03-25T08:16:33.52Z</time></trkpt><trkpt lat="37.8441183" lon="12.505115"><ele>39.0</ele><time>2026-03-25T08:16:34.521Z</time></trkpt><trkpt lat="37.8442633" lon="12.5052533"><ele>39.0</ele><time>2026-03-25T08:16:35.523Z</time></trkpt><trkpt lat="37.8443983" lon="12.5053867"><ele>39.0</ele><time>2026-03-25T08:16:36.52Z</time></trkpt><trkpt lat="37.8445317" lon="12.5055183"><ele>39.666666666666664</ele><time>2026-03-25T08:16:37.52Z</time></trkpt><trkpt lat="37.84467" lon="12.5056517"><ele>40.33333333333333</ele><time>2026-03-25T08:16:38.519Z</time></trkpt><trkpt lat="37.844805" lon="12.5057817"><ele>41.0</ele><time>2026-03-25T08:16:39.524Z</time></trkpt><trkpt lat="37.8449367" lon="12.5059117"><ele>41.0</ele><time>2026-03-25T08:16:40.521Z</time></trkpt><trkpt lat="37.8450717" lon="12.5060417"><ele>41.0</ele><time>2026-03-25T08:16:41.521Z</time></trkpt><trkpt lat="37.8452033" lon="12.5061733"><ele>41.0</ele><time>2026-03-25T08:16:42.522Z</time></trkpt><trkpt lat="37.845335" lon="12.5063017"><ele>40.33333333333333</ele><time>2026-03-25T08:16:43.52Z</time></trkpt><trkpt lat="37.845465" lon="12.5064317"><ele>39.666666666666664</ele><time>2026-03-25T08:16:44.519Z</time></trkpt><trkpt lat="37.8455983" lon="12.50656"><ele>39.0</ele><time>2026-03-25T08:16:45.519Z</time></trkpt><trkpt lat="37.8457317" lon="12.50669"><ele>39.0</ele><time>2026-03-25T08:16:46.52Z</time></trkpt><trkpt lat="37.8458617" lon="12.506815"><ele>39.0</ele><time>2026-03-25T08:16:47.52Z</time></trkpt><trkpt lat="37.8459833" lon="12.50694"><ele>39.0</ele><time>2026-03-25T08:16:48.523Z</time></trkpt><trkpt lat="37.8460983" lon="12.507055"><ele>39.0</ele><time>2026-03-25T08:16:49.522Z</time></trkpt><trkpt lat="37.84621" lon="12.5071667"><ele>39.0</ele><time>2026-03-25T08:16:50.518Z</time></trkpt><trkpt lat="37.8463217" lon="12.5072767"><ele>39.0</ele><time>2026-03-25T08:16:51.524Z</time></trkpt><trkpt lat="37.8464333" lon="12.5073867"><ele>39.0</ele><time>2026-03-25T08:16:52.521Z</time></trkpt><trkpt lat="37.8465433" lon="12.5074933"><ele>39.0</ele><time>2026-03-25T08:16:53.523Z</time></trkpt><trkpt lat="37.8466517" lon="12.5076"><ele>39.0</ele><time>2026-03-25T08:16:54.518Z</time></trkpt><trkpt lat="37.84676" lon="12.507705"><ele>39.0</ele><time>2026-03-25T08:16:55.52Z</time></trkpt><trkpt lat="37.8468667" lon="12.5078067"><ele>39.0</ele><time>2026-03-25T08:16:56.52Z</time></trkpt><trkpt lat="37.8469683" lon="12.507905"><ele>39.75</ele><time>2026-03-25T08:16:57.522Z</time></trkpt><trkpt lat="37.847065" lon="12.5079967"><ele>40.5</ele><time>2026-03-25T08:16:58.52Z</time></trkpt><trkpt lat="37.8471583" lon="12.5080867"><ele>41.25</ele><time>2026-03-25T08:16:59.521Z</time></trkpt><trkpt lat="37.847245" lon="12.5081733"><ele>42.0</ele><time>2026-03-25T08:17:00.521Z</time></trkpt><trkpt lat="37.84733" lon="12.5082567"><ele>42.0</ele><time>2026-03-25T08:17:01.521Z</time></trkpt><trkpt lat="37.8474167" lon="12.5083417"><ele>42.0</ele><time>2026-03-25T08:17:02.521Z</time></trkpt><trkpt lat="37.8475017" lon="12.5084283"><ele>42.0</ele><time>2026-03-25T08:17:03.52Z</time></trkpt><trkpt lat="37.847585" lon="12.5085133"><ele>42.0</ele><time>2026-03-25T08:17:04.525Z</time></trkpt><trkpt lat="37.84767" lon="12.5086017"><ele>42.0</ele><time>2026-03-25T08:17:05.521Z</time></trkpt><trkpt lat="37.84776" lon="12.5086867"><ele>41.5</ele><time>2026-03-25T08:17:06.521Z</time></trkpt><trkpt lat="37.8478583" lon="12.5087717"><ele>41.0</ele><time>2026-03-25T08:17:07.521Z</time></trkpt><trkpt lat="37.847955" lon="12.5088567"><ele>40.5</ele><time>2026-03-25T08:17:08.525Z</time></trkpt><trkpt lat="37.8480517" lon="12.5089483"><ele>40.0</ele><time>2026-03-25T08:17:09.522Z</time></trkpt><trkpt lat="37.8481433" lon="12.50904"><ele>40.0</ele><time>2026-03-25T08:17:10.521Z</time></trkpt><trkpt lat="37.8482317" lon="12.5091267"><ele>40.0</ele><time>2026-03-25T08:17:11.521Z</time></trkpt><trkpt lat="37.8483217" lon="12.5092133"><ele>40.0</ele><time>2026-03-25T08:17:12.526Z</time></trkpt><trkpt lat="37.8484133" lon="12.5093017"><ele>40.0</ele><time>2026-03-25T08:17:13.529Z</time></trkpt><trkpt lat="37.8485033" lon="12.5093867"><ele>40.0</ele><time>2026-03-25T08:17:14.52Z</time></trkpt><trkpt lat="37.8485917" lon="12.5094717"><ele>40.0</ele><time>2026-03-25T08:17:15.518Z</time></trkpt><trkpt lat="37.848675" lon="12.509555"><ele>40.0</ele><time>2026-03-25T08:17:16.52Z</time></trkpt><trkpt lat="37.8487617" lon="12.50964"><ele>40.0</ele><time>2026-03-25T08:17:17.521Z</time></trkpt><trkpt lat="37.848855" lon="12.5097233"><ele>40.0</ele><time>2026-03-25T08:17:18.52Z</time></trkpt><trkpt lat="37.8489517" lon="12.50981"><ele>40.25</ele><time>2026-03-25T08:17:19.522Z</time></trkpt><trkpt lat="37.849065" lon="12.5099083"><ele>40.5</ele><time>2026-03-25T08:17:20.519Z</time></trkpt><trkpt lat="37.8491833" lon="12.5100167"><ele>40.75</ele><time>2026-03-25T08:17:21.52Z</time></trkpt><trkpt lat="37.8493067" lon="12.5101367"><ele>41.0</ele><time>2026-03-25T08:17:22.515Z</time></trkpt><trkpt lat="37.8494317" lon="12.510265"><ele>41.33333333333333</ele><time>2026-03-25T08:17:23.517Z</time></trkpt><trkpt lat="37.8495617" lon="12.5103983"><ele>41.666666666666664</ele><time>2026-03-25T08:17:24.52Z</time></trkpt><trkpt lat="37.84969" lon="12.5105283"><ele>42.0</ele><time>2026-03-25T08:17:25.523Z</time></trkpt><trkpt lat="37.84982" lon="12.51066"><ele>42.333333333333336</ele><time>2026-03-25T08:17:26.521Z</time></trkpt><trkpt lat="37.8499467" lon="12.5107883"><ele>42.66666666666667</ele><time>2026-03-25T08:17:27.519Z</time></trkpt><trkpt lat="37.8500633" lon="12.51091"><ele>43.0</ele><time>2026-03-25T08:17:28.518Z</time></trkpt><trkpt lat="37.8501767" lon="12.5110233"><ele>43.0</ele><time>2026-03-25T08:17:29.519Z</time></trkpt><trkpt lat="37.850285" lon="12.51113"><ele>43.0</ele><time>2026-03-25T08:17:30.521Z</time></trkpt><trkpt lat="37.8503917" lon="12.5112367"><ele>43.0</ele><time>2026-03-25T08:17:31.523Z</time></trkpt><trkpt lat="37.850505" lon="12.5113467"><ele>43.0</ele><time>2026-03-25T08:17:32.531Z</time></trkpt><trkpt lat="37.85062" lon="12.51146"><ele>42.66666666666667</ele><time>2026-03-25T08:17:33.522Z</time></trkpt><trkpt lat="37.85074" lon="12.511575"><ele>42.333333333333336</ele><time>2026-03-25T08:17:34.525Z</time></trkpt><trkpt lat="37.8508617" lon="12.511695"><ele>42.0</ele><time>2026-03-25T08:17:35.525Z</time></trkpt><trkpt lat="37.85099" lon="12.5118183"><ele>42.0</ele><time>2026-03-25T08:17:36.539Z</time></trkpt><trkpt lat="37.85112" lon="12.5119483"><ele>42.0</ele><time>2026-03-25T08:17:37.523Z</time></trkpt><trkpt lat="37.8512517" lon="12.51208"><ele>42.0</ele><time>2026-03-25T08:17:38.527Z</time></trkpt><trkpt lat="37.8513883" lon="12.5122167"><ele>42.333333333333336</ele><time>2026-03-25T08:17:39.523Z</time></trkpt><trkpt lat="37.8515283" lon="12.51235"><ele>42.66666666666667</ele><time>2026-03-25T08:17:40.523Z</time></trkpt><trkpt lat="37.8516717" lon="12.5124833"><ele>43.0</ele><time>2026-03-25T08:17:41.523Z</time></trkpt><trkpt lat="37.8518183" lon="12.512615"><ele>43.0</ele><time>2026-03-25T08:17:42.523Z</time></trkpt><trkpt lat="37.8519633" lon="12.512745"><ele>43.0</ele><time>2026-03-25T08:17:43.524Z</time></trkpt><trkpt lat="37.8521067" lon="12.5128717"><ele>43.0</ele><time>2026-03-25T08:17:44.524Z</time></trkpt><trkpt lat="37.85225" lon="12.5129917"><ele>43.66666666666667</ele><time>2026-03-25T08:17:45.523Z</time></trkpt><trkpt lat="37.852395" lon="12.5131067"><ele>44.333333333333336</ele><time>2026-03-25T08:17:46.521Z</time></trkpt><trkpt lat="37.8525383" lon="12.5132167"><ele>45.0</ele><time>2026-03-25T08:17:47.526Z</time></trkpt><trkpt lat="37.8526867" lon="12.5133167"><ele>45.0</ele><time>2026-03-25T08:17:48.524Z</time></trkpt><trkpt lat="37.8528367" lon="12.5134067"><ele>45.0</ele><time>2026-03-25T08:17:49.521Z</time></trkpt><trkpt lat="37.85299" lon="12.5134883"><ele>45.0</ele><time>2026-03-25T08:17:50.523Z</time></trkpt><trkpt lat="37.8531483" lon="12.5135583"><ele>45.0</ele><time>2026-03-25T08:17:51.516Z</time></trkpt><trkpt lat="37.8533067" lon="12.5136233"><ele>45.0</ele><time>2026-03-25T08:17:52.521Z</time></trkpt><trkpt lat="37.8534683" lon="12.51368"><ele>45.0</ele><time>2026-03-25T08:17:53.525Z</time></trkpt><trkpt lat="37.85363" lon="12.51373"><ele>45.666666666666664</ele><time>2026-03-25T08:17:54.519Z</time></trkpt><trkpt lat="37.8537883" lon="12.513775"><ele>46.33333333333333</ele><time>2026-03-25T08:17:55.519Z</time></trkpt><trkpt lat="37.8539433" lon="12.5138183"><ele>47.0</ele><time>2026-03-25T08:17:56.52Z</time></trkpt><trkpt lat="37.854095" lon="12.5138583"><ele>47.0</ele><time>2026-03-25T08:17:57.52Z</time></trkpt><trkpt lat="37.8542483" lon="12.5139"><ele>47.0</ele><time>2026-03-25T08:17:58.522Z</time></trkpt><trkpt lat="37.8544017" lon="12.5139417"><ele>47.0</ele><time>2026-03-25T08:17:59.517Z</time></trkpt><trkpt lat="37.8545533" lon="12.5139867"><ele>46.666666666666664</ele><time>2026-03-25T08:18:00.518Z</time></trkpt><trkpt lat="37.8547033" lon="12.5140333"><ele>46.333333333333336</ele><time>2026-03-25T08:18:01.516Z</time></trkpt><trkpt lat="37.8548583" lon="12.5140767"><ele>46.0</ele><time>2026-03-25T08:18:02.521Z</time></trkpt><trkpt lat="37.8550133" lon="12.5141183"><ele>46.0</ele><time>2026-03-25T08:18:03.52Z</time></trkpt><trkpt lat="37.8551683" lon="12.5141633"><ele>46.0</ele><time>2026-03-25T08:18:04.521Z</time></trkpt><trkpt lat="37.8553283" lon="12.5142083"><ele>46.0</ele><time>2026-03-25T08:18:05.521Z</time></trkpt><trkpt lat="37.8554867" lon="12.51425"><ele>46.0</ele><time>2026-03-25T08:18:06.518Z</time></trkpt><trkpt lat="37.855645" lon="12.5142933"><ele>46.0</ele><time>2026-03-25T08:18:07.517Z</time></trkpt><trkpt lat="37.8558017" lon="12.5143383"><ele>46.0</ele><time>2026-03-25T08:18:08.52Z</time></trkpt><trkpt lat="37.8559583" lon="12.5143833"><ele>46.333333333333336</ele><time>2026-03-25T08:18:09.521Z</time></trkpt><trkpt lat="37.8561133" lon="12.5144267"><ele>46.666666666666664</ele><time>2026-03-25T08:18:10.519Z</time></trkpt><trkpt lat="37.8562667" lon="12.51447"><ele>47.0</ele><time>2026-03-25T08:18:11.521Z</time></trkpt><trkpt lat="37.856415" lon="12.51451"><ele>47.0</ele><time>2026-03-25T08:18:12.519Z</time></trkpt><trkpt lat="37.85656" lon="12.5145483"><ele>47.0</ele><time>2026-03-25T08:18:13.524Z</time></trkpt><trkpt lat="37.8566967" lon="12.514585"><ele>47.0</ele><time>2026-03-25T08:18:14.521Z</time></trkpt><trkpt lat="37.8568317" lon="12.5146217"><ele>47.0</ele><time>2026-03-25T08:18:15.522Z</time></trkpt><trkpt lat="37.8569733" lon="12.5146617"><ele>47.33333333333333</ele><time>2026-03-25T08:18:16.519Z</time></trkpt><trkpt lat="37.857125" lon="12.514705"><ele>47.666666666666664</ele><time>2026-03-25T08:18:17.519Z</time></trkpt><trkpt lat="37.8572867" lon="12.5147467"><ele>48.0</ele><time>2026-03-25T08:18:18.52Z</time></trkpt><trkpt lat="37.8574567" lon="12.51479"><ele>48.66666666666667</ele><time>2026-03-25T08:18:19.523Z</time></trkpt><trkpt lat="37.85764" lon="12.5148317"><ele>49.333333333333336</ele><time>2026-03-25T08:18:20.519Z</time></trkpt><trkpt lat="37.8578333" lon="12.5148833"><ele>50.0</ele><time>2026-03-25T08:18:21.52Z</time></trkpt><trkpt lat="37.8580317" lon="12.51494"><ele>50.0</ele><time>2026-03-25T08:18:22.521Z</time></trkpt><trkpt lat="37.8582283" lon="12.514995"><ele>50.0</ele><time>2026-03-25T08:18:23.518Z</time></trkpt><trkpt lat="37.8584317" lon="12.5150533"><ele>50.0</ele><time>2026-03-25T08:18:24.519Z</time></trkpt><trkpt lat="37.8586417" lon="12.5151117"><ele>49.0</ele><time>2026-03-25T08:18:25.52Z</time></trkpt><trkpt lat="37.858855" lon="12.5151683"><ele>48.0</ele><time>2026-03-25T08:18:26.518Z</time></trkpt><trkpt lat="37.859065" lon="12.5152283"><ele>47.0</ele><time>2026-03-25T08:18:27.52Z</time></trkpt><trkpt lat="37.8592783" lon="12.51529"><ele>46.666666666666664</ele><time>2026-03-25T08:18:28.518Z</time></trkpt><trkpt lat="37.85949" lon="12.5153533"><ele>46.333333333333336</ele><time>2026-03-25T08:18:29.52Z</time></trkpt><trkpt lat="37.8597033" lon="12.51542"><ele>46.0</ele><time>2026-03-25T08:18:30.518Z</time></trkpt><trkpt lat="37.85992" lon="12.5154867"><ele>46.66666666666667</ele><time>2026-03-25T08:18:31.517Z</time></trkpt><trkpt lat="37.8601367" lon="12.5155517"><ele>47.333333333333336</ele><time>2026-03-25T08:18:32.522Z</time></trkpt><trkpt lat="37.860355" lon="12.5156133"><ele>48.0</ele><time>2026-03-25T08:18:33.527Z</time></trkpt><trkpt lat="37.8605733" lon="12.5156767"><ele>48.0</ele><time>2026-03-25T08:18:34.52Z</time></trkpt><trkpt lat="37.8607917" lon="12.5157333"><ele>48.0</ele><time>2026-03-25T08:18:35.52Z</time></trkpt><trkpt lat="37.8610083" lon="12.5157933"><ele>48.0</ele><time>2026-03-25T08:18:36.524Z</time></trkpt><trkpt lat="37.86122" lon="12.51585"><ele>47.333333333333336</ele><time>2026-03-25T08:18:37.523Z</time></trkpt><trkpt lat="37.8614283" lon="12.5159067"><ele>46.66666666666667</ele><time>2026-03-25T08:18:38.523Z</time></trkpt><trkpt lat="37.8616367" lon="12.5159633"><ele>46.0</ele><time>2026-03-25T08:18:39.521Z</time></trkpt><trkpt lat="37.8618433" lon="12.51602"><ele>45.66666666666667</ele><time>2026-03-25T08:18:40.522Z</time></trkpt><trkpt lat="37.86205" lon="12.5160733"><ele>45.333333333333336</ele><time>2026-03-25T08:18:41.523Z</time></trkpt><trkpt lat="37.8622617" lon="12.5161283"><ele>45.0</ele><time>2026-03-25T08:18:42.52Z</time></trkpt><trkpt lat="37.8624733" lon="12.5161833"><ele>46.33333333333333</ele><time>2026-03-25T08:18:43.52Z</time></trkpt><trkpt lat="37.8626867" lon="12.51624"><ele>47.666666666666664</ele><time>2026-03-25T08:18:44.519Z</time></trkpt><trkpt lat="37.8629" lon="12.5162967"><ele>49.0</ele><time>2026-03-25T08:18:45.519Z</time></trkpt><trkpt lat="37.86311" lon="12.5163533"><ele>49.0</ele><time>2026-03-25T08:18:46.521Z</time></trkpt><trkpt lat="37.8633067" lon="12.5164067"><ele>49.0</ele><time>2026-03-25T08:18:47.522Z</time></trkpt><trkpt lat="37.863495" lon="12.51646"><ele>49.0</ele><time>2026-03-25T08:18:48.519Z</time></trkpt><trkpt lat="37.86368" lon="12.5165117"><ele>48.666666666666664</ele><time>2026-03-25T08:18:49.519Z</time></trkpt><trkpt lat="37.8638617" lon="12.5165583"><ele>48.33333333333333</ele><time>2026-03-25T08:18:50.52Z</time></trkpt><trkpt lat="37.86404" lon="12.5166033"><ele>48.0</ele><time>2026-03-25T08:18:51.518Z</time></trkpt><trkpt lat="37.86422" lon="12.5166517"><ele>47.666666666666664</ele><time>2026-03-25T08:18:52.521Z</time></trkpt><trkpt lat="37.8644033" lon="12.5167017"><ele>47.33333333333333</ele><time>2026-03-25T08:18:53.522Z</time></trkpt><trkpt lat="37.8645917" lon="12.5167533"><ele>47.0</ele><time>2026-03-25T08:18:54.52Z</time></trkpt><trkpt lat="37.8647817" lon="12.5168033"><ele>47.0</ele><time>2026-03-25T08:18:55.518Z</time></trkpt><trkpt lat="37.8649783" lon="12.5168517"><ele>47.0</ele><time>2026-03-25T08:18:56.52Z</time></trkpt><trkpt lat="37.8651817" lon="12.5169017"><ele>47.0</ele><time>2026-03-25T08:18:57.521Z</time></trkpt><trkpt lat="37.8653883" lon="12.5169533"><ele>47.0</ele><time>2026-03-25T08:18:58.523Z</time></trkpt><trkpt lat="37.8656" lon="12.5170117"><ele>47.0</ele><time>2026-03-25T08:18:59.524Z</time></trkpt><trkpt lat="37.865815" lon="12.5170717"><ele>47.0</ele><time>2026-03-25T08:19:00.52Z</time></trkpt><trkpt lat="37.8660317" lon="12.5171317"><ele>47.0</ele><time>2026-03-25T08:19:01.523Z</time></trkpt><trkpt lat="37.8662517" lon="12.5171933"><ele>47.0</ele><time>2026-03-25T08:19:02.524Z</time></trkpt><trkpt lat="37.8664717" lon="12.5172533"><ele>47.0</ele><time>2026-03-25T08:19:03.52Z</time></trkpt><trkpt lat="37.8666933" lon="12.5173117"><ele>47.0</ele><time>2026-03-25T08:19:04.525Z</time></trkpt><trkpt lat="37.8669167" lon="12.51737"><ele>46.5</ele><time>2026-03-25T08:19:05.518Z</time></trkpt><trkpt lat="37.86714" lon="12.51743"><ele>46.0</ele><time>2026-03-25T08:19:06.52Z</time></trkpt><trkpt lat="37.8673633" lon="12.5174967"><ele>46.0</ele><time>2026-03-25T08:19:07.521Z</time></trkpt><trkpt lat="37.8675883" lon="12.51757"><ele>46.0</ele><time>2026-03-25T08:19:08.521Z</time></trkpt><trkpt lat="37.8678117" lon="12.5176483"><ele>46.0</ele><time>2026-03-25T08:19:09.52Z</time></trkpt><trkpt lat="37.8680333" lon="12.5177267"><ele>46.0</ele><time>2026-03-25T08:19:10.519Z</time></trkpt><trkpt lat="37.8682567" lon="12.5178083"><ele>46.5</ele><time>2026-03-25T08:19:11.52Z</time></trkpt><trkpt lat="37.8684817" lon="12.5178867"><ele>47.0</ele><time>2026-03-25T08:19:12.519Z</time></trkpt><trkpt lat="37.8687033" lon="12.517965"><ele>47.0</ele><time>2026-03-25T08:19:13.519Z</time></trkpt><trkpt lat="37.868925" lon="12.5180417"><ele>47.0</ele><time>2026-03-25T08:19:14.521Z</time></trkpt><trkpt lat="37.8691433" lon="12.5181183"><ele>46.0</ele><time>2026-03-25T08:19:15.519Z</time></trkpt><trkpt lat="37.8693617" lon="12.5181967"><ele>45.0</ele><time>2026-03-25T08:19:16.516Z</time></trkpt><trkpt lat="37.8695817" lon="12.5182717"><ele>45.0</ele><time>2026-03-25T08:19:17.521Z</time></trkpt><trkpt lat="37.8697983" lon="12.5183483"><ele>45.0</ele><time>2026-03-25T08:19:18.523Z</time></trkpt><trkpt lat="37.870015" lon="12.5184267"><ele>45.0</ele><time>2026-03-25T08:19:19.523Z</time></trkpt><trkpt lat="37.8702317" lon="12.5185033"><ele>45.0</ele><time>2026-03-25T08:19:20.527Z</time></trkpt><trkpt lat="37.8704483" lon="12.51858"><ele>45.0</ele><time>2026-03-25T08:19:21.522Z</time></trkpt><trkpt lat="37.8706667" lon="12.5186567"><ele>45.0</ele><time>2026-03-25T08:19:22.521Z</time></trkpt><trkpt lat="37.8708833" lon="12.5187333"><ele>45.0</ele><time>2026-03-25T08:19:23.523Z</time></trkpt><trkpt lat="37.8710983" lon="12.5188083"><ele>45.0</ele><time>2026-03-25T08:19:24.521Z</time></trkpt><trkpt lat="37.8713117" lon="12.51889"><ele>45.0</ele><time>2026-03-25T08:19:25.519Z</time></trkpt><trkpt lat="37.871525" lon="12.5189767"><ele>45.0</ele><time>2026-03-25T08:19:26.525Z</time></trkpt><trkpt lat="37.8717333" lon="12.5190717"><ele>45.0</ele><time>2026-03-25T08:19:27.518Z</time></trkpt><trkpt lat="37.8719383" lon="12.5191767"><ele>45.0</ele><time>2026-03-25T08:19:28.521Z</time></trkpt><trkpt lat="37.8721383" lon="12.5192883"><ele>45.333333333333336</ele><time>2026-03-25T08:19:29.518Z</time></trkpt><trkpt lat="37.8723383" lon="12.519405"><ele>45.66666666666667</ele><time>2026-03-25T08:19:30.52Z</time></trkpt><trkpt lat="37.8725333" lon="12.5195217"><ele>46.0</ele><time>2026-03-25T08:19:31.519Z</time></trkpt><trkpt lat="37.8727283" lon="12.5196433"><ele>46.66666666666667</ele><time>2026-03-25T08:19:32.52Z</time></trkpt><trkpt lat="37.8729233" lon="12.519765"><ele>47.333333333333336</ele><time>2026-03-25T08:19:33.525Z</time></trkpt><trkpt lat="37.873115" lon="12.5198917"><ele>48.0</ele><time>2026-03-25T08:19:34.523Z</time></trkpt><trkpt lat="37.873305" lon="12.5200183"><ele>48.0</ele><time>2026-03-25T08:19:35.522Z</time></trkpt><trkpt lat="37.8734967" lon="12.5201433"><ele>48.0</ele><time>2026-03-25T08:19:36.522Z</time></trkpt><trkpt lat="37.8736883" lon="12.5202733"><ele>48.0</ele><time>2026-03-25T08:19:37.521Z</time></trkpt><trkpt lat="37.8738767" lon="12.5204033"><ele>48.0</ele><time>2026-03-25T08:19:38.52Z</time></trkpt><trkpt lat="37.8740617" lon="12.5205417"><ele>48.0</ele><time>2026-03-25T08:19:39.523Z</time></trkpt><trkpt lat="37.8742433" lon="12.5206917"><ele>48.0</ele><time>2026-03-25T08:19:40.521Z</time></trkpt><trkpt lat="37.8744183" lon="12.5208583"><ele>45.333333333333336</ele><time>2026-03-25T08:19:41.521Z</time></trkpt><trkpt lat="37.8745833" lon="12.5210367"><ele>42.66666666666667</ele><time>2026-03-25T08:19:42.522Z</time></trkpt><trkpt lat="37.8747433" lon="12.5212183"><ele>40.0</ele><time>2026-03-25T08:19:43.52Z</time></trkpt><trkpt lat="37.8748983" lon="12.5214"><ele>39.66666666666667</ele><time>2026-03-25T08:19:44.526Z</time></trkpt><trkpt lat="37.8750517" lon="12.5215767"><ele>39.333333333333336</ele><time>2026-03-25T08:19:45.521Z</time></trkpt><trkpt lat="37.8752067" lon="12.521745"><ele>39.0</ele><time>2026-03-25T08:19:46.522Z</time></trkpt><trkpt lat="37.8753667" lon="12.5218933"><ele>38.666666666666664</ele><time>2026-03-25T08:19:47.522Z</time></trkpt><trkpt lat="37.875535" lon="12.5220067"><ele>38.33333333333333</ele><time>2026-03-25T08:19:48.521Z</time></trkpt><trkpt lat="37.875715" lon="12.5220967"><ele>38.0</ele><time>2026-03-25T08:19:49.522Z</time></trkpt><trkpt lat="37.8759083" lon="12.5221617"><ele>40.33333333333333</ele><time>2026-03-25T08:19:50.521Z</time></trkpt><trkpt lat="37.8761067" lon="12.5222017"><ele>42.666666666666664</ele><time>2026-03-25T08:19:51.521Z</time></trkpt><trkpt lat="37.87631" lon="12.52223"><ele>45.0</ele><time>2026-03-25T08:19:52.52Z</time></trkpt><trkpt lat="37.8765017" lon="12.5222567"><ele>45.0</ele><time>2026-03-25T08:19:53.519Z</time></trkpt><trkpt lat="37.8766817" lon="12.5222833"><ele>45.0</ele><time>2026-03-25T08:19:54.519Z</time></trkpt><trkpt lat="37.8768483" lon="12.522305"><ele>45.0</ele><time>2026-03-25T08:19:55.521Z</time></trkpt><trkpt lat="37.8770133" lon="12.52232"><ele>46.0</ele><time>2026-03-25T08:19:56.523Z</time></trkpt><trkpt lat="37.8771883" lon="12.522335"><ele>47.0</ele><time>2026-03-25T08:19:57.524Z</time></trkpt><trkpt lat="37.8773717" lon="12.5223517"><ele>48.0</ele><time>2026-03-25T08:19:58.522Z</time></trkpt><trkpt lat="37.8775567" lon="12.5223683"><ele>48.0</ele><time>2026-03-25T08:19:59.52Z</time></trkpt><trkpt lat="37.8777283" lon="12.522385"><ele>48.0</ele><time>2026-03-25T08:20:00.523Z</time></trkpt><trkpt lat="37.8778917" lon="12.5224033"><ele>48.0</ele><time>2026-03-25T08:20:01.518Z</time></trkpt><trkpt lat="37.878055" lon="12.52242"><ele>48.0</ele><time>2026-03-25T08:20:02.525Z</time></trkpt><trkpt lat="37.878215" lon="12.522435"><ele>48.0</ele><time>2026-03-25T08:20:03.522Z</time></trkpt><trkpt lat="37.8783683" lon="12.52245"><ele>48.0</ele><time>2026-03-25T08:20:04.525Z</time></trkpt><trkpt lat="37.8785167" lon="12.5224683"><ele>46.75</ele><time>2026-03-25T08:20:05.525Z</time></trkpt><trkpt lat="37.878655" lon="12.52249"><ele>45.5</ele><time>2026-03-25T08:20:06.537Z</time></trkpt><trkpt lat="37.8787783" lon="12.5225217"><ele>44.25</ele><time>2026-03-25T08:20:07.525Z</time></trkpt><trkpt lat="37.878895" lon="12.5225667"><ele>43.0</ele><time>2026-03-25T08:20:08.521Z</time></trkpt><trkpt lat="37.87901" lon="12.5226283"><ele>43.0</ele><time>2026-03-25T08:20:09.528Z</time></trkpt><trkpt lat="37.87912" lon="12.522705"><ele>43.0</ele><time>2026-03-25T08:20:10.522Z</time></trkpt><trkpt lat="37.8792283" lon="12.52279"><ele>43.0</ele><time>2026-03-25T08:20:11.524Z</time></trkpt><trkpt lat="37.8793383" lon="12.52288"><ele>43.0</ele><time>2026-03-25T08:20:12.522Z</time></trkpt><trkpt lat="37.8794517" lon="12.5229733"><ele>41.75</ele><time>2026-03-25T08:20:13.523Z</time></trkpt><trkpt lat="37.87957" lon="12.5230683"><ele>40.5</ele><time>2026-03-25T08:20:14.523Z</time></trkpt><trkpt lat="37.8796917" lon="12.5231667"><ele>39.25</ele><time>2026-03-25T08:20:15.523Z</time></trkpt><trkpt lat="37.8798133" lon="12.5232667"><ele>38.0</ele><time>2026-03-25T08:20:16.522Z</time></trkpt><trkpt lat="37.87994" lon="12.5233683"><ele>38.0</ele><time>2026-03-25T08:20:17.521Z</time></trkpt><trkpt lat="37.8800667" lon="12.5234733"><ele>38.0</ele><time>2026-03-25T08:20:18.523Z</time></trkpt><trkpt lat="37.880195" lon="12.5235767"><ele>38.0</ele><time>2026-03-25T08:20:19.523Z</time></trkpt><trkpt lat="37.8803217" lon="12.52368"><ele>37.33333333333333</ele><time>2026-03-25T08:20:20.521Z</time></trkpt><trkpt lat="37.88045" lon="12.5237817"><ele>36.666666666666664</ele><time>2026-03-25T08:20:21.52Z</time></trkpt><trkpt lat="37.8805767" lon="12.5238833"><ele>36.0</ele><time>2026-03-25T08:20:22.523Z</time></trkpt><trkpt lat="37.8807017" lon="12.523985"><ele>36.0</ele><time>2026-03-25T08:20:23.518Z</time></trkpt><trkpt lat="37.8808283" lon="12.5240917"><ele>36.0</ele><time>2026-03-25T08:20:24.528Z</time></trkpt><trkpt lat="37.8809583" lon="12.5241967"><ele>36.0</ele><time>2026-03-25T08:20:25.521Z</time></trkpt><trkpt lat="37.8810883" lon="12.5243"><ele>31.666666666666668</ele><time>2026-03-25T08:20:26.524Z</time></trkpt><trkpt lat="37.881215" lon="12.524405"><ele>27.333333333333336</ele><time>2026-03-25T08:20:27.529Z</time></trkpt><trkpt lat="37.881345" lon="12.524515"><ele>23.0</ele><time>2026-03-25T08:20:28.523Z</time></trkpt><trkpt lat="37.8814733" lon="12.5246217"><ele>23.0</ele><time>2026-03-25T08:20:29.523Z</time></trkpt><trkpt lat="37.8815983" lon="12.5247217"><ele>23.0</ele><time>2026-03-25T08:20:30.52Z</time></trkpt><trkpt lat="37.8817167" lon="12.52482"><ele>23.0</ele><time>2026-03-25T08:20:31.519Z</time></trkpt><trkpt lat="37.8818367" lon="12.5249167"><ele>23.0</ele><time>2026-03-25T08:20:32.525Z</time></trkpt><trkpt lat="37.8819633" lon="12.5250083"><ele>22.25</ele><time>2026-03-25T08:20:33.521Z</time></trkpt><trkpt lat="37.8820967" lon="12.5250933"><ele>21.5</ele><time>2026-03-25T08:20:34.52Z</time></trkpt><trkpt lat="37.8822333" lon="12.5251667"><ele>20.75</ele><time>2026-03-25T08:20:35.521Z</time></trkpt><trkpt lat="37.8823733" lon="12.5252267"><ele>20.0</ele><time>2026-03-25T08:20:36.522Z</time></trkpt><trkpt lat="37.8825183" lon="12.5252733"><ele>19.666666666666668</ele><time>2026-03-25T08:20:37.52Z</time></trkpt><trkpt lat="37.882665" lon="12.5253083"><ele>19.333333333333332</ele><time>2026-03-25T08:20:38.519Z</time></trkpt><trkpt lat="37.8828133" lon="12.5253383"><ele>19.0</ele><time>2026-03-25T08:20:39.522Z</time></trkpt><trkpt lat="37.8829617" lon="12.5253667"><ele>19.0</ele><time>2026-03-25T08:20:40.522Z</time></trkpt><trkpt lat="37.8831133" lon="12.5253933"><ele>19.0</ele><time>2026-03-25T08:20:41.522Z</time></trkpt><trkpt lat="37.8832633" lon="12.5254233"><ele>19.0</ele><time>2026-03-25T08:20:42.523Z</time></trkpt><trkpt lat="37.8834133" lon="12.52545"><ele>19.333333333333332</ele><time>2026-03-25T08:20:43.521Z</time></trkpt><trkpt lat="37.8835617" lon="12.525475"><ele>19.666666666666668</ele><time>2026-03-25T08:20:44.523Z</time></trkpt><trkpt lat="37.88371" lon="12.5255"><ele>20.0</ele><time>2026-03-25T08:20:45.52Z</time></trkpt><trkpt lat="37.8838633" lon="12.5255217"><ele>20.0</ele><time>2026-03-25T08:20:46.52Z</time></trkpt><trkpt lat="37.8840167" lon="12.5255433"><ele>20.0</ele><time>2026-03-25T08:20:47.52Z</time></trkpt><trkpt lat="37.8841717" lon="12.5255667"><ele>20.0</ele><time>2026-03-25T08:20:48.519Z</time></trkpt><trkpt lat="37.8843267" lon="12.5255883"><ele>21.666666666666668</ele><time>2026-03-25T08:20:49.521Z</time></trkpt><trkpt lat="37.88448" lon="12.52561"><ele>23.333333333333336</ele><time>2026-03-25T08:20:50.522Z</time></trkpt><trkpt lat="37.8846333" lon="12.5256317"><ele>25.0</ele><time>2026-03-25T08:20:51.521Z</time></trkpt><trkpt lat="37.884775" lon="12.5256517"><ele>25.0</ele><time>2026-03-25T08:20:52.522Z</time></trkpt><trkpt lat="37.8849017" lon="12.5256733"><ele>25.0</ele><time>2026-03-25T08:20:53.521Z</time></trkpt><trkpt lat="37.8850167" lon="12.5256917"><ele>25.0</ele><time>2026-03-25T08:20:54.522Z</time></trkpt><trkpt lat="37.8851183" lon="12.52571"><ele>25.0</ele><time>2026-03-25T08:20:55.523Z</time></trkpt><trkpt lat="37.885205" lon="12.52574"><ele>25.0</ele><time>2026-03-25T08:20:56.525Z</time></trkpt><trkpt lat="37.88528" lon="12.5257967"><ele>26.6</ele><time>2026-03-25T08:20:57.522Z</time></trkpt><trkpt lat="37.8853467" lon="12.5258783"><ele>28.2</ele><time>2026-03-25T08:20:58.521Z</time></trkpt><trkpt lat="37.8854" lon="12.5259833"><ele>29.799999999999997</ele><time>2026-03-25T08:20:59.525Z</time></trkpt><trkpt lat="37.8854383" lon="12.5261067"><ele>31.4</ele><time>2026-03-25T08:21:00.524Z</time></trkpt><trkpt lat="37.8854533" lon="12.5262417"><ele>33.0</ele><time>2026-03-25T08:21:01.523Z</time></trkpt><trkpt lat="37.8854533" lon="12.52639"><ele>34.0</ele><time>2026-03-25T08:21:02.52Z</time></trkpt><trkpt lat="37.88544" lon="12.526555"><ele>35.0</ele><time>2026-03-25T08:21:03.519Z</time></trkpt><trkpt lat="37.8853767" lon="12.5268633"><ele>36.0</ele><time>2026-03-25T08:21:05.52Z</time></trkpt><trkpt lat="37.8853083" lon="12.527"><ele>35.0</ele><time>2026-03-25T08:21:06.524Z</time></trkpt><trkpt lat="37.88521" lon="12.5271217"><ele>34.0</ele><time>2026-03-25T08:21:07.523Z</time></trkpt><trkpt lat="37.885095" lon="12.5272283"><ele>33.0</ele><time>2026-03-25T08:21:08.522Z</time></trkpt><trkpt lat="37.8849617" lon="12.527325"><ele>32.0</ele><time>2026-03-25T08:21:09.524Z</time></trkpt><trkpt lat="37.8848083" lon="12.5274317"><ele>32.0</ele><time>2026-03-25T08:21:10.521Z</time></trkpt><trkpt lat="37.88465" lon="12.527545"><ele>32.0</ele><time>2026-03-25T08:21:11.519Z</time></trkpt><trkpt lat="37.8845017" lon="12.5276567"><ele>32.0</ele><time>2026-03-25T08:21:12.52Z</time></trkpt><trkpt lat="37.88436" lon="12.52776"><ele>30.6</ele><time>2026-03-25T08:21:13.521Z</time></trkpt><trkpt lat="37.8842367" lon="12.5278483"><ele>29.200000000000003</ele><time>2026-03-25T08:21:14.523Z</time></trkpt><trkpt lat="37.8841317" lon="12.5279183"><ele>27.8</ele><time>2026-03-25T08:21:15.52Z</time></trkpt><trkpt lat="37.8840583" lon="12.52798"><ele>26.4</ele><time>2026-03-25T08:21:16.521Z</time></trkpt><trkpt lat="37.88399" lon="12.5280583"><ele>25.0</ele><time>2026-03-25T08:21:17.531Z</time></trkpt><trkpt lat="37.8839367" lon="12.5281633"><ele>25.0</ele><time>2026-03-25T08:21:18.52Z</time></trkpt><trkpt lat="37.8839033" lon="12.5283"><ele>25.0</ele><time>2026-03-25T08:21:19.521Z</time></trkpt><trkpt lat="37.8838933" lon="12.5284683"><ele>25.0</ele><time>2026-03-25T08:21:20.522Z</time></trkpt><trkpt lat="37.8838967" lon="12.5286567"><ele>25.0</ele><time>2026-03-25T08:21:21.524Z</time></trkpt><trkpt lat="37.8839" lon="12.5288533"><ele>26.0</ele><time>2026-03-25T08:21:22.521Z</time></trkpt><trkpt lat="37.88391" lon="12.529055"><ele>27.0</ele><time>2026-03-25T08:21:23.523Z</time></trkpt><trkpt lat="37.88392" lon="12.5292633"><ele>28.0</ele><time>2026-03-25T08:21:24.523Z</time></trkpt><trkpt lat="37.883935" lon="12.5294833"><ele>29.333333333333336</ele><time>2026-03-25T08:21:25.52Z</time></trkpt><trkpt lat="37.8839483" lon="12.529715"><ele>30.666666666666664</ele><time>2026-03-25T08:21:26.523Z</time></trkpt><trkpt lat="37.88396" lon="12.5299483"><ele>32.0</ele><time>2026-03-25T08:21:27.523Z</time></trkpt><trkpt lat="37.8839717" lon="12.5301817"><ele>31.333333333333332</ele><time>2026-03-25T08:21:28.523Z</time></trkpt><trkpt lat="37.8839867" lon="12.530415"><ele>30.666666666666664</ele><time>2026-03-25T08:21:29.525Z</time></trkpt><trkpt lat="37.884" lon="12.5306517"><ele>30.0</ele><time>2026-03-25T08:21:30.523Z</time></trkpt><trkpt lat="37.8840183" lon="12.5308883"><ele>30.0</ele><time>2026-03-25T08:21:31.52Z</time></trkpt><trkpt lat="37.8840467" lon="12.5311183"><ele>30.0</ele><time>2026-03-25T08:21:32.527Z</time></trkpt><trkpt lat="37.88409" lon="12.5313433"><ele>30.0</ele><time>2026-03-25T08:21:33.522Z</time></trkpt><trkpt lat="37.884145" lon="12.531565"><ele>29.333333333333336</ele><time>2026-03-25T08:21:34.523Z</time></trkpt><trkpt lat="37.8842" lon="12.5317867"><ele>28.666666666666668</ele><time>2026-03-25T08:21:35.527Z</time></trkpt><trkpt lat="37.884255" lon="12.5319983"><ele>28.0</ele><time>2026-03-25T08:21:36.523Z</time></trkpt><trkpt lat="37.884305" lon="12.5321983"><ele>29.5</ele><time>2026-03-25T08:21:37.524Z</time></trkpt><trkpt lat="37.8843467" lon="12.5323883"><ele>31.0</ele><time>2026-03-25T08:21:38.521Z</time></trkpt><trkpt lat="37.884375" lon="12.5325683"><ele>32.5</ele><time>2026-03-25T08:21:39.522Z</time></trkpt><trkpt lat="37.8843817" lon="12.5327483"><ele>34.0</ele><time>2026-03-25T08:21:40.522Z</time></trkpt><trkpt lat="37.884365" lon="12.532935"><ele>32.0</ele><time>2026-03-25T08:21:41.524Z</time></trkpt><trkpt lat="37.8843217" lon="12.5331267"><ele>30.0</ele><time>2026-03-25T08:21:42.52Z</time></trkpt><trkpt lat="37.884265" lon="12.533325"><ele>28.0</ele><time>2026-03-25T08:21:43.519Z</time></trkpt><trkpt lat="37.8842017" lon="12.5335267"><ele>30.0</ele><time>2026-03-25T08:21:44.522Z</time></trkpt><trkpt lat="37.8841367" lon="12.5337317"><ele>32.0</ele><time>2026-03-25T08:21:45.519Z</time></trkpt><trkpt lat="37.884075" lon="12.5339383"><ele>34.0</ele><time>2026-03-25T08:21:46.518Z</time></trkpt><trkpt lat="37.884015" lon="12.5341467"><ele>34.0</ele><time>2026-03-25T08:21:47.521Z</time></trkpt><trkpt lat="37.8839517" lon="12.5343483"><ele>34.0</ele><time>2026-03-25T08:21:48.522Z</time></trkpt><trkpt lat="37.88389" lon="12.5345533"><ele>34.0</ele><time>2026-03-25T08:21:49.519Z</time></trkpt><trkpt lat="37.8838283" lon="12.5347583"><ele>34.66666666666667</ele><time>2026-03-25T08:21:50.523Z</time></trkpt><trkpt lat="37.8837667" lon="12.534965"><ele>35.333333333333336</ele><time>2026-03-25T08:21:51.525Z</time></trkpt><trkpt lat="37.8837033" lon="12.535175"><ele>36.0</ele><time>2026-03-25T08:21:52.523Z</time></trkpt><trkpt lat="37.8836367" lon="12.535385"><ele>37.333333333333336</ele><time>2026-03-25T08:21:53.525Z</time></trkpt><trkpt lat="37.8835717" lon="12.5356017"><ele>38.66666666666667</ele><time>2026-03-25T08:21:54.522Z</time></trkpt><trkpt lat="37.8835133" lon="12.5358283"><ele>40.0</ele><time>2026-03-25T08:21:55.517Z</time></trkpt><trkpt lat="37.8834617" lon="12.53606"><ele>36.0</ele><time>2026-03-25T08:21:56.52Z</time></trkpt><trkpt lat="37.8834183" lon="12.5363"><ele>32.0</ele><time>2026-03-25T08:21:57.523Z</time></trkpt><trkpt lat="37.883375" lon="12.5365433"><ele>28.0</ele><time>2026-03-25T08:21:58.521Z</time></trkpt><trkpt lat="37.8833333" lon="12.53679"><ele>28.0</ele><time>2026-03-25T08:21:59.523Z</time></trkpt><trkpt lat="37.8832917" lon="12.5370433"><ele>28.0</ele><time>2026-03-25T08:22:00.522Z</time></trkpt><trkpt lat="37.88325" lon="12.537295"><ele>28.0</ele><time>2026-03-25T08:22:01.519Z</time></trkpt><trkpt lat="37.8832083" lon="12.5375483"><ele>27.666666666666668</ele><time>2026-03-25T08:22:02.522Z</time></trkpt><trkpt lat="37.883165" lon="12.5378033"><ele>27.333333333333336</ele><time>2026-03-25T08:22:03.524Z</time></trkpt><trkpt lat="37.88312" lon="12.53806"><ele>27.0</ele><time>2026-03-25T08:22:04.523Z</time></trkpt><trkpt lat="37.8830767" lon="12.5383167"><ele>28.666666666666664</ele><time>2026-03-25T08:22:05.521Z</time></trkpt><trkpt lat="37.8830317" lon="12.538575"><ele>30.333333333333332</ele><time>2026-03-25T08:22:06.523Z</time></trkpt><trkpt lat="37.8829867" lon="12.538835"><ele>32.0</ele><time>2026-03-25T08:22:07.519Z</time></trkpt><trkpt lat="37.8828967" lon="12.5393583"><ele>36.33333333333333</ele><time>2026-03-25T08:22:09.525Z</time></trkpt><trkpt lat="37.8828533" lon="12.5396217"><ele>40.666666666666664</ele><time>2026-03-25T08:22:10.522Z</time></trkpt><trkpt lat="37.8828083" lon="12.5398867"><ele>45.0</ele><time>2026-03-25T08:22:11.522Z</time></trkpt><trkpt lat="37.8827667" lon="12.5401517"><ele>45.0</ele><time>2026-03-25T08:22:12.522Z</time></trkpt><trkpt lat="37.882725" lon="12.5404117"><ele>45.0</ele><time>2026-03-25T08:22:13.522Z</time></trkpt><trkpt lat="37.882685" lon="12.540665"><ele>45.0</ele><time>2026-03-25T08:22:14.519Z</time></trkpt><trkpt lat="37.8826467" lon="12.540915"><ele>45.0</ele><time>2026-03-25T08:22:15.524Z</time></trkpt><trkpt lat="37.8826133" lon="12.5411633"><ele>45.0</ele><time>2026-03-25T08:22:16.519Z</time></trkpt><trkpt lat="37.8825933" lon="12.5414133"><ele>45.0</ele><time>2026-03-25T08:22:17.523Z</time></trkpt><trkpt lat="37.8825867" lon="12.5416667"><ele>42.0</ele><time>2026-03-25T08:22:18.522Z</time></trkpt><trkpt lat="37.8825883" lon="12.5419217"><ele>39.0</ele><time>2026-03-25T08:22:19.517Z</time></trkpt><trkpt lat="37.8825967" lon="12.5421767"><ele>36.0</ele><time>2026-03-25T08:22:20.523Z</time></trkpt><trkpt lat="37.8826067" lon="12.5424317"><ele>36.0</ele><time>2026-03-25T08:22:21.521Z</time></trkpt><trkpt lat="37.88262" lon="12.54269"><ele>36.0</ele><time>2026-03-25T08:22:22.519Z</time></trkpt><trkpt lat="37.8826317" lon="12.54295"><ele>36.0</ele><time>2026-03-25T08:22:23.522Z</time></trkpt><trkpt lat="37.882645" lon="12.5432083"><ele>36.333333333333336</ele><time>2026-03-25T08:22:24.524Z</time></trkpt><trkpt lat="37.8826583" lon="12.5434667"><ele>36.66666666666667</ele><time>2026-03-25T08:22:25.522Z</time></trkpt><trkpt lat="37.8826717" lon="12.5437267"><ele>37.0</ele><time>2026-03-25T08:22:26.521Z</time></trkpt><trkpt lat="37.8826833" lon="12.5439883"><ele>37.0</ele><time>2026-03-25T08:22:27.524Z</time></trkpt><trkpt lat="37.882695" lon="12.5442483"><ele>37.0</ele><time>2026-03-25T08:22:28.52Z</time></trkpt><trkpt lat="37.8827067" lon="12.5445067"><ele>37.0</ele><time>2026-03-25T08:22:29.522Z</time></trkpt><trkpt lat="37.8827183" lon="12.544765"><ele>37.0</ele><time>2026-03-25T08:22:30.52Z</time></trkpt><trkpt lat="37.8827317" lon="12.5450183"><ele>37.0</ele><time>2026-03-25T08:22:31.52Z</time></trkpt><trkpt lat="37.8827417" lon="12.545265"><ele>37.0</ele><time>2026-03-25T08:22:32.521Z</time></trkpt><trkpt lat="37.88275" lon="12.5454967"><ele>36.66666666666667</ele><time>2026-03-25T08:22:33.525Z</time></trkpt><trkpt lat="37.8827533" lon="12.54572"><ele>36.333333333333336</ele><time>2026-03-25T08:22:34.522Z</time></trkpt><trkpt lat="37.8827417" lon="12.5459383"><ele>36.0</ele><time>2026-03-25T08:22:35.522Z</time></trkpt><trkpt lat="37.882705" lon="12.5461483"><ele>36.333333333333336</ele><time>2026-03-25T08:22:36.522Z</time></trkpt><trkpt lat="37.882645" lon="12.5463633"><ele>36.66666666666667</ele><time>2026-03-25T08:22:37.522Z</time></trkpt><trkpt lat="37.8825683" lon="12.54658"><ele>37.0</ele><time>2026-03-25T08:22:38.52Z</time></trkpt><trkpt lat="37.8824883" lon="12.5468033"><ele>35.0</ele><time>2026-03-25T08:22:39.521Z</time></trkpt><trkpt lat="37.8824017" lon="12.5470317"><ele>33.0</ele><time>2026-03-25T08:22:40.521Z</time></trkpt><trkpt lat="37.8823167" lon="12.5472617"><ele>31.0</ele><time>2026-03-25T08:22:41.527Z</time></trkpt><trkpt lat="37.88223" lon="12.5474933"><ele>31.0</ele><time>2026-03-25T08:22:42.523Z</time></trkpt><trkpt lat="37.8821383" lon="12.5477267"><ele>31.0</ele><time>2026-03-25T08:22:43.521Z</time></trkpt><trkpt lat="37.88205" lon="12.5479617"><ele>31.0</ele><time>2026-03-25T08:22:44.522Z</time></trkpt><trkpt lat="37.8819583" lon="12.5482"><ele>31.0</ele><time>2026-03-25T08:22:45.522Z</time></trkpt><trkpt lat="37.881865" lon="12.54844"><ele>31.0</ele><time>2026-03-25T08:22:46.523Z</time></trkpt><trkpt lat="37.8817733" lon="12.5486783"><ele>31.0</ele><time>2026-03-25T08:22:47.526Z</time></trkpt><trkpt lat="37.8816833" lon="12.5489167"><ele>29.333333333333336</ele><time>2026-03-25T08:22:48.523Z</time></trkpt><trkpt lat="37.88159" lon="12.5491567"><ele>27.666666666666664</ele><time>2026-03-25T08:22:49.525Z</time></trkpt><trkpt lat="37.8814983" lon="12.549395"><ele>26.0</ele><time>2026-03-25T08:22:50.525Z</time></trkpt><trkpt lat="37.8814083" lon="12.549635"><ele>26.0</ele><time>2026-03-25T08:22:51.519Z</time></trkpt><trkpt lat="37.8813183" lon="12.5498733"><ele>26.0</ele><time>2026-03-25T08:22:52.52Z</time></trkpt><trkpt lat="37.88123" lon="12.5501117"><ele>26.0</ele><time>2026-03-25T08:22:53.524Z</time></trkpt><trkpt lat="37.8811383" lon="12.5503483"><ele>26.0</ele><time>2026-03-25T08:22:54.524Z</time></trkpt><trkpt lat="37.8810483" lon="12.5505833"><ele>26.0</ele><time>2026-03-25T08:22:55.522Z</time></trkpt><trkpt lat="37.8809583" lon="12.5508217"><ele>26.0</ele><time>2026-03-25T08:22:56.52Z</time></trkpt><trkpt lat="37.88087" lon="12.5510583"><ele>25.666666666666664</ele><time>2026-03-25T08:22:57.525Z</time></trkpt><trkpt lat="37.8807817" lon="12.551295"><ele>25.333333333333336</ele><time>2026-03-25T08:22:58.527Z</time></trkpt><trkpt lat="37.8806933" lon="12.5515333"><ele>25.0</ele><time>2026-03-25T08:22:59.521Z</time></trkpt><trkpt lat="37.880605" lon="12.55177"><ele>25.0</ele><time>2026-03-25T08:23:00.518Z</time></trkpt><trkpt lat="37.8805167" lon="12.5520083"><ele>25.0</ele><time>2026-03-25T08:23:01.522Z</time></trkpt><trkpt lat="37.8804267" lon="12.552245"><ele>25.0</ele><time>2026-03-25T08:23:02.522Z</time></trkpt><trkpt lat="37.8803383" lon="12.5524833"><ele>25.0</ele><time>2026-03-25T08:23:03.517Z</time></trkpt><trkpt lat="37.88025" lon="12.55272"><ele>25.0</ele><time>2026-03-25T08:23:04.52Z</time></trkpt><trkpt lat="37.8801617" lon="12.552955"><ele>25.0</ele><time>2026-03-25T08:23:05.52Z</time></trkpt><trkpt lat="37.880075" lon="12.5531917"><ele>25.0</ele><time>2026-03-25T08:23:06.52Z</time></trkpt><trkpt lat="37.87999" lon="12.553425"><ele>25.0</ele><time>2026-03-25T08:23:07.52Z</time></trkpt><trkpt lat="37.8799017" lon="12.5536583"><ele>25.0</ele><time>2026-03-25T08:23:08.524Z</time></trkpt><trkpt lat="37.8798133" lon="12.55389"><ele>25.333333333333336</ele><time>2026-03-25T08:23:09.526Z</time></trkpt><trkpt lat="37.879725" lon="12.5541217"><ele>25.666666666666664</ele><time>2026-03-25T08:23:10.524Z</time></trkpt><trkpt lat="37.87964" lon="12.5543533"><ele>26.0</ele><time>2026-03-25T08:23:11.523Z</time></trkpt><trkpt lat="37.879555" lon="12.5545833"><ele>26.0</ele><time>2026-03-25T08:23:12.524Z</time></trkpt><trkpt lat="37.8794683" lon="12.55481"><ele>26.0</ele><time>2026-03-25T08:23:13.525Z</time></trkpt><trkpt lat="37.8793783" lon="12.55504"><ele>26.0</ele><time>2026-03-25T08:23:14.527Z</time></trkpt><trkpt lat="37.87929" lon="12.55527"><ele>26.0</ele><time>2026-03-25T08:23:15.518Z</time></trkpt><trkpt lat="37.8792" lon="12.5555"><ele>26.0</ele><time>2026-03-25T08:23:16.522Z</time></trkpt><trkpt lat="37.8791117" lon="12.55573"><ele>26.0</ele><time>2026-03-25T08:23:17.522Z</time></trkpt><trkpt lat="37.8790233" lon="12.5559583"><ele>26.0</ele><time>2026-03-25T08:23:18.523Z</time></trkpt><trkpt lat="37.8789367" lon="12.5561867"><ele>26.0</ele><time>2026-03-25T08:23:19.522Z</time></trkpt><trkpt lat="37.8788517" lon="12.5564167"><ele>26.0</ele><time>2026-03-25T08:23:20.519Z</time></trkpt><trkpt lat="37.878765" lon="12.5566467"><ele>26.333333333333332</ele><time>2026-03-25T08:23:21.522Z</time></trkpt><trkpt lat="37.8786783" lon="12.5568767"><ele>26.666666666666664</ele><time>2026-03-25T08:23:22.522Z</time></trkpt><trkpt lat="37.87859" lon="12.5571067"><ele>27.0</ele><time>2026-03-25T08:23:23.519Z</time></trkpt><trkpt lat="37.8785017" lon="12.5573383"><ele>27.0</ele><time>2026-03-25T08:23:24.522Z</time></trkpt><trkpt lat="37.878415" lon="12.5575667"><ele>27.0</ele><time>2026-03-25T08:23:25.519Z</time></trkpt><trkpt lat="37.87833" lon="12.5577883"><ele>27.0</ele><time>2026-03-25T08:23:26.523Z</time></trkpt><trkpt lat="37.8782483" lon="12.5580033"><ele>27.333333333333336</ele><time>2026-03-25T08:23:27.52Z</time></trkpt><trkpt lat="37.8781717" lon="12.5582067"><ele>27.666666666666668</ele><time>2026-03-25T08:23:28.52Z</time></trkpt><trkpt lat="37.8780983" lon="12.558395"><ele>28.0</ele><time>2026-03-25T08:23:29.518Z</time></trkpt><trkpt lat="37.8780333" lon="12.55857"><ele>29.5</ele><time>2026-03-25T08:23:30.522Z</time></trkpt><trkpt lat="37.8779717" lon="12.5587333"><ele>31.0</ele><time>2026-03-25T08:23:31.52Z</time></trkpt><trkpt lat="37.8779117" lon="12.5588917"><ele>32.5</ele><time>2026-03-25T08:23:32.519Z</time></trkpt><trkpt lat="37.8778517" lon="12.5590567"><ele>34.0</ele><time>2026-03-25T08:23:33.523Z</time></trkpt><trkpt lat="37.8777867" lon="12.5592317"><ele>34.0</ele><time>2026-03-25T08:23:34.524Z</time></trkpt><trkpt lat="37.87772" lon="12.5594183"><ele>34.0</ele><time>2026-03-25T08:23:35.519Z</time></trkpt><trkpt lat="37.8776467" lon="12.55961"><ele>34.0</ele><time>2026-03-25T08:23:36.523Z</time></trkpt><trkpt lat="37.8775733" lon="12.5598067"><ele>33.66666666666667</ele><time>2026-03-25T08:23:37.522Z</time></trkpt><trkpt lat="37.8774983" lon="12.5600083"><ele>33.333333333333336</ele><time>2026-03-25T08:23:38.519Z</time></trkpt><trkpt lat="37.87742" lon="12.56022"><ele>33.0</ele><time>2026-03-25T08:23:39.518Z</time></trkpt><trkpt lat="37.877335" lon="12.560435"><ele>33.0</ele><time>2026-03-25T08:23:40.524Z</time></trkpt><trkpt lat="37.87725" lon="12.5606533"><ele>33.0</ele><time>2026-03-25T08:23:41.522Z</time></trkpt><trkpt lat="37.8771667" lon="12.560875"><ele>33.0</ele><time>2026-03-25T08:23:42.523Z</time></trkpt><trkpt lat="37.8770833" lon="12.5610983"><ele>33.666666666666664</ele><time>2026-03-25T08:23:43.522Z</time></trkpt><trkpt lat="37.877" lon="12.5613233"><ele>34.33333333333333</ele><time>2026-03-25T08:23:44.523Z</time></trkpt><trkpt lat="37.876915" lon="12.56155"><ele>35.0</ele><time>2026-03-25T08:23:45.523Z</time></trkpt><trkpt lat="37.8768333" lon="12.5617833"><ele>35.0</ele><time>2026-03-25T08:23:46.519Z</time></trkpt><trkpt lat="37.8767483" lon="12.5620167"><ele>35.0</ele><time>2026-03-25T08:23:47.523Z</time></trkpt><trkpt lat="37.8766583" lon="12.5622467"><ele>35.0</ele><time>2026-03-25T08:23:48.52Z</time></trkpt><trkpt lat="37.8765717" lon="12.56247"><ele>35.33333333333333</ele><time>2026-03-25T08:23:49.525Z</time></trkpt><trkpt lat="37.87649" lon="12.5626817"><ele>35.666666666666664</ele><time>2026-03-25T08:23:50.52Z</time></trkpt><trkpt lat="37.8764117" lon="12.562885"><ele>36.0</ele><time>2026-03-25T08:23:51.522Z</time></trkpt><trkpt lat="37.8763333" lon="12.5630883"><ele>36.666666666666664</ele><time>2026-03-25T08:23:52.519Z</time></trkpt><trkpt lat="37.8762583" lon="12.5632917"><ele>37.33333333333333</ele><time>2026-03-25T08:23:53.52Z</time></trkpt><trkpt lat="37.8761817" lon="12.5634967"><ele>38.0</ele><time>2026-03-25T08:23:54.522Z</time></trkpt><trkpt lat="37.8761033" lon="12.5637"><ele>38.0</ele><time>2026-03-25T08:23:55.518Z</time></trkpt><trkpt lat="37.876025" lon="12.5639067"><ele>38.0</ele><time>2026-03-25T08:23:56.524Z</time></trkpt><trkpt lat="37.8759467" lon="12.5641183"><ele>38.0</ele><time>2026-03-25T08:23:57.523Z</time></trkpt><trkpt lat="37.8758667" lon="12.5643333"><ele>37.0</ele><time>2026-03-25T08:23:58.523Z</time></trkpt><trkpt lat="37.8757833" lon="12.56455"><ele>36.0</ele><time>2026-03-25T08:23:59.52Z</time></trkpt><trkpt lat="37.8757" lon="12.5647717"><ele>35.0</ele><time>2026-03-25T08:24:00.518Z</time></trkpt><trkpt lat="37.875615" lon="12.5649967"><ele>35.0</ele><time>2026-03-25T08:24:01.521Z</time></trkpt><trkpt lat="37.8755317" lon="12.5652233"><ele>35.0</ele><time>2026-03-25T08:24:02.524Z</time></trkpt><trkpt lat="37.8754483" lon="12.5654517"><ele>35.0</ele><time>2026-03-25T08:24:03.525Z</time></trkpt><trkpt lat="37.875365" lon="12.56568"><ele>35.666666666666664</ele><time>2026-03-25T08:24:04.523Z</time></trkpt><trkpt lat="37.87528" lon="12.5659067"><ele>36.333333333333336</ele><time>2026-03-25T08:24:05.523Z</time></trkpt><trkpt lat="37.875195" lon="12.5661317"><ele>37.0</ele><time>2026-03-25T08:24:06.522Z</time></trkpt><trkpt lat="37.8751083" lon="12.5663567"><ele>37.0</ele><time>2026-03-25T08:24:07.524Z</time></trkpt><trkpt lat="37.875025" lon="12.5665817"><ele>37.0</ele><time>2026-03-25T08:24:08.526Z</time></trkpt><trkpt lat="37.87494" lon="12.566805"><ele>37.0</ele><time>2026-03-25T08:24:09.526Z</time></trkpt><trkpt lat="37.8748567" lon="12.5670317"><ele>37.66666666666667</ele><time>2026-03-25T08:24:10.524Z</time></trkpt><trkpt lat="37.8747733" lon="12.56726"><ele>38.333333333333336</ele><time>2026-03-25T08:24:11.526Z</time></trkpt><trkpt lat="37.8746883" lon="12.5674867"><ele>39.0</ele><time>2026-03-25T08:24:12.527Z</time></trkpt><trkpt lat="37.874605" lon="12.567715"><ele>39.0</ele><time>2026-03-25T08:24:13.522Z</time></trkpt><trkpt lat="37.8745183" lon="12.56794"><ele>39.0</ele><time>2026-03-25T08:24:14.526Z</time></trkpt><trkpt lat="37.8744333" lon="12.5681667"><ele>39.0</ele><time>2026-03-25T08:24:15.522Z</time></trkpt><trkpt lat="37.8743467" lon="12.5683933"><ele>38.0</ele><time>2026-03-25T08:24:16.524Z</time></trkpt><trkpt lat="37.87426" lon="12.56862"><ele>37.0</ele><time>2026-03-25T08:24:17.521Z</time></trkpt><trkpt lat="37.8740867" lon="12.56908"><ele>36.66666666666667</ele><time>2026-03-25T08:24:19.522Z</time></trkpt><trkpt lat="37.8739983" lon="12.5693133"><ele>36.333333333333336</ele><time>2026-03-25T08:24:20.526Z</time></trkpt><trkpt lat="37.8739117" lon="12.56955"><ele>36.0</ele><time>2026-03-25T08:24:21.52Z</time></trkpt><trkpt lat="37.8738267" lon="12.569785"><ele>37.333333333333336</ele><time>2026-03-25T08:24:22.52Z</time></trkpt><trkpt lat="37.8737383" lon="12.57002"><ele>38.66666666666667</ele><time>2026-03-25T08:24:23.521Z</time></trkpt><trkpt lat="37.87365" lon="12.5702583"><ele>40.0</ele><time>2026-03-25T08:24:24.524Z</time></trkpt><trkpt lat="37.873565" lon="12.5704983"><ele>40.66666666666667</ele><time>2026-03-25T08:24:25.52Z</time></trkpt><trkpt lat="37.873475" lon="12.5707367"><ele>41.333333333333336</ele><time>2026-03-25T08:24:26.525Z</time></trkpt><trkpt lat="37.8733817" lon="12.5709733"><ele>42.0</ele><time>2026-03-25T08:24:27.523Z</time></trkpt><trkpt lat="37.87329" lon="12.57121"><ele>42.666666666666664</ele><time>2026-03-25T08:24:28.52Z</time></trkpt><trkpt lat="37.873195" lon="12.57145"><ele>43.33333333333333</ele><time>2026-03-25T08:24:29.525Z</time></trkpt><trkpt lat="37.8731033" lon="12.5716933"><ele>44.0</ele><time>2026-03-25T08:24:30.522Z</time></trkpt><trkpt lat="37.8730117" lon="12.57194"><ele>44.33333333333333</ele><time>2026-03-25T08:24:31.526Z</time></trkpt><trkpt lat="37.87292" lon="12.5721867"><ele>44.666666666666664</ele><time>2026-03-25T08:24:32.52Z</time></trkpt><trkpt lat="37.8728267" lon="12.5724333"><ele>45.0</ele><time>2026-03-25T08:24:33.522Z</time></trkpt><trkpt lat="37.8727317" lon="12.57268"><ele>44.333333333333336</ele><time>2026-03-25T08:24:34.522Z</time></trkpt><trkpt lat="37.8726367" lon="12.57293"><ele>43.66666666666667</ele><time>2026-03-25T08:24:35.525Z</time></trkpt><trkpt lat="37.87254" lon="12.5731817"><ele>43.0</ele><time>2026-03-25T08:24:36.523Z</time></trkpt><trkpt lat="37.8724433" lon="12.5734367"><ele>43.333333333333336</ele><time>2026-03-25T08:24:37.529Z</time></trkpt><trkpt lat="37.8723467" lon="12.5736917"><ele>43.666666666666664</ele><time>2026-03-25T08:24:38.523Z</time></trkpt><trkpt lat="37.8722467" lon="12.573945"><ele>44.0</ele><time>2026-03-25T08:24:39.526Z</time></trkpt><trkpt lat="37.87215" lon="12.5741983"><ele>44.0</ele><time>2026-03-25T08:24:40.522Z</time></trkpt><trkpt lat="37.8720583" lon="12.5744483"><ele>44.0</ele><time>2026-03-25T08:24:41.522Z</time></trkpt><trkpt lat="37.8719733" lon="12.5746817"><ele>44.0</ele><time>2026-03-25T08:24:42.522Z</time></trkpt><trkpt lat="37.8718917" lon="12.5749"><ele>44.0</ele><time>2026-03-25T08:24:43.521Z</time></trkpt><trkpt lat="37.8718167" lon="12.5751033"><ele>44.0</ele><time>2026-03-25T08:24:44.521Z</time></trkpt><trkpt lat="37.87175" lon="12.57529"><ele>44.0</ele><time>2026-03-25T08:24:45.523Z</time></trkpt><trkpt lat="37.8716867" lon="12.5754533"><ele>44.25</ele><time>2026-03-25T08:24:46.519Z</time></trkpt><trkpt lat="37.87163" lon="12.5756017"><ele>44.5</ele><time>2026-03-25T08:24:47.522Z</time></trkpt><trkpt lat="37.8715817" lon="12.57574"><ele>44.75</ele><time>2026-03-25T08:24:48.522Z</time></trkpt><trkpt lat="37.871545" lon="12.5758733"><ele>45.0</ele><time>2026-03-25T08:24:49.522Z</time></trkpt><trkpt lat="37.87153" lon="12.5760017"><ele>45.0</ele><time>2026-03-25T08:24:50.522Z</time></trkpt><trkpt lat="37.8715433" lon="12.57613"><ele>45.0</ele><time>2026-03-25T08:24:51.518Z</time></trkpt><trkpt lat="37.8715767" lon="12.5762617"><ele>45.0</ele><time>2026-03-25T08:24:52.523Z</time></trkpt><trkpt lat="37.8716333" lon="12.5764017"><ele>45.0</ele><time>2026-03-25T08:24:53.519Z</time></trkpt><trkpt lat="37.871705" lon="12.5765583"><ele>45.333333333333336</ele><time>2026-03-25T08:24:54.522Z</time></trkpt><trkpt lat="37.8717783" lon="12.57673"><ele>45.66666666666667</ele><time>2026-03-25T08:24:55.52Z</time></trkpt><trkpt lat="37.871845" lon="12.5769167"><ele>46.0</ele><time>2026-03-25T08:24:56.519Z</time></trkpt><trkpt lat="37.8719033" lon="12.5771217"><ele>46.0</ele><time>2026-03-25T08:24:57.518Z</time></trkpt><trkpt lat="37.8719567" lon="12.57734"><ele>46.0</ele><time>2026-03-25T08:24:58.518Z</time></trkpt><trkpt lat="37.872005" lon="12.5775683"><ele>46.0</ele><time>2026-03-25T08:24:59.522Z</time></trkpt><trkpt lat="37.87205" lon="12.57781"><ele>46.333333333333336</ele><time>2026-03-25T08:25:00.522Z</time></trkpt><trkpt lat="37.8720967" lon="12.578055"><ele>46.666666666666664</ele><time>2026-03-25T08:25:01.52Z</time></trkpt><trkpt lat="37.872145" lon="12.5783"><ele>47.0</ele><time>2026-03-25T08:25:02.523Z</time></trkpt><trkpt lat="37.872195" lon="12.5785467"><ele>47.0</ele><time>2026-03-25T08:25:03.516Z</time></trkpt><trkpt lat="37.872245" lon="12.5787967"><ele>47.0</ele><time>2026-03-25T08:25:04.52Z</time></trkpt><trkpt lat="37.8722967" lon="12.5790433"><ele>47.0</ele><time>2026-03-25T08:25:05.521Z</time></trkpt><trkpt lat="37.8723517" lon="12.5792933"><ele>47.666666666666664</ele><time>2026-03-25T08:25:06.522Z</time></trkpt><trkpt lat="37.872405" lon="12.5795433"><ele>48.33333333333333</ele><time>2026-03-25T08:25:07.524Z</time></trkpt><trkpt lat="37.8724567" lon="12.579795"><ele>49.0</ele><time>2026-03-25T08:25:08.523Z</time></trkpt><trkpt lat="37.8725083" lon="12.580045"><ele>49.0</ele><time>2026-03-25T08:25:09.519Z</time></trkpt><trkpt lat="37.8725567" lon="12.580295"><ele>49.0</ele><time>2026-03-25T08:25:10.523Z</time></trkpt><trkpt lat="37.8726067" lon="12.5805467"><ele>49.0</ele><time>2026-03-25T08:25:11.522Z</time></trkpt><trkpt lat="37.872655" lon="12.5807967"><ele>48.666666666666664</ele><time>2026-03-25T08:25:12.525Z</time></trkpt><trkpt lat="37.8727017" lon="12.58104"><ele>48.33333333333333</ele><time>2026-03-25T08:25:13.52Z</time></trkpt><trkpt lat="37.87275" lon="12.581275"><ele>48.0</ele><time>2026-03-25T08:25:14.52Z</time></trkpt><trkpt lat="37.8728083" lon="12.581505"><ele>48.0</ele><time>2026-03-25T08:25:15.52Z</time></trkpt><trkpt lat="37.8728767" lon="12.5817333"><ele>48.0</ele><time>2026-03-25T08:25:16.517Z</time></trkpt><trkpt lat="37.8729483" lon="12.581965"><ele>48.0</ele><time>2026-03-25T08:25:17.525Z</time></trkpt><trkpt lat="37.8730267" lon="12.5821967"><ele>48.0</ele><time>2026-03-25T08:25:18.523Z</time></trkpt><trkpt lat="37.873105" lon="12.5824333"><ele>48.0</ele><time>2026-03-25T08:25:19.524Z</time></trkpt><trkpt lat="37.8731867" lon="12.5826733"><ele>48.0</ele><time>2026-03-25T08:25:20.521Z</time></trkpt><trkpt lat="37.873265" lon="12.582915"><ele>48.0</ele><time>2026-03-25T08:25:21.522Z</time></trkpt><trkpt lat="37.873345" lon="12.5831583"><ele>48.0</ele><time>2026-03-25T08:25:22.521Z</time></trkpt><trkpt lat="37.873425" lon="12.5833983"><ele>48.0</ele><time>2026-03-25T08:25:23.522Z</time></trkpt><trkpt lat="37.8735" lon="12.58362"><ele>48.33333333333333</ele><time>2026-03-25T08:25:24.523Z</time></trkpt><trkpt lat="37.8735667" lon="12.5838167"><ele>48.666666666666664</ele><time>2026-03-25T08:25:25.525Z</time></trkpt><trkpt lat="37.87363" lon="12.5839833"><ele>49.0</ele><time>2026-03-25T08:25:26.528Z</time></trkpt><trkpt lat="37.873705" lon="12.584125"><ele>49.0</ele><time>2026-03-25T08:25:27.524Z</time></trkpt><trkpt lat="37.8737983" lon="12.5842483"><ele>49.0</ele><time>2026-03-25T08:25:28.526Z</time></trkpt><trkpt lat="37.873915" lon="12.584345"><ele>49.0</ele><time>2026-03-25T08:25:29.527Z</time></trkpt><trkpt lat="37.8740533" lon="12.58442"><ele>49.0</ele><time>2026-03-25T08:25:30.523Z</time></trkpt><trkpt lat="37.8742067" lon="12.5844783"><ele>49.666666666666664</ele><time>2026-03-25T08:25:31.525Z</time></trkpt><trkpt lat="37.8743733" lon="12.584535"><ele>50.33333333333333</ele><time>2026-03-25T08:25:32.526Z</time></trkpt><trkpt lat="37.874545" lon="12.5845983"><ele>51.0</ele><time>2026-03-25T08:25:33.522Z</time></trkpt><trkpt lat="37.8747183" lon="12.5846833"><ele>51.0</ele><time>2026-03-25T08:25:34.526Z</time></trkpt><trkpt lat="37.8748833" lon="12.584805"><ele>51.0</ele><time>2026-03-25T08:25:35.525Z</time></trkpt><trkpt lat="37.8750417" lon="12.5849617"><ele>51.0</ele><time>2026-03-25T08:25:36.521Z</time></trkpt><trkpt lat="37.875195" lon="12.5851433"><ele>51.0</ele><time>2026-03-25T08:25:37.521Z</time></trkpt><trkpt lat="37.875345" lon="12.58533"><ele>51.0</ele><time>2026-03-25T08:25:38.524Z</time></trkpt><trkpt lat="37.875495" lon="12.5855167"><ele>51.0</ele><time>2026-03-25T08:25:39.524Z</time></trkpt><trkpt lat="37.8756517" lon="12.585705"><ele>51.33333333333333</ele><time>2026-03-25T08:25:40.525Z</time></trkpt><trkpt lat="37.8758067" lon="12.5858933"><ele>51.666666666666664</ele><time>2026-03-25T08:25:41.523Z</time></trkpt><trkpt lat="37.87596" lon="12.5860833"><ele>52.0</ele><time>2026-03-25T08:25:42.524Z</time></trkpt><trkpt lat="37.8761133" lon="12.586275"><ele>52.33333333333333</ele><time>2026-03-25T08:25:43.524Z</time></trkpt><trkpt lat="37.8762667" lon="12.5864683"><ele>52.66666666666667</ele><time>2026-03-25T08:25:44.522Z</time></trkpt><trkpt lat="37.8764267" lon="12.58666"><ele>53.0</ele><time>2026-03-25T08:25:45.519Z</time></trkpt><trkpt lat="37.87659" lon="12.5868483"><ele>53.66666666666667</ele><time>2026-03-25T08:25:46.522Z</time></trkpt><trkpt lat="37.8767617" lon="12.5870267"><ele>54.33333333333333</ele><time>2026-03-25T08:25:47.525Z</time></trkpt><trkpt lat="37.8769367" lon="12.5871983"><ele>55.0</ele><time>2026-03-25T08:25:48.524Z</time></trkpt><trkpt lat="37.8771133" lon="12.587365"><ele>55.0</ele><time>2026-03-25T08:25:49.519Z</time></trkpt><trkpt lat="37.8772883" lon="12.5875317"><ele>55.0</ele><time>2026-03-25T08:25:50.522Z</time></trkpt><trkpt lat="37.8774583" lon="12.5877017"><ele>55.0</ele><time>2026-03-25T08:25:51.522Z</time></trkpt><trkpt lat="37.8776233" lon="12.5878783"><ele>55.0</ele><time>2026-03-25T08:25:52.522Z</time></trkpt><trkpt lat="37.8777817" lon="12.5880617"><ele>55.0</ele><time>2026-03-25T08:25:53.522Z</time></trkpt><trkpt lat="37.877935" lon="12.588255"><ele>55.0</ele><time>2026-03-25T08:25:54.521Z</time></trkpt><trkpt lat="37.8780867" lon="12.5884517"><ele>55.0</ele><time>2026-03-25T08:25:55.521Z</time></trkpt><trkpt lat="37.8782383" lon="12.5886483"><ele>55.0</ele><time>2026-03-25T08:25:56.518Z</time></trkpt><trkpt lat="37.8783867" lon="12.58884"><ele>55.0</ele><time>2026-03-25T08:25:57.526Z</time></trkpt><trkpt lat="37.8785267" lon="12.5890233"><ele>55.0</ele><time>2026-03-25T08:25:58.523Z</time></trkpt><trkpt lat="37.878655" lon="12.5891983"><ele>55.0</ele><time>2026-03-25T08:25:59.523Z</time></trkpt><trkpt lat="37.87878" lon="12.5893783"><ele>55.0</ele><time>2026-03-25T08:26:00.523Z</time></trkpt><trkpt lat="37.8788983" lon="12.5895717"><ele>54.33333333333333</ele><time>2026-03-25T08:26:01.521Z</time></trkpt><trkpt lat="37.87901" lon="12.5897767"><ele>53.66666666666667</ele><time>2026-03-25T08:26:02.525Z</time></trkpt><trkpt lat="37.87912" lon="12.589995"><ele>53.0</ele><time>2026-03-25T08:26:03.522Z</time></trkpt><trkpt lat="37.8792267" lon="12.5902217"><ele>54.66666666666667</ele><time>2026-03-25T08:26:04.518Z</time></trkpt><trkpt lat="37.8793333" lon="12.59045"><ele>56.33333333333333</ele><time>2026-03-25T08:26:05.522Z</time></trkpt><trkpt lat="37.8794367" lon="12.5906667"><ele>58.0</ele><time>2026-03-25T08:26:06.523Z</time></trkpt><trkpt lat="37.8795383" lon="12.5908633"><ele>58.0</ele><time>2026-03-25T08:26:07.523Z</time></trkpt><trkpt lat="37.8796583" lon="12.591045"><ele>58.0</ele><time>2026-03-25T08:26:08.522Z</time></trkpt><trkpt lat="37.8798017" lon="12.5912167"><ele>58.0</ele><time>2026-03-25T08:26:09.523Z</time></trkpt><trkpt lat="37.8799633" lon="12.5913833"><ele>58.33333333333333</ele><time>2026-03-25T08:26:10.521Z</time></trkpt><trkpt lat="37.8801333" lon="12.591545"><ele>58.66666666666667</ele><time>2026-03-25T08:26:11.522Z</time></trkpt><trkpt lat="37.88031" lon="12.5917067"><ele>59.0</ele><time>2026-03-25T08:26:12.522Z</time></trkpt><trkpt lat="37.8804867" lon="12.5918733"><ele>59.0</ele><time>2026-03-25T08:26:13.523Z</time></trkpt><trkpt lat="37.8806667" lon="12.59204"><ele>59.0</ele><time>2026-03-25T08:26:14.524Z</time></trkpt><trkpt lat="37.8808483" lon="12.5922083"><ele>59.0</ele><time>2026-03-25T08:26:15.518Z</time></trkpt><trkpt lat="37.8810333" lon="12.5923767"><ele>59.0</ele><time>2026-03-25T08:26:16.517Z</time></trkpt><trkpt lat="37.88122" lon="12.5925467"><ele>59.0</ele><time>2026-03-25T08:26:17.518Z</time></trkpt><trkpt lat="37.881405" lon="12.59272"><ele>59.5</ele><time>2026-03-25T08:26:18.522Z</time></trkpt><trkpt lat="37.88159" lon="12.592895"><ele>60.0</ele><time>2026-03-25T08:26:19.523Z</time></trkpt><trkpt lat="37.8817767" lon="12.59307"><ele>60.5</ele><time>2026-03-25T08:26:20.519Z</time></trkpt><trkpt lat="37.8819617" lon="12.5932417"><ele>61.0</ele><time>2026-03-25T08:26:21.517Z</time></trkpt><trkpt lat="37.8821483" lon="12.5934133"><ele>61.0</ele><time>2026-03-25T08:26:22.521Z</time></trkpt><trkpt lat="37.8823333" lon="12.5935867"><ele>61.0</ele><time>2026-03-25T08:26:23.522Z</time></trkpt><trkpt lat="37.8825183" lon="12.59376"><ele>61.5</ele><time>2026-03-25T08:26:24.52Z</time></trkpt><trkpt lat="37.882705" lon="12.5939333"><ele>62.0</ele><time>2026-03-25T08:26:25.522Z</time></trkpt><trkpt lat="37.8828917" lon="12.594105"><ele>62.0</ele><time>2026-03-25T08:26:26.527Z</time></trkpt><trkpt lat="37.8832567" lon="12.5944483"><ele>63.0</ele><time>2026-03-25T08:26:28.52Z</time></trkpt><trkpt lat="37.8834383" lon="12.59462"><ele>64.0</ele><time>2026-03-25T08:26:29.523Z</time></trkpt><trkpt lat="37.8836183" lon="12.5947933"><ele>64.0</ele><time>2026-03-25T08:26:30.521Z</time></trkpt><trkpt lat="37.8837917" lon="12.59497"><ele>64.0</ele><time>2026-03-25T08:26:31.521Z</time></trkpt><trkpt lat="37.8839617" lon="12.5951533"><ele>64.0</ele><time>2026-03-25T08:26:32.522Z</time></trkpt><trkpt lat="37.8841267" lon="12.595345"><ele>64.66666666666666</ele><time>2026-03-25T08:26:33.522Z</time></trkpt><trkpt lat="37.8842883" lon="12.59554"><ele>65.33333333333333</ele><time>2026-03-25T08:26:34.52Z</time></trkpt><trkpt lat="37.8844467" lon="12.5957383"><ele>66.0</ele><time>2026-03-25T08:26:35.52Z</time></trkpt><trkpt lat="37.884605" lon="12.5959367"><ele>66.0</ele><time>2026-03-25T08:26:36.521Z</time></trkpt><trkpt lat="37.8847667" lon="12.5961333"><ele>66.0</ele><time>2026-03-25T08:26:37.521Z</time></trkpt><trkpt lat="37.8849283" lon="12.5963267"><ele>66.0</ele><time>2026-03-25T08:26:38.518Z</time></trkpt><trkpt lat="37.8850883" lon="12.5965217"><ele>66.0</ele><time>2026-03-25T08:26:39.523Z</time></trkpt><trkpt lat="37.8852517" lon="12.5967167"><ele>66.0</ele><time>2026-03-25T08:26:40.52Z</time></trkpt><trkpt lat="37.8854133" lon="12.5969117"><ele>66.0</ele><time>2026-03-25T08:26:41.522Z</time></trkpt><trkpt lat="37.885575" lon="12.5971067"><ele>66.0</ele><time>2026-03-25T08:26:42.522Z</time></trkpt><trkpt lat="37.8857333" lon="12.5973"><ele>66.0</ele><time>2026-03-25T08:26:43.52Z</time></trkpt><trkpt lat="37.8858917" lon="12.597495"><ele>66.0</ele><time>2026-03-25T08:26:44.526Z</time></trkpt><trkpt lat="37.8860533" lon="12.5976883"><ele>66.66666666666667</ele><time>2026-03-25T08:26:45.523Z</time></trkpt><trkpt lat="37.886215" lon="12.59788"><ele>67.33333333333334</ele><time>2026-03-25T08:26:46.519Z</time></trkpt><trkpt lat="37.8863783" lon="12.59807"><ele>68.0</ele><time>2026-03-25T08:26:47.521Z</time></trkpt><trkpt lat="37.88654" lon="12.5982583"><ele>68.0</ele><time>2026-03-25T08:26:48.523Z</time></trkpt><trkpt lat="37.8867033" lon="12.5984433"><ele>68.0</ele><time>2026-03-25T08:26:49.52Z</time></trkpt><trkpt lat="37.886865" lon="12.5986283"><ele>68.0</ele><time>2026-03-25T08:26:50.522Z</time></trkpt><trkpt lat="37.8870267" lon="12.598815"><ele>68.66666666666667</ele><time>2026-03-25T08:26:51.522Z</time></trkpt><trkpt lat="37.8871883" lon="12.599"><ele>69.33333333333333</ele><time>2026-03-25T08:26:52.525Z</time></trkpt><trkpt lat="37.8873467" lon="12.599185"><ele>70.0</ele><time>2026-03-25T08:26:53.526Z</time></trkpt><trkpt lat="37.8875067" lon="12.59937"><ele>70.66666666666666</ele><time>2026-03-25T08:26:54.523Z</time></trkpt><trkpt lat="37.8876617" lon="12.5995583"><ele>71.33333333333333</ele><time>2026-03-25T08:26:55.524Z</time></trkpt><trkpt lat="37.8878083" lon="12.5997483"><ele>72.0</ele><time>2026-03-25T08:26:56.523Z</time></trkpt><trkpt lat="37.8879433" lon="12.5999333"><ele>72.0</ele><time>2026-03-25T08:26:57.522Z</time></trkpt><trkpt lat="37.888065" lon="12.6001133"><ele>72.0</ele><time>2026-03-25T08:26:58.524Z</time></trkpt><trkpt lat="37.888175" lon="12.6002867"><ele>72.0</ele><time>2026-03-25T08:26:59.525Z</time></trkpt><trkpt lat="37.888285" lon="12.6004617"><ele>72.0</ele><time>2026-03-25T08:27:00.519Z</time></trkpt><trkpt lat="37.8884017" lon="12.6006383"><ele>72.0</ele><time>2026-03-25T08:27:01.523Z</time></trkpt><trkpt lat="37.8885233" lon="12.60082"><ele>72.0</ele><time>2026-03-25T08:27:02.522Z</time></trkpt><trkpt lat="37.8886483" lon="12.6010083"><ele>72.66666666666667</ele><time>2026-03-25T08:27:03.523Z</time></trkpt><trkpt lat="37.888775" lon="12.6011983"><ele>73.33333333333334</ele><time>2026-03-25T08:27:04.524Z</time></trkpt><trkpt lat="37.8889017" lon="12.6013933"><ele>74.0</ele><time>2026-03-25T08:27:05.523Z</time></trkpt><trkpt lat="37.8890283" lon="12.6015917"><ele>74.0</ele><time>2026-03-25T08:27:06.524Z</time></trkpt><trkpt lat="37.889155" lon="12.6017983"><ele>74.0</ele><time>2026-03-25T08:27:07.528Z</time></trkpt><trkpt lat="37.8892817" lon="12.6020117"><ele>74.0</ele><time>2026-03-25T08:27:08.522Z</time></trkpt><trkpt lat="37.88941" lon="12.6022283"><ele>74.0</ele><time>2026-03-25T08:27:09.522Z</time></trkpt><trkpt lat="37.8895417" lon="12.6024483"><ele>74.0</ele><time>2026-03-25T08:27:10.524Z</time></trkpt><trkpt lat="37.8896767" lon="12.60267"><ele>74.0</ele><time>2026-03-25T08:27:11.52Z</time></trkpt><trkpt lat="37.88981" lon="12.60289"><ele>74.0</ele><time>2026-03-25T08:27:12.522Z</time></trkpt><trkpt lat="37.8899433" lon="12.6031067"><ele>74.0</ele><time>2026-03-25T08:27:13.523Z</time></trkpt><trkpt lat="37.8900833" lon="12.6033117"><ele>74.0</ele><time>2026-03-25T08:27:14.523Z</time></trkpt><trkpt lat="37.8902333" lon="12.60351"><ele>74.33333333333334</ele><time>2026-03-25T08:27:15.523Z</time></trkpt><trkpt lat="37.8903917" lon="12.6037"><ele>74.66666666666667</ele><time>2026-03-25T08:27:16.523Z</time></trkpt><trkpt lat="37.89055" lon="12.60388"><ele>75.0</ele><time>2026-03-25T08:27:17.519Z</time></trkpt><trkpt lat="37.8906983" lon="12.60405"><ele>75.0</ele><time>2026-03-25T08:27:18.523Z</time></trkpt><trkpt lat="37.890835" lon="12.6042083"><ele>75.0</ele><time>2026-03-25T08:27:19.518Z</time></trkpt><trkpt lat="37.8909617" lon="12.6043483"><ele>75.0</ele><time>2026-03-25T08:27:20.523Z</time></trkpt><trkpt lat="37.8910867" lon="12.60447"><ele>75.0</ele><time>2026-03-25T08:27:21.524Z</time></trkpt><trkpt lat="37.891225" lon="12.60457"><ele>75.0</ele><time>2026-03-25T08:27:22.526Z</time></trkpt><trkpt lat="37.8913733" lon="12.6046483"><ele>75.0</ele><time>2026-03-25T08:27:23.526Z</time></trkpt><trkpt lat="37.891535" lon="12.6047033"><ele>75.0</ele><time>2026-03-25T08:27:24.525Z</time></trkpt><trkpt lat="37.8917117" lon="12.6047383"><ele>75.0</ele><time>2026-03-25T08:27:25.525Z</time></trkpt><trkpt lat="37.8919017" lon="12.60476"><ele>75.0</ele><time>2026-03-25T08:27:26.529Z</time></trkpt><trkpt lat="37.8920967" lon="12.604775"><ele>75.33333333333333</ele><time>2026-03-25T08:27:27.529Z</time></trkpt><trkpt lat="37.892295" lon="12.6047883"><ele>75.66666666666666</ele><time>2026-03-25T08:27:28.519Z</time></trkpt><trkpt lat="37.8924983" lon="12.6048033"><ele>76.0</ele><time>2026-03-25T08:27:29.519Z</time></trkpt><trkpt lat="37.8927067" lon="12.60482"><ele>77.33333333333333</ele><time>2026-03-25T08:27:30.519Z</time></trkpt><trkpt lat="37.8929233" lon="12.6048333"><ele>78.66666666666667</ele><time>2026-03-25T08:27:31.517Z</time></trkpt><trkpt lat="37.8931433" lon="12.6048517"><ele>80.0</ele><time>2026-03-25T08:27:32.522Z</time></trkpt><trkpt lat="37.8933633" lon="12.6048683"><ele>79.33333333333334</ele><time>2026-03-25T08:27:33.518Z</time></trkpt><trkpt lat="37.89358" lon="12.604885"><ele>78.66666666666667</ele><time>2026-03-25T08:27:34.52Z</time></trkpt><trkpt lat="37.8937967" lon="12.6049033"><ele>78.0</ele><time>2026-03-25T08:27:35.52Z</time></trkpt><trkpt lat="37.8940117" lon="12.6049217"><ele>78.0</ele><time>2026-03-25T08:27:36.521Z</time></trkpt><trkpt lat="37.8942283" lon="12.6049383"><ele>78.0</ele><time>2026-03-25T08:27:37.522Z</time></trkpt><trkpt lat="37.8944433" lon="12.604955"><ele>78.0</ele><time>2026-03-25T08:27:38.52Z</time></trkpt><trkpt lat="37.89466" lon="12.6049717"><ele>78.66666666666667</ele><time>2026-03-25T08:27:39.524Z</time></trkpt><trkpt lat="37.8948767" lon="12.60499"><ele>79.33333333333334</ele><time>2026-03-25T08:27:40.519Z</time></trkpt><trkpt lat="37.895095" lon="12.6050083"><ele>80.0</ele><time>2026-03-25T08:27:41.521Z</time></trkpt><trkpt lat="37.8953133" lon="12.605025"><ele>81.0</ele><time>2026-03-25T08:27:42.524Z</time></trkpt><trkpt lat="37.8955317" lon="12.6050433"><ele>82.0</ele><time>2026-03-25T08:27:43.523Z</time></trkpt><trkpt lat="37.89575" lon="12.6050617"><ele>83.0</ele><time>2026-03-25T08:27:44.522Z</time></trkpt><trkpt lat="37.895965" lon="12.6050783"><ele>83.33333333333334</ele><time>2026-03-25T08:27:45.523Z</time></trkpt><trkpt lat="37.89617" lon="12.605095"><ele>83.66666666666667</ele><time>2026-03-25T08:27:46.521Z</time></trkpt><trkpt lat="37.896365" lon="12.6051083"><ele>84.0</ele><time>2026-03-25T08:27:47.522Z</time></trkpt><trkpt lat="37.8965517" lon="12.605125"><ele>84.0</ele><time>2026-03-25T08:27:48.523Z</time></trkpt><trkpt lat="37.8967333" lon="12.6051483"><ele>84.0</ele><time>2026-03-25T08:27:49.523Z</time></trkpt><trkpt lat="37.896915" lon="12.6051833"><ele>84.0</ele><time>2026-03-25T08:27:50.519Z</time></trkpt><trkpt lat="37.8970967" lon="12.605235"><ele>84.33333333333333</ele><time>2026-03-25T08:27:51.524Z</time></trkpt><trkpt lat="37.8972833" lon="12.6052983"><ele>84.66666666666666</ele><time>2026-03-25T08:27:52.52Z</time></trkpt><trkpt lat="37.8974717" lon="12.60537"><ele>85.0</ele><time>2026-03-25T08:27:53.523Z</time></trkpt><trkpt lat="37.89766" lon="12.6054517"><ele>84.33333333333333</ele><time>2026-03-25T08:27:54.521Z</time></trkpt><trkpt lat="37.8978483" lon="12.605545"><ele>83.66666666666667</ele><time>2026-03-25T08:27:55.521Z</time></trkpt><trkpt lat="37.8980367" lon="12.6056483"><ele>83.0</ele><time>2026-03-25T08:27:56.52Z</time></trkpt><trkpt lat="37.898225" lon="12.60576"><ele>83.0</ele><time>2026-03-25T08:27:57.522Z</time></trkpt><trkpt lat="37.8984133" lon="12.6058783"><ele>83.0</ele><time>2026-03-25T08:27:58.517Z</time></trkpt><trkpt lat="37.8986033" lon="12.6059967"><ele>83.0</ele><time>2026-03-25T08:27:59.524Z</time></trkpt><trkpt lat="37.8987917" lon="12.606115"><ele>81.66666666666667</ele><time>2026-03-25T08:28:00.521Z</time></trkpt><trkpt lat="37.898975" lon="12.6062283"><ele>80.33333333333333</ele><time>2026-03-25T08:28:01.523Z</time></trkpt><trkpt lat="37.89915" lon="12.60634"><ele>79.0</ele><time>2026-03-25T08:28:02.526Z</time></trkpt><trkpt lat="37.8993217" lon="12.6064617"><ele>79.0</ele><time>2026-03-25T08:28:03.524Z</time></trkpt><trkpt lat="37.8994883" lon="12.6066017"><ele>79.0</ele><time>2026-03-25T08:28:04.522Z</time></trkpt><trkpt lat="37.8996467" lon="12.606765"><ele>79.0</ele><time>2026-03-25T08:28:05.521Z</time></trkpt><trkpt lat="37.8998" lon="12.6069433"><ele>79.0</ele><time>2026-03-25T08:28:06.519Z</time></trkpt><trkpt lat="37.8999533" lon="12.60713"><ele>79.0</ele><time>2026-03-25T08:28:07.518Z</time></trkpt><trkpt lat="37.9001117" lon="12.6073183"><ele>79.0</ele><time>2026-03-25T08:28:08.526Z</time></trkpt><trkpt lat="37.9002717" lon="12.60751"><ele>78.66666666666666</ele><time>2026-03-25T08:28:09.521Z</time></trkpt><trkpt lat="37.9004317" lon="12.607705"><ele>78.33333333333333</ele><time>2026-03-25T08:28:10.52Z</time></trkpt><trkpt lat="37.9005917" lon="12.6079033"><ele>78.0</ele><time>2026-03-25T08:28:11.521Z</time></trkpt><trkpt lat="37.9007517" lon="12.6081033"><ele>78.0</ele><time>2026-03-25T08:28:12.523Z</time></trkpt><trkpt lat="37.9009067" lon="12.60831"><ele>78.0</ele><time>2026-03-25T08:28:13.523Z</time></trkpt><trkpt lat="37.9010533" lon="12.6085283"><ele>77.5</ele><time>2026-03-25T08:28:14.523Z</time></trkpt><trkpt lat="37.9011967" lon="12.6087517"><ele>77.0</ele><time>2026-03-25T08:28:15.523Z</time></trkpt><trkpt lat="37.9013383" lon="12.6089767"><ele>77.0</ele><time>2026-03-25T08:28:16.524Z</time></trkpt><trkpt lat="37.90148" lon="12.6092017"><ele>77.0</ele><time>2026-03-25T08:28:17.523Z</time></trkpt><trkpt lat="37.90162" lon="12.6094283"><ele>77.5</ele><time>2026-03-25T08:28:18.526Z</time></trkpt><trkpt lat="37.90176" lon="12.6096567"><ele>78.0</ele><time>2026-03-25T08:28:19.526Z</time></trkpt><trkpt lat="37.9019" lon="12.6098817"><ele>78.0</ele><time>2026-03-25T08:28:20.526Z</time></trkpt><trkpt lat="37.9020417" lon="12.6101067"><ele>78.0</ele><time>2026-03-25T08:28:21.521Z</time></trkpt><trkpt lat="37.9021817" lon="12.61033"><ele>77.0</ele><time>2026-03-25T08:28:22.522Z</time></trkpt><trkpt lat="37.90232" lon="12.6105517"><ele>76.0</ele><time>2026-03-25T08:28:23.526Z</time></trkpt><trkpt lat="37.9024567" lon="12.6107733"><ele>75.0</ele><time>2026-03-25T08:28:24.523Z</time></trkpt><trkpt lat="37.90259" lon="12.61099"><ele>75.66666666666667</ele><time>2026-03-25T08:28:25.525Z</time></trkpt><trkpt lat="37.9027183" lon="12.6111967"><ele>76.33333333333334</ele><time>2026-03-25T08:28:26.524Z</time></trkpt><trkpt lat="37.90284" lon="12.6113917"><ele>77.0</ele><time>2026-03-25T08:28:27.529Z</time></trkpt><trkpt lat="37.902955" lon="12.611575"><ele>77.0</ele><time>2026-03-25T08:28:28.524Z</time></trkpt><trkpt lat="37.903065" lon="12.6117517"><ele>77.0</ele><time>2026-03-25T08:28:29.524Z</time></trkpt><trkpt lat="37.9031683" lon="12.6119167"><ele>77.0</ele><time>2026-03-25T08:28:30.525Z</time></trkpt><trkpt lat="37.9032633" lon="12.6120733"><ele>76.25</ele><time>2026-03-25T08:28:31.524Z</time></trkpt><trkpt lat="37.9033483" lon="12.6122217"><ele>75.5</ele><time>2026-03-25T08:28:32.524Z</time></trkpt><trkpt lat="37.9034267" lon="12.612365"><ele>74.75</ele><time>2026-03-25T08:28:33.522Z</time></trkpt><trkpt lat="37.9035" lon="12.6125067"><ele>74.0</ele><time>2026-03-25T08:28:34.52Z</time></trkpt><trkpt lat="37.9035683" lon="12.612645"><ele>74.0</ele><time>2026-03-25T08:28:35.523Z</time></trkpt><trkpt lat="37.9036283" lon="12.612775"><ele>74.0</ele><time>2026-03-25T08:28:36.52Z</time></trkpt><trkpt lat="37.9036833" lon="12.6129017"><ele>74.0</ele><time>2026-03-25T08:28:37.52Z</time></trkpt><trkpt lat="37.90373" lon="12.6130233"><ele>74.0</ele><time>2026-03-25T08:28:38.522Z</time></trkpt><trkpt lat="37.9037717" lon="12.6131383"><ele>74.0</ele><time>2026-03-25T08:28:39.523Z</time></trkpt><trkpt lat="37.9038117" lon="12.6132417"><ele>74.0</ele><time>2026-03-25T08:28:40.518Z</time></trkpt><trkpt lat="37.903845" lon="12.6133283"><ele>74.0</ele><time>2026-03-25T08:28:41.516Z</time></trkpt><trkpt lat="37.9038733" lon="12.6134033"><ele>74.0</ele><time>2026-03-25T08:28:43.522Z</time></trkpt><trkpt lat="37.9039067" lon="12.6134983"><ele>74.0</ele><time>2026-03-25T08:28:45.523Z</time></trkpt><trkpt lat="37.9039333" lon="12.6135867"><ele>74.0</ele><time>2026-03-25T08:28:46.521Z</time></trkpt><trkpt lat="37.9039683" lon="12.6137083"><ele>74.0</ele><time>2026-03-25T08:28:47.523Z</time></trkpt><trkpt lat="37.9040167" lon="12.6138683"><ele>74.66666666666667</ele><time>2026-03-25T08:28:48.524Z</time></trkpt><trkpt lat="37.9040683" lon="12.61405"><ele>75.33333333333333</ele><time>2026-03-25T08:28:49.525Z</time></trkpt><trkpt lat="37.9041283" lon="12.6142533"><ele>76.0</ele><time>2026-03-25T08:28:50.523Z</time></trkpt><trkpt lat="37.9041933" lon="12.6144667"><ele>75.66666666666666</ele><time>2026-03-25T08:28:51.525Z</time></trkpt><trkpt lat="37.90426" lon="12.6146867"><ele>75.33333333333333</ele><time>2026-03-25T08:28:52.522Z</time></trkpt><trkpt lat="37.9043333" lon="12.6149183"><ele>75.0</ele><time>2026-03-25T08:28:53.522Z</time></trkpt><trkpt lat="37.9044033" lon="12.6151533"><ele>75.0</ele><time>2026-03-25T08:28:54.526Z</time></trkpt><trkpt lat="37.904475" lon="12.6153967"><ele>75.0</ele><time>2026-03-25T08:28:55.521Z</time></trkpt><trkpt lat="37.9045483" lon="12.6156433"><ele>75.0</ele><time>2026-03-25T08:28:56.52Z</time></trkpt><trkpt lat="37.9046217" lon="12.6158967"><ele>75.0</ele><time>2026-03-25T08:28:57.524Z</time></trkpt><trkpt lat="37.9046983" lon="12.6161517"><ele>75.0</ele><time>2026-03-25T08:28:58.523Z</time></trkpt><trkpt lat="37.904775" lon="12.6164067"><ele>75.0</ele><time>2026-03-25T08:28:59.52Z</time></trkpt><trkpt lat="37.9048583" lon="12.61666"><ele>75.0</ele><time>2026-03-25T08:29:00.522Z</time></trkpt><trkpt lat="37.9049467" lon="12.6169117"><ele>75.0</ele><time>2026-03-25T08:29:01.522Z</time></trkpt><trkpt lat="37.9050383" lon="12.61716"><ele>75.0</ele><time>2026-03-25T08:29:02.519Z</time></trkpt><trkpt lat="37.9051333" lon="12.6174067"><ele>75.66666666666667</ele><time>2026-03-25T08:29:03.519Z</time></trkpt><trkpt lat="37.90523" lon="12.61765"><ele>76.33333333333334</ele><time>2026-03-25T08:29:04.522Z</time></trkpt><trkpt lat="37.9053233" lon="12.6179"><ele>77.0</ele><time>2026-03-25T08:29:05.523Z</time></trkpt><trkpt lat="37.9054117" lon="12.61816"><ele>77.0</ele><time>2026-03-25T08:29:06.52Z</time></trkpt><trkpt lat="37.9054883" lon="12.6184267"><ele>77.0</ele><time>2026-03-25T08:29:07.524Z</time></trkpt><trkpt lat="37.9055567" lon="12.6187017"><ele>77.0</ele><time>2026-03-25T08:29:08.524Z</time></trkpt><trkpt lat="37.9056217" lon="12.6189817"><ele>77.0</ele><time>2026-03-25T08:29:09.524Z</time></trkpt><trkpt lat="37.9056867" lon="12.619265"><ele>75.5</ele><time>2026-03-25T08:29:10.523Z</time></trkpt><trkpt lat="37.905755" lon="12.6195483"><ele>74.0</ele><time>2026-03-25T08:29:11.525Z</time></trkpt><trkpt lat="37.9058333" lon="12.61983"><ele>74.0</ele><time>2026-03-25T08:29:12.523Z</time></trkpt><trkpt lat="37.9059117" lon="12.6201117"><ele>74.0</ele><time>2026-03-25T08:29:13.521Z</time></trkpt><trkpt lat="37.9059967" lon="12.6203933"><ele>75.0</ele><time>2026-03-25T08:29:14.519Z</time></trkpt><trkpt lat="37.9060833" lon="12.6206783"><ele>76.0</ele><time>2026-03-25T08:29:15.525Z</time></trkpt><trkpt lat="37.9061683" lon="12.620965"><ele>76.0</ele><time>2026-03-25T08:29:16.518Z</time></trkpt><trkpt lat="37.9062533" lon="12.62125"><ele>76.0</ele><time>2026-03-25T08:29:17.523Z</time></trkpt><trkpt lat="37.9063383" lon="12.62153"><ele>76.0</ele><time>2026-03-25T08:29:18.521Z</time></trkpt><trkpt lat="37.9064233" lon="12.6218067"><ele>76.0</ele><time>2026-03-25T08:29:19.526Z</time></trkpt><trkpt lat="37.9065067" lon="12.62208"><ele>75.5</ele><time>2026-03-25T08:29:20.521Z</time></trkpt><trkpt lat="37.9065883" lon="12.62235"><ele>75.0</ele><time>2026-03-25T08:29:21.522Z</time></trkpt><trkpt lat="37.9066683" lon="12.62262"><ele>75.5</ele><time>2026-03-25T08:29:22.523Z</time></trkpt><trkpt lat="37.90675" lon="12.62289"><ele>76.0</ele><time>2026-03-25T08:29:23.526Z</time></trkpt><trkpt lat="37.9068333" lon="12.6231583"><ele>76.0</ele><time>2026-03-25T08:29:24.523Z</time></trkpt><trkpt lat="37.9069183" lon="12.6234317"><ele>76.0</ele><time>2026-03-25T08:29:25.518Z</time></trkpt><trkpt lat="37.907" lon="12.6237033"><ele>76.0</ele><time>2026-03-25T08:29:26.52Z</time></trkpt><trkpt lat="37.9070817" lon="12.6239733"><ele>76.0</ele><time>2026-03-25T08:29:27.52Z</time></trkpt><trkpt lat="37.9071633" lon="12.6242433"><ele>76.5</ele><time>2026-03-25T08:29:28.523Z</time></trkpt><trkpt lat="37.907245" lon="12.6245133"><ele>77.0</ele><time>2026-03-25T08:29:29.521Z</time></trkpt><trkpt lat="37.9073267" lon="12.6247833"><ele>77.0</ele><time>2026-03-25T08:29:30.524Z</time></trkpt><trkpt lat="37.9074067" lon="12.6250517"><ele>77.0</ele><time>2026-03-25T08:29:31.519Z</time></trkpt><trkpt lat="37.9074883" lon="12.6253183"><ele>77.33333333333334</ele><time>2026-03-25T08:29:32.52Z</time></trkpt><trkpt lat="37.90757" lon="12.6255833"><ele>77.66666666666667</ele><time>2026-03-25T08:29:33.52Z</time></trkpt><trkpt lat="37.9076517" lon="12.6258467"><ele>78.0</ele><time>2026-03-25T08:29:34.52Z</time></trkpt><trkpt lat="37.9077383" lon="12.6261067"><ele>78.33333333333333</ele><time>2026-03-25T08:29:35.521Z</time></trkpt><trkpt lat="37.90783" lon="12.6263617"><ele>78.66666666666666</ele><time>2026-03-25T08:29:36.524Z</time></trkpt><trkpt lat="37.9079267" lon="12.626615"><ele>79.0</ele><time>2026-03-25T08:29:37.523Z</time></trkpt><trkpt lat="37.908025" lon="12.6268667"><ele>78.66666666666666</ele><time>2026-03-25T08:29:38.523Z</time></trkpt><trkpt lat="37.9081267" lon="12.6271183"><ele>78.33333333333333</ele><time>2026-03-25T08:29:39.523Z</time></trkpt><trkpt lat="37.9082283" lon="12.6273717"><ele>78.0</ele><time>2026-03-25T08:29:40.527Z</time></trkpt><trkpt lat="37.9083317" lon="12.627625"><ele>80.0</ele><time>2026-03-25T08:29:41.525Z</time></trkpt><trkpt lat="37.9084367" lon="12.62788"><ele>82.0</ele><time>2026-03-25T08:29:42.523Z</time></trkpt><trkpt lat="37.9085383" lon="12.628135"><ele>82.0</ele><time>2026-03-25T08:29:43.524Z</time></trkpt><trkpt lat="37.9086417" lon="12.6283867"><ele>82.0</ele><time>2026-03-25T08:29:44.523Z</time></trkpt><trkpt lat="37.9087433" lon="12.6286383"><ele>82.0</ele><time>2026-03-25T08:29:45.526Z</time></trkpt><trkpt lat="37.9088433" lon="12.628885"><ele>82.0</ele><time>2026-03-25T08:29:46.525Z</time></trkpt><trkpt lat="37.9089433" lon="12.6291267"><ele>82.0</ele><time>2026-03-25T08:29:47.524Z</time></trkpt><trkpt lat="37.909045" lon="12.6293667"><ele>82.0</ele><time>2026-03-25T08:29:48.528Z</time></trkpt><trkpt lat="37.909155" lon="12.6296017"><ele>82.0</ele><time>2026-03-25T08:29:49.524Z</time></trkpt><trkpt lat="37.909275" lon="12.6298283"><ele>82.0</ele><time>2026-03-25T08:29:50.524Z</time></trkpt><trkpt lat="37.9094033" lon="12.6300483"><ele>82.0</ele><time>2026-03-25T08:29:51.526Z</time></trkpt><trkpt lat="37.9095383" lon="12.630265"><ele>81.66666666666666</ele><time>2026-03-25T08:29:52.526Z</time></trkpt><trkpt lat="37.9096733" lon="12.6304817"><ele>81.33333333333333</ele><time>2026-03-25T08:29:53.525Z</time></trkpt><trkpt lat="37.9098033" lon="12.63069"><ele>81.0</ele><time>2026-03-25T08:29:54.525Z</time></trkpt><trkpt lat="37.9099283" lon="12.63089"><ele>81.0</ele><time>2026-03-25T08:29:55.522Z</time></trkpt><trkpt lat="37.9100483" lon="12.6310967"><ele>81.0</ele><time>2026-03-25T08:29:56.522Z</time></trkpt><trkpt lat="37.91016" lon="12.6313117"><ele>81.0</ele><time>2026-03-25T08:29:57.522Z</time></trkpt><trkpt lat="37.91026" lon="12.6315433"><ele>81.66666666666667</ele><time>2026-03-25T08:29:58.52Z</time></trkpt><trkpt lat="37.9103567" lon="12.6317867"><ele>82.33333333333334</ele><time>2026-03-25T08:29:59.524Z</time></trkpt><trkpt lat="37.91045" lon="12.63204"><ele>83.0</ele><time>2026-03-25T08:30:00.523Z</time></trkpt><trkpt lat="37.9105383" lon="12.632295"><ele>83.0</ele><time>2026-03-25T08:30:01.523Z</time></trkpt><trkpt lat="37.9106283" lon="12.632545"><ele>83.0</ele><time>2026-03-25T08:30:02.52Z</time></trkpt><trkpt lat="37.9107167" lon="12.632785"><ele>83.0</ele><time>2026-03-25T08:30:03.523Z</time></trkpt><trkpt lat="37.9108117" lon="12.63302"><ele>83.33333333333334</ele><time>2026-03-25T08:30:04.525Z</time></trkpt><trkpt lat="37.91092" lon="12.6332517"><ele>83.66666666666667</ele><time>2026-03-25T08:30:05.52Z</time></trkpt><trkpt lat="37.9110367" lon="12.63348"><ele>84.0</ele><time>2026-03-25T08:30:06.52Z</time></trkpt><trkpt lat="37.91116" lon="12.6337083"><ele>83.33333333333333</ele><time>2026-03-25T08:30:07.526Z</time></trkpt><trkpt lat="37.911285" lon="12.6339367"><ele>82.66666666666666</ele><time>2026-03-25T08:30:08.527Z</time></trkpt><trkpt lat="37.9114083" lon="12.6341683"><ele>82.0</ele><time>2026-03-25T08:30:09.524Z</time></trkpt><trkpt lat="37.91153" lon="12.634405"><ele>82.5</ele><time>2026-03-25T08:30:10.522Z</time></trkpt><trkpt lat="37.9116417" lon="12.6346517"><ele>83.0</ele><time>2026-03-25T08:30:11.525Z</time></trkpt><trkpt lat="37.9117433" lon="12.63491"><ele>83.0</ele><time>2026-03-25T08:30:12.524Z</time></trkpt><trkpt lat="37.9118283" lon="12.63518"><ele>83.0</ele><time>2026-03-25T08:30:13.518Z</time></trkpt><trkpt lat="37.9119117" lon="12.6354517"><ele>83.0</ele><time>2026-03-25T08:30:14.522Z</time></trkpt><trkpt lat="37.9119983" lon="12.6357267"><ele>83.0</ele><time>2026-03-25T08:30:15.519Z</time></trkpt><trkpt lat="37.912085" lon="12.6360017"><ele>82.5</ele><time>2026-03-25T08:30:16.526Z</time></trkpt><trkpt lat="37.912175" lon="12.6362767"><ele>82.0</ele><time>2026-03-25T08:30:17.522Z</time></trkpt><trkpt lat="37.9122633" lon="12.63655"><ele>82.0</ele><time>2026-03-25T08:30:18.519Z</time></trkpt><trkpt lat="37.9123483" lon="12.63682"><ele>82.0</ele><time>2026-03-25T08:30:19.523Z</time></trkpt><trkpt lat="37.9124283" lon="12.637085"><ele>82.0</ele><time>2026-03-25T08:30:20.525Z</time></trkpt><trkpt lat="37.9125067" lon="12.6373367"><ele>82.0</ele><time>2026-03-25T08:30:21.521Z</time></trkpt><trkpt lat="37.91258" lon="12.637575"><ele>82.0</ele><time>2026-03-25T08:30:22.523Z</time></trkpt><trkpt lat="37.9126517" lon="12.6378033"><ele>82.0</ele><time>2026-03-25T08:30:23.52Z</time></trkpt><trkpt lat="37.912725" lon="12.6380317"><ele>82.0</ele><time>2026-03-25T08:30:24.518Z</time></trkpt><trkpt lat="37.9128067" lon="12.63826"><ele>82.0</ele><time>2026-03-25T08:30:25.521Z</time></trkpt><trkpt lat="37.9129" lon="12.638485"><ele>82.33333333333333</ele><time>2026-03-25T08:30:26.522Z</time></trkpt><trkpt lat="37.913" lon="12.6387083"><ele>82.66666666666667</ele><time>2026-03-25T08:30:27.522Z</time></trkpt><trkpt lat="37.91311" lon="12.6389333"><ele>83.0</ele><time>2026-03-25T08:30:28.523Z</time></trkpt><trkpt lat="37.91322" lon="12.6391617"><ele>83.0</ele><time>2026-03-25T08:30:29.522Z</time></trkpt><trkpt lat="37.9133283" lon="12.6393933"><ele>83.0</ele><time>2026-03-25T08:30:30.521Z</time></trkpt><trkpt lat="37.91344" lon="12.6396267"><ele>83.0</ele><time>2026-03-25T08:30:31.521Z</time></trkpt><trkpt lat="37.913555" lon="12.63986"><ele>83.66666666666667</ele><time>2026-03-25T08:30:32.524Z</time></trkpt><trkpt lat="37.9136783" lon="12.64009"><ele>84.33333333333333</ele><time>2026-03-25T08:30:33.523Z</time></trkpt><trkpt lat="37.91381" lon="12.6403167"><ele>85.0</ele><time>2026-03-25T08:30:34.52Z</time></trkpt><trkpt lat="37.913945" lon="12.6405417"><ele>85.33333333333333</ele><time>2026-03-25T08:30:35.528Z</time></trkpt><trkpt lat="37.9140783" lon="12.64077"><ele>85.66666666666667</ele><time>2026-03-25T08:30:36.521Z</time></trkpt><trkpt lat="37.914205" lon="12.641005"><ele>86.0</ele><time>2026-03-25T08:30:37.52Z</time></trkpt><trkpt lat="37.9143267" lon="12.641245"><ele>86.5</ele><time>2026-03-25T08:30:38.526Z</time></trkpt><trkpt lat="37.9144467" lon="12.6414917"><ele>87.0</ele><time>2026-03-25T08:30:39.523Z</time></trkpt><trkpt lat="37.9145633" lon="12.6417383"><ele>86.5</ele><time>2026-03-25T08:30:40.523Z</time></trkpt><trkpt lat="37.9146783" lon="12.6419867"><ele>86.0</ele><time>2026-03-25T08:30:41.518Z</time></trkpt><trkpt lat="37.9147933" lon="12.6422333"><ele>86.0</ele><time>2026-03-25T08:30:42.521Z</time></trkpt><trkpt lat="37.9149067" lon="12.6424767"><ele>86.0</ele><time>2026-03-25T08:30:43.523Z</time></trkpt><trkpt lat="37.91502" lon="12.6427183"><ele>86.0</ele><time>2026-03-25T08:30:44.524Z</time></trkpt><trkpt lat="37.9151317" lon="12.64296"><ele>86.66666666666667</ele><time>2026-03-25T08:30:45.519Z</time></trkpt><trkpt lat="37.9152417" lon="12.6432017"><ele>87.33333333333333</ele><time>2026-03-25T08:30:46.523Z</time></trkpt><trkpt lat="37.9153483" lon="12.6434417"><ele>88.0</ele><time>2026-03-25T08:30:47.522Z</time></trkpt><trkpt lat="37.9154533" lon="12.6436833"><ele>88.0</ele><time>2026-03-25T08:30:48.519Z</time></trkpt><trkpt lat="37.9155533" lon="12.6439267"><ele>88.0</ele><time>2026-03-25T08:30:49.521Z</time></trkpt><trkpt lat="37.9156517" lon="12.6441717"><ele>88.0</ele><time>2026-03-25T08:30:50.52Z</time></trkpt><trkpt lat="37.9157433" lon="12.64442"><ele>88.33333333333333</ele><time>2026-03-25T08:30:51.523Z</time></trkpt><trkpt lat="37.9158317" lon="12.6446717"><ele>88.66666666666667</ele><time>2026-03-25T08:30:52.526Z</time></trkpt><trkpt lat="37.9159133" lon="12.644925"><ele>89.0</ele><time>2026-03-25T08:30:53.517Z</time></trkpt><trkpt lat="37.915995" lon="12.6451783"><ele>89.66666666666667</ele><time>2026-03-25T08:30:54.521Z</time></trkpt><trkpt lat="37.91608" lon="12.6454317"><ele>90.33333333333333</ele><time>2026-03-25T08:30:55.521Z</time></trkpt><trkpt lat="37.9161683" lon="12.6456817"><ele>91.0</ele><time>2026-03-25T08:30:56.525Z</time></trkpt><trkpt lat="37.9162617" lon="12.6459317"><ele>91.33333333333333</ele><time>2026-03-25T08:30:57.521Z</time></trkpt><trkpt lat="37.916355" lon="12.6461817"><ele>91.66666666666667</ele><time>2026-03-25T08:30:58.523Z</time></trkpt><trkpt lat="37.9164483" lon="12.6464317"><ele>92.0</ele><time>2026-03-25T08:30:59.521Z</time></trkpt><trkpt lat="37.916545" lon="12.6466817"><ele>92.0</ele><time>2026-03-25T08:31:00.523Z</time></trkpt><trkpt lat="37.9166433" lon="12.6469317"><ele>92.0</ele><time>2026-03-25T08:31:01.523Z</time></trkpt><trkpt lat="37.9167383" lon="12.647185"><ele>92.0</ele><time>2026-03-25T08:31:02.524Z</time></trkpt><trkpt lat="37.9168317" lon="12.647435"><ele>92.0</ele><time>2026-03-25T08:31:03.524Z</time></trkpt><trkpt lat="37.9169267" lon="12.647685"><ele>92.0</ele><time>2026-03-25T08:31:04.524Z</time></trkpt><trkpt lat="37.9170217" lon="12.647935"><ele>92.0</ele><time>2026-03-25T08:31:05.524Z</time></trkpt><trkpt lat="37.9171167" lon="12.6481883"><ele>92.0</ele><time>2026-03-25T08:31:06.521Z</time></trkpt><trkpt lat="37.91721" lon="12.6484433"><ele>92.0</ele><time>2026-03-25T08:31:07.524Z</time></trkpt><trkpt lat="37.917305" lon="12.6487033"><ele>92.0</ele><time>2026-03-25T08:31:08.527Z</time></trkpt><trkpt lat="37.9174" lon="12.6489667"><ele>92.5</ele><time>2026-03-25T08:31:09.524Z</time></trkpt><trkpt lat="37.9174917" lon="12.6492333"><ele>93.0</ele><time>2026-03-25T08:31:10.52Z</time></trkpt><trkpt lat="37.9175817" lon="12.6495033"><ele>93.0</ele><time>2026-03-25T08:31:11.523Z</time></trkpt><trkpt lat="37.91767" lon="12.6497767"><ele>93.0</ele><time>2026-03-25T08:31:12.525Z</time></trkpt><trkpt lat="37.9177567" lon="12.6500517"><ele>94.5</ele><time>2026-03-25T08:31:13.523Z</time></trkpt><trkpt lat="37.9178433" lon="12.650325"><ele>96.0</ele><time>2026-03-25T08:31:14.524Z</time></trkpt><trkpt lat="37.9179267" lon="12.6505967"><ele>96.0</ele><time>2026-03-25T08:31:15.52Z</time></trkpt><trkpt lat="37.9180083" lon="12.650865"><ele>96.0</ele><time>2026-03-25T08:31:16.525Z</time></trkpt><trkpt lat="37.91809" lon="12.6511333"><ele>95.0</ele><time>2026-03-25T08:31:17.526Z</time></trkpt><trkpt lat="37.91817" lon="12.6514"><ele>94.0</ele><time>2026-03-25T08:31:18.522Z</time></trkpt><trkpt lat="37.9182517" lon="12.6516667"><ele>94.0</ele><time>2026-03-25T08:31:19.521Z</time></trkpt><trkpt lat="37.91833" lon="12.65193"><ele>94.0</ele><time>2026-03-25T08:31:20.528Z</time></trkpt><trkpt lat="37.9184117" lon="12.6521933"><ele>94.0</ele><time>2026-03-25T08:31:21.522Z</time></trkpt><trkpt lat="37.9184917" lon="12.652455"><ele>95.0</ele><time>2026-03-25T08:31:22.521Z</time></trkpt><trkpt lat="37.918575" lon="12.6527167"><ele>96.0</ele><time>2026-03-25T08:31:23.52Z</time></trkpt><trkpt lat="37.9186567" lon="12.6529767"><ele>97.0</ele><time>2026-03-25T08:31:24.523Z</time></trkpt><trkpt lat="37.9187367" lon="12.6532333"><ele>97.0</ele><time>2026-03-25T08:31:25.523Z</time></trkpt><trkpt lat="37.918815" lon="12.6534883"><ele>97.0</ele><time>2026-03-25T08:31:26.521Z</time></trkpt><trkpt lat="37.9188983" lon="12.653735"><ele>97.0</ele><time>2026-03-25T08:31:27.521Z</time></trkpt><trkpt lat="37.9189833" lon="12.6539683"><ele>96.66666666666667</ele><time>2026-03-25T08:31:28.52Z</time></trkpt><trkpt lat="37.9190667" lon="12.6541833"><ele>96.33333333333334</ele><time>2026-03-25T08:31:29.525Z</time></trkpt><trkpt lat="37.919145" lon="12.6543883"><ele>96.0</ele><time>2026-03-25T08:31:30.526Z</time></trkpt><trkpt lat="37.91922" lon="12.65458"><ele>97.33333333333334</ele><time>2026-03-25T08:31:31.522Z</time></trkpt><trkpt lat="37.9192983" lon="12.65477"><ele>98.66666666666667</ele><time>2026-03-25T08:31:32.523Z</time></trkpt><trkpt lat="37.9193883" lon="12.6549617"><ele>100.0</ele><time>2026-03-25T08:31:33.523Z</time></trkpt><trkpt lat="37.9194917" lon="12.6551517"><ele>99.66666666666667</ele><time>2026-03-25T08:31:34.523Z</time></trkpt><trkpt lat="37.9196083" lon="12.65534"><ele>99.33333333333334</ele><time>2026-03-25T08:31:35.516Z</time></trkpt><trkpt lat="37.9197417" lon="12.655525"><ele>99.0</ele><time>2026-03-25T08:31:36.521Z</time></trkpt><trkpt lat="37.919885" lon="12.65571"><ele>99.0</ele><time>2026-03-25T08:31:37.526Z</time></trkpt><trkpt lat="37.9200333" lon="12.6558967"><ele>99.0</ele><time>2026-03-25T08:31:38.524Z</time></trkpt><trkpt lat="37.9201833" lon="12.656085"><ele>99.0</ele><time>2026-03-25T08:31:39.522Z</time></trkpt><trkpt lat="37.9203333" lon="12.6562767"><ele>99.66666666666666</ele><time>2026-03-25T08:31:40.522Z</time></trkpt><trkpt lat="37.92048" lon="12.656465"><ele>100.33333333333333</ele><time>2026-03-25T08:31:41.524Z</time></trkpt><trkpt lat="37.9206233" lon="12.6566483"><ele>101.0</ele><time>2026-03-25T08:31:42.524Z</time></trkpt><trkpt lat="37.92076" lon="12.6568217"><ele>101.33333333333333</ele><time>2026-03-25T08:31:43.521Z</time></trkpt><trkpt lat="37.92089" lon="12.6569817"><ele>101.66666666666666</ele><time>2026-03-25T08:31:44.521Z</time></trkpt><trkpt lat="37.9210117" lon="12.6571317"><ele>102.0</ele><time>2026-03-25T08:31:45.518Z</time></trkpt><trkpt lat="37.9211233" lon="12.65727"><ele>102.25</ele><time>2026-03-25T08:31:46.521Z</time></trkpt><trkpt lat="37.921225" lon="12.6573967"><ele>102.5</ele><time>2026-03-25T08:31:47.52Z</time></trkpt><trkpt lat="37.9213183" lon="12.6575167"><ele>102.75</ele><time>2026-03-25T08:31:48.519Z</time></trkpt><trkpt lat="37.9214067" lon="12.6576317"><ele>103.0</ele><time>2026-03-25T08:31:49.52Z</time></trkpt><trkpt lat="37.92149" lon="12.6577367"><ele>103.33333333333334</ele><time>2026-03-25T08:31:50.519Z</time></trkpt><trkpt lat="37.9215667" lon="12.6578283"><ele>103.66666666666667</ele><time>2026-03-25T08:31:51.521Z</time></trkpt><trkpt lat="37.9216317" lon="12.6579117"><ele>104.0</ele><time>2026-03-25T08:31:52.52Z</time></trkpt><trkpt lat="37.92169" lon="12.657985"><ele>104.33333333333334</ele><time>2026-03-25T08:31:53.518Z</time></trkpt><trkpt lat="37.92174" lon="12.6580383"><ele>104.66666666666667</ele><time>2026-03-25T08:31:54.521Z</time></trkpt><trkpt lat="37.9218367" lon="12.658065"><ele>105.0</ele><time>2026-03-25T08:31:56.523Z</time></trkpt><trkpt lat="37.9219333" lon="12.65794"><ele>105.0</ele><time>2026-03-25T08:31:58.523Z</time></trkpt><trkpt lat="37.9219833" lon="12.6578167"><ele>105.0</ele><time>2026-03-25T08:31:59.518Z</time></trkpt><trkpt lat="37.9220333" lon="12.6576667"><ele>105.0</ele><time>2026-03-25T08:32:00.52Z</time></trkpt><trkpt lat="37.9220933" lon="12.6575033"><ele>105.0</ele><time>2026-03-25T08:32:01.521Z</time></trkpt><trkpt lat="37.9221617" lon="12.6573183"><ele>105.0</ele><time>2026-03-25T08:32:02.523Z</time></trkpt><trkpt lat="37.922235" lon="12.6571233"><ele>105.0</ele><time>2026-03-25T08:32:03.52Z</time></trkpt><trkpt lat="37.9223117" lon="12.65692"><ele>105.0</ele><time>2026-03-25T08:32:04.519Z</time></trkpt><trkpt lat="37.92239" lon="12.65671"><ele>105.0</ele><time>2026-03-25T08:32:05.519Z</time></trkpt><trkpt lat="37.92247" lon="12.6565033"><ele>105.0</ele><time>2026-03-25T08:32:06.517Z</time></trkpt><trkpt lat="37.922555" lon="12.65629"><ele>105.0</ele><time>2026-03-25T08:32:07.521Z</time></trkpt><trkpt lat="37.92264" lon="12.6560733"><ele>105.33333333333334</ele><time>2026-03-25T08:32:08.523Z</time></trkpt><trkpt lat="37.92273" lon="12.6558467"><ele>105.66666666666667</ele><time>2026-03-25T08:32:09.521Z</time></trkpt><trkpt lat="37.9228167" lon="12.6556167"><ele>106.0</ele><time>2026-03-25T08:32:10.521Z</time></trkpt><trkpt lat="37.9228983" lon="12.6553833"><ele>106.0</ele><time>2026-03-25T08:32:11.52Z</time></trkpt><trkpt lat="37.92297" lon="12.6551467"><ele>106.0</ele><time>2026-03-25T08:32:12.522Z</time></trkpt><trkpt lat="37.9230383" lon="12.65491"><ele>106.0</ele><time>2026-03-25T08:32:13.524Z</time></trkpt><trkpt lat="37.9231017" lon="12.6546717"><ele>105.66666666666667</ele><time>2026-03-25T08:32:14.52Z</time></trkpt><trkpt lat="37.9231583" lon="12.65443"><ele>105.33333333333334</ele><time>2026-03-25T08:32:15.517Z</time></trkpt><trkpt lat="37.9232167" lon="12.6541867"><ele>105.0</ele><time>2026-03-25T08:32:16.52Z</time></trkpt><trkpt lat="37.923275" lon="12.6539417"><ele>105.0</ele><time>2026-03-25T08:32:17.521Z</time></trkpt><trkpt lat="37.923335" lon="12.6536967"><ele>105.0</ele><time>2026-03-25T08:32:18.524Z</time></trkpt><trkpt lat="37.923395" lon="12.65345"><ele>105.0</ele><time>2026-03-25T08:32:19.521Z</time></trkpt><trkpt lat="37.9234533" lon="12.653205"><ele>105.0</ele><time>2026-03-25T08:32:20.524Z</time></trkpt><trkpt lat="37.9235117" lon="12.6529567"><ele>105.0</ele><time>2026-03-25T08:32:21.524Z</time></trkpt><trkpt lat="37.92357" lon="12.6527083"><ele>105.0</ele><time>2026-03-25T08:32:22.518Z</time></trkpt><trkpt lat="37.92363" lon="12.6524583"><ele>105.0</ele><time>2026-03-25T08:32:23.522Z</time></trkpt><trkpt lat="37.9236917" lon="12.6522067"><ele>105.0</ele><time>2026-03-25T08:32:24.521Z</time></trkpt><trkpt lat="37.9237517" lon="12.6519533"><ele>105.0</ele><time>2026-03-25T08:32:25.52Z</time></trkpt><trkpt lat="37.923815" lon="12.6516983"><ele>104.66666666666666</ele><time>2026-03-25T08:32:26.521Z</time></trkpt><trkpt lat="37.9238783" lon="12.651445"><ele>104.33333333333333</ele><time>2026-03-25T08:32:27.523Z</time></trkpt><trkpt lat="37.9239417" lon="12.651195"><ele>104.0</ele><time>2026-03-25T08:32:28.525Z</time></trkpt><trkpt lat="37.924" lon="12.6509467"><ele>104.0</ele><time>2026-03-25T08:32:29.523Z</time></trkpt><trkpt lat="37.9240567" lon="12.6507033"><ele>104.0</ele><time>2026-03-25T08:32:30.523Z</time></trkpt><trkpt lat="37.9241183" lon="12.6504633"><ele>104.0</ele><time>2026-03-25T08:32:31.524Z</time></trkpt><trkpt lat="37.9241917" lon="12.65023"><ele>105.66666666666666</ele><time>2026-03-25T08:32:32.518Z</time></trkpt><trkpt lat="37.9242733" lon="12.6500017"><ele>107.33333333333334</ele><time>2026-03-25T08:32:33.52Z</time></trkpt><trkpt lat="37.9243667" lon="12.6497767"><ele>109.0</ele><time>2026-03-25T08:32:34.526Z</time></trkpt><trkpt lat="37.9244683" lon="12.6495517"><ele>108.66666666666667</ele><time>2026-03-25T08:32:35.528Z</time></trkpt><trkpt lat="37.9245767" lon="12.649325"><ele>108.33333333333334</ele><time>2026-03-25T08:32:36.529Z</time></trkpt><trkpt lat="37.92469" lon="12.6490967"><ele>108.0</ele><time>2026-03-25T08:32:37.525Z</time></trkpt><trkpt lat="37.924805" lon="12.648865"><ele>108.0</ele><time>2026-03-25T08:32:38.525Z</time></trkpt><trkpt lat="37.92492" lon="12.6486333"><ele>108.0</ele><time>2026-03-25T08:32:39.527Z</time></trkpt><trkpt lat="37.925035" lon="12.6484"><ele>108.0</ele><time>2026-03-25T08:32:40.526Z</time></trkpt><trkpt lat="37.9251517" lon="12.648165"><ele>109.0</ele><time>2026-03-25T08:32:41.526Z</time></trkpt><trkpt lat="37.92527" lon="12.6479317"><ele>110.0</ele><time>2026-03-25T08:32:42.522Z</time></trkpt><trkpt lat="37.9253917" lon="12.6477017"><ele>111.0</ele><time>2026-03-25T08:32:43.532Z</time></trkpt><trkpt lat="37.9255217" lon="12.6474783"><ele>111.0</ele><time>2026-03-25T08:32:44.524Z</time></trkpt><trkpt lat="37.9256583" lon="12.6472617"><ele>111.0</ele><time>2026-03-25T08:32:45.527Z</time></trkpt><trkpt lat="37.9257983" lon="12.64705"><ele>111.0</ele><time>2026-03-25T08:32:46.527Z</time></trkpt><trkpt lat="37.92594" lon="12.6468383"><ele>110.66666666666666</ele><time>2026-03-25T08:32:47.526Z</time></trkpt><trkpt lat="37.9260817" lon="12.646625"><ele>110.33333333333333</ele><time>2026-03-25T08:32:48.523Z</time></trkpt><trkpt lat="37.9262233" lon="12.6464133"><ele>110.0</ele><time>2026-03-25T08:32:49.526Z</time></trkpt><trkpt lat="37.926365" lon="12.6462017"><ele>110.33333333333333</ele><time>2026-03-25T08:32:50.523Z</time></trkpt><trkpt lat="37.9265083" lon="12.6459917"><ele>110.66666666666666</ele><time>2026-03-25T08:32:51.525Z</time></trkpt><trkpt lat="37.92665" lon="12.6457783"><ele>111.0</ele><time>2026-03-25T08:32:52.522Z</time></trkpt><trkpt lat="37.9267933" lon="12.6455667"><ele>111.0</ele><time>2026-03-25T08:32:53.522Z</time></trkpt><trkpt lat="37.926935" lon="12.6453533"><ele>111.0</ele><time>2026-03-25T08:32:54.521Z</time></trkpt><trkpt lat="37.9270783" lon="12.64514"><ele>111.0</ele><time>2026-03-25T08:32:55.522Z</time></trkpt><trkpt lat="37.92722" lon="12.6449283"><ele>111.0</ele><time>2026-03-25T08:32:56.528Z</time></trkpt><trkpt lat="37.9273583" lon="12.6447167"><ele>111.0</ele><time>2026-03-25T08:32:57.527Z</time></trkpt><trkpt lat="37.9274917" lon="12.6445"><ele>111.0</ele><time>2026-03-25T08:32:58.526Z</time></trkpt><trkpt lat="37.9276183" lon="12.6442783"><ele>111.0</ele><time>2026-03-25T08:32:59.527Z</time></trkpt><trkpt lat="37.92774" lon="12.6440517"><ele>111.0</ele><time>2026-03-25T08:33:00.527Z</time></trkpt><trkpt lat="37.9278567" lon="12.6438233"><ele>111.0</ele><time>2026-03-25T08:33:01.522Z</time></trkpt><trkpt lat="37.92797" lon="12.6435967"><ele>111.0</ele><time>2026-03-25T08:33:02.524Z</time></trkpt><trkpt lat="37.92808" lon="12.6433783"><ele>111.0</ele><time>2026-03-25T08:33:03.524Z</time></trkpt><trkpt lat="37.928185" lon="12.64317"><ele>111.0</ele><time>2026-03-25T08:33:04.524Z</time></trkpt><trkpt lat="37.9282867" lon="12.6429717"><ele>111.0</ele><time>2026-03-25T08:33:05.527Z</time></trkpt><trkpt lat="37.9283883" lon="12.64277"><ele>111.0</ele><time>2026-03-25T08:33:06.526Z</time></trkpt><trkpt lat="37.92849" lon="12.6425717"><ele>111.0</ele><time>2026-03-25T08:33:07.528Z</time></trkpt><trkpt lat="37.9285967" lon="12.6423717"><ele>111.33333333333334</ele><time>2026-03-25T08:33:08.526Z</time></trkpt><trkpt lat="37.92871" lon="12.6421733"><ele>111.66666666666667</ele><time>2026-03-25T08:33:09.521Z</time></trkpt><trkpt lat="37.9288333" lon="12.6419833"><ele>112.0</ele><time>2026-03-25T08:33:10.521Z</time></trkpt><trkpt lat="37.9289717" lon="12.641805"><ele>110.33333333333334</ele><time>2026-03-25T08:33:11.529Z</time></trkpt><trkpt lat="37.9291167" lon="12.6416317"><ele>108.66666666666666</ele><time>2026-03-25T08:33:12.523Z</time></trkpt><trkpt lat="37.92927" lon="12.6414633"><ele>107.0</ele><time>2026-03-25T08:33:13.525Z</time></trkpt><trkpt lat="37.92942" lon="12.6412933"><ele>105.66666666666666</ele><time>2026-03-25T08:33:14.525Z</time></trkpt><trkpt lat="37.9295683" lon="12.641125"><ele>104.33333333333334</ele><time>2026-03-25T08:33:15.522Z</time></trkpt><trkpt lat="37.929715" lon="12.6409567"><ele>103.0</ele><time>2026-03-25T08:33:16.528Z</time></trkpt><trkpt lat="37.9298633" lon="12.6407883"><ele>103.0</ele><time>2026-03-25T08:33:17.522Z</time></trkpt><trkpt lat="37.9300117" lon="12.64062"><ele>103.0</ele><time>2026-03-25T08:33:18.524Z</time></trkpt><trkpt lat="37.9301533" lon="12.6404583"><ele>103.0</ele><time>2026-03-25T08:33:19.525Z</time></trkpt><trkpt lat="37.9302917" lon="12.6402967"><ele>102.0</ele><time>2026-03-25T08:33:20.529Z</time></trkpt><trkpt lat="37.93043" lon="12.6401383"><ele>101.0</ele><time>2026-03-25T08:33:21.523Z</time></trkpt><trkpt lat="37.93057" lon="12.6399817"><ele>100.0</ele><time>2026-03-25T08:33:22.523Z</time></trkpt><trkpt lat="37.9307083" lon="12.6398267"><ele>100.0</ele><time>2026-03-25T08:33:23.524Z</time></trkpt><trkpt lat="37.9308433" lon="12.63968"><ele>100.0</ele><time>2026-03-25T08:33:24.526Z</time></trkpt><trkpt lat="37.9309733" lon="12.63954"><ele>100.0</ele><time>2026-03-25T08:33:25.525Z</time></trkpt><trkpt lat="37.9310967" lon="12.6394"><ele>99.33333333333334</ele><time>2026-03-25T08:33:26.528Z</time></trkpt><trkpt lat="37.9312183" lon="12.6392683"><ele>98.66666666666666</ele><time>2026-03-25T08:33:27.525Z</time></trkpt><trkpt lat="37.9313383" lon="12.639135"><ele>98.0</ele><time>2026-03-25T08:33:28.525Z</time></trkpt><trkpt lat="37.9314583" lon="12.6389983"><ele>98.0</ele><time>2026-03-25T08:33:29.524Z</time></trkpt><trkpt lat="37.9315767" lon="12.638845"><ele>98.0</ele><time>2026-03-25T08:33:30.524Z</time></trkpt><trkpt lat="37.9316917" lon="12.63868"><ele>98.0</ele><time>2026-03-25T08:33:31.525Z</time></trkpt><trkpt lat="37.931805" lon="12.6384983"><ele>96.66666666666666</ele><time>2026-03-25T08:33:32.523Z</time></trkpt><trkpt lat="37.9319167" lon="12.6383083"><ele>95.33333333333333</ele><time>2026-03-25T08:33:33.523Z</time></trkpt><trkpt lat="37.93203" lon="12.63812"><ele>94.0</ele><time>2026-03-25T08:33:34.528Z</time></trkpt><trkpt lat="37.9321433" lon="12.6379267"><ele>94.0</ele><time>2026-03-25T08:33:35.526Z</time></trkpt><trkpt lat="37.9322567" lon="12.6377267"><ele>94.0</ele><time>2026-03-25T08:33:36.528Z</time></trkpt><trkpt lat="37.93237" lon="12.6375267"><ele>94.0</ele><time>2026-03-25T08:33:37.525Z</time></trkpt><trkpt lat="37.932485" lon="12.6373283"><ele>93.66666666666666</ele><time>2026-03-25T08:33:38.524Z</time></trkpt><trkpt lat="37.9326" lon="12.63713"><ele>93.33333333333333</ele><time>2026-03-25T08:33:39.522Z</time></trkpt><trkpt lat="37.9327133" lon="12.6369367"><ele>93.0</ele><time>2026-03-25T08:33:40.524Z</time></trkpt><trkpt lat="37.93282" lon="12.6367483"><ele>93.0</ele><time>2026-03-25T08:33:41.523Z</time></trkpt><trkpt lat="37.9329233" lon="12.6365683"><ele>93.0</ele><time>2026-03-25T08:33:42.523Z</time></trkpt><trkpt lat="37.9330233" lon="12.6363983"><ele>93.0</ele><time>2026-03-25T08:33:43.521Z</time></trkpt><trkpt lat="37.9331267" lon="12.6362383"><ele>93.0</ele><time>2026-03-25T08:33:44.527Z</time></trkpt><trkpt lat="37.9332417" lon="12.6360833"><ele>93.0</ele><time>2026-03-25T08:33:45.525Z</time></trkpt><trkpt lat="37.9333683" lon="12.6359317"><ele>93.0</ele><time>2026-03-25T08:33:46.521Z</time></trkpt><trkpt lat="37.9335" lon="12.63578"><ele>92.33333333333333</ele><time>2026-03-25T08:33:47.523Z</time></trkpt><trkpt lat="37.9336333" lon="12.6356283"><ele>91.66666666666666</ele><time>2026-03-25T08:33:48.526Z</time></trkpt><trkpt lat="37.9337667" lon="12.6354783"><ele>91.0</ele><time>2026-03-25T08:33:49.527Z</time></trkpt><trkpt lat="37.9338933" lon="12.635335"><ele>91.0</ele><time>2026-03-25T08:33:50.525Z</time></trkpt><trkpt lat="37.934015" lon="12.6351983"><ele>91.0</ele><time>2026-03-25T08:33:51.525Z</time></trkpt><trkpt lat="37.93413" lon="12.63507"><ele>91.0</ele><time>2026-03-25T08:33:52.529Z</time></trkpt><trkpt lat="37.93424" lon="12.634945"><ele>91.0</ele><time>2026-03-25T08:33:53.527Z</time></trkpt><trkpt lat="37.9343517" lon="12.6348183"><ele>91.0</ele><time>2026-03-25T08:33:54.525Z</time></trkpt><trkpt lat="37.9344633" lon="12.634685"><ele>91.0</ele><time>2026-03-25T08:33:55.523Z</time></trkpt><trkpt lat="37.9345767" lon="12.6345517"><ele>92.0</ele><time>2026-03-25T08:33:56.523Z</time></trkpt><trkpt lat="37.93469" lon="12.6344133"><ele>93.0</ele><time>2026-03-25T08:33:57.523Z</time></trkpt><trkpt lat="37.9347983" lon="12.634265"><ele>94.0</ele><time>2026-03-25T08:33:58.526Z</time></trkpt><trkpt lat="37.934905" lon="12.6341133"><ele>94.0</ele><time>2026-03-25T08:33:59.527Z</time></trkpt><trkpt lat="37.93501" lon="12.6339533"><ele>94.0</ele><time>2026-03-25T08:34:00.527Z</time></trkpt><trkpt lat="37.9351133" lon="12.6337883"><ele>94.0</ele><time>2026-03-25T08:34:01.524Z</time></trkpt><trkpt lat="37.93522" lon="12.63362"><ele>93.66666666666666</ele><time>2026-03-25T08:34:02.524Z</time></trkpt><trkpt lat="37.9353267" lon="12.6334483"><ele>93.33333333333333</ele><time>2026-03-25T08:34:03.529Z</time></trkpt><trkpt lat="37.935435" lon="12.633275"><ele>93.0</ele><time>2026-03-25T08:34:04.522Z</time></trkpt><trkpt lat="37.9355467" lon="12.6330983"><ele>93.0</ele><time>2026-03-25T08:34:05.524Z</time></trkpt><trkpt lat="37.9356583" lon="12.6329233"><ele>93.0</ele><time>2026-03-25T08:34:06.527Z</time></trkpt><trkpt lat="37.9357683" lon="12.632745"><ele>93.0</ele><time>2026-03-25T08:34:07.525Z</time></trkpt><trkpt lat="37.93588" lon="12.63257"><ele>93.66666666666667</ele><time>2026-03-25T08:34:08.525Z</time></trkpt><trkpt lat="37.93599" lon="12.632395"><ele>94.33333333333334</ele><time>2026-03-25T08:34:09.527Z</time></trkpt><trkpt lat="37.9361033" lon="12.6322183"><ele>95.0</ele><time>2026-03-25T08:34:10.525Z</time></trkpt><trkpt lat="37.9362183" lon="12.6320433"><ele>94.33333333333334</ele><time>2026-03-25T08:34:11.525Z</time></trkpt><trkpt lat="37.93633" lon="12.6318667"><ele>93.66666666666667</ele><time>2026-03-25T08:34:12.529Z</time></trkpt><trkpt lat="37.9364383" lon="12.6316917"><ele>93.0</ele><time>2026-03-25T08:34:13.524Z</time></trkpt><trkpt lat="37.9365417" lon="12.6315233"><ele>93.0</ele><time>2026-03-25T08:34:14.528Z</time></trkpt><trkpt lat="37.9366417" lon="12.6313617"><ele>93.0</ele><time>2026-03-25T08:34:15.521Z</time></trkpt><trkpt lat="37.93674" lon="12.631205"><ele>93.0</ele><time>2026-03-25T08:34:16.525Z</time></trkpt><trkpt lat="37.9368367" lon="12.631055"><ele>93.0</ele><time>2026-03-25T08:34:17.524Z</time></trkpt><trkpt lat="37.936935" lon="12.63092"><ele>93.0</ele><time>2026-03-25T08:34:18.524Z</time></trkpt><trkpt lat="37.9370383" lon="12.6308033"><ele>93.0</ele><time>2026-03-25T08:34:19.526Z</time></trkpt><trkpt lat="37.9371567" lon="12.6307017"><ele>93.0</ele><time>2026-03-25T08:34:20.526Z</time></trkpt><trkpt lat="37.9372883" lon="12.6306167"><ele>93.0</ele><time>2026-03-25T08:34:21.523Z</time></trkpt><trkpt lat="37.9374367" lon="12.6305367"><ele>93.0</ele><time>2026-03-25T08:34:22.523Z</time></trkpt><trkpt lat="37.937595" lon="12.630455"><ele>93.0</ele><time>2026-03-25T08:34:23.524Z</time></trkpt><trkpt lat="37.9377633" lon="12.6303633"><ele>91.66666666666667</ele><time>2026-03-25T08:34:24.529Z</time></trkpt><trkpt lat="37.937935" lon="12.6302567"><ele>90.33333333333334</ele><time>2026-03-25T08:34:25.524Z</time></trkpt><trkpt lat="37.9381083" lon="12.6301267"><ele>89.0</ele><time>2026-03-25T08:34:26.523Z</time></trkpt><trkpt lat="37.93828" lon="12.629985"><ele>87.33333333333334</ele><time>2026-03-25T08:34:27.522Z</time></trkpt><trkpt lat="37.938455" lon="12.629835"><ele>85.66666666666667</ele><time>2026-03-25T08:34:28.53Z</time></trkpt><trkpt lat="37.9386333" lon="12.6296817"><ele>84.0</ele><time>2026-03-25T08:34:29.523Z</time></trkpt><trkpt lat="37.938815" lon="12.6295283"><ele>84.0</ele><time>2026-03-25T08:34:30.521Z</time></trkpt><trkpt lat="37.9389933" lon="12.629375"><ele>84.0</ele><time>2026-03-25T08:34:31.522Z</time></trkpt><trkpt lat="37.9391683" lon="12.6292217"><ele>84.0</ele><time>2026-03-25T08:34:32.53Z</time></trkpt><trkpt lat="37.9393417" lon="12.629075"><ele>83.33333333333333</ele><time>2026-03-25T08:34:33.524Z</time></trkpt><trkpt lat="37.9395133" lon="12.62894"><ele>82.66666666666666</ele><time>2026-03-25T08:34:34.525Z</time></trkpt><trkpt lat="37.9396933" lon="12.6288317"><ele>82.0</ele><time>2026-03-25T08:34:35.525Z</time></trkpt><trkpt lat="37.9398817" lon="12.628745"><ele>81.66666666666666</ele><time>2026-03-25T08:34:36.523Z</time></trkpt><trkpt lat="37.9400767" lon="12.6286683"><ele>81.33333333333333</ele><time>2026-03-25T08:34:37.528Z</time></trkpt><trkpt lat="37.9402717" lon="12.6285917"><ele>81.0</ele><time>2026-03-25T08:34:38.524Z</time></trkpt><trkpt lat="37.9404683" lon="12.6285133"><ele>80.33333333333333</ele><time>2026-03-25T08:34:39.523Z</time></trkpt><trkpt lat="37.940665" lon="12.6284333"><ele>79.66666666666666</ele><time>2026-03-25T08:34:40.524Z</time></trkpt><trkpt lat="37.9408633" lon="12.6283533"><ele>79.0</ele><time>2026-03-25T08:34:41.525Z</time></trkpt><trkpt lat="37.9410583" lon="12.6282733"><ele>79.0</ele><time>2026-03-25T08:34:42.524Z</time></trkpt><trkpt lat="37.941255" lon="12.6281917"><ele>79.0</ele><time>2026-03-25T08:34:43.523Z</time></trkpt><trkpt lat="37.9414467" lon="12.6281167"><ele>79.0</ele><time>2026-03-25T08:34:44.527Z</time></trkpt><trkpt lat="37.9416317" lon="12.6280417"><ele>78.0</ele><time>2026-03-25T08:34:45.523Z</time></trkpt><trkpt lat="37.9418183" lon="12.6279683"><ele>77.0</ele><time>2026-03-25T08:34:46.524Z</time></trkpt><trkpt lat="37.9420017" lon="12.6278967"><ele>76.0</ele><time>2026-03-25T08:34:47.526Z</time></trkpt><trkpt lat="37.942175" lon="12.62783"><ele>77.0</ele><time>2026-03-25T08:34:48.525Z</time></trkpt><trkpt lat="37.9423417" lon="12.627765"><ele>78.0</ele><time>2026-03-25T08:34:49.526Z</time></trkpt><trkpt lat="37.9425067" lon="12.6276933"><ele>79.0</ele><time>2026-03-25T08:34:50.525Z</time></trkpt><trkpt lat="37.9426783" lon="12.6276133"><ele>79.0</ele><time>2026-03-25T08:34:51.526Z</time></trkpt><trkpt lat="37.9428517" lon="12.6275233"><ele>79.0</ele><time>2026-03-25T08:34:52.528Z</time></trkpt><trkpt lat="37.9430233" lon="12.6274283"><ele>79.0</ele><time>2026-03-25T08:34:53.524Z</time></trkpt><trkpt lat="37.943195" lon="12.6273317"><ele>79.0</ele><time>2026-03-25T08:34:54.522Z</time></trkpt><trkpt lat="37.94336" lon="12.6272367"><ele>79.0</ele><time>2026-03-25T08:34:55.524Z</time></trkpt><trkpt lat="37.943525" lon="12.62714"><ele>79.0</ele><time>2026-03-25T08:34:56.528Z</time></trkpt><trkpt lat="37.9436917" lon="12.6270433"><ele>79.33333333333333</ele><time>2026-03-25T08:34:57.522Z</time></trkpt><trkpt lat="37.9438583" lon="12.6269483"><ele>79.66666666666667</ele><time>2026-03-25T08:34:58.527Z</time></trkpt><trkpt lat="37.9440167" lon="12.626855"><ele>80.0</ele><time>2026-03-25T08:34:59.524Z</time></trkpt><trkpt lat="37.944175" lon="12.62677"><ele>78.66666666666667</ele><time>2026-03-25T08:35:00.525Z</time></trkpt><trkpt lat="37.9443267" lon="12.6266833"><ele>77.33333333333333</ele><time>2026-03-25T08:35:01.525Z</time></trkpt><trkpt lat="37.9444767" lon="12.6265933"><ele>76.0</ele><time>2026-03-25T08:35:02.525Z</time></trkpt><trkpt lat="37.944625" lon="12.6264933"><ele>76.0</ele><time>2026-03-25T08:35:03.525Z</time></trkpt><trkpt lat="37.9447717" lon="12.626375"><ele>76.0</ele><time>2026-03-25T08:35:04.531Z</time></trkpt><trkpt lat="37.9449167" lon="12.6262417"><ele>76.0</ele><time>2026-03-25T08:35:05.528Z</time></trkpt><trkpt lat="37.9450567" lon="12.6260967"><ele>76.0</ele><time>2026-03-25T08:35:06.523Z</time></trkpt><trkpt lat="37.9451917" lon="12.62595"><ele>76.0</ele><time>2026-03-25T08:35:07.525Z</time></trkpt><trkpt lat="37.9453267" lon="12.6258033"><ele>76.0</ele><time>2026-03-25T08:35:08.524Z</time></trkpt><trkpt lat="37.945465" lon="12.6256517"><ele>76.0</ele><time>2026-03-25T08:35:09.525Z</time></trkpt><trkpt lat="37.9456017" lon="12.6255"><ele>76.0</ele><time>2026-03-25T08:35:10.526Z</time></trkpt><trkpt lat="37.9457367" lon="12.6253517"><ele>76.0</ele><time>2026-03-25T08:35:11.52Z</time></trkpt><trkpt lat="37.9458717" lon="12.6252067"><ele>74.33333333333333</ele><time>2026-03-25T08:35:12.518Z</time></trkpt><trkpt lat="37.946005" lon="12.62506"><ele>72.66666666666667</ele><time>2026-03-25T08:35:13.52Z</time></trkpt><trkpt lat="37.946135" lon="12.6249333"><ele>71.0</ele><time>2026-03-25T08:35:14.52Z</time></trkpt><trkpt lat="37.94628" lon="12.6248417"><ele>71.0</ele><time>2026-03-25T08:35:15.524Z</time></trkpt><trkpt lat="37.9464433" lon="12.62477"><ele>71.0</ele><time>2026-03-25T08:35:16.523Z</time></trkpt><trkpt lat="37.9466167" lon="12.624705"><ele>71.0</ele><time>2026-03-25T08:35:17.52Z</time></trkpt><trkpt lat="37.9467933" lon="12.624645"><ele>71.0</ele><time>2026-03-25T08:35:18.525Z</time></trkpt><trkpt lat="37.9469717" lon="12.6245817"><ele>71.0</ele><time>2026-03-25T08:35:19.527Z</time></trkpt><trkpt lat="37.94715" lon="12.624505"><ele>71.0</ele><time>2026-03-25T08:35:20.523Z</time></trkpt><trkpt lat="37.9473317" lon="12.624405"><ele>71.0</ele><time>2026-03-25T08:35:21.529Z</time></trkpt><trkpt lat="37.9475183" lon="12.6242767"><ele>71.0</ele><time>2026-03-25T08:35:22.524Z</time></trkpt><trkpt lat="37.94771" lon="12.6241233"><ele>71.0</ele><time>2026-03-25T08:35:23.527Z</time></trkpt><trkpt lat="37.9479017" lon="12.62396"><ele>71.0</ele><time>2026-03-25T08:35:24.527Z</time></trkpt><trkpt lat="37.9480983" lon="12.6237867"><ele>71.0</ele><time>2026-03-25T08:35:25.523Z</time></trkpt><trkpt lat="37.9483017" lon="12.62361"><ele>70.0</ele><time>2026-03-25T08:35:26.524Z</time></trkpt><trkpt lat="37.948515" lon="12.6234333"><ele>69.0</ele><time>2026-03-25T08:35:27.525Z</time></trkpt><trkpt lat="37.9487333" lon="12.6232533"><ele>69.0</ele><time>2026-03-25T08:35:28.522Z</time></trkpt><trkpt lat="37.9489517" lon="12.6230733"><ele>69.0</ele><time>2026-03-25T08:35:29.52Z</time></trkpt><trkpt lat="37.9491683" lon="12.6228933"><ele>69.0</ele><time>2026-03-25T08:35:30.524Z</time></trkpt><trkpt lat="37.949385" lon="12.6227133"><ele>69.0</ele><time>2026-03-25T08:35:31.523Z</time></trkpt><trkpt lat="37.9496" lon="12.62253"><ele>69.0</ele><time>2026-03-25T08:35:32.528Z</time></trkpt><trkpt lat="37.949815" lon="12.62235"><ele>69.0</ele><time>2026-03-25T08:35:33.523Z</time></trkpt><trkpt lat="37.9500283" lon="12.6221717"><ele>68.0</ele><time>2026-03-25T08:35:34.524Z</time></trkpt><trkpt lat="37.950235" lon="12.622"><ele>67.0</ele><time>2026-03-25T08:35:35.524Z</time></trkpt><trkpt lat="37.9504283" lon="12.62184"><ele>66.66666666666666</ele><time>2026-03-25T08:35:36.523Z</time></trkpt><trkpt lat="37.950615" lon="12.621685"><ele>66.33333333333333</ele><time>2026-03-25T08:35:37.523Z</time></trkpt><trkpt lat="37.9507883" lon="12.62154"><ele>66.0</ele><time>2026-03-25T08:35:38.525Z</time></trkpt><trkpt lat="37.9509483" lon="12.621405"><ele>66.0</ele><time>2026-03-25T08:35:39.524Z</time></trkpt><trkpt lat="37.9510933" lon="12.62128"><ele>66.0</ele><time>2026-03-25T08:35:40.527Z</time></trkpt><trkpt lat="37.9512233" lon="12.621155"><ele>66.0</ele><time>2026-03-25T08:35:41.526Z</time></trkpt><trkpt lat="37.9513417" lon="12.6210167"><ele>66.0</ele><time>2026-03-25T08:35:42.521Z</time></trkpt><trkpt lat="37.9514483" lon="12.62085"><ele>66.0</ele><time>2026-03-25T08:35:43.522Z</time></trkpt><trkpt lat="37.95155" lon="12.6206533"><ele>66.0</ele><time>2026-03-25T08:35:44.529Z</time></trkpt><trkpt lat="37.9516517" lon="12.62044"><ele>65.66666666666667</ele><time>2026-03-25T08:35:45.526Z</time></trkpt><trkpt lat="37.9517567" lon="12.620235"><ele>65.33333333333334</ele><time>2026-03-25T08:35:46.523Z</time></trkpt><trkpt lat="37.9518667" lon="12.6200467"><ele>65.0</ele><time>2026-03-25T08:35:47.526Z</time></trkpt><trkpt lat="37.9519883" lon="12.6198667"><ele>65.0</ele><time>2026-03-25T08:35:48.525Z</time></trkpt><trkpt lat="37.9521283" lon="12.61969"><ele>65.0</ele><time>2026-03-25T08:35:49.524Z</time></trkpt><trkpt lat="37.9522833" lon="12.61951"><ele>65.0</ele><time>2026-03-25T08:35:50.526Z</time></trkpt><trkpt lat="37.9524433" lon="12.6193317"><ele>65.0</ele><time>2026-03-25T08:35:51.525Z</time></trkpt><trkpt lat="37.9526083" lon="12.61915"><ele>65.0</ele><time>2026-03-25T08:35:52.526Z</time></trkpt><trkpt lat="37.95278" lon="12.6189583"><ele>65.0</ele><time>2026-03-25T08:35:53.525Z</time></trkpt><trkpt lat="37.9529567" lon="12.61876"><ele>65.5</ele><time>2026-03-25T08:35:54.523Z</time></trkpt><trkpt lat="37.953135" lon="12.6185617"><ele>66.0</ele><time>2026-03-25T08:35:55.523Z</time></trkpt><trkpt lat="37.9533133" lon="12.6183667"><ele>66.66666666666667</ele><time>2026-03-25T08:35:56.529Z</time></trkpt><trkpt lat="37.95349" lon="12.6181817"><ele>67.33333333333334</ele><time>2026-03-25T08:35:57.521Z</time></trkpt><trkpt lat="37.9536567" lon="12.6180067"><ele>68.0</ele><time>2026-03-25T08:35:58.523Z</time></trkpt><trkpt lat="37.9538117" lon="12.6178483"><ele>68.0</ele><time>2026-03-25T08:35:59.527Z</time></trkpt><trkpt lat="37.9539617" lon="12.617705"><ele>68.0</ele><time>2026-03-25T08:36:00.524Z</time></trkpt><trkpt lat="37.9541017" lon="12.6175767"><ele>68.0</ele><time>2026-03-25T08:36:01.524Z</time></trkpt><trkpt lat="37.9542317" lon="12.6174533"><ele>68.0</ele><time>2026-03-25T08:36:02.525Z</time></trkpt><trkpt lat="37.954355" lon="12.6173383"><ele>68.0</ele><time>2026-03-25T08:36:03.524Z</time></trkpt><trkpt lat="37.9544683" lon="12.617235"><ele>68.0</ele><time>2026-03-25T08:36:04.523Z</time></trkpt><trkpt lat="37.9545767" lon="12.6171383"><ele>68.0</ele><time>2026-03-25T08:36:05.524Z</time></trkpt><trkpt lat="37.9546733" lon="12.61705"><ele>68.0</ele><time>2026-03-25T08:36:06.524Z</time></trkpt><trkpt lat="37.9547617" lon="12.6169733"><ele>68.0</ele><time>2026-03-25T08:36:07.524Z</time></trkpt><trkpt lat="37.9548383" lon="12.6169083"><ele>68.0</ele><time>2026-03-25T08:36:08.523Z</time></trkpt><trkpt lat="37.9548983" lon="12.6168617"><ele>68.0</ele><time>2026-03-25T08:36:09.524Z</time></trkpt><trkpt lat="37.954985" lon="12.61686"><ele>68.0</ele><time>2026-03-25T08:36:11.525Z</time></trkpt><trkpt lat="37.9550533" lon="12.6169767"><ele>67.8</ele><time>2026-03-25T08:36:13.524Z</time></trkpt><trkpt lat="37.9550883" lon="12.6170583"><ele>67.6</ele><time>2026-03-25T08:36:14.523Z</time></trkpt><trkpt lat="37.95512" lon="12.6171317"><ele>67.4</ele><time>2026-03-25T08:36:15.524Z</time></trkpt><trkpt lat="37.95516" lon="12.617245"><ele>67.2</ele><time>2026-03-25T08:36:17.521Z</time></trkpt><trkpt lat="37.9552083" lon="12.6173633"><ele>67.0</ele><time>2026-03-25T08:36:20.523Z</time></trkpt><trkpt lat="37.9552733" lon="12.6175"><ele>67.0</ele><time>2026-03-25T08:36:22.522Z</time></trkpt><trkpt lat="37.9553067" lon="12.61759"><ele>67.0</ele><time>2026-03-25T08:36:23.52Z</time></trkpt><trkpt lat="37.955345" lon="12.6176983"><ele>67.0</ele><time>2026-03-25T08:36:24.524Z</time></trkpt><trkpt lat="37.955385" lon="12.6178167"><ele>67.0</ele><time>2026-03-25T08:36:25.526Z</time></trkpt><trkpt lat="37.95543" lon="12.61794"><ele>67.0</ele><time>2026-03-25T08:36:26.521Z</time></trkpt><trkpt lat="37.9554817" lon="12.6180767"><ele>67.0</ele><time>2026-03-25T08:36:27.524Z</time></trkpt><trkpt lat="37.9555367" lon="12.6182183"><ele>67.0</ele><time>2026-03-25T08:36:28.524Z</time></trkpt><trkpt lat="37.9555917" lon="12.6183567"><ele>67.0</ele><time>2026-03-25T08:36:29.525Z</time></trkpt><trkpt lat="37.9556533" lon="12.6184933"><ele>67.0</ele><time>2026-03-25T08:36:30.525Z</time></trkpt><trkpt lat="37.9557267" lon="12.618625"><ele>67.5</ele><time>2026-03-25T08:36:31.521Z</time></trkpt><trkpt lat="37.955815" lon="12.6187533"><ele>68.0</ele><time>2026-03-25T08:36:32.525Z</time></trkpt><trkpt lat="37.9559183" lon="12.618875"><ele>68.5</ele><time>2026-03-25T08:36:33.522Z</time></trkpt><trkpt lat="37.9560317" lon="12.6189933"><ele>69.0</ele><time>2026-03-25T08:36:34.528Z</time></trkpt><trkpt lat="37.9561583" lon="12.6191167"><ele>69.0</ele><time>2026-03-25T08:36:35.526Z</time></trkpt><trkpt lat="37.9562933" lon="12.6192433"><ele>69.0</ele><time>2026-03-25T08:36:36.526Z</time></trkpt><trkpt lat="37.9564367" lon="12.619375"><ele>69.0</ele><time>2026-03-25T08:36:37.523Z</time></trkpt><trkpt lat="37.9565817" lon="12.6195083"><ele>69.66666666666667</ele><time>2026-03-25T08:36:38.524Z</time></trkpt><trkpt lat="37.9567283" lon="12.61964"><ele>70.33333333333334</ele><time>2026-03-25T08:36:39.525Z</time></trkpt><trkpt lat="37.9568767" lon="12.61977"><ele>71.0</ele><time>2026-03-25T08:36:40.522Z</time></trkpt><trkpt lat="37.9570283" lon="12.619905"><ele>71.0</ele><time>2026-03-25T08:36:41.523Z</time></trkpt><trkpt lat="37.95718" lon="12.6200433"><ele>71.0</ele><time>2026-03-25T08:36:42.522Z</time></trkpt><trkpt lat="37.957335" lon="12.6201867"><ele>71.0</ele><time>2026-03-25T08:36:43.522Z</time></trkpt><trkpt lat="37.9574933" lon="12.620335"><ele>71.66666666666667</ele><time>2026-03-25T08:36:44.529Z</time></trkpt><trkpt lat="37.957655" lon="12.6204867"><ele>72.33333333333333</ele><time>2026-03-25T08:36:45.526Z</time></trkpt><trkpt lat="37.9578217" lon="12.620635"><ele>73.0</ele><time>2026-03-25T08:36:46.522Z</time></trkpt><trkpt lat="37.95799" lon="12.620785"><ele>73.0</ele><time>2026-03-25T08:36:47.523Z</time></trkpt><trkpt lat="37.9581583" lon="12.620935"><ele>73.0</ele><time>2026-03-25T08:36:48.523Z</time></trkpt><trkpt lat="37.9583283" lon="12.62109"><ele>73.0</ele><time>2026-03-25T08:36:49.525Z</time></trkpt><trkpt lat="37.9585017" lon="12.6212483"><ele>73.66666666666666</ele><time>2026-03-25T08:36:50.529Z</time></trkpt><trkpt lat="37.9586783" lon="12.6214083"><ele>74.33333333333333</ele><time>2026-03-25T08:36:51.525Z</time></trkpt><trkpt lat="37.9588567" lon="12.6215683"><ele>75.0</ele><time>2026-03-25T08:36:52.526Z</time></trkpt><trkpt lat="37.9590333" lon="12.62173"><ele>74.66666666666667</ele><time>2026-03-25T08:36:53.525Z</time></trkpt><trkpt lat="37.95921" lon="12.6218883"><ele>74.33333333333334</ele><time>2026-03-25T08:36:54.525Z</time></trkpt><trkpt lat="37.9593867" lon="12.62205"><ele>74.0</ele><time>2026-03-25T08:36:55.521Z</time></trkpt><trkpt lat="37.9595633" lon="12.6222117"><ele>74.0</ele><time>2026-03-25T08:36:56.526Z</time></trkpt><trkpt lat="37.95974" lon="12.6223717"><ele>74.0</ele><time>2026-03-25T08:36:57.527Z</time></trkpt><trkpt lat="37.9599183" lon="12.6225317"><ele>74.0</ele><time>2026-03-25T08:36:58.522Z</time></trkpt><trkpt lat="37.960095" lon="12.6226883"><ele>75.0</ele><time>2026-03-25T08:36:59.522Z</time></trkpt><trkpt lat="37.9602717" lon="12.6228483"><ele>76.0</ele><time>2026-03-25T08:37:00.531Z</time></trkpt><trkpt lat="37.9604467" lon="12.6230067"><ele>77.0</ele><time>2026-03-25T08:37:01.526Z</time></trkpt><trkpt lat="37.9606217" lon="12.6231683"><ele>77.0</ele><time>2026-03-25T08:37:02.528Z</time></trkpt><trkpt lat="37.960795" lon="12.6233317"><ele>77.0</ele><time>2026-03-25T08:37:03.522Z</time></trkpt><trkpt lat="37.9609717" lon="12.6234967"><ele>77.0</ele><time>2026-03-25T08:37:04.523Z</time></trkpt><trkpt lat="37.9611483" lon="12.62366"><ele>76.0</ele><time>2026-03-25T08:37:05.522Z</time></trkpt><trkpt lat="37.9613267" lon="12.6238267"><ele>75.0</ele><time>2026-03-25T08:37:06.526Z</time></trkpt><trkpt lat="37.9615033" lon="12.6239883"><ele>74.0</ele><time>2026-03-25T08:37:07.523Z</time></trkpt><trkpt lat="37.9616733" lon="12.62414"><ele>75.33333333333334</ele><time>2026-03-25T08:37:08.527Z</time></trkpt><trkpt lat="37.961835" lon="12.624285"><ele>76.66666666666667</ele><time>2026-03-25T08:37:09.522Z</time></trkpt><trkpt lat="37.9619833" lon="12.6244183"><ele>78.0</ele><time>2026-03-25T08:37:10.527Z</time></trkpt><trkpt lat="37.9621217" lon="12.6245467"><ele>79.0</ele><time>2026-03-25T08:37:11.527Z</time></trkpt><trkpt lat="37.9622533" lon="12.6246667"><ele>80.0</ele><time>2026-03-25T08:37:12.525Z</time></trkpt><trkpt lat="37.9623767" lon="12.6247717"><ele>81.0</ele><time>2026-03-25T08:37:13.525Z</time></trkpt><trkpt lat="37.9625817" lon="12.62495"><ele>81.6</ele><time>2026-03-25T08:37:15.523Z</time></trkpt><trkpt lat="37.962655" lon="12.625035"><ele>82.19999999999999</ele><time>2026-03-25T08:37:16.523Z</time></trkpt><trkpt lat="37.9627033" lon="12.6251317"><ele>82.80000000000001</ele><time>2026-03-25T08:37:17.526Z</time></trkpt><trkpt lat="37.9627317" lon="12.6252417"><ele>83.4</ele><time>2026-03-25T08:37:18.527Z</time></trkpt><trkpt lat="37.9627383" lon="12.625365"><ele>84.0</ele><time>2026-03-25T08:37:19.523Z</time></trkpt><trkpt lat="37.9627167" lon="12.6254967"><ele>84.75</ele><time>2026-03-25T08:37:20.527Z</time></trkpt><trkpt lat="37.9626683" lon="12.6256233"><ele>85.5</ele><time>2026-03-25T08:37:21.526Z</time></trkpt><trkpt lat="37.9625883" lon="12.625745"><ele>86.25</ele><time>2026-03-25T08:37:22.525Z</time></trkpt><trkpt lat="37.9624917" lon="12.62587"><ele>87.0</ele><time>2026-03-25T08:37:23.523Z</time></trkpt><trkpt lat="37.9623883" lon="12.6260117"><ele>87.5</ele><time>2026-03-25T08:37:24.53Z</time></trkpt><trkpt lat="37.9622967" lon="12.6261633"><ele>88.0</ele><time>2026-03-25T08:37:25.524Z</time></trkpt><trkpt lat="37.9622217" lon="12.626315"><ele>88.5</ele><time>2026-03-25T08:37:26.525Z</time></trkpt><trkpt lat="37.9621567" lon="12.6264817"><ele>89.0</ele><time>2026-03-25T08:37:27.523Z</time></trkpt><trkpt lat="37.962095" lon="12.626665"><ele>89.0</ele><time>2026-03-25T08:37:28.526Z</time></trkpt><trkpt lat="37.9620383" lon="12.626865"><ele>89.0</ele><time>2026-03-25T08:37:29.526Z</time></trkpt><trkpt lat="37.9619883" lon="12.62707"><ele>89.0</ele><time>2026-03-25T08:37:30.524Z</time></trkpt><trkpt lat="37.961945" lon="12.6272783"><ele>89.33333333333334</ele><time>2026-03-25T08:37:31.526Z</time></trkpt><trkpt lat="37.9619133" lon="12.627485"><ele>89.66666666666667</ele><time>2026-03-25T08:37:32.529Z</time></trkpt><trkpt lat="37.9618917" lon="12.6276767"><ele>90.0</ele><time>2026-03-25T08:37:33.523Z</time></trkpt><trkpt lat="37.9618817" lon="12.6278517"><ele>90.0</ele><time>2026-03-25T08:37:34.525Z</time></trkpt><trkpt lat="37.9618817" lon="12.62802"><ele>90.0</ele><time>2026-03-25T08:37:35.529Z</time></trkpt><trkpt lat="37.9618983" lon="12.6281883"><ele>90.0</ele><time>2026-03-25T08:37:36.526Z</time></trkpt><trkpt lat="37.9619317" lon="12.6283633"><ele>90.0</ele><time>2026-03-25T08:37:37.527Z</time></trkpt><trkpt lat="37.9619833" lon="12.6285483"><ele>91.0</ele><time>2026-03-25T08:37:38.523Z</time></trkpt><trkpt lat="37.9620517" lon="12.6287483"><ele>92.0</ele><time>2026-03-25T08:37:39.53Z</time></trkpt><trkpt lat="37.9621367" lon="12.62896"><ele>93.0</ele><time>2026-03-25T08:37:40.522Z</time></trkpt><trkpt lat="37.9622233" lon="12.6291733"><ele>93.0</ele><time>2026-03-25T08:37:41.524Z</time></trkpt><trkpt lat="37.9623067" lon="12.6293817"><ele>93.0</ele><time>2026-03-25T08:37:42.53Z</time></trkpt><trkpt lat="37.9623867" lon="12.62958"><ele>93.0</ele><time>2026-03-25T08:37:43.523Z</time></trkpt><trkpt lat="37.9624533" lon="12.6297617"><ele>93.0</ele><time>2026-03-25T08:37:44.526Z</time></trkpt><trkpt lat="37.9625083" lon="12.6299233"><ele>93.0</ele><time>2026-03-25T08:37:45.522Z</time></trkpt><trkpt lat="37.9625567" lon="12.63006"><ele>93.0</ele><time>2026-03-25T08:37:46.524Z</time></trkpt><trkpt lat="37.9625933" lon="12.63018"><ele>93.0</ele><time>2026-03-25T08:37:47.525Z</time></trkpt><trkpt lat="37.9626083" lon="12.6302767"><ele>93.0</ele><time>2026-03-25T08:37:48.521Z</time></trkpt><trkpt lat="37.96257" lon="12.6303967"><ele>93.4</ele><time>2026-03-25T08:37:50.528Z</time></trkpt><trkpt lat="37.9624367" lon="12.6304017"><ele>93.80000000000001</ele><time>2026-03-25T08:37:52.525Z</time></trkpt><trkpt lat="37.96237" lon="12.6303433"><ele>94.2</ele><time>2026-03-25T08:37:53.523Z</time></trkpt><trkpt lat="37.9623183" lon="12.6302633"><ele>94.6</ele><time>2026-03-25T08:37:54.521Z</time></trkpt><trkpt lat="37.9622967" lon="12.6301667"><ele>95.0</ele><time>2026-03-25T08:37:55.524Z</time></trkpt><trkpt lat="37.962315" lon="12.63007"><ele>94.2</ele><time>2026-03-25T08:37:56.525Z</time></trkpt><trkpt lat="37.96236" lon="12.629985"><ele>93.4</ele><time>2026-03-25T08:37:57.522Z</time></trkpt><trkpt lat="37.962445" lon="12.6299333"><ele>92.6</ele><time>2026-03-25T08:37:58.524Z</time></trkpt><trkpt lat="37.9625267" lon="12.6298867"><ele>91.8</ele><time>2026-03-25T08:37:59.525Z</time></trkpt><trkpt lat="37.9626683" lon="12.6298183"><ele>91.0</ele><time>2026-03-25T08:38:00.526Z</time></trkpt><trkpt lat="37.96282" lon="12.6297483"><ele>90.5</ele><time>2026-03-25T08:38:01.524Z</time></trkpt><trkpt lat="37.9629517" lon="12.6296833"><ele>90.0</ele><time>2026-03-25T08:38:02.524Z</time></trkpt><trkpt lat="37.9633083" lon="12.6295067"><ele>89.16666666666667</ele><time>2026-03-25T08:38:05.524Z</time></trkpt><trkpt lat="37.9634" lon="12.6294967"><ele>88.33333333333333</ele><time>2026-03-25T08:38:06.523Z</time></trkpt><trkpt lat="37.9634717" lon="12.6294717"><ele>87.5</ele><time>2026-03-25T08:38:07.521Z</time></trkpt><trkpt lat="37.9635583" lon="12.6294483"><ele>86.66666666666666</ele><time>2026-03-25T08:38:08.528Z</time></trkpt><trkpt lat="37.9636483" lon="12.6294567"><ele>85.83333333333333</ele><time>2026-03-25T08:38:09.527Z</time></trkpt><trkpt lat="37.963735" lon="12.6294883"><ele>85.0</ele><time>2026-03-25T08:38:10.523Z</time></trkpt><trkpt lat="37.96383" lon="12.6295367"><ele>85.0</ele><time>2026-03-25T08:38:11.527Z</time></trkpt><trkpt lat="37.963955" lon="12.6295983"><ele>85.0</ele><time>2026-03-25T08:38:12.525Z</time></trkpt><trkpt lat="37.9641033" lon="12.6296667"><ele>85.0</ele><time>2026-03-25T08:38:13.523Z</time></trkpt><trkpt lat="37.964265" lon="12.62974"><ele>84.33333333333333</ele><time>2026-03-25T08:38:14.521Z</time></trkpt><trkpt lat="37.9644333" lon="12.6298167"><ele>83.66666666666667</ele><time>2026-03-25T08:38:15.523Z</time></trkpt><trkpt lat="37.96461" lon="12.6298933"><ele>83.0</ele><time>2026-03-25T08:38:16.523Z</time></trkpt><trkpt lat="37.9647933" lon="12.629975"><ele>83.0</ele><time>2026-03-25T08:38:17.524Z</time></trkpt><trkpt lat="37.9649783" lon="12.63006"><ele>83.0</ele><time>2026-03-25T08:38:18.525Z</time></trkpt><trkpt lat="37.96517" lon="12.6301467"><ele>83.0</ele><time>2026-03-25T08:38:19.52Z</time></trkpt><trkpt lat="37.9653667" lon="12.63023"><ele>84.33333333333334</ele><time>2026-03-25T08:38:20.525Z</time></trkpt><trkpt lat="37.9655717" lon="12.6303183"><ele>85.66666666666667</ele><time>2026-03-25T08:38:21.525Z</time></trkpt><trkpt lat="37.96578" lon="12.6304117"><ele>87.0</ele><time>2026-03-25T08:38:22.524Z</time></trkpt><trkpt lat="37.9659933" lon="12.630505"><ele>87.0</ele><time>2026-03-25T08:38:23.525Z</time></trkpt><trkpt lat="37.9662067" lon="12.6306"><ele>87.0</ele><time>2026-03-25T08:38:24.525Z</time></trkpt><trkpt lat="37.96642" lon="12.630695"><ele>87.0</ele><time>2026-03-25T08:38:25.522Z</time></trkpt><trkpt lat="37.9666233" lon="12.630785"><ele>87.0</ele><time>2026-03-25T08:38:26.525Z</time></trkpt><trkpt lat="37.9668167" lon="12.6308683"><ele>87.0</ele><time>2026-03-25T08:38:27.525Z</time></trkpt><trkpt lat="37.9669933" lon="12.6309467"><ele>87.0</ele><time>2026-03-25T08:38:28.522Z</time></trkpt><trkpt lat="37.967155" lon="12.6310167"><ele>87.0</ele><time>2026-03-25T08:38:29.521Z</time></trkpt><trkpt lat="37.9672983" lon="12.6310833"><ele>87.0</ele><time>2026-03-25T08:38:30.52Z</time></trkpt><trkpt lat="37.9674233" lon="12.6311517"><ele>85.25</ele><time>2026-03-25T08:38:31.526Z</time></trkpt><trkpt lat="37.96753" lon="12.63123"><ele>83.5</ele><time>2026-03-25T08:38:32.529Z</time></trkpt><trkpt lat="37.9676167" lon="12.6313267"><ele>81.75</ele><time>2026-03-25T08:38:33.525Z</time></trkpt><trkpt lat="37.96768" lon="12.6314533"><ele>80.0</ele><time>2026-03-25T08:38:34.521Z</time></trkpt><trkpt lat="37.9677217" lon="12.63161"><ele>80.0</ele><time>2026-03-25T08:38:35.521Z</time></trkpt><trkpt lat="37.96775" lon="12.6318067"><ele>80.0</ele><time>2026-03-25T08:38:36.526Z</time></trkpt><trkpt lat="37.96777" lon="12.6320383"><ele>80.0</ele><time>2026-03-25T08:38:37.522Z</time></trkpt><trkpt lat="37.9677867" lon="12.6322917"><ele>79.66666666666667</ele><time>2026-03-25T08:38:38.527Z</time></trkpt><trkpt lat="37.9678033" lon="12.6325617"><ele>79.33333333333333</ele><time>2026-03-25T08:38:39.522Z</time></trkpt><trkpt lat="37.9678267" lon="12.6328533"><ele>79.0</ele><time>2026-03-25T08:38:40.523Z</time></trkpt><trkpt lat="37.9678517" lon="12.6331433"><ele>80.5</ele><time>2026-03-25T08:38:41.524Z</time></trkpt><trkpt lat="37.9678783" lon="12.63343"><ele>82.0</ele><time>2026-03-25T08:38:42.524Z</time></trkpt><trkpt lat="37.9679033" lon="12.633725"><ele>82.5</ele><time>2026-03-25T08:38:43.526Z</time></trkpt><trkpt lat="37.96793" lon="12.6340317"><ele>83.0</ele><time>2026-03-25T08:38:44.526Z</time></trkpt><trkpt lat="37.9679567" lon="12.6343333"><ele>83.0</ele><time>2026-03-25T08:38:45.525Z</time></trkpt><trkpt lat="37.9679817" lon="12.634615"><ele>83.0</ele><time>2026-03-25T08:38:46.52Z</time></trkpt><trkpt lat="37.968" lon="12.6348767"><ele>83.0</ele><time>2026-03-25T08:38:47.524Z</time></trkpt><trkpt lat="37.9680183" lon="12.6351233"><ele>83.66666666666667</ele><time>2026-03-25T08:38:48.524Z</time></trkpt><trkpt lat="37.9680417" lon="12.6353517"><ele>84.33333333333333</ele><time>2026-03-25T08:38:49.53Z</time></trkpt><trkpt lat="37.968075" lon="12.6355683"><ele>85.0</ele><time>2026-03-25T08:38:50.524Z</time></trkpt><trkpt lat="37.968125" lon="12.635775"><ele>85.0</ele><time>2026-03-25T08:38:51.526Z</time></trkpt><trkpt lat="37.9681983" lon="12.63598"><ele>85.0</ele><time>2026-03-25T08:38:52.525Z</time></trkpt><trkpt lat="37.9682917" lon="12.6361883"><ele>85.0</ele><time>2026-03-25T08:38:53.522Z</time></trkpt><trkpt lat="37.968395" lon="12.6364"><ele>86.0</ele><time>2026-03-25T08:38:54.524Z</time></trkpt><trkpt lat="37.9684983" lon="12.63661"><ele>87.0</ele><time>2026-03-25T08:38:55.524Z</time></trkpt><trkpt lat="37.9686017" lon="12.6368217"><ele>88.0</ele><time>2026-03-25T08:38:56.528Z</time></trkpt><trkpt lat="37.968705" lon="12.6370333"><ele>88.0</ele><time>2026-03-25T08:38:57.525Z</time></trkpt><trkpt lat="37.9688083" lon="12.63725"><ele>88.0</ele><time>2026-03-25T08:38:58.521Z</time></trkpt><trkpt lat="37.9689117" lon="12.6374633"><ele>88.0</ele><time>2026-03-25T08:38:59.525Z</time></trkpt><trkpt lat="37.9690167" lon="12.6376817"><ele>89.0</ele><time>2026-03-25T08:39:00.527Z</time></trkpt><trkpt lat="37.9691233" lon="12.6379017"><ele>90.0</ele><time>2026-03-25T08:39:01.525Z</time></trkpt><trkpt lat="37.9692317" lon="12.638115"><ele>91.0</ele><time>2026-03-25T08:39:02.522Z</time></trkpt><trkpt lat="37.9693317" lon="12.6383133"><ele>91.5</ele><time>2026-03-25T08:39:03.527Z</time></trkpt><trkpt lat="37.96942" lon="12.63849"><ele>92.0</ele><time>2026-03-25T08:39:04.526Z</time></trkpt><trkpt lat="37.9694967" lon="12.6386417"><ele>92.5</ele><time>2026-03-25T08:39:05.523Z</time></trkpt><trkpt lat="37.9695617" lon="12.6387717"><ele>93.0</ele><time>2026-03-25T08:39:06.525Z</time></trkpt><trkpt lat="37.96961" lon="12.6388767"><ele>93.0</ele><time>2026-03-25T08:39:07.525Z</time></trkpt><trkpt lat="37.96965" lon="12.638965"><ele>93.0</ele><time>2026-03-25T08:39:08.526Z</time></trkpt><trkpt lat="37.96969" lon="12.6390483"><ele>93.0</ele><time>2026-03-25T08:39:09.524Z</time></trkpt><trkpt lat="37.969735" lon="12.6391367"><ele>93.0</ele><time>2026-03-25T08:39:10.524Z</time></trkpt><trkpt lat="37.9697917" lon="12.639235"><ele>93.0</ele><time>2026-03-25T08:39:11.524Z</time></trkpt><trkpt lat="37.9698517" lon="12.639355"><ele>93.0</ele><time>2026-03-25T08:39:12.522Z</time></trkpt><trkpt lat="37.96991" lon="12.6394883"><ele>93.5</ele><time>2026-03-25T08:39:13.527Z</time></trkpt><trkpt lat="37.9699717" lon="12.6396317"><ele>94.0</ele><time>2026-03-25T08:39:14.522Z</time></trkpt><trkpt lat="37.9700417" lon="12.6397833"><ele>94.5</ele><time>2026-03-25T08:39:15.521Z</time></trkpt><trkpt lat="37.9701183" lon="12.6399383"><ele>95.0</ele><time>2026-03-25T08:39:16.525Z</time></trkpt><trkpt lat="37.970195" lon="12.6400967"><ele>95.25</ele><time>2026-03-25T08:39:17.523Z</time></trkpt><trkpt lat="37.9702717" lon="12.6402517"><ele>95.5</ele><time>2026-03-25T08:39:18.523Z</time></trkpt><trkpt lat="37.97034" lon="12.6404033"><ele>95.75</ele><time>2026-03-25T08:39:19.525Z</time></trkpt><trkpt lat="37.9704067" lon="12.640545"><ele>96.0</ele><time>2026-03-25T08:39:20.52Z</time></trkpt><trkpt lat="37.97048" lon="12.6406883"><ele>97.0</ele><time>2026-03-25T08:39:21.525Z</time></trkpt><trkpt lat="37.9705533" lon="12.6408333"><ele>98.0</ele><time>2026-03-25T08:39:22.523Z</time></trkpt><trkpt lat="37.9706233" lon="12.6409733"><ele>99.0</ele><time>2026-03-25T08:39:23.524Z</time></trkpt><trkpt lat="37.9706867" lon="12.64111"><ele>100.0</ele><time>2026-03-25T08:39:24.527Z</time></trkpt><trkpt lat="37.97074" lon="12.64125"><ele>101.66666666666667</ele><time>2026-03-25T08:39:25.527Z</time></trkpt><trkpt lat="37.9707767" lon="12.6413983"><ele>103.33333333333334</ele><time>2026-03-25T08:39:26.525Z</time></trkpt><trkpt lat="37.9708083" lon="12.6417283"><ele>105.0</ele><time>2026-03-25T08:39:28.529Z</time></trkpt><trkpt lat="37.9708133" lon="12.6419033"><ele>106.0</ele><time>2026-03-25T08:39:29.522Z</time></trkpt><trkpt lat="37.9708167" lon="12.64208"><ele>107.0</ele><time>2026-03-25T08:39:30.521Z</time></trkpt><trkpt lat="37.9708217" lon="12.6422533"><ele>108.0</ele><time>2026-03-25T08:39:31.523Z</time></trkpt><trkpt lat="37.970825" lon="12.6424283"><ele>109.0</ele><time>2026-03-25T08:39:32.526Z</time></trkpt><trkpt lat="37.97083" lon="12.6426083"><ele>109.0</ele><time>2026-03-25T08:39:33.523Z</time></trkpt><trkpt lat="37.9708367" lon="12.64278"><ele>109.0</ele><time>2026-03-25T08:39:34.524Z</time></trkpt><trkpt lat="37.9708467" lon="12.6429433"><ele>109.0</ele><time>2026-03-25T08:39:35.524Z</time></trkpt><trkpt lat="37.9708633" lon="12.6431133"><ele>109.0</ele><time>2026-03-25T08:39:36.521Z</time></trkpt><trkpt lat="37.9708817" lon="12.6432917"><ele>111.33333333333334</ele><time>2026-03-25T08:39:37.524Z</time></trkpt><trkpt lat="37.9709" lon="12.6434783"><ele>113.66666666666666</ele><time>2026-03-25T08:39:38.528Z</time></trkpt><trkpt lat="37.9709233" lon="12.6436717"><ele>116.0</ele><time>2026-03-25T08:39:39.523Z</time></trkpt><trkpt lat="37.97095" lon="12.64387"><ele>116.0</ele><time>2026-03-25T08:39:40.521Z</time></trkpt><trkpt lat="37.9709783" lon="12.6440733"><ele>116.0</ele><time>2026-03-25T08:39:41.522Z</time></trkpt><trkpt lat="37.97101" lon="12.644275"><ele>116.0</ele><time>2026-03-25T08:39:42.522Z</time></trkpt><trkpt lat="37.9710367" lon="12.6444767"><ele>117.0</ele><time>2026-03-25T08:39:43.523Z</time></trkpt><trkpt lat="37.9710617" lon="12.6446733"><ele>118.0</ele><time>2026-03-25T08:39:44.523Z</time></trkpt><trkpt lat="37.9710817" lon="12.6448667"><ele>119.0</ele><time>2026-03-25T08:39:45.523Z</time></trkpt><trkpt lat="37.971105" lon="12.64506"><ele>119.0</ele><time>2026-03-25T08:39:46.523Z</time></trkpt><trkpt lat="37.971135" lon="12.64525"><ele>119.0</ele><time>2026-03-25T08:39:47.521Z</time></trkpt><trkpt lat="37.9711683" lon="12.64544"><ele>119.0</ele><time>2026-03-25T08:39:48.525Z</time></trkpt><trkpt lat="37.9712067" lon="12.6456233"><ele>119.25</ele><time>2026-03-25T08:39:49.524Z</time></trkpt><trkpt lat="37.97125" lon="12.6458"><ele>119.5</ele><time>2026-03-25T08:39:50.522Z</time></trkpt><trkpt lat="37.9713017" lon="12.645975"><ele>119.75</ele><time>2026-03-25T08:39:51.526Z</time></trkpt><trkpt lat="37.9713617" lon="12.6461483"><ele>120.0</ele><time>2026-03-25T08:39:52.525Z</time></trkpt><trkpt lat="37.9714283" lon="12.64632"><ele>120.33333333333334</ele><time>2026-03-25T08:39:53.524Z</time></trkpt><trkpt lat="37.9715017" lon="12.6464933"><ele>120.66666666666667</ele><time>2026-03-25T08:39:54.525Z</time></trkpt><trkpt lat="37.9715817" lon="12.6466683"><ele>121.0</ele><time>2026-03-25T08:39:55.528Z</time></trkpt><trkpt lat="37.97166" lon="12.6468433"><ele>121.25</ele><time>2026-03-25T08:39:56.526Z</time></trkpt><trkpt lat="37.97174" lon="12.647015"><ele>121.5</ele><time>2026-03-25T08:39:57.523Z</time></trkpt><trkpt lat="37.9718167" lon="12.647175"><ele>121.75</ele><time>2026-03-25T08:39:58.524Z</time></trkpt><trkpt lat="37.9718867" lon="12.647325"><ele>122.0</ele><time>2026-03-25T08:39:59.524Z</time></trkpt><trkpt lat="37.9719567" lon="12.6474683"><ele>122.0</ele><time>2026-03-25T08:40:00.521Z</time></trkpt><trkpt lat="37.9720383" lon="12.6475983"><ele>122.0</ele><time>2026-03-25T08:40:01.52Z</time></trkpt><trkpt lat="37.972135" lon="12.64771"><ele>122.0</ele><time>2026-03-25T08:40:02.526Z</time></trkpt><trkpt lat="37.9722517" lon="12.6478"><ele>122.0</ele><time>2026-03-25T08:40:03.525Z</time></trkpt><trkpt lat="37.9723867" lon="12.6478667"><ele>124.66666666666666</ele><time>2026-03-25T08:40:04.522Z</time></trkpt><trkpt lat="37.972535" lon="12.6479217"><ele>127.33333333333334</ele><time>2026-03-25T08:40:05.525Z</time></trkpt><trkpt lat="37.9726867" lon="12.647975"><ele>130.0</ele><time>2026-03-25T08:40:06.524Z</time></trkpt><trkpt lat="37.9728383" lon="12.6480283"><ele>130.0</ele><time>2026-03-25T08:40:07.525Z</time></trkpt><trkpt lat="37.9729933" lon="12.6480817"><ele>130.0</ele><time>2026-03-25T08:40:08.527Z</time></trkpt><trkpt lat="37.97315" lon="12.648135"><ele>130.0</ele><time>2026-03-25T08:40:09.521Z</time></trkpt><trkpt lat="37.9733017" lon="12.648185"><ele>130.25</ele><time>2026-03-25T08:40:10.528Z</time></trkpt><trkpt lat="37.973445" lon="12.6482333"><ele>130.5</ele><time>2026-03-25T08:40:11.524Z</time></trkpt><trkpt lat="37.97358" lon="12.6482783"><ele>130.75</ele><time>2026-03-25T08:40:12.524Z</time></trkpt><trkpt lat="37.97371" lon="12.6483267"><ele>131.0</ele><time>2026-03-25T08:40:13.524Z</time></trkpt><trkpt lat="37.97384" lon="12.6483817"><ele>131.0</ele><time>2026-03-25T08:40:14.526Z</time></trkpt><trkpt lat="37.9739733" lon="12.6484483"><ele>131.0</ele><time>2026-03-25T08:40:15.526Z</time></trkpt><trkpt lat="37.9741067" lon="12.6485283"><ele>131.0</ele><time>2026-03-25T08:40:16.524Z</time></trkpt><trkpt lat="37.9742367" lon="12.648615"><ele>131.0</ele><time>2026-03-25T08:40:17.527Z</time></trkpt><trkpt lat="37.9743583" lon="12.648705"><ele>132.0</ele><time>2026-03-25T08:40:18.525Z</time></trkpt><trkpt lat="37.9744717" lon="12.6487967"><ele>133.0</ele><time>2026-03-25T08:40:19.522Z</time></trkpt><trkpt lat="37.97458" lon="12.6488867"><ele>134.0</ele><time>2026-03-25T08:40:20.526Z</time></trkpt><trkpt lat="37.9746867" lon="12.64898"><ele>135.0</ele><time>2026-03-25T08:40:21.527Z</time></trkpt><trkpt lat="37.97479" lon="12.6490733"><ele>135.0</ele><time>2026-03-25T08:40:22.528Z</time></trkpt><trkpt lat="37.9748917" lon="12.64916"><ele>135.0</ele><time>2026-03-25T08:40:23.523Z</time></trkpt><trkpt lat="37.9749883" lon="12.64924"><ele>135.0</ele><time>2026-03-25T08:40:24.53Z</time></trkpt><trkpt lat="37.9750867" lon="12.6493033"><ele>135.0</ele><time>2026-03-25T08:40:25.522Z</time></trkpt><trkpt lat="37.9751817" lon="12.6493383"><ele>135.0</ele><time>2026-03-25T08:40:26.522Z</time></trkpt><trkpt lat="37.9752767" lon="12.6493417"><ele>135.5</ele><time>2026-03-25T08:40:27.525Z</time></trkpt><trkpt lat="37.97537" lon="12.6492983"><ele>136.0</ele><time>2026-03-25T08:40:28.523Z</time></trkpt><trkpt lat="37.97546" lon="12.649215"><ele>136.5</ele><time>2026-03-25T08:40:29.527Z</time></trkpt><trkpt lat="37.9755433" lon="12.6490983"><ele>137.0</ele><time>2026-03-25T08:40:30.524Z</time></trkpt><trkpt lat="37.9756217" lon="12.64896"><ele>137.0</ele><time>2026-03-25T08:40:31.522Z</time></trkpt><trkpt lat="37.9756933" lon="12.6488233"><ele>137.0</ele><time>2026-03-25T08:40:32.524Z</time></trkpt><trkpt lat="37.9757617" lon="12.6486967"><ele>137.0</ele><time>2026-03-25T08:40:33.522Z</time></trkpt><trkpt lat="37.9758333" lon="12.64858"><ele>137.0</ele><time>2026-03-25T08:40:34.523Z</time></trkpt><trkpt lat="37.97591" lon="12.64847"><ele>137.25</ele><time>2026-03-25T08:40:35.52Z</time></trkpt><trkpt lat="37.975995" lon="12.6483667"><ele>137.5</ele><time>2026-03-25T08:40:36.523Z</time></trkpt><trkpt lat="37.97609" lon="12.6482717"><ele>137.75</ele><time>2026-03-25T08:40:37.522Z</time></trkpt><trkpt lat="37.97619" lon="12.648175"><ele>138.0</ele><time>2026-03-25T08:40:38.525Z</time></trkpt><trkpt lat="37.9762967" lon="12.6480733"><ele>138.0</ele><time>2026-03-25T08:40:39.522Z</time></trkpt><trkpt lat="37.9764067" lon="12.6479683"><ele>138.0</ele><time>2026-03-25T08:40:40.521Z</time></trkpt><trkpt lat="37.9765133" lon="12.6478517"><ele>138.0</ele><time>2026-03-25T08:40:41.523Z</time></trkpt><trkpt lat="37.9766183" lon="12.6477217"><ele>138.0</ele><time>2026-03-25T08:40:42.523Z</time></trkpt><trkpt lat="37.9767217" lon="12.64758"><ele>139.0</ele><time>2026-03-25T08:40:43.523Z</time></trkpt><trkpt lat="37.97682" lon="12.6474283"><ele>140.0</ele><time>2026-03-25T08:40:44.524Z</time></trkpt><trkpt lat="37.976915" lon="12.647255"><ele>141.0</ele><time>2026-03-25T08:40:45.52Z</time></trkpt><trkpt lat="37.9770133" lon="12.647045"><ele>140.33333333333334</ele><time>2026-03-25T08:40:46.521Z</time></trkpt><trkpt lat="37.97711" lon="12.6468067"><ele>139.66666666666669</ele><time>2026-03-25T08:40:47.525Z</time></trkpt><trkpt lat="37.9772" lon="12.6465633"><ele>139.0</ele><time>2026-03-25T08:40:48.524Z</time></trkpt><trkpt lat="37.9772833" lon="12.6463517"><ele>139.0</ele><time>2026-03-25T08:40:49.524Z</time></trkpt><trkpt lat="37.977355" lon="12.6461717"><ele>139.0</ele><time>2026-03-25T08:40:50.525Z</time></trkpt><trkpt lat="37.9774233" lon="12.64603"><ele>139.0</ele><time>2026-03-25T08:40:51.525Z</time></trkpt><trkpt lat="37.9774933" lon="12.6459317"><ele>139.0</ele><time>2026-03-25T08:40:52.525Z</time></trkpt><trkpt lat="37.9775683" lon="12.6458667"><ele>139.4</ele><time>2026-03-25T08:40:53.525Z</time></trkpt><trkpt lat="37.9776483" lon="12.645835"><ele>139.8</ele><time>2026-03-25T08:40:54.525Z</time></trkpt><trkpt lat="37.9777367" lon="12.64584"><ele>140.2</ele><time>2026-03-25T08:40:55.526Z</time></trkpt><trkpt lat="37.9778283" lon="12.64589"><ele>140.6</ele><time>2026-03-25T08:40:56.526Z</time></trkpt><trkpt lat="37.9779083" lon="12.64596"><ele>141.0</ele><time>2026-03-25T08:40:57.524Z</time></trkpt><trkpt lat="37.977965" lon="12.646045"><ele>141.0</ele><time>2026-03-25T08:40:58.525Z</time></trkpt><trkpt lat="37.9780117" lon="12.6461217"><ele>141.0</ele><time>2026-03-25T08:40:59.525Z</time></trkpt><trkpt lat="37.9780717" lon="12.646205"><ele>141.0</ele><time>2026-03-25T08:41:01.521Z</time></trkpt><trkpt lat="37.9781733" lon="12.646135"><ele>141.0</ele><time>2026-03-25T08:41:04.521Z</time></trkpt><trkpt lat="37.97821" lon="12.6460333"><ele>141.0</ele><time>2026-03-25T08:41:05.519Z</time></trkpt><trkpt lat="37.97826" lon="12.6458617"><ele>141.0</ele><time>2026-03-25T08:41:06.522Z</time></trkpt><trkpt lat="37.97831" lon="12.6456867"><ele>141.0</ele><time>2026-03-25T08:41:07.524Z</time></trkpt><trkpt lat="37.9783667" lon="12.645495"><ele>141.0</ele><time>2026-03-25T08:41:08.524Z</time></trkpt><trkpt lat="37.97844" lon="12.6452817"><ele>140.33333333333334</ele><time>2026-03-25T08:41:09.521Z</time></trkpt><trkpt lat="37.97852" lon="12.64507"><ele>139.66666666666669</ele><time>2026-03-25T08:41:10.522Z</time></trkpt><trkpt lat="37.97861" lon="12.6448517"><ele>139.0</ele><time>2026-03-25T08:41:11.523Z</time></trkpt><trkpt lat="37.9787117" lon="12.6446333"><ele>138.0</ele><time>2026-03-25T08:41:12.525Z</time></trkpt><trkpt lat="37.9788233" lon="12.6444233"><ele>137.0</ele><time>2026-03-25T08:41:13.523Z</time></trkpt><trkpt lat="37.97894" lon="12.6442117"><ele>136.0</ele><time>2026-03-25T08:41:14.527Z</time></trkpt><trkpt lat="37.9790583" lon="12.644"><ele>136.0</ele><time>2026-03-25T08:41:15.521Z</time></trkpt><trkpt lat="37.979175" lon="12.6437883"><ele>136.0</ele><time>2026-03-25T08:41:16.524Z</time></trkpt><trkpt lat="37.9792883" lon="12.64358"><ele>136.0</ele><time>2026-03-25T08:41:17.524Z</time></trkpt><trkpt lat="37.9794" lon="12.6433717"><ele>135.0</ele><time>2026-03-25T08:41:18.524Z</time></trkpt><trkpt lat="37.9795133" lon="12.6431633"><ele>134.0</ele><time>2026-03-25T08:41:19.518Z</time></trkpt><trkpt lat="37.9796217" lon="12.642955"><ele>133.0</ele><time>2026-03-25T08:41:20.526Z</time></trkpt><trkpt lat="37.97973" lon="12.6427533"><ele>132.33333333333334</ele><time>2026-03-25T08:41:21.522Z</time></trkpt><trkpt lat="37.9798367" lon="12.6425583"><ele>131.66666666666666</ele><time>2026-03-25T08:41:22.523Z</time></trkpt><trkpt lat="37.9799433" lon="12.6423683"><ele>131.0</ele><time>2026-03-25T08:41:23.526Z</time></trkpt><trkpt lat="37.98005" lon="12.6421767"><ele>132.33333333333331</ele><time>2026-03-25T08:41:24.528Z</time></trkpt><trkpt lat="37.9801567" lon="12.6419817"><ele>133.66666666666666</ele><time>2026-03-25T08:41:25.523Z</time></trkpt><trkpt lat="37.980265" lon="12.6417867"><ele>135.0</ele><time>2026-03-25T08:41:26.525Z</time></trkpt><trkpt lat="37.98037" lon="12.6415917"><ele>135.0</ele><time>2026-03-25T08:41:27.526Z</time></trkpt><trkpt lat="37.980475" lon="12.641405"><ele>135.0</ele><time>2026-03-25T08:41:28.526Z</time></trkpt><trkpt lat="37.9805817" lon="12.6412317"><ele>135.0</ele><time>2026-03-25T08:41:29.523Z</time></trkpt><trkpt lat="37.9806967" lon="12.641065"><ele>133.66666666666666</ele><time>2026-03-25T08:41:30.524Z</time></trkpt><trkpt lat="37.9808167" lon="12.64091"><ele>132.33333333333331</ele><time>2026-03-25T08:41:31.521Z</time></trkpt><trkpt lat="37.9809433" lon="12.64076"><ele>131.0</ele><time>2026-03-25T08:41:32.521Z</time></trkpt><trkpt lat="37.9811917" lon="12.64046"><ele>131.0</ele><time>2026-03-25T08:41:34.523Z</time></trkpt><trkpt lat="37.9813183" lon="12.6403117"><ele>131.0</ele><time>2026-03-25T08:41:35.524Z</time></trkpt><trkpt lat="37.9814433" lon="12.64016"><ele>131.0</ele><time>2026-03-25T08:41:36.524Z</time></trkpt><trkpt lat="37.98157" lon="12.64001"><ele>127.66666666666666</ele><time>2026-03-25T08:41:37.526Z</time></trkpt><trkpt lat="37.9816967" lon="12.6398583"><ele>124.33333333333334</ele><time>2026-03-25T08:41:38.523Z</time></trkpt><trkpt lat="37.981825" lon="12.639705"><ele>121.0</ele><time>2026-03-25T08:41:39.526Z</time></trkpt><trkpt lat="37.9819517" lon="12.6395517"><ele>120.0</ele><time>2026-03-25T08:41:40.523Z</time></trkpt><trkpt lat="37.9820817" lon="12.6394"><ele>119.0</ele><time>2026-03-25T08:41:41.525Z</time></trkpt><trkpt lat="37.9822117" lon="12.6392467"><ele>118.0</ele><time>2026-03-25T08:41:42.524Z</time></trkpt><trkpt lat="37.98234" lon="12.63909"><ele>118.0</ele><time>2026-03-25T08:41:43.52Z</time></trkpt><trkpt lat="37.9824633" lon="12.6389383"><ele>118.0</ele><time>2026-03-25T08:41:44.526Z</time></trkpt><trkpt lat="37.9825817" lon="12.6387917"><ele>118.0</ele><time>2026-03-25T08:41:45.522Z</time></trkpt><trkpt lat="37.9826983" lon="12.6386517"><ele>118.33333333333334</ele><time>2026-03-25T08:41:46.522Z</time></trkpt><trkpt lat="37.9828167" lon="12.6385217"><ele>118.66666666666666</ele><time>2026-03-25T08:41:47.521Z</time></trkpt><trkpt lat="37.9829417" lon="12.638405"><ele>119.0</ele><time>2026-03-25T08:41:48.523Z</time></trkpt><trkpt lat="37.9830783" lon="12.63831"><ele>119.0</ele><time>2026-03-25T08:41:49.525Z</time></trkpt><trkpt lat="37.9832283" lon="12.6382383"><ele>119.0</ele><time>2026-03-25T08:41:50.524Z</time></trkpt><trkpt lat="37.983395" lon="12.6381933"><ele>119.0</ele><time>2026-03-25T08:41:51.525Z</time></trkpt><trkpt lat="37.983575" lon="12.6381767"><ele>116.66666666666666</ele><time>2026-03-25T08:41:52.529Z</time></trkpt><trkpt lat="37.9837583" lon="12.6381783"><ele>114.33333333333334</ele><time>2026-03-25T08:41:53.523Z</time></trkpt><trkpt lat="37.9839383" lon="12.6381833"><ele>112.0</ele><time>2026-03-25T08:41:54.523Z</time></trkpt><trkpt lat="37.984115" lon="12.638185"><ele>111.33333333333334</ele><time>2026-03-25T08:41:55.52Z</time></trkpt><trkpt lat="37.9842833" lon="12.638185"><ele>110.66666666666666</ele><time>2026-03-25T08:41:56.523Z</time></trkpt><trkpt lat="37.9844433" lon="12.6381783"><ele>110.0</ele><time>2026-03-25T08:41:57.524Z</time></trkpt><trkpt lat="37.9846" lon="12.63816"><ele>110.0</ele><time>2026-03-25T08:41:58.523Z</time></trkpt><trkpt lat="37.9847533" lon="12.638125"><ele>110.0</ele><time>2026-03-25T08:41:59.52Z</time></trkpt><trkpt lat="37.984905" lon="12.6380667"><ele>110.0</ele><time>2026-03-25T08:42:00.525Z</time></trkpt><trkpt lat="37.9850517" lon="12.6379917"><ele>109.66666666666666</ele><time>2026-03-25T08:42:01.524Z</time></trkpt><trkpt lat="37.9851967" lon="12.6379067"><ele>109.33333333333334</ele><time>2026-03-25T08:42:02.528Z</time></trkpt><trkpt lat="37.9853367" lon="12.6378183"><ele>109.0</ele><time>2026-03-25T08:42:03.522Z</time></trkpt><trkpt lat="37.9854683" lon="12.6377333"><ele>108.5</ele><time>2026-03-25T08:42:04.525Z</time></trkpt><trkpt lat="37.985595" lon="12.63765"><ele>108.0</ele><time>2026-03-25T08:42:05.521Z</time></trkpt><trkpt lat="37.9857167" lon="12.6375667"><ele>107.5</ele><time>2026-03-25T08:42:06.522Z</time></trkpt><trkpt lat="37.98584" lon="12.6374783"><ele>107.0</ele><time>2026-03-25T08:42:07.524Z</time></trkpt><trkpt lat="37.98596" lon="12.6373783"><ele>107.0</ele><time>2026-03-25T08:42:08.527Z</time></trkpt><trkpt lat="37.986075" lon="12.6372667"><ele>107.0</ele><time>2026-03-25T08:42:09.526Z</time></trkpt><trkpt lat="37.9861817" lon="12.6371417"><ele>107.0</ele><time>2026-03-25T08:42:10.522Z</time></trkpt><trkpt lat="37.9862833" lon="12.6370117"><ele>107.0</ele><time>2026-03-25T08:42:11.526Z</time></trkpt><trkpt lat="37.9863883" lon="12.636875"><ele>106.25</ele><time>2026-03-25T08:42:12.525Z</time></trkpt><trkpt lat="37.9864867" lon="12.6367317"><ele>105.5</ele><time>2026-03-25T08:42:13.525Z</time></trkpt><trkpt lat="37.98658" lon="12.636595"><ele>104.75</ele><time>2026-03-25T08:42:14.528Z</time></trkpt><trkpt lat="37.9866683" lon="12.6364683"><ele>104.0</ele><time>2026-03-25T08:42:15.523Z</time></trkpt><trkpt lat="37.9867533" lon="12.6363483"><ele>104.25</ele><time>2026-03-25T08:42:16.524Z</time></trkpt><trkpt lat="37.986835" lon="12.6362333"><ele>104.5</ele><time>2026-03-25T08:42:17.522Z</time></trkpt><trkpt lat="37.986915" lon="12.6361217"><ele>104.75</ele><time>2026-03-25T08:42:18.525Z</time></trkpt><trkpt lat="37.9869867" lon="12.6360083"><ele>105.0</ele><time>2026-03-25T08:42:19.522Z</time></trkpt><trkpt lat="37.9870633" lon="12.6359017"><ele>105.0</ele><time>2026-03-25T08:42:20.522Z</time></trkpt><trkpt lat="37.9871433" lon="12.6357917"><ele>105.0</ele><time>2026-03-25T08:42:21.523Z</time></trkpt><trkpt lat="37.987225" lon="12.63568"><ele>105.0</ele><time>2026-03-25T08:42:22.523Z</time></trkpt><trkpt lat="37.9873017" lon="12.6355733"><ele>105.0</ele><time>2026-03-25T08:42:23.522Z</time></trkpt><trkpt lat="37.98738" lon="12.6354667"><ele>105.0</ele><time>2026-03-25T08:42:24.522Z</time></trkpt><trkpt lat="37.98746" lon="12.6353583"><ele>105.0</ele><time>2026-03-25T08:42:25.522Z</time></trkpt><trkpt lat="37.9875433" lon="12.6352483"><ele>105.0</ele><time>2026-03-25T08:42:26.522Z</time></trkpt><trkpt lat="37.987625" lon="12.63514"><ele>105.0</ele><time>2026-03-25T08:42:27.522Z</time></trkpt><trkpt lat="37.9876983" lon="12.6350367"><ele>104.6</ele><time>2026-03-25T08:42:28.525Z</time></trkpt><trkpt lat="37.987765" lon="12.6349317"><ele>104.2</ele><time>2026-03-25T08:42:29.523Z</time></trkpt><trkpt lat="37.9878333" lon="12.634825"><ele>103.80000000000001</ele><time>2026-03-25T08:42:30.524Z</time></trkpt><trkpt lat="37.9879033" lon="12.634715"><ele>103.4</ele><time>2026-03-25T08:42:31.527Z</time></trkpt><trkpt lat="37.9879733" lon="12.6346067"><ele>103.0</ele><time>2026-03-25T08:42:32.519Z</time></trkpt><trkpt lat="37.9880417" lon="12.634505"><ele>102.4</ele><time>2026-03-25T08:42:33.523Z</time></trkpt><trkpt lat="37.9881083" lon="12.6344067"><ele>101.80000000000001</ele><time>2026-03-25T08:42:34.522Z</time></trkpt><trkpt lat="37.9881683" lon="12.6343117"><ele>101.2</ele><time>2026-03-25T08:42:35.524Z</time></trkpt><trkpt lat="37.9882183" lon="12.634235"><ele>100.6</ele><time>2026-03-25T08:42:36.524Z</time></trkpt><trkpt lat="37.98829" lon="12.6341283"><ele>100.0</ele><time>2026-03-25T08:42:38.526Z</time></trkpt><trkpt lat="37.9883583" lon="12.6340333"><ele>99.66666666666667</ele><time>2026-03-25T08:42:40.527Z</time></trkpt><trkpt lat="37.98844" lon="12.63392"><ele>99.33333333333334</ele><time>2026-03-25T08:42:42.523Z</time></trkpt><trkpt lat="37.9884817" lon="12.633855"><ele>99.0</ele><time>2026-03-25T08:42:43.527Z</time></trkpt><trkpt lat="37.9885233" lon="12.63379"><ele>98.66666666666666</ele><time>2026-03-25T08:42:44.525Z</time></trkpt><trkpt lat="37.98857" lon="12.6337217"><ele>98.33333333333333</ele><time>2026-03-25T08:42:45.527Z</time></trkpt><trkpt lat="37.9886167" lon="12.633655"><ele>98.0</ele><time>2026-03-25T08:42:46.527Z</time></trkpt><trkpt lat="37.9886783" lon="12.63355"><ele>98.0</ele><time>2026-03-25T08:42:48.528Z</time></trkpt><trkpt lat="37.9887333" lon="12.6334633"><ele>98.0</ele><time>2026-03-25T08:42:50.524Z</time></trkpt><trkpt lat="37.9887983" lon="12.6333333"><ele>98.0</ele><time>2026-03-25T08:42:52.527Z</time></trkpt><trkpt lat="37.9888567" lon="12.6332333"><ele>98.0</ele><time>2026-03-25T08:42:53.524Z</time></trkpt><trkpt lat="37.9889583" lon="12.633095"><ele>98.0</ele><time>2026-03-25T08:42:54.524Z</time></trkpt><trkpt lat="37.98907" lon="12.6329417"><ele>98.0</ele><time>2026-03-25T08:42:55.526Z</time></trkpt><trkpt lat="37.9891867" lon="12.6327767"><ele>98.0</ele><time>2026-03-25T08:42:56.522Z</time></trkpt><trkpt lat="37.9892967" lon="12.6326067"><ele>96.66666666666666</ele><time>2026-03-25T08:42:57.524Z</time></trkpt><trkpt lat="37.9894133" lon="12.6324233"><ele>95.33333333333333</ele><time>2026-03-25T08:42:58.523Z</time></trkpt><trkpt lat="37.989535" lon="12.6322333"><ele>94.0</ele><time>2026-03-25T08:42:59.527Z</time></trkpt><trkpt lat="37.9896583" lon="12.632045"><ele>94.0</ele><time>2026-03-25T08:43:00.522Z</time></trkpt><trkpt lat="37.9897817" lon="12.6318667"><ele>94.0</ele><time>2026-03-25T08:43:01.525Z</time></trkpt><trkpt lat="37.9898967" lon="12.6316983"><ele>94.0</ele><time>2026-03-25T08:43:02.521Z</time></trkpt><trkpt lat="37.990005" lon="12.6315367"><ele>93.25</ele><time>2026-03-25T08:43:03.521Z</time></trkpt><trkpt lat="37.9901067" lon="12.6313833"><ele>92.5</ele><time>2026-03-25T08:43:04.527Z</time></trkpt><trkpt lat="37.9902033" lon="12.63124"><ele>91.75</ele><time>2026-03-25T08:43:05.522Z</time></trkpt><trkpt lat="37.9902933" lon="12.63111"><ele>91.0</ele><time>2026-03-25T08:43:06.523Z</time></trkpt><trkpt lat="37.9903717" lon="12.6310033"><ele>91.0</ele><time>2026-03-25T08:43:07.525Z</time></trkpt><trkpt lat="37.9904533" lon="12.630925"><ele>91.0</ele><time>2026-03-25T08:43:08.526Z</time></trkpt><trkpt lat="37.990545" lon="12.630865"><ele>91.0</ele><time>2026-03-25T08:43:09.521Z</time></trkpt><trkpt lat="37.9906583" lon="12.6308117"><ele>91.0</ele><time>2026-03-25T08:43:10.524Z</time></trkpt><trkpt lat="37.9907917" lon="12.63076"><ele>90.0</ele><time>2026-03-25T08:43:11.522Z</time></trkpt><trkpt lat="37.99094" lon="12.6307067"><ele>89.0</ele><time>2026-03-25T08:43:12.524Z</time></trkpt><trkpt lat="37.9910967" lon="12.6306483"><ele>88.0</ele><time>2026-03-25T08:43:13.52Z</time></trkpt><trkpt lat="37.99126" lon="12.630585"><ele>88.0</ele><time>2026-03-25T08:43:14.52Z</time></trkpt><trkpt lat="37.9914267" lon="12.6305183"><ele>88.0</ele><time>2026-03-25T08:43:15.521Z</time></trkpt><trkpt lat="37.9915867" lon="12.6304583"><ele>88.0</ele><time>2026-03-25T08:43:16.522Z</time></trkpt><trkpt lat="37.991735" lon="12.6303967"><ele>87.75</ele><time>2026-03-25T08:43:17.521Z</time></trkpt><trkpt lat="37.9918783" lon="12.63034"><ele>87.5</ele><time>2026-03-25T08:43:18.52Z</time></trkpt><trkpt lat="37.99202" lon="12.630285"><ele>87.25</ele><time>2026-03-25T08:43:19.523Z</time></trkpt><trkpt lat="37.992155" lon="12.630235"><ele>87.0</ele><time>2026-03-25T08:43:20.524Z</time></trkpt><trkpt lat="37.9922883" lon="12.630185"><ele>86.75</ele><time>2026-03-25T08:43:21.524Z</time></trkpt><trkpt lat="37.992425" lon="12.630135"><ele>86.5</ele><time>2026-03-25T08:43:22.521Z</time></trkpt><trkpt lat="37.99257" lon="12.630085"><ele>86.25</ele><time>2026-03-25T08:43:23.524Z</time></trkpt><trkpt lat="37.9927167" lon="12.6300283"><ele>86.0</ele><time>2026-03-25T08:43:24.527Z</time></trkpt><trkpt lat="37.9928567" lon="12.6299733"><ele>85.75</ele><time>2026-03-25T08:43:25.524Z</time></trkpt><trkpt lat="37.9929883" lon="12.6299183"><ele>85.5</ele><time>2026-03-25T08:43:26.523Z</time></trkpt><trkpt lat="37.9931167" lon="12.6298617"><ele>85.25</ele><time>2026-03-25T08:43:27.523Z</time></trkpt><trkpt lat="37.993255" lon="12.6297983"><ele>85.0</ele><time>2026-03-25T08:43:28.523Z</time></trkpt><trkpt lat="37.9934167" lon="12.6297367"><ele>84.66666666666666</ele><time>2026-03-25T08:43:29.523Z</time></trkpt><trkpt lat="37.993595" lon="12.6296783"><ele>84.33333333333333</ele><time>2026-03-25T08:43:30.523Z</time></trkpt><trkpt lat="37.99378" lon="12.6296183"><ele>84.0</ele><time>2026-03-25T08:43:31.523Z</time></trkpt><trkpt lat="37.9939683" lon="12.6295483"><ele>83.0</ele><time>2026-03-25T08:43:32.526Z</time></trkpt><trkpt lat="37.9941583" lon="12.6294733"><ele>82.0</ele><time>2026-03-25T08:43:33.523Z</time></trkpt><trkpt lat="37.9943467" lon="12.6294"><ele>81.0</ele><time>2026-03-25T08:43:34.523Z</time></trkpt><trkpt lat="37.9945283" lon="12.62933"><ele>80.33333333333333</ele><time>2026-03-25T08:43:35.523Z</time></trkpt><trkpt lat="37.9947" lon="12.6292633"><ele>79.66666666666666</ele><time>2026-03-25T08:43:36.523Z</time></trkpt><trkpt lat="37.994875" lon="12.6291983"><ele>79.0</ele><time>2026-03-25T08:43:37.523Z</time></trkpt><trkpt lat="37.9950583" lon="12.62913"><ele>78.0</ele><time>2026-03-25T08:43:38.525Z</time></trkpt><trkpt lat="37.9952483" lon="12.62906"><ele>77.0</ele><time>2026-03-25T08:43:39.527Z</time></trkpt><trkpt lat="37.9954383" lon="12.6289883"><ele>76.0</ele><time>2026-03-25T08:43:40.522Z</time></trkpt><trkpt lat="37.995625" lon="12.62892"><ele>76.0</ele><time>2026-03-25T08:43:41.524Z</time></trkpt><trkpt lat="37.9958067" lon="12.6288517"><ele>76.0</ele><time>2026-03-25T08:43:42.519Z</time></trkpt><trkpt lat="37.9959833" lon="12.628785"><ele>76.0</ele><time>2026-03-25T08:43:43.523Z</time></trkpt><trkpt lat="37.9961583" lon="12.6287183"><ele>76.0</ele><time>2026-03-25T08:43:44.526Z</time></trkpt><trkpt lat="37.9963283" lon="12.628655"><ele>76.0</ele><time>2026-03-25T08:43:45.524Z</time></trkpt><trkpt lat="37.9964933" lon="12.62859"><ele>76.0</ele><time>2026-03-25T08:43:46.521Z</time></trkpt><trkpt lat="37.99666" lon="12.6285217"><ele>77.66666666666666</ele><time>2026-03-25T08:43:47.523Z</time></trkpt><trkpt lat="37.9968283" lon="12.6284467"><ele>79.33333333333333</ele><time>2026-03-25T08:43:48.526Z</time></trkpt><trkpt lat="37.997" lon="12.62836"><ele>81.0</ele><time>2026-03-25T08:43:49.517Z</time></trkpt><trkpt lat="37.99717" lon="12.628265"><ele>81.0</ele><time>2026-03-25T08:43:50.519Z</time></trkpt><trkpt lat="37.9973383" lon="12.6281617"><ele>81.0</ele><time>2026-03-25T08:43:51.522Z</time></trkpt><trkpt lat="37.997505" lon="12.628055"><ele>81.0</ele><time>2026-03-25T08:43:52.517Z</time></trkpt><trkpt lat="37.99767" lon="12.62795"><ele>83.66666666666667</ele><time>2026-03-25T08:43:53.519Z</time></trkpt><trkpt lat="37.997835" lon="12.6278533"><ele>86.33333333333334</ele><time>2026-03-25T08:43:54.522Z</time></trkpt><trkpt lat="37.9979917" lon="12.6277617"><ele>89.0</ele><time>2026-03-25T08:43:55.519Z</time></trkpt><trkpt lat="37.998145" lon="12.6276783"><ele>89.0</ele><time>2026-03-25T08:43:56.525Z</time></trkpt><trkpt lat="37.9982983" lon="12.6275967"><ele>89.0</ele><time>2026-03-25T08:43:57.519Z</time></trkpt><trkpt lat="37.998455" lon="12.627515"><ele>89.0</ele><time>2026-03-25T08:43:58.519Z</time></trkpt><trkpt lat="37.9986117" lon="12.6274333"><ele>88.66666666666667</ele><time>2026-03-25T08:43:59.524Z</time></trkpt><trkpt lat="37.99877" lon="12.6273533"><ele>88.33333333333333</ele><time>2026-03-25T08:44:00.524Z</time></trkpt><trkpt lat="37.99893" lon="12.6272683"><ele>88.0</ele><time>2026-03-25T08:44:01.521Z</time></trkpt><trkpt lat="37.999095" lon="12.6271817"><ele>87.66666666666666</ele><time>2026-03-25T08:44:02.526Z</time></trkpt><trkpt lat="37.9992633" lon="12.6270933"><ele>87.33333333333333</ele><time>2026-03-25T08:44:03.518Z</time></trkpt><trkpt lat="37.9994367" lon="12.627"><ele>87.0</ele><time>2026-03-25T08:44:04.519Z</time></trkpt><trkpt lat="37.9996133" lon="12.6269017"><ele>87.0</ele><time>2026-03-25T08:44:05.521Z</time></trkpt><trkpt lat="37.9997917" lon="12.6268033"><ele>87.0</ele><time>2026-03-25T08:44:06.517Z</time></trkpt><trkpt lat="37.99997" lon="12.6267033"><ele>87.0</ele><time>2026-03-25T08:44:07.524Z</time></trkpt><trkpt lat="38.0001467" lon="12.626605"><ele>87.0</ele><time>2026-03-25T08:44:08.522Z</time></trkpt><trkpt lat="38.000325" lon="12.6265083"><ele>87.0</ele><time>2026-03-25T08:44:09.523Z</time></trkpt><trkpt lat="38.0004983" lon="12.626415"><ele>87.0</ele><time>2026-03-25T08:44:10.523Z</time></trkpt><trkpt lat="38.0006717" lon="12.626325"><ele>85.66666666666667</ele><time>2026-03-25T08:44:11.523Z</time></trkpt><trkpt lat="38.00085" lon="12.6262367"><ele>84.33333333333334</ele><time>2026-03-25T08:44:12.521Z</time></trkpt><trkpt lat="38.00103" lon="12.6261517"><ele>83.0</ele><time>2026-03-25T08:44:13.521Z</time></trkpt><trkpt lat="38.0012117" lon="12.6260733"><ele>82.66666666666667</ele><time>2026-03-25T08:44:14.524Z</time></trkpt><trkpt lat="38.001395" lon="12.6260017"><ele>82.33333333333333</ele><time>2026-03-25T08:44:15.525Z</time></trkpt><trkpt lat="38.0015783" lon="12.625925"><ele>82.0</ele><time>2026-03-25T08:44:16.521Z</time></trkpt><trkpt lat="38.0017617" lon="12.6258533"><ele>81.0</ele><time>2026-03-25T08:44:17.522Z</time></trkpt><trkpt lat="38.001945" lon="12.6257833"><ele>80.0</ele><time>2026-03-25T08:44:18.527Z</time></trkpt><trkpt lat="38.0021267" lon="12.62571"><ele>79.0</ele><time>2026-03-25T08:44:19.521Z</time></trkpt><trkpt lat="38.00231" lon="12.62564"><ele>79.0</ele><time>2026-03-25T08:44:20.518Z</time></trkpt><trkpt lat="38.0024917" lon="12.6255683"><ele>79.0</ele><time>2026-03-25T08:44:21.522Z</time></trkpt><trkpt lat="38.0026733" lon="12.6255"><ele>79.0</ele><time>2026-03-25T08:44:22.52Z</time></trkpt><trkpt lat="38.0028533" lon="12.62543"><ele>79.0</ele><time>2026-03-25T08:44:23.521Z</time></trkpt><trkpt lat="38.0030367" lon="12.6253583"><ele>79.0</ele><time>2026-03-25T08:44:24.524Z</time></trkpt><trkpt lat="38.00322" lon="12.6252867"><ele>79.0</ele><time>2026-03-25T08:44:25.521Z</time></trkpt><trkpt lat="38.0034067" lon="12.6252133"><ele>77.66666666666666</ele><time>2026-03-25T08:44:26.523Z</time></trkpt><trkpt lat="38.003595" lon="12.625135"><ele>76.33333333333333</ele><time>2026-03-25T08:44:27.522Z</time></trkpt><trkpt lat="38.0037817" lon="12.6250583"><ele>75.0</ele><time>2026-03-25T08:44:28.521Z</time></trkpt><trkpt lat="38.00397" lon="12.6249783"><ele>75.0</ele><time>2026-03-25T08:44:29.521Z</time></trkpt><trkpt lat="38.004155" lon="12.624895"><ele>75.0</ele><time>2026-03-25T08:44:30.522Z</time></trkpt><trkpt lat="38.0043417" lon="12.624815"><ele>75.0</ele><time>2026-03-25T08:44:31.52Z</time></trkpt><trkpt lat="38.004525" lon="12.6247333"><ele>76.0</ele><time>2026-03-25T08:44:32.524Z</time></trkpt><trkpt lat="38.004705" lon="12.624655"><ele>77.0</ele><time>2026-03-25T08:44:33.519Z</time></trkpt><trkpt lat="38.004885" lon="12.6245717"><ele>78.0</ele><time>2026-03-25T08:44:34.52Z</time></trkpt><trkpt lat="38.005065" lon="12.6244917"><ele>79.0</ele><time>2026-03-25T08:44:35.522Z</time></trkpt><trkpt lat="38.0052483" lon="12.6244167"><ele>80.0</ele><time>2026-03-25T08:44:36.524Z</time></trkpt><trkpt lat="38.0054333" lon="12.6243383"><ele>81.0</ele><time>2026-03-25T08:44:37.522Z</time></trkpt><trkpt lat="38.0056183" lon="12.6242583"><ele>81.0</ele><time>2026-03-25T08:44:38.521Z</time></trkpt><trkpt lat="38.0058" lon="12.62418"><ele>81.0</ele><time>2026-03-25T08:44:39.522Z</time></trkpt><trkpt lat="38.0059783" lon="12.6241033"><ele>81.0</ele><time>2026-03-25T08:44:40.522Z</time></trkpt><trkpt lat="38.0061567" lon="12.62403"><ele>81.33333333333333</ele><time>2026-03-25T08:44:41.523Z</time></trkpt><trkpt lat="38.0063367" lon="12.62396"><ele>81.66666666666666</ele><time>2026-03-25T08:44:42.522Z</time></trkpt><trkpt lat="38.0065217" lon="12.62389"><ele>82.0</ele><time>2026-03-25T08:44:43.521Z</time></trkpt><trkpt lat="38.0067117" lon="12.6238267"><ele>82.0</ele><time>2026-03-25T08:44:44.524Z</time></trkpt><trkpt lat="38.0069033" lon="12.6237633"><ele>82.0</ele><time>2026-03-25T08:44:45.522Z</time></trkpt><trkpt lat="38.007095" lon="12.6237033"><ele>82.0</ele><time>2026-03-25T08:44:46.52Z</time></trkpt><trkpt lat="38.007285" lon="12.623645"><ele>82.0</ele><time>2026-03-25T08:44:47.52Z</time></trkpt><trkpt lat="38.007475" lon="12.623585"><ele>82.0</ele><time>2026-03-25T08:44:48.525Z</time></trkpt><trkpt lat="38.00767" lon="12.6235283"><ele>82.0</ele><time>2026-03-25T08:44:49.521Z</time></trkpt><trkpt lat="38.007865" lon="12.6234617"><ele>79.33333333333333</ele><time>2026-03-25T08:44:50.523Z</time></trkpt><trkpt lat="38.00806" lon="12.6233817"><ele>76.66666666666667</ele><time>2026-03-25T08:44:51.522Z</time></trkpt><trkpt lat="38.0082533" lon="12.6232983"><ele>74.0</ele><time>2026-03-25T08:44:52.523Z</time></trkpt><trkpt lat="38.0084467" lon="12.6232117"><ele>72.0</ele><time>2026-03-25T08:44:53.522Z</time></trkpt><trkpt lat="38.00864" lon="12.6231233"><ele>70.0</ele><time>2026-03-25T08:44:54.521Z</time></trkpt><trkpt lat="38.0088283" lon="12.623035"><ele>68.0</ele><time>2026-03-25T08:44:55.521Z</time></trkpt><trkpt lat="38.0090133" lon="12.6229517"><ele>67.66666666666667</ele><time>2026-03-25T08:44:56.525Z</time></trkpt><trkpt lat="38.009195" lon="12.6228667"><ele>67.33333333333333</ele><time>2026-03-25T08:44:57.522Z</time></trkpt><trkpt lat="38.00938" lon="12.62278"><ele>67.0</ele><time>2026-03-25T08:44:58.519Z</time></trkpt><trkpt lat="38.009565" lon="12.62269"><ele>66.33333333333333</ele><time>2026-03-25T08:44:59.522Z</time></trkpt><trkpt lat="38.0097517" lon="12.6225967"><ele>65.66666666666667</ele><time>2026-03-25T08:45:00.525Z</time></trkpt><trkpt lat="38.00994" lon="12.6225083"><ele>65.0</ele><time>2026-03-25T08:45:01.523Z</time></trkpt><trkpt lat="38.0101267" lon="12.6224233"><ele>65.0</ele><time>2026-03-25T08:45:02.524Z</time></trkpt><trkpt lat="38.0103133" lon="12.6223417"><ele>65.0</ele><time>2026-03-25T08:45:03.521Z</time></trkpt><trkpt lat="38.0105" lon="12.6222617"><ele>65.0</ele><time>2026-03-25T08:45:04.526Z</time></trkpt><trkpt lat="38.0106883" lon="12.6221867"><ele>65.0</ele><time>2026-03-25T08:45:05.526Z</time></trkpt><trkpt lat="38.0108783" lon="12.6221133"><ele>65.0</ele><time>2026-03-25T08:45:06.526Z</time></trkpt><trkpt lat="38.0110683" lon="12.6220417"><ele>65.0</ele><time>2026-03-25T08:45:07.528Z</time></trkpt><trkpt lat="38.0112583" lon="12.6219717"><ele>65.0</ele><time>2026-03-25T08:45:08.527Z</time></trkpt><trkpt lat="38.0114483" lon="12.621905"><ele>65.0</ele><time>2026-03-25T08:45:09.522Z</time></trkpt><trkpt lat="38.0116417" lon="12.6218367"><ele>65.0</ele><time>2026-03-25T08:45:10.522Z</time></trkpt><trkpt lat="38.0118333" lon="12.6217683"><ele>64.66666666666667</ele><time>2026-03-25T08:45:11.524Z</time></trkpt><trkpt lat="38.012025" lon="12.6217"><ele>64.33333333333333</ele><time>2026-03-25T08:45:12.52Z</time></trkpt><trkpt lat="38.0122117" lon="12.6216333"><ele>64.0</ele><time>2026-03-25T08:45:13.526Z</time></trkpt><trkpt lat="38.0123983" lon="12.621565"><ele>63.666666666666664</ele><time>2026-03-25T08:45:14.526Z</time></trkpt><trkpt lat="38.0125833" lon="12.6214917"><ele>63.33333333333333</ele><time>2026-03-25T08:45:15.526Z</time></trkpt><trkpt lat="38.012765" lon="12.6214083"><ele>63.0</ele><time>2026-03-25T08:45:16.527Z</time></trkpt><trkpt lat="38.0129483" lon="12.6213167"><ele>63.0</ele><time>2026-03-25T08:45:17.527Z</time></trkpt><trkpt lat="38.0131267" lon="12.6212183"><ele>63.0</ele><time>2026-03-25T08:45:18.526Z</time></trkpt><trkpt lat="38.0133083" lon="12.62112"><ele>63.0</ele><time>2026-03-25T08:45:19.528Z</time></trkpt><trkpt lat="38.01349" lon="12.6210217"><ele>62.33333333333333</ele><time>2026-03-25T08:45:20.527Z</time></trkpt><trkpt lat="38.0136717" lon="12.6209217"><ele>61.666666666666664</ele><time>2026-03-25T08:45:21.521Z</time></trkpt><trkpt lat="38.0138533" lon="12.62082"><ele>61.0</ele><time>2026-03-25T08:45:22.523Z</time></trkpt><trkpt lat="38.0140333" lon="12.6207167"><ele>61.33333333333333</ele><time>2026-03-25T08:45:23.523Z</time></trkpt><trkpt lat="38.0142133" lon="12.620615"><ele>61.66666666666667</ele><time>2026-03-25T08:45:24.522Z</time></trkpt><trkpt lat="38.0143867" lon="12.6205167"><ele>62.0</ele><time>2026-03-25T08:45:25.524Z</time></trkpt><trkpt lat="38.01455" lon="12.6204233"><ele>62.0</ele><time>2026-03-25T08:45:26.523Z</time></trkpt><trkpt lat="38.0147017" lon="12.620335"><ele>62.0</ele><time>2026-03-25T08:45:27.522Z</time></trkpt><trkpt lat="38.01485" lon="12.62025"><ele>62.0</ele><time>2026-03-25T08:45:28.529Z</time></trkpt><trkpt lat="38.0149967" lon="12.6201667"><ele>63.0</ele><time>2026-03-25T08:45:29.525Z</time></trkpt><trkpt lat="38.0151417" lon="12.620085"><ele>64.0</ele><time>2026-03-25T08:45:30.521Z</time></trkpt><trkpt lat="38.0152817" lon="12.6200067"><ele>65.0</ele><time>2026-03-25T08:45:31.528Z</time></trkpt><trkpt lat="38.0154133" lon="12.619935"><ele>65.0</ele><time>2026-03-25T08:45:32.522Z</time></trkpt><trkpt lat="38.015535" lon="12.6198667"><ele>65.0</ele><time>2026-03-25T08:45:33.522Z</time></trkpt><trkpt lat="38.0156467" lon="12.6198067"><ele>65.0</ele><time>2026-03-25T08:45:34.524Z</time></trkpt><trkpt lat="38.0157467" lon="12.619755"><ele>65.0</ele><time>2026-03-25T08:45:35.522Z</time></trkpt><trkpt lat="38.0158283" lon="12.619715"><ele>65.57142857142858</ele><time>2026-03-25T08:45:36.525Z</time></trkpt><trkpt lat="38.0158933" lon="12.6196867"><ele>66.14285714285714</ele><time>2026-03-25T08:45:37.522Z</time></trkpt><trkpt lat="38.0159717" lon="12.6196633"><ele>66.71428571428572</ele><time>2026-03-25T08:45:39.522Z</time></trkpt><trkpt lat="38.01604" lon="12.6196717"><ele>67.28571428571429</ele><time>2026-03-25T08:45:44.524Z</time></trkpt><trkpt lat="38.0161067" lon="12.6197433"><ele>67.85714285714286</ele><time>2026-03-25T08:45:46.522Z</time></trkpt><trkpt lat="38.0161383" lon="12.6198133"><ele>68.42857142857143</ele><time>2026-03-25T08:45:47.528Z</time></trkpt><trkpt lat="38.016165" lon="12.6198917"><ele>69.0</ele><time>2026-03-25T08:45:48.525Z</time></trkpt><trkpt lat="38.0161917" lon="12.6199817"><ele>69.0</ele><time>2026-03-25T08:45:49.524Z</time></trkpt><trkpt lat="38.0162167" lon="12.6200817"><ele>69.0</ele><time>2026-03-25T08:45:50.524Z</time></trkpt><trkpt lat="38.01624" lon="12.6201767"><ele>69.0</ele><time>2026-03-25T08:45:51.524Z</time></trkpt><trkpt lat="38.0162567" lon="12.6202667"><ele>69.0</ele><time>2026-03-25T08:45:52.524Z</time></trkpt><trkpt lat="38.01627" lon="12.6203517"><ele>69.0</ele><time>2026-03-25T08:45:53.525Z</time></trkpt><trkpt lat="38.0162783" lon="12.620445"><ele>69.0</ele><time>2026-03-25T08:45:54.523Z</time></trkpt><trkpt lat="38.0162933" lon="12.6205567"><ele>68.5</ele><time>2026-03-25T08:45:55.524Z</time></trkpt><trkpt lat="38.01631" lon="12.6206867"><ele>68.0</ele><time>2026-03-25T08:45:56.522Z</time></trkpt><trkpt lat="38.0163267" lon="12.620835"><ele>67.5</ele><time>2026-03-25T08:45:57.52Z</time></trkpt><trkpt lat="38.0163417" lon="12.6209983"><ele>67.0</ele><time>2026-03-25T08:45:58.523Z</time></trkpt><trkpt lat="38.0163517" lon="12.6211717"><ele>67.0</ele><time>2026-03-25T08:45:59.524Z</time></trkpt><trkpt lat="38.0163583" lon="12.6213467"><ele>67.0</ele><time>2026-03-25T08:46:00.525Z</time></trkpt><trkpt lat="38.0163667" lon="12.6215217"><ele>67.0</ele><time>2026-03-25T08:46:01.522Z</time></trkpt><trkpt lat="38.0163633" lon="12.6216933"><ele>67.0</ele><time>2026-03-25T08:46:02.532Z</time></trkpt><trkpt lat="38.0163467" lon="12.6218583"><ele>67.25</ele><time>2026-03-25T08:46:03.522Z</time></trkpt><trkpt lat="38.0163217" lon="12.62203"><ele>67.5</ele><time>2026-03-25T08:46:04.522Z</time></trkpt><trkpt lat="38.016295" lon="12.6222133"><ele>67.75</ele><time>2026-03-25T08:46:05.52Z</time></trkpt><trkpt lat="38.0162667" lon="12.6224067"><ele>68.0</ele><time>2026-03-25T08:46:06.523Z</time></trkpt><trkpt lat="38.0162383" lon="12.6226067"><ele>68.0</ele><time>2026-03-25T08:46:07.523Z</time></trkpt><trkpt lat="38.0162117" lon="12.62279"><ele>68.0</ele><time>2026-03-25T08:46:08.525Z</time></trkpt><trkpt lat="38.016185" lon="12.6229717"><ele>68.0</ele><time>2026-03-25T08:46:09.523Z</time></trkpt><trkpt lat="38.01616" lon="12.62315"><ele>68.0</ele><time>2026-03-25T08:46:10.523Z</time></trkpt><trkpt lat="38.0161433" lon="12.6233217"><ele>68.25</ele><time>2026-03-25T08:46:11.522Z</time></trkpt><trkpt lat="38.01613" lon="12.6234867"><ele>68.5</ele><time>2026-03-25T08:46:12.525Z</time></trkpt><trkpt lat="38.0161217" lon="12.62364"><ele>68.75</ele><time>2026-03-25T08:46:13.522Z</time></trkpt><trkpt lat="38.0161133" lon="12.623785"><ele>69.0</ele><time>2026-03-25T08:46:14.526Z</time></trkpt><trkpt lat="38.0161017" lon="12.6239217"><ele>69.0</ele><time>2026-03-25T08:46:15.523Z</time></trkpt><trkpt lat="38.0160933" lon="12.624055"><ele>69.0</ele><time>2026-03-25T08:46:16.522Z</time></trkpt><trkpt lat="38.0160867" lon="12.6241917"><ele>69.0</ele><time>2026-03-25T08:46:17.523Z</time></trkpt><trkpt lat="38.0160767" lon="12.6243367"><ele>69.0</ele><time>2026-03-25T08:46:18.526Z</time></trkpt><trkpt lat="38.0160667" lon="12.6244883"><ele>69.0</ele><time>2026-03-25T08:46:19.524Z</time></trkpt><trkpt lat="38.01606" lon="12.6246533"><ele>69.0</ele><time>2026-03-25T08:46:20.524Z</time></trkpt><trkpt lat="38.0160517" lon="12.624835"><ele>69.0</ele><time>2026-03-25T08:46:21.526Z</time></trkpt><trkpt lat="38.0160417" lon="12.6250333"><ele>69.0</ele><time>2026-03-25T08:46:22.522Z</time></trkpt><trkpt lat="38.0160267" lon="12.625235"><ele>69.5</ele><time>2026-03-25T08:46:23.524Z</time></trkpt><trkpt lat="38.0160133" lon="12.6254317"><ele>70.0</ele><time>2026-03-25T08:46:24.522Z</time></trkpt><trkpt lat="38.0160017" lon="12.625615"><ele>70.5</ele><time>2026-03-25T08:46:25.523Z</time></trkpt><trkpt lat="38.0159917" lon="12.6257867"><ele>71.0</ele><time>2026-03-25T08:46:26.525Z</time></trkpt><trkpt lat="38.0159817" lon="12.625945"><ele>71.0</ele><time>2026-03-25T08:46:27.522Z</time></trkpt><trkpt lat="38.015975" lon="12.6260933"><ele>71.0</ele><time>2026-03-25T08:46:28.526Z</time></trkpt><trkpt lat="38.0159667" lon="12.6262383"><ele>71.0</ele><time>2026-03-25T08:46:29.523Z</time></trkpt><trkpt lat="38.0159583" lon="12.6263867"><ele>71.0</ele><time>2026-03-25T08:46:30.521Z</time></trkpt><trkpt lat="38.0159467" lon="12.62654"><ele>70.8</ele><time>2026-03-25T08:46:31.521Z</time></trkpt><trkpt lat="38.01594" lon="12.6266933"><ele>70.6</ele><time>2026-03-25T08:46:32.528Z</time></trkpt><trkpt lat="38.015935" lon="12.6268433"><ele>70.4</ele><time>2026-03-25T08:46:33.524Z</time></trkpt><trkpt lat="38.01593" lon="12.6269783"><ele>70.2</ele><time>2026-03-25T08:46:34.523Z</time></trkpt><trkpt lat="38.0159283" lon="12.6270983"><ele>70.0</ele><time>2026-03-25T08:46:35.525Z</time></trkpt><trkpt lat="38.015925" lon="12.627215"><ele>70.0</ele><time>2026-03-25T08:46:36.522Z</time></trkpt><trkpt lat="38.015925" lon="12.6273233"><ele>70.0</ele><time>2026-03-25T08:46:37.521Z</time></trkpt><trkpt lat="38.015925" lon="12.6274267"><ele>70.0</ele><time>2026-03-25T08:46:38.526Z</time></trkpt><trkpt lat="38.0159217" lon="12.6275267"><ele>70.0</ele><time>2026-03-25T08:46:39.523Z</time></trkpt><trkpt lat="38.0159167" lon="12.627625"><ele>70.0</ele><time>2026-03-25T08:46:40.524Z</time></trkpt><trkpt lat="38.0159133" lon="12.6277233"><ele>70.0</ele><time>2026-03-25T08:46:41.522Z</time></trkpt><trkpt lat="38.0159083" lon="12.627825"><ele>70.4</ele><time>2026-03-25T08:46:42.524Z</time></trkpt><trkpt lat="38.015905" lon="12.627935"><ele>70.8</ele><time>2026-03-25T08:46:43.523Z</time></trkpt><trkpt lat="38.0159017" lon="12.6280583"><ele>71.2</ele><time>2026-03-25T08:46:44.525Z</time></trkpt><trkpt lat="38.0158967" lon="12.628195"><ele>71.6</ele><time>2026-03-25T08:46:45.522Z</time></trkpt><trkpt lat="38.0158917" lon="12.628325"><ele>72.0</ele><time>2026-03-25T08:46:46.523Z</time></trkpt><trkpt lat="38.0158867" lon="12.6284633"><ele>72.0</ele><time>2026-03-25T08:46:47.522Z</time></trkpt><trkpt lat="38.0158817" lon="12.6286033"><ele>72.0</ele><time>2026-03-25T08:46:48.526Z</time></trkpt><trkpt lat="38.0158783" lon="12.6287483"><ele>72.0</ele><time>2026-03-25T08:46:49.524Z</time></trkpt><trkpt lat="38.015875" lon="12.6289017"><ele>72.0</ele><time>2026-03-25T08:46:50.523Z</time></trkpt><trkpt lat="38.0158717" lon="12.6290617"><ele>72.0</ele><time>2026-03-25T08:46:51.526Z</time></trkpt><trkpt lat="38.0158667" lon="12.629225"><ele>72.0</ele><time>2026-03-25T08:46:52.527Z</time></trkpt><trkpt lat="38.01586" lon="12.6293783"><ele>72.0</ele><time>2026-03-25T08:46:53.523Z</time></trkpt><trkpt lat="38.015855" lon="12.6295267"><ele>72.0</ele><time>2026-03-25T08:46:54.52Z</time></trkpt><trkpt lat="38.01585" lon="12.6296633"><ele>72.0</ele><time>2026-03-25T08:46:55.523Z</time></trkpt><trkpt lat="38.0158467" lon="12.629785"><ele>72.0</ele><time>2026-03-25T08:46:56.526Z</time></trkpt><trkpt lat="38.0158383" lon="12.6299033"><ele>72.0</ele><time>2026-03-25T08:46:57.523Z</time></trkpt><trkpt lat="38.0158283" lon="12.63001"><ele>72.0</ele><time>2026-03-25T08:46:58.523Z</time></trkpt><trkpt lat="38.0158183" lon="12.6300983"><ele>72.0</ele><time>2026-03-25T08:46:59.522Z</time></trkpt><trkpt lat="38.0158033" lon="12.6302267"><ele>72.0</ele><time>2026-03-25T08:47:01.521Z</time></trkpt><trkpt lat="38.01579" lon="12.6303217"><ele>72.0</ele><time>2026-03-25T08:47:03.52Z</time></trkpt><trkpt lat="38.0157767" lon="12.6304233"><ele>72.0</ele><time>2026-03-25T08:47:05.518Z</time></trkpt><trkpt lat="38.01576" lon="12.6305417"><ele>72.0</ele><time>2026-03-25T08:47:07.522Z</time></trkpt><trkpt lat="38.01575" lon="12.63064"><ele>72.0</ele><time>2026-03-25T08:47:08.528Z</time></trkpt><trkpt lat="38.0157333" lon="12.63075"><ele>72.0</ele><time>2026-03-25T08:47:09.524Z</time></trkpt><trkpt lat="38.0157" lon="12.6309"><ele>72.0</ele><time>2026-03-25T08:47:10.525Z</time></trkpt><trkpt lat="38.0156683" lon="12.6310633"><ele>72.0</ele><time>2026-03-25T08:47:11.522Z</time></trkpt><trkpt lat="38.0156383" lon="12.6312367"><ele>72.0</ele><time>2026-03-25T08:47:12.525Z</time></trkpt><trkpt lat="38.01561" lon="12.6314117"><ele>72.0</ele><time>2026-03-25T08:47:13.522Z</time></trkpt><trkpt lat="38.0155833" lon="12.6315883"><ele>72.5</ele><time>2026-03-25T08:47:14.522Z</time></trkpt><trkpt lat="38.015555" lon="12.6317633"><ele>73.0</ele><time>2026-03-25T08:47:15.523Z</time></trkpt><trkpt lat="38.01553" lon="12.63193"><ele>73.5</ele><time>2026-03-25T08:47:16.522Z</time></trkpt><trkpt lat="38.0155033" lon="12.63209"><ele>74.0</ele><time>2026-03-25T08:47:17.52Z</time></trkpt><trkpt lat="38.0154783" lon="12.632245"><ele>75.0</ele><time>2026-03-25T08:47:18.523Z</time></trkpt><trkpt lat="38.0154567" lon="12.6323917"><ele>76.0</ele><time>2026-03-25T08:47:19.524Z</time></trkpt><trkpt lat="38.015445" lon="12.6325367"><ele>77.0</ele><time>2026-03-25T08:47:20.523Z</time></trkpt><trkpt lat="38.0154417" lon="12.6326817"><ele>78.0</ele><time>2026-03-25T08:47:21.525Z</time></trkpt><trkpt lat="38.0154417" lon="12.632825"><ele>78.25</ele><time>2026-03-25T08:47:22.523Z</time></trkpt><trkpt lat="38.0154483" lon="12.63297"><ele>78.5</ele><time>2026-03-25T08:47:23.523Z</time></trkpt><trkpt lat="38.0154583" lon="12.633115"><ele>78.75</ele><time>2026-03-25T08:47:24.528Z</time></trkpt><trkpt lat="38.0154667" lon="12.6332617"><ele>79.0</ele><time>2026-03-25T08:47:25.524Z</time></trkpt><trkpt lat="38.01548" lon="12.6334133"><ele>79.0</ele><time>2026-03-25T08:47:26.519Z</time></trkpt><trkpt lat="38.0155033" lon="12.6335833"><ele>79.0</ele><time>2026-03-25T08:47:27.52Z</time></trkpt><trkpt lat="38.01554" lon="12.6337733"><ele>79.0</ele><time>2026-03-25T08:47:28.525Z</time></trkpt><trkpt lat="38.0155817" lon="12.6339767"><ele>79.0</ele><time>2026-03-25T08:47:29.523Z</time></trkpt><trkpt lat="38.015625" lon="12.6341933"><ele>79.0</ele><time>2026-03-25T08:47:30.523Z</time></trkpt><trkpt lat="38.0156683" lon="12.6344217"><ele>79.0</ele><time>2026-03-25T08:47:31.522Z</time></trkpt><trkpt lat="38.0157133" lon="12.6346467"><ele>79.33333333333333</ele><time>2026-03-25T08:47:32.526Z</time></trkpt><trkpt lat="38.0157583" lon="12.634855"><ele>79.66666666666667</ele><time>2026-03-25T08:47:33.525Z</time></trkpt><trkpt lat="38.0158017" lon="12.63505"><ele>80.0</ele><time>2026-03-25T08:47:34.521Z</time></trkpt><trkpt lat="38.0158383" lon="12.6352317"><ele>81.66666666666667</ele><time>2026-03-25T08:47:35.528Z</time></trkpt><trkpt lat="38.015875" lon="12.635415"><ele>83.33333333333333</ele><time>2026-03-25T08:47:36.523Z</time></trkpt><trkpt lat="38.01592" lon="12.6356083"><ele>85.0</ele><time>2026-03-25T08:47:37.524Z</time></trkpt><trkpt lat="38.01597" lon="12.6358133"><ele>85.0</ele><time>2026-03-25T08:47:38.525Z</time></trkpt><trkpt lat="38.016015" lon="12.63603"><ele>85.0</ele><time>2026-03-25T08:47:39.529Z</time></trkpt><trkpt lat="38.0160617" lon="12.6362583"><ele>85.0</ele><time>2026-03-25T08:47:40.523Z</time></trkpt><trkpt lat="38.016115" lon="12.6364967"><ele>85.0</ele><time>2026-03-25T08:47:41.525Z</time></trkpt><trkpt lat="38.0161767" lon="12.6367417"><ele>85.0</ele><time>2026-03-25T08:47:42.523Z</time></trkpt><trkpt lat="38.01624" lon="12.63699"><ele>85.0</ele><time>2026-03-25T08:47:43.526Z</time></trkpt><trkpt lat="38.0163017" lon="12.63724"><ele>85.33333333333333</ele><time>2026-03-25T08:47:44.525Z</time></trkpt><trkpt lat="38.0163583" lon="12.6374983"><ele>85.66666666666667</ele><time>2026-03-25T08:47:45.524Z</time></trkpt><trkpt lat="38.0164083" lon="12.6377667"><ele>86.0</ele><time>2026-03-25T08:47:46.522Z</time></trkpt><trkpt lat="38.0164517" lon="12.6380417"><ele>86.33333333333334</ele><time>2026-03-25T08:47:47.521Z</time></trkpt><trkpt lat="38.0164933" lon="12.6383133"><ele>86.66666666666667</ele><time>2026-03-25T08:47:48.521Z</time></trkpt><trkpt lat="38.0165283" lon="12.6385683"><ele>87.0</ele><time>2026-03-25T08:47:49.521Z</time></trkpt><trkpt lat="38.01656" lon="12.6387967"><ele>87.33333333333333</ele><time>2026-03-25T08:47:50.519Z</time></trkpt><trkpt lat="38.0165917" lon="12.639"><ele>87.66666666666666</ele><time>2026-03-25T08:47:51.522Z</time></trkpt><trkpt lat="38.0166317" lon="12.6391833"><ele>88.0</ele><time>2026-03-25T08:47:52.523Z</time></trkpt><trkpt lat="38.016675" lon="12.6393517"><ele>88.25</ele><time>2026-03-25T08:47:53.53Z</time></trkpt><trkpt lat="38.016715" lon="12.639505"><ele>88.5</ele><time>2026-03-25T08:47:54.524Z</time></trkpt><trkpt lat="38.0167533" lon="12.6396433"><ele>88.75</ele><time>2026-03-25T08:47:55.523Z</time></trkpt><trkpt lat="38.01679" lon="12.639775"><ele>89.0</ele><time>2026-03-25T08:47:56.525Z</time></trkpt><trkpt lat="38.0168283" lon="12.6399083"><ele>89.0</ele><time>2026-03-25T08:47:57.519Z</time></trkpt><trkpt lat="38.0168683" lon="12.6400467"><ele>89.0</ele><time>2026-03-25T08:47:58.522Z</time></trkpt><trkpt lat="38.0169083" lon="12.640185"><ele>89.0</ele><time>2026-03-25T08:47:59.522Z</time></trkpt><trkpt lat="38.0169517" lon="12.640325"><ele>89.0</ele><time>2026-03-25T08:48:00.52Z</time></trkpt><trkpt lat="38.01699" lon="12.6404683"><ele>88.75</ele><time>2026-03-25T08:48:01.519Z</time></trkpt><trkpt lat="38.0170167" lon="12.6406233"><ele>88.5</ele><time>2026-03-25T08:48:02.52Z</time></trkpt><trkpt lat="38.017025" lon="12.6407883"><ele>88.25</ele><time>2026-03-25T08:48:03.522Z</time></trkpt><trkpt lat="38.0170133" lon="12.6409683"><ele>88.0</ele><time>2026-03-25T08:48:04.523Z</time></trkpt><trkpt lat="38.01699" lon="12.641155"><ele>89.0</ele><time>2026-03-25T08:48:05.523Z</time></trkpt><trkpt lat="38.0169633" lon="12.6413533"><ele>90.0</ele><time>2026-03-25T08:48:06.525Z</time></trkpt><trkpt lat="38.01694" lon="12.6415683"><ele>91.0</ele><time>2026-03-25T08:48:07.523Z</time></trkpt><trkpt lat="38.0169167" lon="12.6418033"><ele>91.33333333333333</ele><time>2026-03-25T08:48:08.525Z</time></trkpt><trkpt lat="38.0168983" lon="12.6420567"><ele>91.66666666666667</ele><time>2026-03-25T08:48:09.524Z</time></trkpt><trkpt lat="38.0168867" lon="12.6423233"><ele>92.0</ele><time>2026-03-25T08:48:10.524Z</time></trkpt><trkpt lat="38.0168767" lon="12.6425967"><ele>93.0</ele><time>2026-03-25T08:48:11.523Z</time></trkpt><trkpt lat="38.0168683" lon="12.6428667"><ele>94.0</ele><time>2026-03-25T08:48:12.521Z</time></trkpt><trkpt lat="38.01686" lon="12.643115"><ele>95.0</ele><time>2026-03-25T08:48:13.524Z</time></trkpt><trkpt lat="38.016855" lon="12.6433433"><ele>95.0</ele><time>2026-03-25T08:48:14.519Z</time></trkpt><trkpt lat="38.0168533" lon="12.6435517"><ele>95.0</ele><time>2026-03-25T08:48:15.519Z</time></trkpt><trkpt lat="38.0168567" lon="12.643745"><ele>95.0</ele><time>2026-03-25T08:48:16.519Z</time></trkpt><trkpt lat="38.0168567" lon="12.6439133"><ele>95.0</ele><time>2026-03-25T08:48:17.519Z</time></trkpt><trkpt lat="38.0168667" lon="12.6440517"><ele>95.8</ele><time>2026-03-25T08:48:18.524Z</time></trkpt><trkpt lat="38.0168867" lon="12.6441717"><ele>96.6</ele><time>2026-03-25T08:48:19.518Z</time></trkpt><trkpt lat="38.0169033" lon="12.64427"><ele>97.4</ele><time>2026-03-25T08:48:20.525Z</time></trkpt><trkpt lat="38.0169567" lon="12.6443933"><ele>98.2</ele><time>2026-03-25T08:48:22.518Z</time></trkpt><trkpt lat="38.0170717" lon="12.644325"><ele>99.0</ele><time>2026-03-25T08:48:24.53Z</time></trkpt><trkpt lat="38.01715" lon="12.6442183"><ele>99.0</ele><time>2026-03-25T08:48:25.523Z</time></trkpt><trkpt lat="38.017255" lon="12.6440967"><ele>99.0</ele><time>2026-03-25T08:48:26.524Z</time></trkpt><trkpt lat="38.0173833" lon="12.6439733"><ele>99.0</ele><time>2026-03-25T08:48:27.523Z</time></trkpt><trkpt lat="38.0175317" lon="12.6438633"><ele>101.0</ele><time>2026-03-25T08:48:28.523Z</time></trkpt><trkpt lat="38.0176767" lon="12.6437717"><ele>103.0</ele><time>2026-03-25T08:48:29.525Z</time></trkpt><trkpt lat="38.0178167" lon="12.6437117"><ele>105.0</ele><time>2026-03-25T08:48:30.521Z</time></trkpt><trkpt lat="38.0179617" lon="12.6436833"><ele>105.0</ele><time>2026-03-25T08:48:31.523Z</time></trkpt><trkpt lat="38.0181183" lon="12.6436917"><ele>105.0</ele><time>2026-03-25T08:48:32.525Z</time></trkpt><trkpt lat="38.0182817" lon="12.64373"><ele>105.0</ele><time>2026-03-25T08:48:33.521Z</time></trkpt><trkpt lat="38.0184533" lon="12.643785"><ele>107.0</ele><time>2026-03-25T08:48:34.524Z</time></trkpt><trkpt lat="38.018625" lon="12.6438467"><ele>109.0</ele><time>2026-03-25T08:48:35.524Z</time></trkpt><trkpt lat="38.0187833" lon="12.6439017"><ele>111.0</ele><time>2026-03-25T08:48:36.53Z</time></trkpt><trkpt lat="38.0189267" lon="12.643945"><ele>111.0</ele><time>2026-03-25T08:48:37.523Z</time></trkpt><trkpt lat="38.0190667" lon="12.64396"><ele>111.0</ele><time>2026-03-25T08:48:38.523Z</time></trkpt><trkpt lat="38.0192067" lon="12.643935"><ele>111.0</ele><time>2026-03-25T08:48:39.521Z</time></trkpt><trkpt lat="38.0193383" lon="12.643875"><ele>111.0</ele><time>2026-03-25T08:48:40.527Z</time></trkpt><trkpt lat="38.01946" lon="12.6437883"><ele>111.25</ele><time>2026-03-25T08:48:41.526Z</time></trkpt><trkpt lat="38.019565" lon="12.6436733"><ele>111.5</ele><time>2026-03-25T08:48:42.525Z</time></trkpt><trkpt lat="38.0196517" lon="12.64354"><ele>111.75</ele><time>2026-03-25T08:48:43.522Z</time></trkpt><trkpt lat="38.0197167" lon="12.64338"><ele>112.0</ele><time>2026-03-25T08:48:44.522Z</time></trkpt><trkpt lat="38.0197517" lon="12.6431983"><ele>109.33333333333334</ele><time>2026-03-25T08:48:45.522Z</time></trkpt><trkpt lat="38.0197633" lon="12.6429983"><ele>106.66666666666666</ele><time>2026-03-25T08:48:46.524Z</time></trkpt><trkpt lat="38.0197783" lon="12.6427883"><ele>104.0</ele><time>2026-03-25T08:48:47.523Z</time></trkpt><trkpt lat="38.01981" lon="12.6425833"><ele>103.75</ele><time>2026-03-25T08:48:48.527Z</time></trkpt><trkpt lat="38.0198567" lon="12.6423967"><ele>103.5</ele><time>2026-03-25T08:48:49.523Z</time></trkpt><trkpt lat="38.0199133" lon="12.642235"><ele>103.25</ele><time>2026-03-25T08:48:50.523Z</time></trkpt><trkpt lat="38.0199883" lon="12.6420917"><ele>103.0</ele><time>2026-03-25T08:48:51.524Z</time></trkpt><trkpt lat="38.0200833" lon="12.6419567"><ele>104.33333333333334</ele><time>2026-03-25T08:48:52.523Z</time></trkpt><trkpt lat="38.020205" lon="12.6418267"><ele>105.66666666666666</ele><time>2026-03-25T08:48:53.522Z</time></trkpt><trkpt lat="38.02035" lon="12.6417017"><ele>107.0</ele><time>2026-03-25T08:48:54.523Z</time></trkpt><trkpt lat="38.0205083" lon="12.64158"><ele>107.0</ele><time>2026-03-25T08:48:55.525Z</time></trkpt><trkpt lat="38.0206783" lon="12.6414633"><ele>107.0</ele><time>2026-03-25T08:48:56.525Z</time></trkpt><trkpt lat="38.020855" lon="12.6413367"><ele>107.0</ele><time>2026-03-25T08:48:57.523Z</time></trkpt><trkpt lat="38.02103" lon="12.6412167"><ele>107.33333333333333</ele><time>2026-03-25T08:48:58.524Z</time></trkpt><trkpt lat="38.021195" lon="12.641105"><ele>107.66666666666666</ele><time>2026-03-25T08:48:59.521Z</time></trkpt><trkpt lat="38.021345" lon="12.6410017"><ele>108.0</ele><time>2026-03-25T08:49:00.525Z</time></trkpt><trkpt lat="38.0214867" lon="12.6409067"><ele>108.0</ele><time>2026-03-25T08:49:01.522Z</time></trkpt><trkpt lat="38.02163" lon="12.640835"><ele>108.0</ele><time>2026-03-25T08:49:02.522Z</time></trkpt><trkpt lat="38.0217817" lon="12.64079"><ele>108.0</ele><time>2026-03-25T08:49:03.524Z</time></trkpt><trkpt lat="38.021945" lon="12.6407667"><ele>110.33333333333334</ele><time>2026-03-25T08:49:04.525Z</time></trkpt><trkpt lat="38.0221117" lon="12.64076"><ele>112.66666666666667</ele><time>2026-03-25T08:49:05.524Z</time></trkpt><trkpt lat="38.02227" lon="12.6407633"><ele>115.0</ele><time>2026-03-25T08:49:06.522Z</time></trkpt><trkpt lat="38.0224167" lon="12.640785"><ele>115.75</ele><time>2026-03-25T08:49:07.528Z</time></trkpt><trkpt lat="38.0225583" lon="12.6408383"><ele>116.5</ele><time>2026-03-25T08:49:08.523Z</time></trkpt><trkpt lat="38.0226933" lon="12.6409183"><ele>117.25</ele><time>2026-03-25T08:49:09.524Z</time></trkpt><trkpt lat="38.02282" lon="12.6410267"><ele>118.0</ele><time>2026-03-25T08:49:10.525Z</time></trkpt><trkpt lat="38.0229333" lon="12.6411383"><ele>119.25</ele><time>2026-03-25T08:49:11.524Z</time></trkpt><trkpt lat="38.0230517" lon="12.64123"><ele>120.5</ele><time>2026-03-25T08:49:12.524Z</time></trkpt><trkpt lat="38.0231767" lon="12.6412917"><ele>121.75</ele><time>2026-03-25T08:49:13.521Z</time></trkpt><trkpt lat="38.023305" lon="12.6413217"><ele>123.0</ele><time>2026-03-25T08:49:14.526Z</time></trkpt><trkpt lat="38.02343" lon="12.6413333"><ele>123.5</ele><time>2026-03-25T08:49:15.524Z</time></trkpt><trkpt lat="38.023555" lon="12.6413333"><ele>124.0</ele><time>2026-03-25T08:49:16.526Z</time></trkpt><trkpt lat="38.023675" lon="12.64134"><ele>124.5</ele><time>2026-03-25T08:49:17.522Z</time></trkpt><trkpt lat="38.0237917" lon="12.6413617"><ele>125.0</ele><time>2026-03-25T08:49:18.527Z</time></trkpt><trkpt lat="38.0239083" lon="12.6414"><ele>125.0</ele><time>2026-03-25T08:49:19.523Z</time></trkpt><trkpt lat="38.0240233" lon="12.64146"><ele>125.0</ele><time>2026-03-25T08:49:20.522Z</time></trkpt><trkpt lat="38.0241483" lon="12.6415383"><ele>125.0</ele><time>2026-03-25T08:49:21.524Z</time></trkpt><trkpt lat="38.024285" lon="12.6416317"><ele>125.0</ele><time>2026-03-25T08:49:22.524Z</time></trkpt><trkpt lat="38.0244383" lon="12.6417417"><ele>124.66666666666666</ele><time>2026-03-25T08:49:23.518Z</time></trkpt><trkpt lat="38.0245983" lon="12.64187"><ele>124.33333333333334</ele><time>2026-03-25T08:49:24.524Z</time></trkpt><trkpt lat="38.0247517" lon="12.6420083"><ele>124.0</ele><time>2026-03-25T08:49:25.521Z</time></trkpt><trkpt lat="38.0248983" lon="12.6421567"><ele>125.0</ele><time>2026-03-25T08:49:26.523Z</time></trkpt><trkpt lat="38.0250417" lon="12.6423133"><ele>126.0</ele><time>2026-03-25T08:49:27.521Z</time></trkpt><trkpt lat="38.0251783" lon="12.6424633"><ele>127.0</ele><time>2026-03-25T08:49:28.525Z</time></trkpt><trkpt lat="38.0253083" lon="12.642595"><ele>127.0</ele><time>2026-03-25T08:49:29.523Z</time></trkpt><trkpt lat="38.025425" lon="12.6427083"><ele>127.0</ele><time>2026-03-25T08:49:30.523Z</time></trkpt><trkpt lat="38.0255283" lon="12.6428017"><ele>127.0</ele><time>2026-03-25T08:49:31.526Z</time></trkpt><trkpt lat="38.0256217" lon="12.642865"><ele>127.0</ele><time>2026-03-25T08:49:32.524Z</time></trkpt><trkpt lat="38.0257117" lon="12.6428967"><ele>126.83333333333334</ele><time>2026-03-25T08:49:33.522Z</time></trkpt><trkpt lat="38.0258033" lon="12.642895"><ele>126.66666666666667</ele><time>2026-03-25T08:49:34.524Z</time></trkpt><trkpt lat="38.02589" lon="12.6428567"><ele>126.5</ele><time>2026-03-25T08:49:35.528Z</time></trkpt><trkpt lat="38.0259517" lon="12.6427967"><ele>126.33333333333334</ele><time>2026-03-25T08:49:36.525Z</time></trkpt><trkpt lat="38.026025" lon="12.642725"><ele>126.16666666666667</ele><time>2026-03-25T08:49:38.522Z</time></trkpt><trkpt lat="38.026095" lon="12.6427333"><ele>126.0</ele><time>2026-03-25T08:49:40.522Z</time></trkpt><trkpt lat="38.0261767" lon="12.6428517"><ele>126.75</ele><time>2026-03-25T08:49:42.523Z</time></trkpt><trkpt lat="38.02622" lon="12.6429583"><ele>127.5</ele><time>2026-03-25T08:49:43.519Z</time></trkpt><trkpt lat="38.026265" lon="12.6431183"><ele>128.25</ele><time>2026-03-25T08:49:44.524Z</time></trkpt><trkpt lat="38.02632" lon="12.6433017"><ele>129.0</ele><time>2026-03-25T08:49:45.522Z</time></trkpt><trkpt lat="38.026385" lon="12.6434883"><ele>129.5</ele><time>2026-03-25T08:49:46.526Z</time></trkpt><trkpt lat="38.0264583" lon="12.6436617"><ele>130.0</ele><time>2026-03-25T08:49:47.522Z</time></trkpt><trkpt lat="38.0265433" lon="12.6438117"><ele>130.5</ele><time>2026-03-25T08:49:48.521Z</time></trkpt><trkpt lat="38.0266417" lon="12.643945"><ele>131.0</ele><time>2026-03-25T08:49:49.521Z</time></trkpt><trkpt lat="38.0267417" lon="12.6440667"><ele>131.0</ele><time>2026-03-25T08:49:50.522Z</time></trkpt><trkpt lat="38.0268517" lon="12.6441767"><ele>131.0</ele><time>2026-03-25T08:49:51.523Z</time></trkpt><trkpt lat="38.0269767" lon="12.6442667"><ele>131.0</ele><time>2026-03-25T08:49:52.522Z</time></trkpt><trkpt lat="38.0271083" lon="12.644335"><ele>131.0</ele><time>2026-03-25T08:49:53.521Z</time></trkpt><trkpt lat="38.0272333" lon="12.6443933"><ele>131.0</ele><time>2026-03-25T08:49:54.522Z</time></trkpt><trkpt lat="38.0273367" lon="12.6444617"><ele>131.0</ele><time>2026-03-25T08:49:55.523Z</time></trkpt><trkpt lat="38.0274167" lon="12.6445517"><ele>131.0</ele><time>2026-03-25T08:49:56.526Z</time></trkpt><trkpt lat="38.0274833" lon="12.6446717"><ele>131.0</ele><time>2026-03-25T08:49:57.522Z</time></trkpt><trkpt lat="38.027545" lon="12.644825"><ele>131.66666666666666</ele><time>2026-03-25T08:49:58.522Z</time></trkpt><trkpt lat="38.0276017" lon="12.6450117"><ele>132.33333333333334</ele><time>2026-03-25T08:49:59.525Z</time></trkpt><trkpt lat="38.027645" lon="12.6452267"><ele>133.0</ele><time>2026-03-25T08:50:00.523Z</time></trkpt><trkpt lat="38.0276817" lon="12.645455"><ele>134.33333333333334</ele><time>2026-03-25T08:50:01.523Z</time></trkpt><trkpt lat="38.0277167" lon="12.6457067"><ele>135.66666666666666</ele><time>2026-03-25T08:50:02.522Z</time></trkpt><trkpt lat="38.02775" lon="12.645965"><ele>137.0</ele><time>2026-03-25T08:50:03.524Z</time></trkpt><trkpt lat="38.0277833" lon="12.6462"><ele>138.0</ele><time>2026-03-25T08:50:04.526Z</time></trkpt><trkpt lat="38.0278133" lon="12.6464033"><ele>139.0</ele><time>2026-03-25T08:50:05.524Z</time></trkpt><trkpt lat="38.02785" lon="12.646575"><ele>140.0</ele><time>2026-03-25T08:50:06.523Z</time></trkpt><trkpt lat="38.027905" lon="12.646725"><ele>141.0</ele><time>2026-03-25T08:50:07.525Z</time></trkpt><trkpt lat="38.028075" lon="12.647005"><ele>142.0</ele><time>2026-03-25T08:50:09.524Z</time></trkpt><trkpt lat="38.028185" lon="12.6471267"><ele>143.0</ele><time>2026-03-25T08:50:10.526Z</time></trkpt><trkpt lat="38.0283" lon="12.6472283"><ele>144.0</ele><time>2026-03-25T08:50:11.521Z</time></trkpt><trkpt lat="38.0284317" lon="12.6473067"><ele>145.0</ele><time>2026-03-25T08:50:12.522Z</time></trkpt><trkpt lat="38.0285833" lon="12.6473583"><ele>145.0</ele><time>2026-03-25T08:50:13.525Z</time></trkpt><trkpt lat="38.0287483" lon="12.6473933"><ele>145.0</ele><time>2026-03-25T08:50:14.522Z</time></trkpt><trkpt lat="38.0289133" lon="12.6474333"><ele>145.0</ele><time>2026-03-25T08:50:15.524Z</time></trkpt><trkpt lat="38.029075" lon="12.6474983"><ele>146.0</ele><time>2026-03-25T08:50:16.52Z</time></trkpt><trkpt lat="38.0292283" lon="12.6475967"><ele>147.0</ele><time>2026-03-25T08:50:17.525Z</time></trkpt><trkpt lat="38.0293683" lon="12.647725"><ele>148.0</ele><time>2026-03-25T08:50:18.522Z</time></trkpt><trkpt lat="38.0294967" lon="12.647885"><ele>150.33333333333334</ele><time>2026-03-25T08:50:19.524Z</time></trkpt><trkpt lat="38.0296117" lon="12.64807"><ele>152.66666666666666</ele><time>2026-03-25T08:50:20.524Z</time></trkpt><trkpt lat="38.029725" lon="12.6482717"><ele>155.0</ele><time>2026-03-25T08:50:21.524Z</time></trkpt><trkpt lat="38.029855" lon="12.6484733"><ele>156.33333333333331</ele><time>2026-03-25T08:50:22.523Z</time></trkpt><trkpt lat="38.029995" lon="12.648665"><ele>157.66666666666666</ele><time>2026-03-25T08:50:23.523Z</time></trkpt><trkpt lat="38.03015" lon="12.6488433"><ele>159.0</ele><time>2026-03-25T08:50:24.525Z</time></trkpt><trkpt lat="38.030315" lon="12.6490083"><ele>159.0</ele><time>2026-03-25T08:50:25.521Z</time></trkpt><trkpt lat="38.0304767" lon="12.6491567"><ele>159.0</ele><time>2026-03-25T08:50:26.524Z</time></trkpt><trkpt lat="38.0306233" lon="12.64929"><ele>159.0</ele><time>2026-03-25T08:50:27.523Z</time></trkpt><trkpt lat="38.0307567" lon="12.649415"><ele>160.0</ele><time>2026-03-25T08:50:28.526Z</time></trkpt><trkpt lat="38.0308867" lon="12.6495267"><ele>161.0</ele><time>2026-03-25T08:50:29.522Z</time></trkpt><trkpt lat="38.0310217" lon="12.6496233"><ele>162.0</ele><time>2026-03-25T08:50:30.52Z</time></trkpt><trkpt lat="38.0311667" lon="12.6497017"><ele>162.0</ele><time>2026-03-25T08:50:31.524Z</time></trkpt><trkpt lat="38.03133" lon="12.649755"><ele>162.0</ele><time>2026-03-25T08:50:32.525Z</time></trkpt><trkpt lat="38.0315017" lon="12.649785"><ele>162.0</ele><time>2026-03-25T08:50:33.523Z</time></trkpt><trkpt lat="38.031675" lon="12.6497917"><ele>163.33333333333334</ele><time>2026-03-25T08:50:34.522Z</time></trkpt><trkpt lat="38.0318417" lon="12.649805"><ele>164.66666666666669</ele><time>2026-03-25T08:50:35.523Z</time></trkpt><trkpt lat="38.0320017" lon="12.6498433"><ele>166.0</ele><time>2026-03-25T08:50:36.525Z</time></trkpt><trkpt lat="38.0321633" lon="12.64991"><ele>166.0</ele><time>2026-03-25T08:50:37.523Z</time></trkpt><trkpt lat="38.032335" lon="12.6500033"><ele>166.0</ele><time>2026-03-25T08:50:38.524Z</time></trkpt><trkpt lat="38.0325067" lon="12.6501033"><ele>166.0</ele><time>2026-03-25T08:50:39.522Z</time></trkpt><trkpt lat="38.0326667" lon="12.6501967"><ele>166.66666666666669</ele><time>2026-03-25T08:50:40.524Z</time></trkpt><trkpt lat="38.0328133" lon="12.6502733"><ele>167.33333333333334</ele><time>2026-03-25T08:50:41.523Z</time></trkpt><trkpt lat="38.0329567" lon="12.6503133"><ele>168.0</ele><time>2026-03-25T08:50:42.521Z</time></trkpt><trkpt lat="38.03311" lon="12.650315"><ele>170.66666666666666</ele><time>2026-03-25T08:50:43.524Z</time></trkpt><trkpt lat="38.0332617" lon="12.6503033"><ele>173.33333333333331</ele><time>2026-03-25T08:50:44.522Z</time></trkpt><trkpt lat="38.0334133" lon="12.6503167"><ele>176.0</ele><time>2026-03-25T08:50:45.523Z</time></trkpt><trkpt lat="38.0335683" lon="12.6503617"><ele>176.33333333333331</ele><time>2026-03-25T08:50:46.522Z</time></trkpt><trkpt lat="38.0337333" lon="12.650435"><ele>176.66666666666666</ele><time>2026-03-25T08:50:47.522Z</time></trkpt><trkpt lat="38.0339067" lon="12.6505233"><ele>177.0</ele><time>2026-03-25T08:50:48.52Z</time></trkpt><trkpt lat="38.0340917" lon="12.6506167"><ele>178.33333333333334</ele><time>2026-03-25T08:50:49.524Z</time></trkpt><trkpt lat="38.034285" lon="12.6507067"><ele>179.66666666666669</ele><time>2026-03-25T08:50:50.521Z</time></trkpt><trkpt lat="38.0344867" lon="12.6507967"><ele>181.0</ele><time>2026-03-25T08:50:51.525Z</time></trkpt><trkpt lat="38.0346917" lon="12.6508867"><ele>181.0</ele><time>2026-03-25T08:50:52.522Z</time></trkpt><trkpt lat="38.0348867" lon="12.6509733"><ele>181.0</ele><time>2026-03-25T08:50:53.523Z</time></trkpt><trkpt lat="38.035065" lon="12.6510533"><ele>181.0</ele><time>2026-03-25T08:50:54.523Z</time></trkpt><trkpt lat="38.0352367" lon="12.651135"><ele>185.33333333333334</ele><time>2026-03-25T08:50:55.523Z</time></trkpt><trkpt lat="38.0354033" lon="12.6512333"><ele>189.66666666666669</ele><time>2026-03-25T08:50:56.525Z</time></trkpt><trkpt lat="38.0355617" lon="12.6513267"><ele>194.0</ele><time>2026-03-25T08:50:57.521Z</time></trkpt><trkpt lat="38.035705" lon="12.6514167"><ele>194.0</ele><time>2026-03-25T08:50:58.522Z</time></trkpt><trkpt lat="38.0358317" lon="12.6515"><ele>194.0</ele><time>2026-03-25T08:50:59.521Z</time></trkpt><trkpt lat="38.0359333" lon="12.65158"><ele>194.0</ele><time>2026-03-25T08:51:00.521Z</time></trkpt><trkpt lat="38.0360067" lon="12.651665"><ele>194.0</ele><time>2026-03-25T08:51:01.524Z</time></trkpt><trkpt lat="38.0360517" lon="12.6517717"><ele>194.0</ele><time>2026-03-25T08:51:02.522Z</time></trkpt><trkpt lat="38.03607" lon="12.6519233"><ele>194.0</ele><time>2026-03-25T08:51:03.522Z</time></trkpt><trkpt lat="38.0360717" lon="12.65211"><ele>194.0</ele><time>2026-03-25T08:51:04.524Z</time></trkpt><trkpt lat="38.036065" lon="12.6523183"><ele>194.0</ele><time>2026-03-25T08:51:05.523Z</time></trkpt><trkpt lat="38.0360567" lon="12.6525267"><ele>195.6</ele><time>2026-03-25T08:51:06.52Z</time></trkpt><trkpt lat="38.0360533" lon="12.6527"><ele>197.2</ele><time>2026-03-25T08:51:07.521Z</time></trkpt><trkpt lat="38.0360517" lon="12.6528417"><ele>198.79999999999998</ele><time>2026-03-25T08:51:08.524Z</time></trkpt><trkpt lat="38.0360583" lon="12.652945"><ele>200.39999999999998</ele><time>2026-03-25T08:51:09.523Z</time></trkpt><trkpt lat="38.0360833" lon="12.6530317"><ele>202.0</ele><time>2026-03-25T08:51:11.523Z</time></trkpt><trkpt lat="38.0361617" lon="12.6530067"><ele>202.0</ele><time>2026-03-25T08:51:13.524Z</time></trkpt><trkpt lat="38.0363267" lon="12.652845"><ele>202.0</ele><time>2026-03-25T08:51:15.522Z</time></trkpt><trkpt lat="38.0364533" lon="12.6527083"><ele>202.0</ele><time>2026-03-25T08:51:16.524Z</time></trkpt><trkpt lat="38.03659" lon="12.6525633"><ele>200.33333333333331</ele><time>2026-03-25T08:51:17.525Z</time></trkpt><trkpt lat="38.0367333" lon="12.652415"><ele>198.66666666666669</ele><time>2026-03-25T08:51:18.524Z</time></trkpt><trkpt lat="38.0368683" lon="12.6522717"><ele>197.0</ele><time>2026-03-25T08:51:19.524Z</time></trkpt><trkpt lat="38.0369917" lon="12.6521433"><ele>197.0</ele><time>2026-03-25T08:51:20.524Z</time></trkpt><trkpt lat="38.0370933" lon="12.6520367"><ele>197.0</ele><time>2026-03-25T08:51:21.523Z</time></trkpt><trkpt lat="38.0371717" lon="12.6519617"><ele>197.0</ele><time>2026-03-25T08:51:22.524Z</time></trkpt><trkpt lat="38.0372317" lon="12.6519033"><ele>197.0</ele><time>2026-03-25T08:51:23.524Z</time></trkpt><trkpt lat="38.037295" lon="12.6518317"><ele>197.0</ele><time>2026-03-25T08:51:25.524Z</time></trkpt><trkpt lat="38.0373633" lon="12.6517333"><ele>196.8</ele><time>2026-03-25T08:51:28.524Z</time></trkpt><trkpt lat="38.0374717" lon="12.6516167"><ele>196.6</ele><time>2026-03-25T08:51:30.521Z</time></trkpt><trkpt lat="38.0375433" lon="12.6515483"><ele>196.4</ele><time>2026-03-25T08:51:31.52Z</time></trkpt><trkpt lat="38.0376133" lon="12.6514817"><ele>196.20000000000002</ele><time>2026-03-25T08:51:32.527Z</time></trkpt><trkpt lat="38.0376733" lon="12.65142"><ele>196.0</ele><time>2026-03-25T08:51:33.522Z</time></trkpt><trkpt lat="38.037725" lon="12.6513583"><ele>195.99999999999997</ele><time>2026-03-25T08:51:34.521Z</time></trkpt><trkpt lat="38.0378233" lon="12.6512983"><ele>196.0</ele><time>2026-03-25T08:51:36.528Z</time></trkpt><trkpt lat="38.0379083" lon="12.6513583"><ele>196.0</ele><time>2026-03-25T08:51:38.523Z</time></trkpt><trkpt lat="38.0379317" lon="12.6514383"><ele>196.0</ele><time>2026-03-25T08:51:39.524Z</time></trkpt><trkpt lat="38.0379467" lon="12.6515317"><ele>195.99999999999997</ele><time>2026-03-25T08:51:40.522Z</time></trkpt><trkpt lat="38.037955" lon="12.651645"><ele>196.0</ele><time>2026-03-25T08:51:41.524Z</time></trkpt><trkpt lat="38.03796" lon="12.6517733"><ele>196.0</ele><time>2026-03-25T08:51:42.523Z</time></trkpt><trkpt lat="38.037955" lon="12.6519067"><ele>196.0</ele><time>2026-03-25T08:51:43.521Z</time></trkpt><trkpt lat="38.0379483" lon="12.6520433"><ele>196.0</ele><time>2026-03-25T08:51:44.523Z</time></trkpt><trkpt lat="38.0379367" lon="12.6521867"><ele>196.0</ele><time>2026-03-25T08:51:45.526Z</time></trkpt><trkpt lat="38.0379283" lon="12.6523367"><ele>196.0</ele><time>2026-03-25T08:51:46.521Z</time></trkpt><trkpt lat="38.0379233" lon="12.6524817"><ele>195.4</ele><time>2026-03-25T08:51:47.524Z</time></trkpt><trkpt lat="38.037915" lon="12.6526233"><ele>194.8</ele><time>2026-03-25T08:51:48.525Z</time></trkpt><trkpt lat="38.037905" lon="12.6527583"><ele>194.20000000000002</ele><time>2026-03-25T08:51:49.523Z</time></trkpt><trkpt lat="38.0378967" lon="12.6528783"><ele>193.60000000000002</ele><time>2026-03-25T08:51:50.526Z</time></trkpt><trkpt lat="38.0378883" lon="12.6529817"><ele>193.0</ele><time>2026-03-25T08:51:51.525Z</time></trkpt><trkpt lat="38.0378833" lon="12.6530633"><ele>191.5</ele><time>2026-03-25T08:51:52.526Z</time></trkpt><trkpt lat="38.03788" lon="12.6532317"><ele>190.0</ele><time>2026-03-25T08:51:54.524Z</time></trkpt><trkpt lat="38.0378783" lon="12.6533517"><ele>188.5</ele><time>2026-03-25T08:51:55.527Z</time></trkpt><trkpt lat="38.03788" lon="12.653505"><ele>187.0</ele><time>2026-03-25T08:51:56.525Z</time></trkpt><trkpt lat="38.03789" lon="12.6536883"><ele>186.33333333333334</ele><time>2026-03-25T08:51:57.525Z</time></trkpt><trkpt lat="38.0379033" lon="12.653895"><ele>185.66666666666666</ele><time>2026-03-25T08:51:58.523Z</time></trkpt><trkpt lat="38.0379133" lon="12.6541217"><ele>185.0</ele><time>2026-03-25T08:51:59.523Z</time></trkpt><trkpt lat="38.0379067" lon="12.6543683"><ele>184.0</ele><time>2026-03-25T08:52:00.521Z</time></trkpt><trkpt lat="38.0378883" lon="12.65463"><ele>183.0</ele><time>2026-03-25T08:52:01.522Z</time></trkpt><trkpt lat="38.0378583" lon="12.6548967"><ele>182.0</ele><time>2026-03-25T08:52:02.524Z</time></trkpt><trkpt lat="38.037825" lon="12.6551567"><ele>180.0</ele><time>2026-03-25T08:52:03.52Z</time></trkpt><trkpt lat="38.0377933" lon="12.6554033"><ele>178.0</ele><time>2026-03-25T08:52:04.523Z</time></trkpt><trkpt lat="38.0377633" lon="12.6556383"><ele>176.0</ele><time>2026-03-25T08:52:05.522Z</time></trkpt><trkpt lat="38.0377333" lon="12.6558633"><ele>176.0</ele><time>2026-03-25T08:52:06.523Z</time></trkpt><trkpt lat="38.0377167" lon="12.656085"><ele>176.0</ele><time>2026-03-25T08:52:07.523Z</time></trkpt><trkpt lat="38.0377217" lon="12.656315"><ele>176.0</ele><time>2026-03-25T08:52:08.526Z</time></trkpt><trkpt lat="38.037745" lon="12.65655"><ele>174.66666666666666</ele><time>2026-03-25T08:52:09.521Z</time></trkpt><trkpt lat="38.0377917" lon="12.6567917"><ele>173.33333333333334</ele><time>2026-03-25T08:52:10.524Z</time></trkpt><trkpt lat="38.0378567" lon="12.6570333"><ele>172.0</ele><time>2026-03-25T08:52:11.521Z</time></trkpt><trkpt lat="38.0379217" lon="12.657275"><ele>172.0</ele><time>2026-03-25T08:52:12.525Z</time></trkpt><trkpt lat="38.03798" lon="12.657515"><ele>172.0</ele><time>2026-03-25T08:52:13.525Z</time></trkpt><trkpt lat="38.0380283" lon="12.65776"><ele>172.0</ele><time>2026-03-25T08:52:14.523Z</time></trkpt><trkpt lat="38.0380667" lon="12.6580083"><ele>171.0</ele><time>2026-03-25T08:52:15.52Z</time></trkpt><trkpt lat="38.03809" lon="12.658265"><ele>170.0</ele><time>2026-03-25T08:52:16.524Z</time></trkpt><trkpt lat="38.0381033" lon="12.65852"><ele>169.0</ele><time>2026-03-25T08:52:17.525Z</time></trkpt><trkpt lat="38.0381067" lon="12.6587633"><ele>167.33333333333334</ele><time>2026-03-25T08:52:18.523Z</time></trkpt><trkpt lat="38.0381033" lon="12.6589933"><ele>165.66666666666666</ele><time>2026-03-25T08:52:19.522Z</time></trkpt><trkpt lat="38.0380983" lon="12.6592"><ele>164.0</ele><time>2026-03-25T08:52:20.524Z</time></trkpt><trkpt lat="38.0381033" lon="12.6593883"><ele>163.25</ele><time>2026-03-25T08:52:21.523Z</time></trkpt><trkpt lat="38.038125" lon="12.6595633"><ele>162.5</ele><time>2026-03-25T08:52:22.521Z</time></trkpt><trkpt lat="38.0381783" lon="12.6597367"><ele>161.75</ele><time>2026-03-25T08:52:23.524Z</time></trkpt><trkpt lat="38.0382617" lon="12.659895"><ele>161.0</ele><time>2026-03-25T08:52:24.518Z</time></trkpt><trkpt lat="38.0383767" lon="12.6600333"><ele>158.66666666666666</ele><time>2026-03-25T08:52:25.523Z</time></trkpt><trkpt lat="38.0385167" lon="12.6601617"><ele>156.33333333333334</ele><time>2026-03-25T08:52:26.526Z</time></trkpt><trkpt lat="38.0386717" lon="12.660295"><ele>154.0</ele><time>2026-03-25T08:52:27.523Z</time></trkpt><trkpt lat="38.0388367" lon="12.6604317"><ele>154.0</ele><time>2026-03-25T08:52:28.522Z</time></trkpt><trkpt lat="38.0390117" lon="12.660575"><ele>154.0</ele><time>2026-03-25T08:52:29.523Z</time></trkpt><trkpt lat="38.03919" lon="12.6607217"><ele>154.0</ele><time>2026-03-25T08:52:30.52Z</time></trkpt><trkpt lat="38.0393633" lon="12.6608767"><ele>153.0</ele><time>2026-03-25T08:52:31.522Z</time></trkpt><trkpt lat="38.0395283" lon="12.6610383"><ele>152.0</ele><time>2026-03-25T08:52:32.529Z</time></trkpt><trkpt lat="38.03968" lon="12.661215"><ele>151.0</ele><time>2026-03-25T08:52:33.523Z</time></trkpt><trkpt lat="38.0398183" lon="12.66141"><ele>151.0</ele><time>2026-03-25T08:52:34.526Z</time></trkpt><trkpt lat="38.039945" lon="12.66162"><ele>151.0</ele><time>2026-03-25T08:52:35.522Z</time></trkpt><trkpt lat="38.0400583" lon="12.6618467"><ele>151.0</ele><time>2026-03-25T08:52:36.522Z</time></trkpt><trkpt lat="38.0401583" lon="12.6620867"><ele>148.66666666666669</ele><time>2026-03-25T08:52:37.522Z</time></trkpt><trkpt lat="38.0402417" lon="12.66234"><ele>146.33333333333334</ele><time>2026-03-25T08:52:38.524Z</time></trkpt><trkpt lat="38.0403117" lon="12.6626017"><ele>144.0</ele><time>2026-03-25T08:52:39.52Z</time></trkpt><trkpt lat="38.0403583" lon="12.66287"><ele>143.33333333333334</ele><time>2026-03-25T08:52:40.522Z</time></trkpt><trkpt lat="38.04039" lon="12.66314"><ele>142.66666666666669</ele><time>2026-03-25T08:52:41.521Z</time></trkpt><trkpt lat="38.0404033" lon="12.6634117"><ele>142.0</ele><time>2026-03-25T08:52:42.52Z</time></trkpt><trkpt lat="38.0404083" lon="12.6636833"><ele>140.33333333333334</ele><time>2026-03-25T08:52:43.523Z</time></trkpt><trkpt lat="38.0404033" lon="12.6639583"><ele>138.66666666666666</ele><time>2026-03-25T08:52:44.522Z</time></trkpt><trkpt lat="38.0403917" lon="12.6642333"><ele>137.0</ele><time>2026-03-25T08:52:45.52Z</time></trkpt><trkpt lat="38.0403767" lon="12.6645067"><ele>135.66666666666666</ele><time>2026-03-25T08:52:46.522Z</time></trkpt><trkpt lat="38.0403633" lon="12.6647833"><ele>134.33333333333334</ele><time>2026-03-25T08:52:47.521Z</time></trkpt><trkpt lat="38.0403517" lon="12.6650583"><ele>133.0</ele><time>2026-03-25T08:52:48.525Z</time></trkpt><trkpt lat="38.0403383" lon="12.6653333"><ele>132.66666666666669</ele><time>2026-03-25T08:52:49.523Z</time></trkpt><trkpt lat="38.0403283" lon="12.66561"><ele>132.33333333333334</ele><time>2026-03-25T08:52:50.527Z</time></trkpt><trkpt lat="38.04032" lon="12.6658867"><ele>132.0</ele><time>2026-03-25T08:52:51.524Z</time></trkpt><trkpt lat="38.0403217" lon="12.6661617"><ele>131.33333333333334</ele><time>2026-03-25T08:52:52.525Z</time></trkpt><trkpt lat="38.040335" lon="12.6664383"><ele>130.66666666666669</ele><time>2026-03-25T08:52:53.525Z</time></trkpt><trkpt lat="38.0403567" lon="12.6667183"><ele>130.0</ele><time>2026-03-25T08:52:54.522Z</time></trkpt><trkpt lat="38.040385" lon="12.6669967"><ele>130.0</ele><time>2026-03-25T08:52:55.526Z</time></trkpt><trkpt lat="38.0404267" lon="12.667275"><ele>130.0</ele><time>2026-03-25T08:52:56.526Z</time></trkpt><trkpt lat="38.0404783" lon="12.6675483"><ele>130.0</ele><time>2026-03-25T08:52:57.522Z</time></trkpt><trkpt lat="38.0405417" lon="12.66782"><ele>131.0</ele><time>2026-03-25T08:52:58.522Z</time></trkpt><trkpt lat="38.0406117" lon="12.6680867"><ele>132.0</ele><time>2026-03-25T08:52:59.525Z</time></trkpt><trkpt lat="38.0406867" lon="12.66835"><ele>133.0</ele><time>2026-03-25T08:53:00.524Z</time></trkpt><trkpt lat="38.040765" lon="12.6686083"><ele>131.66666666666669</ele><time>2026-03-25T08:53:01.522Z</time></trkpt><trkpt lat="38.0408417" lon="12.668865"><ele>130.33333333333334</ele><time>2026-03-25T08:53:02.522Z</time></trkpt><trkpt lat="38.040915" lon="12.6691167"><ele>129.0</ele><time>2026-03-25T08:53:03.525Z</time></trkpt><trkpt lat="38.0409833" lon="12.6693583"><ele>129.0</ele><time>2026-03-25T08:53:04.523Z</time></trkpt><trkpt lat="38.04105" lon="12.6695883"><ele>129.0</ele><time>2026-03-25T08:53:05.526Z</time></trkpt><trkpt lat="38.04111" lon="12.6698083"><ele>129.0</ele><time>2026-03-25T08:53:06.52Z</time></trkpt><trkpt lat="38.04116" lon="12.670015"><ele>129.0</ele><time>2026-03-25T08:53:07.523Z</time></trkpt><trkpt lat="38.041195" lon="12.6701967"><ele>129.0</ele><time>2026-03-25T08:53:08.525Z</time></trkpt><trkpt lat="38.04122" lon="12.6703567"><ele>129.0</ele><time>2026-03-25T08:53:09.523Z</time></trkpt><trkpt lat="38.0412383" lon="12.6704967"><ele>129.0</ele><time>2026-03-25T08:53:10.521Z</time></trkpt><trkpt lat="38.0412483" lon="12.67062"><ele>129.0</ele><time>2026-03-25T08:53:11.522Z</time></trkpt><trkpt lat="38.041255" lon="12.6707367"><ele>129.0</ele><time>2026-03-25T08:53:12.523Z</time></trkpt><trkpt lat="38.0412567" lon="12.67085"><ele>129.0</ele><time>2026-03-25T08:53:13.521Z</time></trkpt><trkpt lat="38.0412583" lon="12.670965"><ele>129.0</ele><time>2026-03-25T08:53:14.523Z</time></trkpt><trkpt lat="38.0412617" lon="12.671085"><ele>129.0</ele><time>2026-03-25T08:53:15.524Z</time></trkpt><trkpt lat="38.041265" lon="12.6712083"><ele>129.0</ele><time>2026-03-25T08:53:16.523Z</time></trkpt><trkpt lat="38.0412667" lon="12.671335"><ele>129.0</ele><time>2026-03-25T08:53:17.525Z</time></trkpt><trkpt lat="38.0412683" lon="12.6714633"><ele>129.0</ele><time>2026-03-25T08:53:18.526Z</time></trkpt><trkpt lat="38.04127" lon="12.671595"><ele>129.0</ele><time>2026-03-25T08:53:19.524Z</time></trkpt><trkpt lat="38.0412733" lon="12.6717283"><ele>129.0</ele><time>2026-03-25T08:53:20.528Z</time></trkpt><trkpt lat="38.0412733" lon="12.6718667"><ele>128.75</ele><time>2026-03-25T08:53:21.523Z</time></trkpt><trkpt lat="38.0412767" lon="12.67201"><ele>128.5</ele><time>2026-03-25T08:53:22.525Z</time></trkpt><trkpt lat="38.0412783" lon="12.67216"><ele>128.25</ele><time>2026-03-25T08:53:23.524Z</time></trkpt><trkpt lat="38.0412817" lon="12.6723167"><ele>128.0</ele><time>2026-03-25T08:53:24.521Z</time></trkpt><trkpt lat="38.041285" lon="12.6724817"><ele>128.0</ele><time>2026-03-25T08:53:25.523Z</time></trkpt><trkpt lat="38.041285" lon="12.67265"><ele>128.0</ele><time>2026-03-25T08:53:26.524Z</time></trkpt><trkpt lat="38.0412867" lon="12.67282"><ele>128.0</ele><time>2026-03-25T08:53:27.523Z</time></trkpt><trkpt lat="38.0412883" lon="12.67299"><ele>128.0</ele><time>2026-03-25T08:53:28.524Z</time></trkpt><trkpt lat="38.0412917" lon="12.673155"><ele>127.5</ele><time>2026-03-25T08:53:29.523Z</time></trkpt><trkpt lat="38.0412983" lon="12.6733233"><ele>127.0</ele><time>2026-03-25T08:53:30.525Z</time></trkpt><trkpt lat="38.0413017" lon="12.6734883"><ele>126.5</ele><time>2026-03-25T08:53:31.519Z</time></trkpt><trkpt lat="38.041305" lon="12.6736483"><ele>126.0</ele><time>2026-03-25T08:53:32.525Z</time></trkpt><trkpt lat="38.04131" lon="12.6737983"><ele>125.5</ele><time>2026-03-25T08:53:33.521Z</time></trkpt><trkpt lat="38.041315" lon="12.67394"><ele>125.0</ele><time>2026-03-25T08:53:34.524Z</time></trkpt><trkpt lat="38.0413167" lon="12.6740817"><ele>124.5</ele><time>2026-03-25T08:53:35.521Z</time></trkpt><trkpt lat="38.041315" lon="12.6742383"><ele>124.0</ele><time>2026-03-25T08:53:36.522Z</time></trkpt><trkpt lat="38.0413183" lon="12.6744117"><ele>124.66666666666667</ele><time>2026-03-25T08:53:37.524Z</time></trkpt><trkpt lat="38.0413217" lon="12.6745983"><ele>125.33333333333334</ele><time>2026-03-25T08:53:38.525Z</time></trkpt><trkpt lat="38.0413317" lon="12.6747967"><ele>126.0</ele><time>2026-03-25T08:53:39.523Z</time></trkpt><trkpt lat="38.0413417" lon="12.67501"><ele>126.0</ele><time>2026-03-25T08:53:40.524Z</time></trkpt><trkpt lat="38.0413533" lon="12.675235"><ele>126.0</ele><time>2026-03-25T08:53:41.522Z</time></trkpt><trkpt lat="38.0413633" lon="12.67546"><ele>126.0</ele><time>2026-03-25T08:53:42.523Z</time></trkpt><trkpt lat="38.041375" lon="12.6756867"><ele>126.0</ele><time>2026-03-25T08:53:43.524Z</time></trkpt><trkpt lat="38.0413867" lon="12.6759217"><ele>126.0</ele><time>2026-03-25T08:53:44.526Z</time></trkpt><trkpt lat="38.0413967" lon="12.6761667"><ele>126.0</ele><time>2026-03-25T08:53:45.522Z</time></trkpt><trkpt lat="38.04141" lon="12.6764183"><ele>126.66666666666666</ele><time>2026-03-25T08:53:46.522Z</time></trkpt><trkpt lat="38.0414233" lon="12.6766767"><ele>127.33333333333333</ele><time>2026-03-25T08:53:47.525Z</time></trkpt><trkpt lat="38.041435" lon="12.6769417"><ele>128.0</ele><time>2026-03-25T08:53:48.527Z</time></trkpt><trkpt lat="38.0414467" lon="12.67721"><ele>128.66666666666666</ele><time>2026-03-25T08:53:49.523Z</time></trkpt><trkpt lat="38.04146" lon="12.67748"><ele>129.33333333333334</ele><time>2026-03-25T08:53:50.523Z</time></trkpt><trkpt lat="38.0414733" lon="12.67775"><ele>130.0</ele><time>2026-03-25T08:53:51.524Z</time></trkpt><trkpt lat="38.04149" lon="12.67802"><ele>131.0</ele><time>2026-03-25T08:53:52.525Z</time></trkpt><trkpt lat="38.041505" lon="12.6782933"><ele>132.0</ele><time>2026-03-25T08:53:53.523Z</time></trkpt><trkpt lat="38.0415233" lon="12.6785683"><ele>133.0</ele><time>2026-03-25T08:53:54.522Z</time></trkpt><trkpt lat="38.0415383" lon="12.6788467"><ele>133.0</ele><time>2026-03-25T08:53:55.522Z</time></trkpt><trkpt lat="38.041555" lon="12.6791267"><ele>133.0</ele><time>2026-03-25T08:53:56.521Z</time></trkpt><trkpt lat="38.0415717" lon="12.6794033"><ele>133.0</ele><time>2026-03-25T08:53:57.52Z</time></trkpt><trkpt lat="38.0415883" lon="12.6796783"><ele>132.0</ele><time>2026-03-25T08:53:58.523Z</time></trkpt><trkpt lat="38.0416017" lon="12.679955"><ele>131.0</ele><time>2026-03-25T08:53:59.52Z</time></trkpt><trkpt lat="38.0416183" lon="12.680235"><ele>130.0</ele><time>2026-03-25T08:54:00.527Z</time></trkpt><trkpt lat="38.0416317" lon="12.6805183"><ele>127.0</ele><time>2026-03-25T08:54:01.524Z</time></trkpt><trkpt lat="38.0416433" lon="12.6808033"><ele>124.0</ele><time>2026-03-25T08:54:02.523Z</time></trkpt><trkpt lat="38.0416583" lon="12.68109"><ele>123.5</ele><time>2026-03-25T08:54:03.526Z</time></trkpt><trkpt lat="38.0416783" lon="12.6813767"><ele>123.0</ele><time>2026-03-25T08:54:04.521Z</time></trkpt><trkpt lat="38.0417033" lon="12.6816633"><ele>122.0</ele><time>2026-03-25T08:54:05.526Z</time></trkpt><trkpt lat="38.041735" lon="12.68195"><ele>121.0</ele><time>2026-03-25T08:54:06.523Z</time></trkpt><trkpt lat="38.04177" lon="12.68224"><ele>121.0</ele><time>2026-03-25T08:54:07.525Z</time></trkpt><trkpt lat="38.04181" lon="12.6825283"><ele>121.0</ele><time>2026-03-25T08:54:08.527Z</time></trkpt><trkpt lat="38.0418567" lon="12.6828183"><ele>119.5</ele><time>2026-03-25T08:54:09.522Z</time></trkpt><trkpt lat="38.0419117" lon="12.6831067"><ele>118.0</ele><time>2026-03-25T08:54:10.523Z</time></trkpt><trkpt lat="38.0419733" lon="12.6833933"><ele>119.5</ele><time>2026-03-25T08:54:11.523Z</time></trkpt><trkpt lat="38.0420417" lon="12.6836767"><ele>121.0</ele><time>2026-03-25T08:54:12.523Z</time></trkpt><trkpt lat="38.042115" lon="12.6839567"><ele>121.0</ele><time>2026-03-25T08:54:13.522Z</time></trkpt><trkpt lat="38.0421917" lon="12.6842317"><ele>121.0</ele><time>2026-03-25T08:54:14.522Z</time></trkpt><trkpt lat="38.0422717" lon="12.6845033"><ele>122.66666666666667</ele><time>2026-03-25T08:54:15.522Z</time></trkpt><trkpt lat="38.0423533" lon="12.6847667"><ele>124.33333333333334</ele><time>2026-03-25T08:54:16.523Z</time></trkpt><trkpt lat="38.042435" lon="12.685015"><ele>126.0</ele><time>2026-03-25T08:54:17.523Z</time></trkpt><trkpt lat="38.04251" lon="12.68525"><ele>124.0</ele><time>2026-03-25T08:54:18.524Z</time></trkpt><trkpt lat="38.04258" lon="12.6854717"><ele>122.0</ele><time>2026-03-25T08:54:19.523Z</time></trkpt><trkpt lat="38.0426483" lon="12.68568"><ele>120.0</ele><time>2026-03-25T08:54:20.525Z</time></trkpt><trkpt lat="38.0427167" lon="12.685865"><ele>120.0</ele><time>2026-03-25T08:54:21.523Z</time></trkpt><trkpt lat="38.0427783" lon="12.6860283"><ele>120.0</ele><time>2026-03-25T08:54:22.524Z</time></trkpt><trkpt lat="38.0428283" lon="12.6861717"><ele>120.0</ele><time>2026-03-25T08:54:23.522Z</time></trkpt><trkpt lat="38.0428667" lon="12.6862933"><ele>120.0</ele><time>2026-03-25T08:54:24.522Z</time></trkpt><trkpt lat="38.0428967" lon="12.6863967"><ele>121.0</ele><time>2026-03-25T08:54:25.524Z</time></trkpt><trkpt lat="38.0429267" lon="12.68648"><ele>122.0</ele><time>2026-03-25T08:54:26.519Z</time></trkpt><trkpt lat="38.0430167" lon="12.6865833"><ele>123.0</ele><time>2026-03-25T08:54:28.517Z</time></trkpt><trkpt lat="38.0431417" lon="12.68656"><ele>124.0</ele><time>2026-03-25T08:54:30.516Z</time></trkpt><trkpt lat="38.0432067" lon="12.6865367"><ele>125.0</ele><time>2026-03-25T08:54:31.518Z</time></trkpt><trkpt lat="38.0432683" lon="12.6865183"><ele>122.5</ele><time>2026-03-25T08:54:32.523Z</time></trkpt><trkpt lat="38.0433883" lon="12.686505"><ele>120.0</ele><time>2026-03-25T08:54:34.517Z</time></trkpt><trkpt lat="38.0434983" lon="12.6865167"><ele>117.5</ele><time>2026-03-25T08:54:36.522Z</time></trkpt><trkpt lat="38.0436117" lon="12.6865467"><ele>115.0</ele><time>2026-03-25T08:54:38.518Z</time></trkpt><trkpt lat="38.0437233" lon="12.68656"><ele>115.0</ele><time>2026-03-25T08:54:40.522Z</time></trkpt><trkpt lat="38.043825" lon="12.6865783"><ele>115.0</ele><time>2026-03-25T08:54:42.528Z</time></trkpt><trkpt lat="38.0439267" lon="12.6865983"><ele>115.0</ele><time>2026-03-25T08:54:44.522Z</time></trkpt><trkpt lat="38.0440083" lon="12.68661"><ele>115.0</ele><time>2026-03-25T08:54:46.523Z</time></trkpt><trkpt lat="38.04409" lon="12.6865917"><ele>115.0</ele><time>2026-03-25T08:55:21.524Z</time></trkpt><trkpt lat="38.0442367" lon="12.6865833"><ele>113.0</ele><time>2026-03-25T08:55:23.524Z</time></trkpt><trkpt lat="38.044345" lon="12.6865917"><ele>111.0</ele><time>2026-03-25T08:55:24.52Z</time></trkpt><trkpt lat="38.04447" lon="12.6866067"><ele>109.0</ele><time>2026-03-25T08:55:25.52Z</time></trkpt><trkpt lat="38.0446083" lon="12.686625"><ele>107.0</ele><time>2026-03-25T08:55:26.523Z</time></trkpt><trkpt lat="38.0447567" lon="12.6866483"><ele>107.0</ele><time>2026-03-25T08:55:27.524Z</time></trkpt><trkpt lat="38.04492" lon="12.6866733"><ele>107.0</ele><time>2026-03-25T08:55:28.522Z</time></trkpt><trkpt lat="38.0450883" lon="12.6866983"><ele>107.0</ele><time>2026-03-25T08:55:29.521Z</time></trkpt><trkpt lat="38.0452667" lon="12.6867267"><ele>106.66666666666666</ele><time>2026-03-25T08:55:30.522Z</time></trkpt><trkpt lat="38.0454483" lon="12.6867583"><ele>106.33333333333334</ele><time>2026-03-25T08:55:31.526Z</time></trkpt><trkpt lat="38.045635" lon="12.6867917"><ele>106.0</ele><time>2026-03-25T08:55:32.526Z</time></trkpt><trkpt lat="38.0458283" lon="12.6868233"><ele>104.33333333333334</ele><time>2026-03-25T08:55:33.52Z</time></trkpt><trkpt lat="38.0460267" lon="12.686855"><ele>102.66666666666666</ele><time>2026-03-25T08:55:34.521Z</time></trkpt><trkpt lat="38.0462283" lon="12.6868833"><ele>101.0</ele><time>2026-03-25T08:55:35.525Z</time></trkpt><trkpt lat="38.0464383" lon="12.686915"><ele>101.66666666666666</ele><time>2026-03-25T08:55:36.523Z</time></trkpt><trkpt lat="38.0466533" lon="12.686945"><ele>102.33333333333334</ele><time>2026-03-25T08:55:37.524Z</time></trkpt><trkpt lat="38.0468717" lon="12.6869767"><ele>103.0</ele><time>2026-03-25T08:55:38.521Z</time></trkpt><trkpt lat="38.0470917" lon="12.68701"><ele>103.0</ele><time>2026-03-25T08:55:39.523Z</time></trkpt><trkpt lat="38.04731" lon="12.6870433"><ele>103.0</ele><time>2026-03-25T08:55:40.524Z</time></trkpt><trkpt lat="38.0475283" lon="12.687075"><ele>103.0</ele><time>2026-03-25T08:55:41.52Z</time></trkpt><trkpt lat="38.0477467" lon="12.6871067"><ele>104.0</ele><time>2026-03-25T08:55:42.521Z</time></trkpt><trkpt lat="38.0479633" lon="12.6871383"><ele>105.0</ele><time>2026-03-25T08:55:43.52Z</time></trkpt><trkpt lat="38.04818" lon="12.68717"><ele>106.0</ele><time>2026-03-25T08:55:44.524Z</time></trkpt><trkpt lat="38.0483983" lon="12.6872017"><ele>106.0</ele><time>2026-03-25T08:55:45.52Z</time></trkpt><trkpt lat="38.04862" lon="12.6872317"><ele>106.0</ele><time>2026-03-25T08:55:46.521Z</time></trkpt><trkpt lat="38.0488467" lon="12.6872633"><ele>106.0</ele><time>2026-03-25T08:55:47.521Z</time></trkpt><trkpt lat="38.0490817" lon="12.687295"><ele>106.0</ele><time>2026-03-25T08:55:48.525Z</time></trkpt><trkpt lat="38.0493183" lon="12.6873267"><ele>105.5</ele><time>2026-03-25T08:55:49.521Z</time></trkpt><trkpt lat="38.04956" lon="12.68736"><ele>105.0</ele><time>2026-03-25T08:55:50.524Z</time></trkpt><trkpt lat="38.0498033" lon="12.6873933"><ele>106.0</ele><time>2026-03-25T08:55:51.524Z</time></trkpt><trkpt lat="38.0500433" lon="12.687425"><ele>107.0</ele><time>2026-03-25T08:55:52.525Z</time></trkpt><trkpt lat="38.0502817" lon="12.68746"><ele>107.0</ele><time>2026-03-25T08:55:53.524Z</time></trkpt><trkpt lat="38.0505183" lon="12.6874967"><ele>107.0</ele><time>2026-03-25T08:55:54.525Z</time></trkpt><trkpt lat="38.0507517" lon="12.68753"><ele>106.5</ele><time>2026-03-25T08:55:55.521Z</time></trkpt><trkpt lat="38.0509867" lon="12.6875667"><ele>106.0</ele><time>2026-03-25T08:55:56.521Z</time></trkpt><trkpt lat="38.0512217" lon="12.6876"><ele>106.0</ele><time>2026-03-25T08:55:57.525Z</time></trkpt><trkpt lat="38.0514583" lon="12.6876317"><ele>106.0</ele><time>2026-03-25T08:55:58.524Z</time></trkpt><trkpt lat="38.051695" lon="12.6876683"><ele>106.0</ele><time>2026-03-25T08:55:59.523Z</time></trkpt><trkpt lat="38.0519317" lon="12.6877"><ele>106.0</ele><time>2026-03-25T08:56:00.525Z</time></trkpt><trkpt lat="38.0521667" lon="12.6877283"><ele>106.0</ele><time>2026-03-25T08:56:01.521Z</time></trkpt><trkpt lat="38.0524017" lon="12.68776"><ele>106.0</ele><time>2026-03-25T08:56:02.521Z</time></trkpt><trkpt lat="38.0526367" lon="12.6877933"><ele>108.0</ele><time>2026-03-25T08:56:03.52Z</time></trkpt><trkpt lat="38.0528683" lon="12.6878283"><ele>110.0</ele><time>2026-03-25T08:56:04.526Z</time></trkpt><trkpt lat="38.0531" lon="12.6878633"><ele>111.0</ele><time>2026-03-25T08:56:05.524Z</time></trkpt><trkpt lat="38.05333" lon="12.6878967"><ele>112.0</ele><time>2026-03-25T08:56:06.523Z</time></trkpt><trkpt lat="38.0535567" lon="12.68793"><ele>112.0</ele><time>2026-03-25T08:56:07.522Z</time></trkpt><trkpt lat="38.0537833" lon="12.6879617"><ele>112.0</ele><time>2026-03-25T08:56:08.521Z</time></trkpt><trkpt lat="38.05401" lon="12.6879967"><ele>114.0</ele><time>2026-03-25T08:56:09.522Z</time></trkpt><trkpt lat="38.054235" lon="12.68803"><ele>116.0</ele><time>2026-03-25T08:56:10.522Z</time></trkpt><trkpt lat="38.05446" lon="12.688065"><ele>116.0</ele><time>2026-03-25T08:56:11.521Z</time></trkpt><trkpt lat="38.054685" lon="12.6880967"><ele>116.0</ele><time>2026-03-25T08:56:12.524Z</time></trkpt><trkpt lat="38.0549083" lon="12.6881267"><ele>117.33333333333333</ele><time>2026-03-25T08:56:13.521Z</time></trkpt><trkpt lat="38.0551317" lon="12.6881567"><ele>118.66666666666666</ele><time>2026-03-25T08:56:14.522Z</time></trkpt><trkpt lat="38.0553517" lon="12.68819"><ele>120.0</ele><time>2026-03-25T08:56:15.524Z</time></trkpt><trkpt lat="38.05557" lon="12.6882267"><ele>121.33333333333334</ele><time>2026-03-25T08:56:16.52Z</time></trkpt><trkpt lat="38.0557883" lon="12.6882633"><ele>122.66666666666667</ele><time>2026-03-25T08:56:17.522Z</time></trkpt><trkpt lat="38.0560067" lon="12.688295"><ele>124.0</ele><time>2026-03-25T08:56:18.522Z</time></trkpt><trkpt lat="38.056225" lon="12.6883267"><ele>124.0</ele><time>2026-03-25T08:56:19.524Z</time></trkpt><trkpt lat="38.056445" lon="12.6883583"><ele>124.0</ele><time>2026-03-25T08:56:20.517Z</time></trkpt><trkpt lat="38.056665" lon="12.6883883"><ele>124.0</ele><time>2026-03-25T08:56:21.522Z</time></trkpt><trkpt lat="38.0568783" lon="12.68842"><ele>126.0</ele><time>2026-03-25T08:56:22.523Z</time></trkpt><trkpt lat="38.0570883" lon="12.68844"><ele>128.0</ele><time>2026-03-25T08:56:23.523Z</time></trkpt><trkpt lat="38.0572967" lon="12.68845"><ele>130.0</ele><time>2026-03-25T08:56:24.521Z</time></trkpt><trkpt lat="38.0574983" lon="12.68844"><ele>132.0</ele><time>2026-03-25T08:56:25.522Z</time></trkpt><trkpt lat="38.0576967" lon="12.6884117"><ele>134.0</ele><time>2026-03-25T08:56:26.521Z</time></trkpt><trkpt lat="38.05789" lon="12.68836"><ele>136.0</ele><time>2026-03-25T08:56:27.517Z</time></trkpt><trkpt lat="38.0580783" lon="12.6882917"><ele>136.0</ele><time>2026-03-25T08:56:28.524Z</time></trkpt><trkpt lat="38.0582617" lon="12.6882017"><ele>136.0</ele><time>2026-03-25T08:56:29.52Z</time></trkpt><trkpt lat="38.0584367" lon="12.68809"><ele>136.0</ele><time>2026-03-25T08:56:30.525Z</time></trkpt><trkpt lat="38.0586017" lon="12.6879633"><ele>137.66666666666669</ele><time>2026-03-25T08:56:31.524Z</time></trkpt><trkpt lat="38.0587617" lon="12.6878167"><ele>139.33333333333334</ele><time>2026-03-25T08:56:32.524Z</time></trkpt><trkpt lat="38.05892" lon="12.6876483"><ele>141.0</ele><time>2026-03-25T08:56:33.521Z</time></trkpt><trkpt lat="38.0590783" lon="12.6874533"><ele>146.0</ele><time>2026-03-25T08:56:34.52Z</time></trkpt><trkpt lat="38.0592367" lon="12.687245"><ele>151.0</ele><time>2026-03-25T08:56:35.523Z</time></trkpt><trkpt lat="38.0594033" lon="12.68703"><ele>148.0</ele><time>2026-03-25T08:56:36.524Z</time></trkpt><trkpt lat="38.0595717" lon="12.6868067"><ele>145.0</ele><time>2026-03-25T08:56:37.523Z</time></trkpt><trkpt lat="38.05974" lon="12.6865817"><ele>145.0</ele><time>2026-03-25T08:56:38.526Z</time></trkpt><trkpt lat="38.059905" lon="12.6863567"><ele>145.0</ele><time>2026-03-25T08:56:39.523Z</time></trkpt><trkpt lat="38.0600617" lon="12.686135"><ele>149.0</ele><time>2026-03-25T08:56:40.524Z</time></trkpt><trkpt lat="38.0602117" lon="12.6859133"><ele>153.0</ele><time>2026-03-25T08:56:41.523Z</time></trkpt><trkpt lat="38.06035" lon="12.6856833"><ele>153.0</ele><time>2026-03-25T08:56:42.526Z</time></trkpt><trkpt lat="38.060475" lon="12.68544"><ele>153.0</ele><time>2026-03-25T08:56:43.521Z</time></trkpt><trkpt lat="38.0605917" lon="12.68519"><ele>155.0</ele><time>2026-03-25T08:56:44.521Z</time></trkpt><trkpt lat="38.0607" lon="12.6849333"><ele>157.0</ele><time>2026-03-25T08:56:45.521Z</time></trkpt><trkpt lat="38.060805" lon="12.6846733"><ele>152.0</ele><time>2026-03-25T08:56:46.521Z</time></trkpt><trkpt lat="38.0609067" lon="12.6844117"><ele>147.0</ele><time>2026-03-25T08:56:47.521Z</time></trkpt><trkpt lat="38.06101" lon="12.6841583"><ele>147.0</ele><time>2026-03-25T08:56:48.525Z</time></trkpt><trkpt lat="38.0611083" lon="12.6839233"><ele>147.0</ele><time>2026-03-25T08:56:49.522Z</time></trkpt><trkpt lat="38.061205" lon="12.6837083"><ele>147.0</ele><time>2026-03-25T08:56:50.522Z</time></trkpt><trkpt lat="38.0612967" lon="12.683525"><ele>147.0</ele><time>2026-03-25T08:56:51.52Z</time></trkpt><trkpt lat="38.0613817" lon="12.6833733"><ele>147.0</ele><time>2026-03-25T08:56:52.521Z</time></trkpt><trkpt lat="38.061465" lon="12.6832467"><ele>147.0</ele><time>2026-03-25T08:56:53.521Z</time></trkpt><trkpt lat="38.0615517" lon="12.6831417"><ele>147.0</ele><time>2026-03-25T08:56:54.521Z</time></trkpt><trkpt lat="38.06164" lon="12.683075"><ele>151.0</ele><time>2026-03-25T08:56:55.522Z</time></trkpt><trkpt lat="38.061735" lon="12.6830083"><ele>155.0</ele><time>2026-03-25T08:56:56.521Z</time></trkpt><trkpt lat="38.0618183" lon="12.6829217"><ele>159.0</ele><time>2026-03-25T08:56:57.52Z</time></trkpt><trkpt lat="38.0618983" lon="12.6828033"><ele>163.0</ele><time>2026-03-25T08:56:58.523Z</time></trkpt><trkpt lat="38.0619983" lon="12.6826783"><ele>164.33333333333334</ele><time>2026-03-25T08:56:59.522Z</time></trkpt><trkpt lat="38.0621333" lon="12.682565"><ele>165.66666666666666</ele><time>2026-03-25T08:57:00.523Z</time></trkpt><trkpt lat="38.0622917" lon="12.68247"><ele>167.0</ele><time>2026-03-25T08:57:01.523Z</time></trkpt><trkpt lat="38.0624567" lon="12.6823967"><ele>168.0</ele><time>2026-03-25T08:57:02.526Z</time></trkpt><trkpt lat="38.0626267" lon="12.6823433"><ele>169.0</ele><time>2026-03-25T08:57:03.52Z</time></trkpt><trkpt lat="38.0628" lon="12.6823067"><ele>170.0</ele><time>2026-03-25T08:57:04.523Z</time></trkpt><trkpt lat="38.0629667" lon="12.6822883"><ele>170.0</ele><time>2026-03-25T08:57:05.518Z</time></trkpt><trkpt lat="38.06313" lon="12.6822817"><ele>170.0</ele><time>2026-03-25T08:57:06.524Z</time></trkpt><trkpt lat="38.0632983" lon="12.68229"><ele>170.0</ele><time>2026-03-25T08:57:07.523Z</time></trkpt><trkpt lat="38.0634667" lon="12.6823133"><ele>171.33333333333331</ele><time>2026-03-25T08:57:08.526Z</time></trkpt><trkpt lat="38.063635" lon="12.6823533"><ele>172.66666666666666</ele><time>2026-03-25T08:57:09.523Z</time></trkpt><trkpt lat="38.0638017" lon="12.68241"><ele>174.0</ele><time>2026-03-25T08:57:10.523Z</time></trkpt><trkpt lat="38.06397" lon="12.682485"><ele>175.33333333333334</ele><time>2026-03-25T08:57:11.521Z</time></trkpt><trkpt lat="38.0641367" lon="12.68258"><ele>176.66666666666669</ele><time>2026-03-25T08:57:12.523Z</time></trkpt><trkpt lat="38.0643017" lon="12.6826933"><ele>178.0</ele><time>2026-03-25T08:57:13.52Z</time></trkpt><trkpt lat="38.064465" lon="12.68283"><ele>178.0</ele><time>2026-03-25T08:57:14.525Z</time></trkpt><trkpt lat="38.0646233" lon="12.6829867"><ele>178.0</ele><time>2026-03-25T08:57:15.52Z</time></trkpt><trkpt lat="38.06478" lon="12.6831517"><ele>178.0</ele><time>2026-03-25T08:57:16.522Z</time></trkpt><trkpt lat="38.064935" lon="12.6833183"><ele>178.33333333333334</ele><time>2026-03-25T08:57:17.523Z</time></trkpt><trkpt lat="38.0650867" lon="12.6834867"><ele>178.66666666666666</ele><time>2026-03-25T08:57:18.523Z</time></trkpt><trkpt lat="38.065235" lon="12.6836533"><ele>179.0</ele><time>2026-03-25T08:57:19.52Z</time></trkpt><trkpt lat="38.065385" lon="12.6838217"><ele>179.0</ele><time>2026-03-25T08:57:20.527Z</time></trkpt><trkpt lat="38.0655367" lon="12.6839883"><ele>179.0</ele><time>2026-03-25T08:57:21.521Z</time></trkpt><trkpt lat="38.06569" lon="12.6841567"><ele>179.0</ele><time>2026-03-25T08:57:22.521Z</time></trkpt><trkpt lat="38.0658467" lon="12.6843233"><ele>182.0</ele><time>2026-03-25T08:57:23.524Z</time></trkpt><trkpt lat="38.0660017" lon="12.6844883"><ele>185.0</ele><time>2026-03-25T08:57:24.524Z</time></trkpt><trkpt lat="38.0661567" lon="12.68464"><ele>188.0</ele><time>2026-03-25T08:57:25.525Z</time></trkpt><trkpt lat="38.06632" lon="12.684775"><ele>188.0</ele><time>2026-03-25T08:57:26.525Z</time></trkpt><trkpt lat="38.0664967" lon="12.6848883"><ele>188.0</ele><time>2026-03-25T08:57:27.525Z</time></trkpt><trkpt lat="38.0666817" lon="12.6849767"><ele>188.0</ele><time>2026-03-25T08:57:28.524Z</time></trkpt><trkpt lat="38.0668733" lon="12.6850417"><ele>190.66666666666666</ele><time>2026-03-25T08:57:29.52Z</time></trkpt><trkpt lat="38.0670683" lon="12.685085"><ele>193.33333333333331</ele><time>2026-03-25T08:57:30.523Z</time></trkpt><trkpt lat="38.06727" lon="12.6851067"><ele>196.0</ele><time>2026-03-25T08:57:31.521Z</time></trkpt><trkpt lat="38.0674783" lon="12.6851067"><ele>198.0</ele><time>2026-03-25T08:57:32.524Z</time></trkpt><trkpt lat="38.0676917" lon="12.6850917"><ele>200.0</ele><time>2026-03-25T08:57:33.524Z</time></trkpt><trkpt lat="38.0679" lon="12.68507"><ele>202.0</ele><time>2026-03-25T08:57:34.522Z</time></trkpt><trkpt lat="38.0681033" lon="12.685045"><ele>203.66666666666666</ele><time>2026-03-25T08:57:35.526Z</time></trkpt><trkpt lat="38.0683033" lon="12.6850233"><ele>205.33333333333331</ele><time>2026-03-25T08:57:36.52Z</time></trkpt><trkpt lat="38.0685033" lon="12.6850083"><ele>207.0</ele><time>2026-03-25T08:57:37.523Z</time></trkpt><trkpt lat="38.0687017" lon="12.6849933"><ele>207.0</ele><time>2026-03-25T08:57:38.524Z</time></trkpt><trkpt lat="38.0689017" lon="12.68499"><ele>207.0</ele><time>2026-03-25T08:57:39.521Z</time></trkpt><trkpt lat="38.069105" lon="12.6850017"><ele>207.0</ele><time>2026-03-25T08:57:40.522Z</time></trkpt><trkpt lat="38.0693117" lon="12.6850267"><ele>208.33333333333331</ele><time>2026-03-25T08:57:41.519Z</time></trkpt><trkpt lat="38.0695183" lon="12.6850567"><ele>209.66666666666666</ele><time>2026-03-25T08:57:42.52Z</time></trkpt><trkpt lat="38.06972" lon="12.6850867"><ele>211.0</ele><time>2026-03-25T08:57:43.521Z</time></trkpt><trkpt lat="38.06991" lon="12.6851117"><ele>211.33333333333331</ele><time>2026-03-25T08:57:44.522Z</time></trkpt><trkpt lat="38.0700967" lon="12.6851417"><ele>211.66666666666669</ele><time>2026-03-25T08:57:45.522Z</time></trkpt><trkpt lat="38.07028" lon="12.6851683"><ele>212.0</ele><time>2026-03-25T08:57:46.523Z</time></trkpt><trkpt lat="38.0704583" lon="12.6851933"><ele>212.0</ele><time>2026-03-25T08:57:47.52Z</time></trkpt><trkpt lat="38.0706283" lon="12.6852133"><ele>212.0</ele><time>2026-03-25T08:57:48.526Z</time></trkpt><trkpt lat="38.0708" lon="12.685235"><ele>212.0</ele><time>2026-03-25T08:57:49.52Z</time></trkpt><trkpt lat="38.0709667" lon="12.68526"><ele>211.0</ele><time>2026-03-25T08:57:50.525Z</time></trkpt><trkpt lat="38.071125" lon="12.685295"><ele>210.0</ele><time>2026-03-25T08:57:51.525Z</time></trkpt><trkpt lat="38.07127" lon="12.6853383"><ele>209.0</ele><time>2026-03-25T08:57:52.525Z</time></trkpt><trkpt lat="38.0714033" lon="12.6853933"><ele>209.0</ele><time>2026-03-25T08:57:53.526Z</time></trkpt><trkpt lat="38.0715233" lon="12.68546"><ele>209.0</ele><time>2026-03-25T08:57:54.523Z</time></trkpt><trkpt lat="38.07163" lon="12.6855467"><ele>209.0</ele><time>2026-03-25T08:57:55.523Z</time></trkpt><trkpt lat="38.07173" lon="12.6856633"><ele>209.0</ele><time>2026-03-25T08:57:56.526Z</time></trkpt><trkpt lat="38.0718233" lon="12.685805"><ele>209.0</ele><time>2026-03-25T08:57:57.523Z</time></trkpt><trkpt lat="38.071905" lon="12.6859583"><ele>209.0</ele><time>2026-03-25T08:57:58.524Z</time></trkpt><trkpt lat="38.07198" lon="12.6861183"><ele>209.0</ele><time>2026-03-25T08:57:59.522Z</time></trkpt><trkpt lat="38.0720467" lon="12.68628"><ele>209.0</ele><time>2026-03-25T08:58:00.522Z</time></trkpt><trkpt lat="38.072115" lon="12.686445"><ele>208.75</ele><time>2026-03-25T08:58:01.522Z</time></trkpt><trkpt lat="38.072175" lon="12.6866017"><ele>208.5</ele><time>2026-03-25T08:58:02.521Z</time></trkpt><trkpt lat="38.0722333" lon="12.6867467"><ele>208.25</ele><time>2026-03-25T08:58:03.521Z</time></trkpt><trkpt lat="38.072285" lon="12.6868817"><ele>208.0</ele><time>2026-03-25T08:58:04.525Z</time></trkpt><trkpt lat="38.0723367" lon="12.6870117"><ele>207.75</ele><time>2026-03-25T08:58:05.523Z</time></trkpt><trkpt lat="38.07239" lon="12.6871417"><ele>207.5</ele><time>2026-03-25T08:58:06.521Z</time></trkpt><trkpt lat="38.0724467" lon="12.6872833"><ele>207.25</ele><time>2026-03-25T08:58:07.525Z</time></trkpt><trkpt lat="38.07251" lon="12.687435"><ele>207.0</ele><time>2026-03-25T08:58:08.528Z</time></trkpt><trkpt lat="38.0725733" lon="12.687585"><ele>207.0</ele><time>2026-03-25T08:58:09.524Z</time></trkpt><trkpt lat="38.0726367" lon="12.687725"><ele>207.0</ele><time>2026-03-25T08:58:10.521Z</time></trkpt><trkpt lat="38.0727033" lon="12.68786"><ele>207.0</ele><time>2026-03-25T08:58:11.522Z</time></trkpt><trkpt lat="38.0727783" lon="12.687995"><ele>207.0</ele><time>2026-03-25T08:58:12.524Z</time></trkpt><trkpt lat="38.0728567" lon="12.688135"><ele>209.25</ele><time>2026-03-25T08:58:13.522Z</time></trkpt><trkpt lat="38.0729367" lon="12.6882667"><ele>211.5</ele><time>2026-03-25T08:58:14.523Z</time></trkpt><trkpt lat="38.073015" lon="12.688385"><ele>213.75</ele><time>2026-03-25T08:58:15.521Z</time></trkpt><trkpt lat="38.0730967" lon="12.6884983"><ele>216.0</ele><time>2026-03-25T08:58:16.521Z</time></trkpt><trkpt lat="38.0731833" lon="12.6886067"><ele>217.75</ele><time>2026-03-25T08:58:17.522Z</time></trkpt><trkpt lat="38.07327" lon="12.6887117"><ele>219.5</ele><time>2026-03-25T08:58:18.523Z</time></trkpt><trkpt lat="38.0733533" lon="12.688815"><ele>221.25</ele><time>2026-03-25T08:58:19.525Z</time></trkpt><trkpt lat="38.073435" lon="12.68892"><ele>223.0</ele><time>2026-03-25T08:58:20.522Z</time></trkpt><trkpt lat="38.0735117" lon="12.68903"><ele>223.0</ele><time>2026-03-25T08:58:21.522Z</time></trkpt><trkpt lat="38.0735833" lon="12.6891333"><ele>223.0</ele><time>2026-03-25T08:58:22.522Z</time></trkpt><trkpt lat="38.0736517" lon="12.689235"><ele>223.0</ele><time>2026-03-25T08:58:23.523Z</time></trkpt><trkpt lat="38.0737167" lon="12.6893383"><ele>223.0</ele><time>2026-03-25T08:58:24.525Z</time></trkpt><trkpt lat="38.073775" lon="12.6894233"><ele>223.0</ele><time>2026-03-25T08:58:25.525Z</time></trkpt><trkpt lat="38.0738233" lon="12.6894983"><ele>222.75</ele><time>2026-03-25T08:58:26.522Z</time></trkpt><trkpt lat="38.073875" lon="12.68958"><ele>222.5</ele><time>2026-03-25T08:58:27.52Z</time></trkpt><trkpt lat="38.07394" lon="12.6896817"><ele>222.25</ele><time>2026-03-25T08:58:28.523Z</time></trkpt><trkpt lat="38.07403" lon="12.6898067"><ele>222.0</ele><time>2026-03-25T08:58:29.521Z</time></trkpt><trkpt lat="38.0741467" lon="12.6899617"><ele>222.0</ele><time>2026-03-25T08:58:30.521Z</time></trkpt><trkpt lat="38.0742817" lon="12.690155"><ele>222.0</ele><time>2026-03-25T08:58:31.521Z</time></trkpt><trkpt lat="38.0744183" lon="12.690375"><ele>222.0</ele><time>2026-03-25T08:58:32.524Z</time></trkpt><trkpt lat="38.0745583" lon="12.69061"><ele>224.5</ele><time>2026-03-25T08:58:33.525Z</time></trkpt><trkpt lat="38.0747083" lon="12.6908567"><ele>227.0</ele><time>2026-03-25T08:58:34.524Z</time></trkpt><trkpt lat="38.0748683" lon="12.691105"><ele>230.5</ele><time>2026-03-25T08:58:35.524Z</time></trkpt><trkpt lat="38.0750417" lon="12.6913383"><ele>234.0</ele><time>2026-03-25T08:58:36.523Z</time></trkpt><trkpt lat="38.0752183" lon="12.6915467"><ele>234.0</ele><time>2026-03-25T08:58:37.521Z</time></trkpt><trkpt lat="38.0753883" lon="12.6917283"><ele>234.0</ele><time>2026-03-25T08:58:38.527Z</time></trkpt><trkpt lat="38.0755467" lon="12.6918917"><ele>234.0</ele><time>2026-03-25T08:58:39.521Z</time></trkpt><trkpt lat="38.0756867" lon="12.6920433"><ele>236.0</ele><time>2026-03-25T08:58:40.524Z</time></trkpt><trkpt lat="38.0758117" lon="12.6921867"><ele>238.0</ele><time>2026-03-25T08:58:41.524Z</time></trkpt><trkpt lat="38.0759217" lon="12.6923233"><ele>240.0</ele><time>2026-03-25T08:58:42.521Z</time></trkpt><trkpt lat="38.0760233" lon="12.69245"><ele>240.0</ele><time>2026-03-25T08:58:43.521Z</time></trkpt><trkpt lat="38.07612" lon="12.6925583"><ele>240.0</ele><time>2026-03-25T08:58:44.517Z</time></trkpt><trkpt lat="38.0762017" lon="12.6926533"><ele>240.0</ele><time>2026-03-25T08:58:45.523Z</time></trkpt><trkpt lat="38.0762633" lon="12.6927417"><ele>240.0</ele><time>2026-03-25T08:58:46.522Z</time></trkpt><trkpt lat="38.0763033" lon="12.6928417"><ele>240.0</ele><time>2026-03-25T08:58:47.522Z</time></trkpt><trkpt lat="38.0763267" lon="12.6929817"><ele>240.8</ele><time>2026-03-25T08:58:48.527Z</time></trkpt><trkpt lat="38.0763417" lon="12.69314"><ele>241.6</ele><time>2026-03-25T08:58:49.525Z</time></trkpt><trkpt lat="38.0763517" lon="12.69328"><ele>242.39999999999998</ele><time>2026-03-25T08:58:50.523Z</time></trkpt><trkpt lat="38.07636" lon="12.6933983"><ele>243.2</ele><time>2026-03-25T08:58:51.527Z</time></trkpt><trkpt lat="38.0763667" lon="12.6935"><ele>244.0</ele><time>2026-03-25T08:58:52.527Z</time></trkpt><trkpt lat="38.076375" lon="12.693585"><ele>245.2</ele><time>2026-03-25T08:58:53.528Z</time></trkpt><trkpt lat="38.0763867" lon="12.69373"><ele>246.39999999999998</ele><time>2026-03-25T08:58:55.526Z</time></trkpt><trkpt lat="38.0764083" lon="12.6938917"><ele>247.6</ele><time>2026-03-25T08:58:57.52Z</time></trkpt><trkpt lat="38.076415" lon="12.6940067"><ele>248.8</ele><time>2026-03-25T08:58:58.524Z</time></trkpt><trkpt lat="38.0764233" lon="12.6941517"><ele>250.0</ele><time>2026-03-25T08:58:59.527Z</time></trkpt><trkpt lat="38.07644" lon="12.6943167"><ele>252.33333333333331</ele><time>2026-03-25T08:59:00.527Z</time></trkpt><trkpt lat="38.07646" lon="12.6945"><ele>254.66666666666669</ele><time>2026-03-25T08:59:01.516Z</time></trkpt><trkpt lat="38.0764833" lon="12.69469"><ele>257.0</ele><time>2026-03-25T08:59:02.521Z</time></trkpt><trkpt lat="38.0765083" lon="12.6948883"><ele>257.0</ele><time>2026-03-25T08:59:03.523Z</time></trkpt><trkpt lat="38.0765383" lon="12.6950983"><ele>257.0</ele><time>2026-03-25T08:59:04.526Z</time></trkpt><trkpt lat="38.0765683" lon="12.695315"><ele>257.0</ele><time>2026-03-25T08:59:05.524Z</time></trkpt><trkpt lat="38.0765983" lon="12.6955217"><ele>257.5</ele><time>2026-03-25T08:59:06.524Z</time></trkpt><trkpt lat="38.0766233" lon="12.6957067"><ele>258.0</ele><time>2026-03-25T08:59:07.526Z</time></trkpt><trkpt lat="38.0766483" lon="12.6958767"><ele>258.5</ele><time>2026-03-25T08:59:08.528Z</time></trkpt><trkpt lat="38.0766733" lon="12.6960383"><ele>259.0</ele><time>2026-03-25T08:59:09.524Z</time></trkpt><trkpt lat="38.0766983" lon="12.6961917"><ele>259.4</ele><time>2026-03-25T08:59:10.521Z</time></trkpt><trkpt lat="38.07672" lon="12.6963417"><ele>259.79999999999995</ele><time>2026-03-25T08:59:11.524Z</time></trkpt><trkpt lat="38.0767383" lon="12.696485"><ele>260.20000000000005</ele><time>2026-03-25T08:59:12.525Z</time></trkpt><trkpt lat="38.0767567" lon="12.696615"><ele>260.6</ele><time>2026-03-25T08:59:13.523Z</time></trkpt><trkpt lat="38.0767767" lon="12.696735"><ele>261.0</ele><time>2026-03-25T08:59:14.526Z</time></trkpt><trkpt lat="38.0767933" lon="12.6968467"><ele>261.8333333333333</ele><time>2026-03-25T08:59:15.521Z</time></trkpt><trkpt lat="38.0768117" lon="12.6969533"><ele>262.6666666666667</ele><time>2026-03-25T08:59:16.524Z</time></trkpt><trkpt lat="38.0768383" lon="12.69706"><ele>263.5</ele><time>2026-03-25T08:59:17.522Z</time></trkpt><trkpt lat="38.07687" lon="12.6971667"><ele>264.33333333333337</ele><time>2026-03-25T08:59:18.526Z</time></trkpt><trkpt lat="38.076905" lon="12.6972733"><ele>265.1666666666667</ele><time>2026-03-25T08:59:19.525Z</time></trkpt><trkpt lat="38.0769467" lon="12.69738"><ele>266.0</ele><time>2026-03-25T08:59:20.526Z</time></trkpt><trkpt lat="38.0769967" lon="12.6974883"><ele>266.0</ele><time>2026-03-25T08:59:21.528Z</time></trkpt><trkpt lat="38.077065" lon="12.6976033"><ele>266.0</ele><time>2026-03-25T08:59:22.524Z</time></trkpt><trkpt lat="38.0771517" lon="12.697735"><ele>266.0</ele><time>2026-03-25T08:59:23.524Z</time></trkpt><trkpt lat="38.077255" lon="12.69789"><ele>266.0</ele><time>2026-03-25T08:59:24.526Z</time></trkpt><trkpt lat="38.077375" lon="12.698055"><ele>265.6666666666667</ele><time>2026-03-25T08:59:25.523Z</time></trkpt><trkpt lat="38.0775117" lon="12.698235"><ele>265.3333333333333</ele><time>2026-03-25T08:59:26.523Z</time></trkpt><trkpt lat="38.07766" lon="12.6984317"><ele>265.0</ele><time>2026-03-25T08:59:27.521Z</time></trkpt><trkpt lat="38.0778167" lon="12.698635"><ele>265.66666666666663</ele><time>2026-03-25T08:59:28.522Z</time></trkpt><trkpt lat="38.0779817" lon="12.6988383"><ele>266.3333333333333</ele><time>2026-03-25T08:59:29.522Z</time></trkpt><trkpt lat="38.0781367" lon="12.69903"><ele>267.0</ele><time>2026-03-25T08:59:30.525Z</time></trkpt><trkpt lat="38.0782767" lon="12.69921"><ele>267.0</ele><time>2026-03-25T08:59:31.522Z</time></trkpt><trkpt lat="38.0784" lon="12.6993967"><ele>267.0</ele><time>2026-03-25T08:59:32.525Z</time></trkpt><trkpt lat="38.0785067" lon="12.6996033"><ele>267.0</ele><time>2026-03-25T08:59:33.524Z</time></trkpt><trkpt lat="38.0786" lon="12.6998317"><ele>267.0</ele><time>2026-03-25T08:59:34.522Z</time></trkpt><trkpt lat="38.078685" lon="12.7000833"><ele>267.0</ele><time>2026-03-25T08:59:35.524Z</time></trkpt><trkpt lat="38.0787633" lon="12.700355"><ele>267.0</ele><time>2026-03-25T08:59:36.522Z</time></trkpt><trkpt lat="38.0788417" lon="12.7006283"><ele>267.0</ele><time>2026-03-25T08:59:37.522Z</time></trkpt><trkpt lat="38.0789217" lon="12.7009083"><ele>267.0</ele><time>2026-03-25T08:59:38.525Z</time></trkpt><trkpt lat="38.0790017" lon="12.7011917"><ele>267.0</ele><time>2026-03-25T08:59:39.521Z</time></trkpt><trkpt lat="38.0790783" lon="12.70147"><ele>267.0</ele><time>2026-03-25T08:59:40.524Z</time></trkpt><trkpt lat="38.0791483" lon="12.70173"><ele>267.0</ele><time>2026-03-25T08:59:41.527Z</time></trkpt><trkpt lat="38.0792133" lon="12.7019733"><ele>266.6666666666667</ele><time>2026-03-25T08:59:42.523Z</time></trkpt><trkpt lat="38.0792783" lon="12.7022133"><ele>266.33333333333337</ele><time>2026-03-25T08:59:43.524Z</time></trkpt><trkpt lat="38.0793417" lon="12.70246"><ele>266.0</ele><time>2026-03-25T08:59:44.523Z</time></trkpt><trkpt lat="38.079405" lon="12.70271"><ele>267.0</ele><time>2026-03-25T08:59:45.523Z</time></trkpt><trkpt lat="38.0794683" lon="12.702965"><ele>268.0</ele><time>2026-03-25T08:59:46.525Z</time></trkpt><trkpt lat="38.079525" lon="12.7032267"><ele>269.0</ele><time>2026-03-25T08:59:47.521Z</time></trkpt><trkpt lat="38.0795783" lon="12.7034917"><ele>269.0</ele><time>2026-03-25T08:59:48.524Z</time></trkpt><trkpt lat="38.0796283" lon="12.7037617"><ele>269.0</ele><time>2026-03-25T08:59:49.523Z</time></trkpt><trkpt lat="38.0796783" lon="12.7040383"><ele>269.0</ele><time>2026-03-25T08:59:50.524Z</time></trkpt><trkpt lat="38.0797283" lon="12.7043283"><ele>270.0</ele><time>2026-03-25T08:59:51.524Z</time></trkpt><trkpt lat="38.0797683" lon="12.7046267"><ele>271.0</ele><time>2026-03-25T08:59:52.524Z</time></trkpt><trkpt lat="38.0798067" lon="12.7049333"><ele>271.0</ele><time>2026-03-25T08:59:53.521Z</time></trkpt><trkpt lat="38.0798467" lon="12.70524"><ele>271.0</ele><time>2026-03-25T08:59:54.526Z</time></trkpt><trkpt lat="38.0798917" lon="12.7055333"><ele>270.0</ele><time>2026-03-25T08:59:55.523Z</time></trkpt><trkpt lat="38.079935" lon="12.705805"><ele>269.0</ele><time>2026-03-25T08:59:56.525Z</time></trkpt><trkpt lat="38.0799733" lon="12.7060583"><ele>268.0</ele><time>2026-03-25T08:59:57.523Z</time></trkpt><trkpt lat="38.0800117" lon="12.7062983"><ele>268.0</ele><time>2026-03-25T08:59:58.521Z</time></trkpt><trkpt lat="38.0800483" lon="12.706525"><ele>268.0</ele><time>2026-03-25T08:59:59.524Z</time></trkpt><trkpt lat="38.08008" lon="12.70674"><ele>268.0</ele><time>2026-03-25T09:00:00.522Z</time></trkpt><trkpt lat="38.0801017" lon="12.706945"><ele>268.3333333333333</ele><time>2026-03-25T09:00:01.523Z</time></trkpt><trkpt lat="38.08011" lon="12.7071533"><ele>268.6666666666667</ele><time>2026-03-25T09:00:02.524Z</time></trkpt><trkpt lat="38.0801" lon="12.7073767"><ele>269.0</ele><time>2026-03-25T09:00:03.523Z</time></trkpt><trkpt lat="38.08007" lon="12.7076117"><ele>268.33333333333337</ele><time>2026-03-25T09:00:04.523Z</time></trkpt><trkpt lat="38.0800267" lon="12.707855"><ele>267.6666666666667</ele><time>2026-03-25T09:00:05.524Z</time></trkpt><trkpt lat="38.0799767" lon="12.7081"><ele>267.0</ele><time>2026-03-25T09:00:06.525Z</time></trkpt><trkpt lat="38.079935" lon="12.7083417"><ele>267.0</ele><time>2026-03-25T09:00:07.521Z</time></trkpt><trkpt lat="38.0798983" lon="12.708595"><ele>267.0</ele><time>2026-03-25T09:00:08.526Z</time></trkpt><trkpt lat="38.079865" lon="12.7088533"><ele>267.0</ele><time>2026-03-25T09:00:09.526Z</time></trkpt><trkpt lat="38.0798417" lon="12.7091117"><ele>267.0</ele><time>2026-03-25T09:00:10.521Z</time></trkpt><trkpt lat="38.0798217" lon="12.7093617"><ele>267.0</ele><time>2026-03-25T09:00:11.522Z</time></trkpt><trkpt lat="38.0798083" lon="12.7095967"><ele>267.0</ele><time>2026-03-25T09:00:12.527Z</time></trkpt><trkpt lat="38.079795" lon="12.7098133"><ele>266.0</ele><time>2026-03-25T09:00:13.526Z</time></trkpt><trkpt lat="38.0797833" lon="12.7100183"><ele>265.0</ele><time>2026-03-25T09:00:14.524Z</time></trkpt><trkpt lat="38.0797683" lon="12.71021"><ele>264.0</ele><time>2026-03-25T09:00:15.525Z</time></trkpt><trkpt lat="38.079755" lon="12.71039"><ele>263.75</ele><time>2026-03-25T09:00:16.52Z</time></trkpt><trkpt lat="38.0797433" lon="12.7105633"><ele>263.5</ele><time>2026-03-25T09:00:17.521Z</time></trkpt><trkpt lat="38.0797317" lon="12.7107267"><ele>263.25</ele><time>2026-03-25T09:00:18.52Z</time></trkpt><trkpt lat="38.07972" lon="12.7108833"><ele>263.0</ele><time>2026-03-25T09:00:19.523Z</time></trkpt><trkpt lat="38.07971" lon="12.71103"><ele>263.4</ele><time>2026-03-25T09:00:20.523Z</time></trkpt><trkpt lat="38.0796983" lon="12.7111667"><ele>263.8</ele><time>2026-03-25T09:00:21.523Z</time></trkpt><trkpt lat="38.0796933" lon="12.7112983"><ele>264.2</ele><time>2026-03-25T09:00:22.521Z</time></trkpt><trkpt lat="38.0796917" lon="12.7114267"><ele>264.6</ele><time>2026-03-25T09:00:23.524Z</time></trkpt><trkpt lat="38.07969" lon="12.711555"><ele>265.0</ele><time>2026-03-25T09:00:24.523Z</time></trkpt><trkpt lat="38.0796967" lon="12.7116817"><ele>265.0</ele><time>2026-03-25T09:00:25.521Z</time></trkpt><trkpt lat="38.0797083" lon="12.7118117"><ele>265.0</ele><time>2026-03-25T09:00:26.529Z</time></trkpt><trkpt lat="38.0797267" lon="12.7119433"><ele>265.0</ele><time>2026-03-25T09:00:27.526Z</time></trkpt><trkpt lat="38.07975" lon="12.7120767"><ele>265.0</ele><time>2026-03-25T09:00:28.525Z</time></trkpt><trkpt lat="38.0797767" lon="12.7122117"><ele>265.0</ele><time>2026-03-25T09:00:29.524Z</time></trkpt><trkpt lat="38.0798083" lon="12.7123517"><ele>265.0</ele><time>2026-03-25T09:00:30.526Z</time></trkpt><trkpt lat="38.0798433" lon="12.7124933"><ele>265.0</ele><time>2026-03-25T09:00:31.522Z</time></trkpt><trkpt lat="38.0798817" lon="12.7126367"><ele>265.0</ele><time>2026-03-25T09:00:32.522Z</time></trkpt><trkpt lat="38.0799217" lon="12.7127833"><ele>265.0</ele><time>2026-03-25T09:00:33.522Z</time></trkpt><trkpt lat="38.0799617" lon="12.7129267"><ele>265.0</ele><time>2026-03-25T09:00:34.521Z</time></trkpt><trkpt lat="38.0799967" lon="12.71307"><ele>265.0</ele><time>2026-03-25T09:00:35.521Z</time></trkpt><trkpt lat="38.0800333" lon="12.71321"><ele>265.0</ele><time>2026-03-25T09:00:36.524Z</time></trkpt><trkpt lat="38.08007" lon="12.713345"><ele>265.0</ele><time>2026-03-25T09:00:37.523Z</time></trkpt><trkpt lat="38.0801067" lon="12.7134733"><ele>265.4</ele><time>2026-03-25T09:00:38.526Z</time></trkpt><trkpt lat="38.0801417" lon="12.7135917"><ele>265.8</ele><time>2026-03-25T09:00:39.522Z</time></trkpt><trkpt lat="38.080175" lon="12.7137067"><ele>266.2</ele><time>2026-03-25T09:00:40.521Z</time></trkpt><trkpt lat="38.080205" lon="12.713815"><ele>266.6</ele><time>2026-03-25T09:00:41.524Z</time></trkpt><trkpt lat="38.080235" lon="12.713925"><ele>267.0</ele><time>2026-03-25T09:00:42.523Z</time></trkpt><trkpt lat="38.0802667" lon="12.7140383"><ele>267.0</ele><time>2026-03-25T09:00:43.52Z</time></trkpt><trkpt lat="38.0803" lon="12.7141517"><ele>267.0</ele><time>2026-03-25T09:00:44.527Z</time></trkpt><trkpt lat="38.080335" lon="12.7142717"><ele>267.0</ele><time>2026-03-25T09:00:45.521Z</time></trkpt><trkpt lat="38.0803667" lon="12.7143983"><ele>267.0</ele><time>2026-03-25T09:00:46.518Z</time></trkpt><trkpt lat="38.0804033" lon="12.7145317"><ele>267.0</ele><time>2026-03-25T09:00:47.518Z</time></trkpt><trkpt lat="38.0804383" lon="12.7146583"><ele>267.4</ele><time>2026-03-25T09:00:48.522Z</time></trkpt><trkpt lat="38.0804733" lon="12.7147867"><ele>267.79999999999995</ele><time>2026-03-25T09:00:49.52Z</time></trkpt><trkpt lat="38.0805083" lon="12.7149167"><ele>268.2</ele><time>2026-03-25T09:00:50.524Z</time></trkpt><trkpt lat="38.080535" lon="12.7150517"><ele>268.59999999999997</ele><time>2026-03-25T09:00:51.522Z</time></trkpt><trkpt lat="38.0805517" lon="12.7151883"><ele>269.0</ele><time>2026-03-25T09:00:52.524Z</time></trkpt><trkpt lat="38.0805633" lon="12.7153267"><ele>269.5</ele><time>2026-03-25T09:00:53.524Z</time></trkpt><trkpt lat="38.0805633" lon="12.7154683"><ele>270.0</ele><time>2026-03-25T09:00:54.52Z</time></trkpt><trkpt lat="38.0805483" lon="12.715615"><ele>270.5</ele><time>2026-03-25T09:00:55.522Z</time></trkpt><trkpt lat="38.0805167" lon="12.715765"><ele>271.0</ele><time>2026-03-25T09:00:56.526Z</time></trkpt><trkpt lat="38.0804717" lon="12.71592"><ele>270.5</ele><time>2026-03-25T09:00:57.526Z</time></trkpt><trkpt lat="38.080415" lon="12.7160767"><ele>270.0</ele><time>2026-03-25T09:00:58.521Z</time></trkpt><trkpt lat="38.0803517" lon="12.7162317"><ele>269.5</ele><time>2026-03-25T09:00:59.52Z</time></trkpt><trkpt lat="38.080285" lon="12.7163833"><ele>269.0</ele><time>2026-03-25T09:01:00.521Z</time></trkpt><trkpt lat="38.0802183" lon="12.716525"><ele>269.0</ele><time>2026-03-25T09:01:01.522Z</time></trkpt><trkpt lat="38.0801517" lon="12.7166533"><ele>269.0</ele><time>2026-03-25T09:01:02.522Z</time></trkpt><trkpt lat="38.080085" lon="12.716775"><ele>269.0</ele><time>2026-03-25T09:01:03.523Z</time></trkpt><trkpt lat="38.08002" lon="12.7168883"><ele>269.0</ele><time>2026-03-25T09:01:04.527Z</time></trkpt><trkpt lat="38.0799583" lon="12.7170017"><ele>269.75</ele><time>2026-03-25T09:01:05.523Z</time></trkpt><trkpt lat="38.07989" lon="12.7171333"><ele>270.5</ele><time>2026-03-25T09:01:06.519Z</time></trkpt><trkpt lat="38.0798083" lon="12.7172767"><ele>271.25</ele><time>2026-03-25T09:01:07.524Z</time></trkpt><trkpt lat="38.079725" lon="12.7174383"><ele>272.0</ele><time>2026-03-25T09:01:08.522Z</time></trkpt><trkpt lat="38.0796433" lon="12.7176167"><ele>271.33333333333337</ele><time>2026-03-25T09:01:09.522Z</time></trkpt><trkpt lat="38.07957" lon="12.7178083"><ele>270.6666666666667</ele><time>2026-03-25T09:01:10.523Z</time></trkpt><trkpt lat="38.0795083" lon="12.71803"><ele>270.0</ele><time>2026-03-25T09:01:11.523Z</time></trkpt><trkpt lat="38.0794617" lon="12.7182817"><ele>270.0</ele><time>2026-03-25T09:01:12.527Z</time></trkpt><trkpt lat="38.0794267" lon="12.7185533"><ele>270.0</ele><time>2026-03-25T09:01:13.522Z</time></trkpt><trkpt lat="38.0793967" lon="12.7188067"><ele>270.0</ele><time>2026-03-25T09:01:14.523Z</time></trkpt><trkpt lat="38.0793683" lon="12.7190367"><ele>269.6666666666667</ele><time>2026-03-25T09:01:15.522Z</time></trkpt><trkpt lat="38.0793433" lon="12.7192433"><ele>269.33333333333337</ele><time>2026-03-25T09:01:16.523Z</time></trkpt><trkpt lat="38.0793167" lon="12.7194317"><ele>269.0</ele><time>2026-03-25T09:01:17.525Z</time></trkpt><trkpt lat="38.0792883" lon="12.7196"><ele>269.0</ele><time>2026-03-25T09:01:18.528Z</time></trkpt><trkpt lat="38.0792617" lon="12.719755"><ele>269.0</ele><time>2026-03-25T09:01:19.523Z</time></trkpt><trkpt lat="38.07923" lon="12.7198983"><ele>269.0</ele><time>2026-03-25T09:01:20.528Z</time></trkpt><trkpt lat="38.0791967" lon="12.7200333"><ele>269.0</ele><time>2026-03-25T09:01:21.525Z</time></trkpt><trkpt lat="38.0791617" lon="12.7201617"><ele>269.4</ele><time>2026-03-25T09:01:22.525Z</time></trkpt><trkpt lat="38.0791217" lon="12.72028"><ele>269.79999999999995</ele><time>2026-03-25T09:01:23.523Z</time></trkpt><trkpt lat="38.0790767" lon="12.7203883"><ele>270.20000000000005</ele><time>2026-03-25T09:01:24.526Z</time></trkpt><trkpt lat="38.0790317" lon="12.7204983"><ele>270.6</ele><time>2026-03-25T09:01:25.524Z</time></trkpt><trkpt lat="38.0789867" lon="12.7205933"><ele>271.0</ele><time>2026-03-25T09:01:26.523Z</time></trkpt><trkpt lat="38.0789433" lon="12.72069"><ele>272.0</ele><time>2026-03-25T09:01:27.522Z</time></trkpt><trkpt lat="38.0788983" lon="12.7207883"><ele>273.0</ele><time>2026-03-25T09:01:28.523Z</time></trkpt><trkpt lat="38.07885" lon="12.7208917"><ele>274.0</ele><time>2026-03-25T09:01:29.523Z</time></trkpt><trkpt lat="38.0788033" lon="12.7209867"><ele>275.0</ele><time>2026-03-25T09:01:30.525Z</time></trkpt><trkpt lat="38.0787567" lon="12.721085"><ele>276.0</ele><time>2026-03-25T09:01:31.523Z</time></trkpt><trkpt lat="38.0787133" lon="12.7211867"><ele>276.0</ele><time>2026-03-25T09:01:32.527Z</time></trkpt><trkpt lat="38.0786717" lon="12.72129"><ele>276.0</ele><time>2026-03-25T09:01:33.522Z</time></trkpt><trkpt lat="38.0786317" lon="12.7213983"><ele>276.0</ele><time>2026-03-25T09:01:34.524Z</time></trkpt><trkpt lat="38.0785967" lon="12.72151"><ele>276.0</ele><time>2026-03-25T09:01:35.524Z</time></trkpt><trkpt lat="38.0785733" lon="12.7216417"><ele>276.0</ele><time>2026-03-25T09:01:36.527Z</time></trkpt><trkpt lat="38.0785567" lon="12.7218"><ele>276.5</ele><time>2026-03-25T09:01:37.523Z</time></trkpt><trkpt lat="38.0785417" lon="12.72198"><ele>277.0</ele><time>2026-03-25T09:01:38.524Z</time></trkpt><trkpt lat="38.0785283" lon="12.722165"><ele>277.5</ele><time>2026-03-25T09:01:39.521Z</time></trkpt><trkpt lat="38.0785133" lon="12.7223567"><ele>278.0</ele><time>2026-03-25T09:01:40.525Z</time></trkpt><trkpt lat="38.0785017" lon="12.7225633"><ele>279.33333333333337</ele><time>2026-03-25T09:01:41.521Z</time></trkpt><trkpt lat="38.078495" lon="12.72277"><ele>280.6666666666667</ele><time>2026-03-25T09:01:42.523Z</time></trkpt><trkpt lat="38.0784883" lon="12.722965"><ele>282.0</ele><time>2026-03-25T09:01:43.523Z</time></trkpt><trkpt lat="38.0784833" lon="12.72314"><ele>282.0</ele><time>2026-03-25T09:01:44.528Z</time></trkpt><trkpt lat="38.078475" lon="12.723305"><ele>282.0</ele><time>2026-03-25T09:01:45.521Z</time></trkpt><trkpt lat="38.0784667" lon="12.7234817"><ele>282.0</ele><time>2026-03-25T09:01:46.523Z</time></trkpt><trkpt lat="38.07846" lon="12.723675"><ele>282.0</ele><time>2026-03-25T09:01:47.524Z</time></trkpt><trkpt lat="38.07845" lon="12.7238783"><ele>282.6666666666667</ele><time>2026-03-25T09:01:48.525Z</time></trkpt><trkpt lat="38.0784383" lon="12.72409"><ele>283.33333333333337</ele><time>2026-03-25T09:01:49.521Z</time></trkpt><trkpt lat="38.0784217" lon="12.7243083"><ele>284.0</ele><time>2026-03-25T09:01:50.528Z</time></trkpt><trkpt lat="38.0783983" lon="12.7245283"><ele>284.0</ele><time>2026-03-25T09:01:51.519Z</time></trkpt><trkpt lat="38.07836" lon="12.724755"><ele>284.0</ele><time>2026-03-25T09:01:52.519Z</time></trkpt><trkpt lat="38.078305" lon="12.7249917"><ele>284.0</ele><time>2026-03-25T09:01:53.523Z</time></trkpt><trkpt lat="38.07824" lon="12.7252367"><ele>284.6666666666667</ele><time>2026-03-25T09:01:54.52Z</time></trkpt><trkpt lat="38.0781667" lon="12.7254867"><ele>285.3333333333333</ele><time>2026-03-25T09:01:55.525Z</time></trkpt><trkpt lat="38.0780933" lon="12.7257383"><ele>286.0</ele><time>2026-03-25T09:01:56.523Z</time></trkpt><trkpt lat="38.07802" lon="12.7259917"><ele>286.66666666666663</ele><time>2026-03-25T09:01:57.521Z</time></trkpt><trkpt lat="38.07794" lon="12.7262483"><ele>287.3333333333333</ele><time>2026-03-25T09:01:58.524Z</time></trkpt><trkpt lat="38.0778533" lon="12.726505"><ele>288.0</ele><time>2026-03-25T09:01:59.522Z</time></trkpt><trkpt lat="38.0777633" lon="12.7267633"><ele>288.0</ele><time>2026-03-25T09:02:00.524Z</time></trkpt><trkpt lat="38.0776717" lon="12.7270217"><ele>288.0</ele><time>2026-03-25T09:02:01.526Z</time></trkpt><trkpt lat="38.0775817" lon="12.7272833"><ele>288.0</ele><time>2026-03-25T09:02:02.526Z</time></trkpt><trkpt lat="38.07749" lon="12.7275467"><ele>290.0</ele><time>2026-03-25T09:02:03.522Z</time></trkpt><trkpt lat="38.0773967" lon="12.7278133"><ele>292.0</ele><time>2026-03-25T09:02:04.525Z</time></trkpt><trkpt lat="38.077305" lon="12.7280817"><ele>292.0</ele><time>2026-03-25T09:02:05.524Z</time></trkpt><trkpt lat="38.07721" lon="12.72835"><ele>292.0</ele><time>2026-03-25T09:02:06.526Z</time></trkpt><trkpt lat="38.0771183" lon="12.728615"><ele>291.5</ele><time>2026-03-25T09:02:07.527Z</time></trkpt><trkpt lat="38.077025" lon="12.7288817"><ele>291.0</ele><time>2026-03-25T09:02:08.524Z</time></trkpt><trkpt lat="38.0769317" lon="12.7291483"><ele>290.5</ele><time>2026-03-25T09:02:09.524Z</time></trkpt><trkpt lat="38.0768383" lon="12.729415"><ele>290.0</ele><time>2026-03-25T09:02:10.525Z</time></trkpt><trkpt lat="38.0767467" lon="12.72968"><ele>290.0</ele><time>2026-03-25T09:02:11.526Z</time></trkpt><trkpt lat="38.07666" lon="12.7299483"><ele>290.0</ele><time>2026-03-25T09:02:12.527Z</time></trkpt><trkpt lat="38.07658" lon="12.7302183"><ele>291.0</ele><time>2026-03-25T09:02:13.524Z</time></trkpt><trkpt lat="38.0765017" lon="12.7304867"><ele>292.0</ele><time>2026-03-25T09:02:14.525Z</time></trkpt><trkpt lat="38.0764267" lon="12.73076"><ele>292.0</ele><time>2026-03-25T09:02:15.524Z</time></trkpt><trkpt lat="38.076355" lon="12.7310317"><ele>292.0</ele><time>2026-03-25T09:02:16.524Z</time></trkpt><trkpt lat="38.0762883" lon="12.7313033"><ele>291.66666666666663</ele><time>2026-03-25T09:02:17.522Z</time></trkpt><trkpt lat="38.0762283" lon="12.7315733"><ele>291.3333333333333</ele><time>2026-03-25T09:02:18.527Z</time></trkpt><trkpt lat="38.07617" lon="12.731845"><ele>291.0</ele><time>2026-03-25T09:02:19.519Z</time></trkpt><trkpt lat="38.0761167" lon="12.732115"><ele>291.0</ele><time>2026-03-25T09:02:20.527Z</time></trkpt><trkpt lat="38.0760683" lon="12.732385"><ele>291.0</ele><time>2026-03-25T09:02:21.523Z</time></trkpt><trkpt lat="38.0760217" lon="12.7326533"><ele>291.0</ele><time>2026-03-25T09:02:22.523Z</time></trkpt><trkpt lat="38.075975" lon="12.7329217"><ele>291.0</ele><time>2026-03-25T09:02:23.522Z</time></trkpt><trkpt lat="38.0759283" lon="12.7331867"><ele>291.0</ele><time>2026-03-25T09:02:24.525Z</time></trkpt><trkpt lat="38.0758833" lon="12.7334533"><ele>291.0</ele><time>2026-03-25T09:02:25.522Z</time></trkpt><trkpt lat="38.0758383" lon="12.73372"><ele>290.6666666666667</ele><time>2026-03-25T09:02:26.526Z</time></trkpt><trkpt lat="38.0757933" lon="12.7339867"><ele>290.33333333333337</ele><time>2026-03-25T09:02:27.522Z</time></trkpt><trkpt lat="38.07575" lon="12.7342517"><ele>290.0</ele><time>2026-03-25T09:02:28.525Z</time></trkpt><trkpt lat="38.0757067" lon="12.7345167"><ele>291.33333333333337</ele><time>2026-03-25T09:02:29.521Z</time></trkpt><trkpt lat="38.0756633" lon="12.7347817"><ele>292.6666666666667</ele><time>2026-03-25T09:02:30.522Z</time></trkpt><trkpt lat="38.0756217" lon="12.7350433"><ele>294.0</ele><time>2026-03-25T09:02:31.529Z</time></trkpt><trkpt lat="38.07558" lon="12.7353083"><ele>294.6666666666667</ele><time>2026-03-25T09:02:32.522Z</time></trkpt><trkpt lat="38.07554" lon="12.7355717"><ele>295.33333333333337</ele><time>2026-03-25T09:02:33.524Z</time></trkpt><trkpt lat="38.0754983" lon="12.735835"><ele>296.0</ele><time>2026-03-25T09:02:34.521Z</time></trkpt><trkpt lat="38.075455" lon="12.7360967"><ele>296.6666666666667</ele><time>2026-03-25T09:02:35.523Z</time></trkpt><trkpt lat="38.0754133" lon="12.7363583"><ele>297.3333333333333</ele><time>2026-03-25T09:02:36.524Z</time></trkpt><trkpt lat="38.0753717" lon="12.7366217"><ele>298.0</ele><time>2026-03-25T09:02:37.526Z</time></trkpt><trkpt lat="38.0753283" lon="12.7368867"><ele>298.0</ele><time>2026-03-25T09:02:38.523Z</time></trkpt><trkpt lat="38.0752833" lon="12.73715"><ele>298.0</ele><time>2026-03-25T09:02:39.519Z</time></trkpt><trkpt lat="38.0752367" lon="12.7374133"><ele>298.0</ele><time>2026-03-25T09:02:40.524Z</time></trkpt><trkpt lat="38.0751933" lon="12.7376767"><ele>298.66666666666663</ele><time>2026-03-25T09:02:41.522Z</time></trkpt><trkpt lat="38.07515" lon="12.7379433"><ele>299.3333333333333</ele><time>2026-03-25T09:02:42.52Z</time></trkpt><trkpt lat="38.075105" lon="12.7382083"><ele>300.0</ele><time>2026-03-25T09:02:43.52Z</time></trkpt><trkpt lat="38.0750617" lon="12.7384733"><ele>300.0</ele><time>2026-03-25T09:02:44.523Z</time></trkpt><trkpt lat="38.0750183" lon="12.73874"><ele>300.0</ele><time>2026-03-25T09:02:45.521Z</time></trkpt><trkpt lat="38.0749767" lon="12.7390083"><ele>300.0</ele><time>2026-03-25T09:02:46.52Z</time></trkpt><trkpt lat="38.0749317" lon="12.739275"><ele>303.0</ele><time>2026-03-25T09:02:47.523Z</time></trkpt><trkpt lat="38.0748883" lon="12.7395417"><ele>306.0</ele><time>2026-03-25T09:02:48.522Z</time></trkpt><trkpt lat="38.0748433" lon="12.7398083"><ele>309.0</ele><time>2026-03-25T09:02:49.521Z</time></trkpt><trkpt lat="38.0748017" lon="12.7400767"><ele>309.0</ele><time>2026-03-25T09:02:50.523Z</time></trkpt><trkpt lat="38.0747617" lon="12.740345"><ele>309.0</ele><time>2026-03-25T09:02:51.523Z</time></trkpt><trkpt lat="38.07472" lon="12.7406083"><ele>309.0</ele><time>2026-03-25T09:02:52.527Z</time></trkpt><trkpt lat="38.0746767" lon="12.7408717"><ele>307.6666666666667</ele><time>2026-03-25T09:02:53.522Z</time></trkpt><trkpt lat="38.0746367" lon="12.7411367"><ele>306.33333333333337</ele><time>2026-03-25T09:02:54.523Z</time></trkpt><trkpt lat="38.074595" lon="12.7414"><ele>305.0</ele><time>2026-03-25T09:02:55.519Z</time></trkpt><trkpt lat="38.0745517" lon="12.7416633"><ele>304.33333333333337</ele><time>2026-03-25T09:02:56.525Z</time></trkpt><trkpt lat="38.07451" lon="12.741915"><ele>303.6666666666667</ele><time>2026-03-25T09:02:57.525Z</time></trkpt><trkpt lat="38.0744717" lon="12.74216"><ele>303.0</ele><time>2026-03-25T09:02:58.524Z</time></trkpt><trkpt lat="38.07443" lon="12.742405"><ele>303.0</ele><time>2026-03-25T09:02:59.522Z</time></trkpt><trkpt lat="38.0743933" lon="12.7426517"><ele>303.0</ele><time>2026-03-25T09:03:00.521Z</time></trkpt><trkpt lat="38.0743617" lon="12.7429033"><ele>303.0</ele><time>2026-03-25T09:03:01.522Z</time></trkpt><trkpt lat="38.07434" lon="12.7431567"><ele>302.3333333333333</ele><time>2026-03-25T09:03:02.523Z</time></trkpt><trkpt lat="38.074325" lon="12.7434117"><ele>301.66666666666663</ele><time>2026-03-25T09:03:03.522Z</time></trkpt><trkpt lat="38.0743183" lon="12.7436667"><ele>301.0</ele><time>2026-03-25T09:03:04.526Z</time></trkpt><trkpt lat="38.0743183" lon="12.743925"><ele>299.66666666666663</ele><time>2026-03-25T09:03:05.522Z</time></trkpt><trkpt lat="38.0743283" lon="12.7441867"><ele>298.3333333333333</ele><time>2026-03-25T09:03:06.523Z</time></trkpt><trkpt lat="38.0743467" lon="12.7444517"><ele>297.0</ele><time>2026-03-25T09:03:07.523Z</time></trkpt><trkpt lat="38.074375" lon="12.7447233"><ele>296.3333333333333</ele><time>2026-03-25T09:03:08.529Z</time></trkpt><trkpt lat="38.07441" lon="12.7450017"><ele>295.66666666666663</ele><time>2026-03-25T09:03:09.531Z</time></trkpt><trkpt lat="38.0744467" lon="12.7452833"><ele>295.0</ele><time>2026-03-25T09:03:10.522Z</time></trkpt><trkpt lat="38.074485" lon="12.7455717"><ele>294.5</ele><time>2026-03-25T09:03:11.517Z</time></trkpt><trkpt lat="38.0745267" lon="12.7458617"><ele>294.0</ele><time>2026-03-25T09:03:12.532Z</time></trkpt><trkpt lat="38.0745633" lon="12.7461533"><ele>292.5</ele><time>2026-03-25T09:03:13.518Z</time></trkpt><trkpt lat="38.0745983" lon="12.7464417"><ele>291.0</ele><time>2026-03-25T09:03:14.518Z</time></trkpt><trkpt lat="38.074635" lon="12.7467317"><ele>292.0</ele><time>2026-03-25T09:03:15.519Z</time></trkpt><trkpt lat="38.0746733" lon="12.7470233"><ele>293.0</ele><time>2026-03-25T09:03:16.519Z</time></trkpt><trkpt lat="38.0747133" lon="12.7473083"><ele>293.0</ele><time>2026-03-25T09:03:17.521Z</time></trkpt><trkpt lat="38.07475" lon="12.7475783"><ele>293.0</ele><time>2026-03-25T09:03:18.519Z</time></trkpt><trkpt lat="38.0747883" lon="12.7478417"><ele>293.0</ele><time>2026-03-25T09:03:19.53Z</time></trkpt><trkpt lat="38.074825" lon="12.7481033"><ele>292.0</ele><time>2026-03-25T09:03:20.519Z</time></trkpt><trkpt lat="38.0748617" lon="12.748365"><ele>291.0</ele><time>2026-03-25T09:03:21.53Z</time></trkpt><trkpt lat="38.0748983" lon="12.74863"><ele>290.0</ele><time>2026-03-25T09:03:22.521Z</time></trkpt><trkpt lat="38.0749317" lon="12.74889"><ele>284.0</ele><time>2026-03-25T09:03:23.524Z</time></trkpt><trkpt lat="38.074965" lon="12.749145"><ele>278.0</ele><time>2026-03-25T09:03:24.521Z</time></trkpt><trkpt lat="38.074995" lon="12.7494"><ele>272.0</ele><time>2026-03-25T09:03:25.524Z</time></trkpt><trkpt lat="38.0750217" lon="12.749655"><ele>270.0</ele><time>2026-03-25T09:03:26.522Z</time></trkpt><trkpt lat="38.0750467" lon="12.7499083"><ele>268.0</ele><time>2026-03-25T09:03:27.524Z</time></trkpt><trkpt lat="38.0750767" lon="12.750165"><ele>266.0</ele><time>2026-03-25T09:03:28.516Z</time></trkpt><trkpt lat="38.0751117" lon="12.7504217"><ele>263.33333333333337</ele><time>2026-03-25T09:03:29.525Z</time></trkpt><trkpt lat="38.0751533" lon="12.7506817"><ele>260.6666666666667</ele><time>2026-03-25T09:03:30.525Z</time></trkpt><trkpt lat="38.0752" lon="12.7509467"><ele>258.0</ele><time>2026-03-25T09:03:31.524Z</time></trkpt><trkpt lat="38.0752533" lon="12.751215"><ele>256.3333333333333</ele><time>2026-03-25T09:03:32.523Z</time></trkpt><trkpt lat="38.0753117" lon="12.75148"><ele>254.66666666666666</ele><time>2026-03-25T09:03:33.526Z</time></trkpt><trkpt lat="38.07537" lon="12.7517467"><ele>253.0</ele><time>2026-03-25T09:03:34.519Z</time></trkpt><trkpt lat="38.0754283" lon="12.75201"><ele>252.33333333333331</ele><time>2026-03-25T09:03:35.526Z</time></trkpt><trkpt lat="38.0754833" lon="12.75227"><ele>251.66666666666669</ele><time>2026-03-25T09:03:36.524Z</time></trkpt><trkpt lat="38.0755367" lon="12.7525233"><ele>251.0</ele><time>2026-03-25T09:03:37.524Z</time></trkpt><trkpt lat="38.07559" lon="12.7527717"><ele>252.33333333333334</ele><time>2026-03-25T09:03:38.525Z</time></trkpt><trkpt lat="38.0756417" lon="12.7530183"><ele>253.66666666666669</ele><time>2026-03-25T09:03:39.522Z</time></trkpt><trkpt lat="38.075695" lon="12.7532633"><ele>255.0</ele><time>2026-03-25T09:03:40.528Z</time></trkpt><trkpt lat="38.0757533" lon="12.7535083"><ele>248.66666666666669</ele><time>2026-03-25T09:03:41.525Z</time></trkpt><trkpt lat="38.07582" lon="12.7537483"><ele>242.33333333333334</ele><time>2026-03-25T09:03:42.522Z</time></trkpt><trkpt lat="38.0758967" lon="12.7539867"><ele>236.0</ele><time>2026-03-25T09:03:43.53Z</time></trkpt><trkpt lat="38.0759883" lon="12.754225"><ele>235.33333333333334</ele><time>2026-03-25T09:03:44.523Z</time></trkpt><trkpt lat="38.0760917" lon="12.7544533"><ele>234.66666666666669</ele><time>2026-03-25T09:03:45.523Z</time></trkpt><trkpt lat="38.0761983" lon="12.75467"><ele>234.0</ele><time>2026-03-25T09:03:46.522Z</time></trkpt><trkpt lat="38.07631" lon="12.754875"><ele>234.0</ele><time>2026-03-25T09:03:47.522Z</time></trkpt><trkpt lat="38.0764333" lon="12.755075"><ele>234.0</ele><time>2026-03-25T09:03:48.525Z</time></trkpt><trkpt lat="38.0765683" lon="12.755265"><ele>234.0</ele><time>2026-03-25T09:03:49.522Z</time></trkpt><trkpt lat="38.0767133" lon="12.7554367"><ele>228.33333333333331</ele><time>2026-03-25T09:03:50.523Z</time></trkpt><trkpt lat="38.0768667" lon="12.7556017"><ele>222.66666666666666</ele><time>2026-03-25T09:03:51.526Z</time></trkpt><trkpt lat="38.0770283" lon="12.7557583"><ele>217.0</ele><time>2026-03-25T09:03:52.525Z</time></trkpt><trkpt lat="38.0771967" lon="12.7559067"><ele>215.33333333333331</ele><time>2026-03-25T09:03:53.526Z</time></trkpt><trkpt lat="38.077375" lon="12.756045"><ele>213.66666666666669</ele><time>2026-03-25T09:03:54.523Z</time></trkpt><trkpt lat="38.0775583" lon="12.7561667"><ele>212.0</ele><time>2026-03-25T09:03:55.524Z</time></trkpt><trkpt lat="38.0777483" lon="12.756275"><ele>209.0</ele><time>2026-03-25T09:03:56.524Z</time></trkpt><trkpt lat="38.07794" lon="12.756365"><ele>206.0</ele><time>2026-03-25T09:03:57.523Z</time></trkpt><trkpt lat="38.07814" lon="12.7564417"><ele>203.0</ele><time>2026-03-25T09:03:58.521Z</time></trkpt><trkpt lat="38.0783383" lon="12.7565033"><ele>201.0</ele><time>2026-03-25T09:03:59.523Z</time></trkpt><trkpt lat="38.0785383" lon="12.7565517"><ele>199.0</ele><time>2026-03-25T09:04:00.522Z</time></trkpt><trkpt lat="38.07874" lon="12.7565867"><ele>197.0</ele><time>2026-03-25T09:04:01.524Z</time></trkpt><trkpt lat="38.07894" lon="12.756605"><ele>198.33333333333334</ele><time>2026-03-25T09:04:02.522Z</time></trkpt><trkpt lat="38.0791367" lon="12.756605"><ele>199.66666666666669</ele><time>2026-03-25T09:04:03.523Z</time></trkpt><trkpt lat="38.0793317" lon="12.7565767"><ele>201.0</ele><time>2026-03-25T09:04:04.525Z</time></trkpt><trkpt lat="38.07953" lon="12.756535"><ele>201.0</ele><time>2026-03-25T09:04:05.526Z</time></trkpt><trkpt lat="38.0797317" lon="12.7564817"><ele>201.0</ele><time>2026-03-25T09:04:06.524Z</time></trkpt><trkpt lat="38.0799383" lon="12.7564217"><ele>201.0</ele><time>2026-03-25T09:04:07.524Z</time></trkpt><trkpt lat="38.08014" lon="12.7563667"><ele>203.66666666666669</ele><time>2026-03-25T09:04:08.527Z</time></trkpt><trkpt lat="38.080345" lon="12.75631"><ele>206.33333333333334</ele><time>2026-03-25T09:04:09.526Z</time></trkpt><trkpt lat="38.0805267" lon="12.756275"><ele>209.0</ele><time>2026-03-25T09:04:10.523Z</time></trkpt><trkpt lat="38.0807217" lon="12.756215"><ele>211.33333333333334</ele><time>2026-03-25T09:04:11.525Z</time></trkpt><trkpt lat="38.08093" lon="12.7561583"><ele>213.66666666666669</ele><time>2026-03-25T09:04:12.524Z</time></trkpt><trkpt lat="38.0811367" lon="12.7561083"><ele>216.0</ele><time>2026-03-25T09:04:13.524Z</time></trkpt><trkpt lat="38.08134" lon="12.7560583"><ele>207.33333333333334</ele><time>2026-03-25T09:04:14.524Z</time></trkpt><trkpt lat="38.0815483" lon="12.7560083"><ele>198.66666666666669</ele><time>2026-03-25T09:04:15.523Z</time></trkpt><trkpt lat="38.081755" lon="12.755955"><ele>190.0</ele><time>2026-03-25T09:04:16.524Z</time></trkpt><trkpt lat="38.0819633" lon="12.7559033"><ele>189.66666666666669</ele><time>2026-03-25T09:04:17.525Z</time></trkpt><trkpt lat="38.0821733" lon="12.7558467"><ele>189.33333333333334</ele><time>2026-03-25T09:04:18.523Z</time></trkpt><trkpt lat="38.0823817" lon="12.75579"><ele>189.0</ele><time>2026-03-25T09:04:19.526Z</time></trkpt><trkpt lat="38.08259" lon="12.7557267"><ele>190.0</ele><time>2026-03-25T09:04:20.524Z</time></trkpt><trkpt lat="38.0827967" lon="12.7556667"><ele>191.0</ele><time>2026-03-25T09:04:21.523Z</time></trkpt><trkpt lat="38.0830017" lon="12.7556033"><ele>192.0</ele><time>2026-03-25T09:04:22.523Z</time></trkpt><trkpt lat="38.0832017" lon="12.75554"><ele>193.0</ele><time>2026-03-25T09:04:23.524Z</time></trkpt><trkpt lat="38.0834" lon="12.755475"><ele>194.0</ele><time>2026-03-25T09:04:24.525Z</time></trkpt><trkpt lat="38.0836" lon="12.7554083"><ele>195.0</ele><time>2026-03-25T09:04:25.525Z</time></trkpt><trkpt lat="38.0838" lon="12.75534"><ele>195.0</ele><time>2026-03-25T09:04:26.521Z</time></trkpt><trkpt lat="38.0839983" lon="12.7552717"><ele>195.0</ele><time>2026-03-25T09:04:27.52Z</time></trkpt><trkpt lat="38.0841983" lon="12.755205"><ele>195.0</ele><time>2026-03-25T09:04:28.523Z</time></trkpt><trkpt lat="38.0843967" lon="12.7551383"><ele>189.66666666666666</ele><time>2026-03-25T09:04:29.524Z</time></trkpt><trkpt lat="38.084595" lon="12.75507"><ele>184.33333333333331</ele><time>2026-03-25T09:04:30.525Z</time></trkpt><trkpt lat="38.0847967" lon="12.7550033"><ele>179.0</ele><time>2026-03-25T09:04:31.521Z</time></trkpt><trkpt lat="38.0850017" lon="12.7549333"><ele>179.0</ele><time>2026-03-25T09:04:32.518Z</time></trkpt><trkpt lat="38.0852083" lon="12.7548633"><ele>179.0</ele><time>2026-03-25T09:04:33.522Z</time></trkpt><trkpt lat="38.085415" lon="12.7547917"><ele>179.0</ele><time>2026-03-25T09:04:34.521Z</time></trkpt><trkpt lat="38.0856233" lon="12.75472"><ele>180.66666666666666</ele><time>2026-03-25T09:04:35.522Z</time></trkpt><trkpt lat="38.08583" lon="12.7546467"><ele>182.33333333333334</ele><time>2026-03-25T09:04:36.523Z</time></trkpt><trkpt lat="38.08604" lon="12.7545683"><ele>184.0</ele><time>2026-03-25T09:04:37.528Z</time></trkpt><trkpt lat="38.0862483" lon="12.7544883"><ele>184.0</ele><time>2026-03-25T09:04:38.518Z</time></trkpt><trkpt lat="38.0864583" lon="12.7544033"><ele>184.0</ele><time>2026-03-25T09:04:39.52Z</time></trkpt><trkpt lat="38.0866667" lon="12.7543083"><ele>184.0</ele><time>2026-03-25T09:04:40.521Z</time></trkpt><trkpt lat="38.0868733" lon="12.7542033"><ele>184.66666666666669</ele><time>2026-03-25T09:04:41.522Z</time></trkpt><trkpt lat="38.08708" lon="12.75409"><ele>185.33333333333334</ele><time>2026-03-25T09:04:42.521Z</time></trkpt><trkpt lat="38.0872817" lon="12.7539667"><ele>186.0</ele><time>2026-03-25T09:04:43.524Z</time></trkpt><trkpt lat="38.0874817" lon="12.7538417"><ele>186.0</ele><time>2026-03-25T09:04:44.524Z</time></trkpt><trkpt lat="38.0876783" lon="12.7537117"><ele>186.0</ele><time>2026-03-25T09:04:45.521Z</time></trkpt><trkpt lat="38.08787" lon="12.7535733"><ele>186.0</ele><time>2026-03-25T09:04:46.522Z</time></trkpt><trkpt lat="38.0880583" lon="12.7534267"><ele>183.66666666666666</ele><time>2026-03-25T09:04:47.523Z</time></trkpt><trkpt lat="38.0882417" lon="12.7532717"><ele>181.33333333333331</ele><time>2026-03-25T09:04:48.523Z</time></trkpt><trkpt lat="38.0884233" lon="12.7531133"><ele>179.0</ele><time>2026-03-25T09:04:49.524Z</time></trkpt><trkpt lat="38.0886017" lon="12.7529483"><ele>179.0</ele><time>2026-03-25T09:04:50.524Z</time></trkpt><trkpt lat="38.0887767" lon="12.7527817"><ele>179.0</ele><time>2026-03-25T09:04:51.525Z</time></trkpt><trkpt lat="38.0889467" lon="12.752615"><ele>179.0</ele><time>2026-03-25T09:04:52.523Z</time></trkpt><trkpt lat="38.0891133" lon="12.752455"><ele>176.0</ele><time>2026-03-25T09:04:53.525Z</time></trkpt><trkpt lat="38.0892783" lon="12.752295"><ele>173.0</ele><time>2026-03-25T09:04:54.522Z</time></trkpt><trkpt lat="38.0894433" lon="12.75214"><ele>170.0</ele><time>2026-03-25T09:04:55.523Z</time></trkpt><trkpt lat="38.0896017" lon="12.7519883"><ele>165.33333333333331</ele><time>2026-03-25T09:04:56.522Z</time></trkpt><trkpt lat="38.089755" lon="12.7518417"><ele>160.66666666666666</ele><time>2026-03-25T09:04:57.522Z</time></trkpt><trkpt lat="38.0899017" lon="12.7517017"><ele>156.0</ele><time>2026-03-25T09:04:58.523Z</time></trkpt><trkpt lat="38.090045" lon="12.7515617"><ele>156.0</ele><time>2026-03-25T09:04:59.525Z</time></trkpt><trkpt lat="38.0901883" lon="12.7514117"><ele>156.0</ele><time>2026-03-25T09:05:00.521Z</time></trkpt><trkpt lat="38.090325" lon="12.751245"><ele>156.0</ele><time>2026-03-25T09:05:01.525Z</time></trkpt><trkpt lat="38.0904533" lon="12.7510617"><ele>155.33333333333334</ele><time>2026-03-25T09:05:02.524Z</time></trkpt><trkpt lat="38.0905717" lon="12.7508583"><ele>154.66666666666669</ele><time>2026-03-25T09:05:03.523Z</time></trkpt><trkpt lat="38.09068" lon="12.7506367"><ele>154.0</ele><time>2026-03-25T09:05:04.522Z</time></trkpt><trkpt lat="38.0907833" lon="12.7504033"><ele>149.66666666666669</ele><time>2026-03-25T09:05:05.522Z</time></trkpt><trkpt lat="38.090875" lon="12.7501517"><ele>145.33333333333334</ele><time>2026-03-25T09:05:06.521Z</time></trkpt><trkpt lat="38.0909633" lon="12.7498933"><ele>141.0</ele><time>2026-03-25T09:05:07.524Z</time></trkpt><trkpt lat="38.0910517" lon="12.749645"><ele>141.0</ele><time>2026-03-25T09:05:08.526Z</time></trkpt><trkpt lat="38.091135" lon="12.7494067"><ele>141.0</ele><time>2026-03-25T09:05:09.521Z</time></trkpt><trkpt lat="38.0912167" lon="12.7491783"><ele>141.0</ele><time>2026-03-25T09:05:10.521Z</time></trkpt><trkpt lat="38.0912983" lon="12.7489567"><ele>138.33333333333334</ele><time>2026-03-25T09:05:11.521Z</time></trkpt><trkpt lat="38.0913783" lon="12.748745"><ele>135.66666666666669</ele><time>2026-03-25T09:05:12.52Z</time></trkpt><trkpt lat="38.0914583" lon="12.7485483"><ele>133.0</ele><time>2026-03-25T09:05:13.522Z</time></trkpt><trkpt lat="38.091535" lon="12.7483717"><ele>133.5</ele><time>2026-03-25T09:05:14.518Z</time></trkpt><trkpt lat="38.091605" lon="12.7482083"><ele>134.0</ele><time>2026-03-25T09:05:15.521Z</time></trkpt><trkpt lat="38.09167" lon="12.7480617"><ele>134.5</ele><time>2026-03-25T09:05:16.518Z</time></trkpt><trkpt lat="38.09173" lon="12.7479283"><ele>135.0</ele><time>2026-03-25T09:05:17.521Z</time></trkpt><trkpt lat="38.09179" lon="12.7477983"><ele>132.75</ele><time>2026-03-25T09:05:18.522Z</time></trkpt><trkpt lat="38.091855" lon="12.7476567"><ele>130.5</ele><time>2026-03-25T09:05:19.522Z</time></trkpt><trkpt lat="38.0919217" lon="12.7475083"><ele>128.25</ele><time>2026-03-25T09:05:20.523Z</time></trkpt><trkpt lat="38.09199" lon="12.7473567"><ele>126.0</ele><time>2026-03-25T09:05:21.526Z</time></trkpt><trkpt lat="38.0920567" lon="12.7472133"><ele>126.0</ele><time>2026-03-25T09:05:22.523Z</time></trkpt><trkpt lat="38.09212" lon="12.7470733"><ele>126.0</ele><time>2026-03-25T09:05:23.521Z</time></trkpt><trkpt lat="38.092185" lon="12.746935"><ele>126.0</ele><time>2026-03-25T09:05:24.524Z</time></trkpt><trkpt lat="38.0922483" lon="12.7468017"><ele>126.0</ele><time>2026-03-25T09:05:25.521Z</time></trkpt><trkpt lat="38.0923083" lon="12.7466767"><ele>125.0</ele><time>2026-03-25T09:05:26.523Z</time></trkpt><trkpt lat="38.092365" lon="12.7465567"><ele>124.0</ele><time>2026-03-25T09:05:27.52Z</time></trkpt><trkpt lat="38.092415" lon="12.7464483"><ele>123.0</ele><time>2026-03-25T09:05:28.526Z</time></trkpt><trkpt lat="38.0924583" lon="12.7463517"><ele>122.0</ele><time>2026-03-25T09:05:29.521Z</time></trkpt><trkpt lat="38.0925" lon="12.746265"><ele>121.0</ele><time>2026-03-25T09:05:30.523Z</time></trkpt><trkpt lat="38.09254" lon="12.7461867"><ele>121.0</ele><time>2026-03-25T09:05:31.52Z</time></trkpt><trkpt lat="38.092585" lon="12.74611"><ele>121.0</ele><time>2026-03-25T09:05:32.525Z</time></trkpt><trkpt lat="38.092635" lon="12.74603"><ele>121.0</ele><time>2026-03-25T09:05:33.525Z</time></trkpt><trkpt lat="38.0926933" lon="12.7459417"><ele>121.0</ele><time>2026-03-25T09:05:34.52Z</time></trkpt><trkpt lat="38.0927617" lon="12.745845"><ele>121.0</ele><time>2026-03-25T09:05:35.526Z</time></trkpt><trkpt lat="38.092835" lon="12.7457417"><ele>120.0</ele><time>2026-03-25T09:05:36.524Z</time></trkpt><trkpt lat="38.09291" lon="12.7456383"><ele>119.0</ele><time>2026-03-25T09:05:37.521Z</time></trkpt><trkpt lat="38.092995" lon="12.7455333"><ele>118.0</ele><time>2026-03-25T09:05:38.522Z</time></trkpt><trkpt lat="38.09308" lon="12.7454267"><ele>117.0</ele><time>2026-03-25T09:05:39.52Z</time></trkpt><trkpt lat="38.09317" lon="12.7453233"><ele>115.75</ele><time>2026-03-25T09:05:40.526Z</time></trkpt><trkpt lat="38.0932617" lon="12.7452167"><ele>114.5</ele><time>2026-03-25T09:05:41.523Z</time></trkpt><trkpt lat="38.09335" lon="12.7451117"><ele>113.25</ele><time>2026-03-25T09:05:42.519Z</time></trkpt><trkpt lat="38.0934383" lon="12.7450033"><ele>112.0</ele><time>2026-03-25T09:05:43.521Z</time></trkpt><trkpt lat="38.093525" lon="12.7449"><ele>112.0</ele><time>2026-03-25T09:05:44.524Z</time></trkpt><trkpt lat="38.0936067" lon="12.7448033"><ele>111.99999999999999</ele><time>2026-03-25T09:05:45.52Z</time></trkpt><trkpt lat="38.093685" lon="12.74471"><ele>111.99999999999999</ele><time>2026-03-25T09:05:46.522Z</time></trkpt><trkpt lat="38.0937633" lon="12.7446217"><ele>112.0</ele><time>2026-03-25T09:05:47.526Z</time></trkpt><trkpt lat="38.093835" lon="12.7445417"><ele>112.0</ele><time>2026-03-25T09:05:48.522Z</time></trkpt><trkpt lat="38.0939017" lon="12.7444667"><ele>112.00000000000001</ele><time>2026-03-25T09:05:49.523Z</time></trkpt><trkpt lat="38.0939633" lon="12.7443917"><ele>112.0</ele><time>2026-03-25T09:05:50.524Z</time></trkpt><trkpt lat="38.09402" lon="12.7443283"><ele>112.0</ele><time>2026-03-25T09:05:51.521Z</time></trkpt><trkpt lat="38.0940733" lon="12.7442667"><ele>112.0</ele><time>2026-03-25T09:05:52.525Z</time></trkpt><trkpt lat="38.0941267" lon="12.7442033"><ele>112.00000000000001</ele><time>2026-03-25T09:05:53.524Z</time></trkpt><trkpt lat="38.0941817" lon="12.7441433"><ele>112.0</ele><time>2026-03-25T09:05:54.522Z</time></trkpt><trkpt lat="38.094235" lon="12.7440817"><ele>111.00000000000001</ele><time>2026-03-25T09:05:55.527Z</time></trkpt><trkpt lat="38.0942917" lon="12.7440183"><ele>110.0</ele><time>2026-03-25T09:05:56.526Z</time></trkpt><trkpt lat="38.0943517" lon="12.7439517"><ele>109.0</ele><time>2026-03-25T09:05:57.521Z</time></trkpt><trkpt lat="38.094415" lon="12.74388"><ele>108.0</ele><time>2026-03-25T09:05:58.521Z</time></trkpt><trkpt lat="38.094485" lon="12.7438017"><ele>107.00000000000001</ele><time>2026-03-25T09:05:59.524Z</time></trkpt><trkpt lat="38.094555" lon="12.7437233"><ele>106.0</ele><time>2026-03-25T09:06:00.521Z</time></trkpt><trkpt lat="38.0946183" lon="12.7436467"><ele>106.00000000000001</ele><time>2026-03-25T09:06:01.52Z</time></trkpt><trkpt lat="38.0946817" lon="12.7435767"><ele>106.0</ele><time>2026-03-25T09:06:02.521Z</time></trkpt><trkpt lat="38.0947417" lon="12.7435067"><ele>106.0</ele><time>2026-03-25T09:06:03.519Z</time></trkpt><trkpt lat="38.094805" lon="12.743435"><ele>106.0</ele><time>2026-03-25T09:06:04.522Z</time></trkpt><trkpt lat="38.0948717" lon="12.7433567"><ele>106.00000000000001</ele><time>2026-03-25T09:06:05.52Z</time></trkpt><trkpt lat="38.094945" lon="12.74327"><ele>106.0</ele><time>2026-03-25T09:06:06.521Z</time></trkpt><trkpt lat="38.0950217" lon="12.7431717"><ele>105.25</ele><time>2026-03-25T09:06:07.522Z</time></trkpt><trkpt lat="38.0951033" lon="12.74306"><ele>104.5</ele><time>2026-03-25T09:06:08.525Z</time></trkpt><trkpt lat="38.0952" lon="12.742935"><ele>103.75</ele><time>2026-03-25T09:06:09.519Z</time></trkpt><trkpt lat="38.0953083" lon="12.7428017"><ele>103.0</ele><time>2026-03-25T09:06:10.523Z</time></trkpt><trkpt lat="38.095425" lon="12.74267"><ele>102.0</ele><time>2026-03-25T09:06:11.52Z</time></trkpt><trkpt lat="38.0955417" lon="12.7425433"><ele>101.0</ele><time>2026-03-25T09:06:12.522Z</time></trkpt><trkpt lat="38.0956567" lon="12.742415"><ele>100.0</ele><time>2026-03-25T09:06:13.521Z</time></trkpt><trkpt lat="38.0957667" lon="12.7422817"><ele>99.33333333333334</ele><time>2026-03-25T09:06:14.523Z</time></trkpt><trkpt lat="38.095875" lon="12.74215"><ele>98.66666666666666</ele><time>2026-03-25T09:06:15.521Z</time></trkpt><trkpt lat="38.0959867" lon="12.7420167"><ele>98.0</ele><time>2026-03-25T09:06:16.526Z</time></trkpt><trkpt lat="38.0960983" lon="12.7418817"><ele>97.5</ele><time>2026-03-25T09:06:17.522Z</time></trkpt><trkpt lat="38.0962033" lon="12.7417517"><ele>97.0</ele><time>2026-03-25T09:06:18.523Z</time></trkpt><trkpt lat="38.096305" lon="12.7416283"><ele>96.5</ele><time>2026-03-25T09:06:19.522Z</time></trkpt><trkpt lat="38.09641" lon="12.741505"><ele>96.0</ele><time>2026-03-25T09:06:20.527Z</time></trkpt><trkpt lat="38.096515" lon="12.74138"><ele>95.0</ele><time>2026-03-25T09:06:21.52Z</time></trkpt><trkpt lat="38.09662" lon="12.7412533"><ele>94.0</ele><time>2026-03-25T09:06:22.523Z</time></trkpt><trkpt lat="38.0967267" lon="12.7411267"><ele>93.0</ele><time>2026-03-25T09:06:23.52Z</time></trkpt><trkpt lat="38.0968317" lon="12.7409967"><ele>92.0</ele><time>2026-03-25T09:06:24.525Z</time></trkpt><trkpt lat="38.096935" lon="12.74087"><ele>92.0</ele><time>2026-03-25T09:06:25.524Z</time></trkpt><trkpt lat="38.0970383" lon="12.74075"><ele>92.0</ele><time>2026-03-25T09:06:26.524Z</time></trkpt><trkpt lat="38.0971433" lon="12.7406317"><ele>92.0</ele><time>2026-03-25T09:06:27.521Z</time></trkpt><trkpt lat="38.0972483" lon="12.7405067"><ele>92.0</ele><time>2026-03-25T09:06:28.524Z</time></trkpt><trkpt lat="38.0973533" lon="12.7403767"><ele>91.0</ele><time>2026-03-25T09:06:29.52Z</time></trkpt><trkpt lat="38.09746" lon="12.7402483"><ele>90.0</ele><time>2026-03-25T09:06:30.523Z</time></trkpt><trkpt lat="38.0975683" lon="12.7401183"><ele>89.0</ele><time>2026-03-25T09:06:31.521Z</time></trkpt><trkpt lat="38.0976783" lon="12.7399917"><ele>88.0</ele><time>2026-03-25T09:06:32.526Z</time></trkpt><trkpt lat="38.0977867" lon="12.7398617"><ele>87.5</ele><time>2026-03-25T09:06:33.525Z</time></trkpt><trkpt lat="38.097895" lon="12.7397283"><ele>87.0</ele><time>2026-03-25T09:06:34.52Z</time></trkpt><trkpt lat="38.0979983" lon="12.7396"><ele>86.5</ele><time>2026-03-25T09:06:35.522Z</time></trkpt><trkpt lat="38.0980983" lon="12.7394733"><ele>86.0</ele><time>2026-03-25T09:06:36.524Z</time></trkpt><trkpt lat="38.0982" lon="12.73935"><ele>84.33333333333334</ele><time>2026-03-25T09:06:37.521Z</time></trkpt><trkpt lat="38.0983083" lon="12.73922"><ele>82.66666666666667</ele><time>2026-03-25T09:06:38.525Z</time></trkpt><trkpt lat="38.09842" lon="12.739085"><ele>81.0</ele><time>2026-03-25T09:06:39.52Z</time></trkpt><trkpt lat="38.0985333" lon="12.7389433"><ele>81.0</ele><time>2026-03-25T09:06:40.523Z</time></trkpt><trkpt lat="38.0986483" lon="12.7388017"><ele>81.0</ele><time>2026-03-25T09:06:41.523Z</time></trkpt><trkpt lat="38.0987617" lon="12.7386633"><ele>81.0</ele><time>2026-03-25T09:06:42.521Z</time></trkpt><trkpt lat="38.0988683" lon="12.7385333"><ele>80.5</ele><time>2026-03-25T09:06:43.524Z</time></trkpt><trkpt lat="38.0989717" lon="12.738405"><ele>80.0</ele><time>2026-03-25T09:06:44.521Z</time></trkpt><trkpt lat="38.0990767" lon="12.7382783"><ele>79.5</ele><time>2026-03-25T09:06:45.521Z</time></trkpt><trkpt lat="38.0991817" lon="12.7381517"><ele>79.0</ele><time>2026-03-25T09:06:46.52Z</time></trkpt><trkpt lat="38.0992883" lon="12.7380267"><ele>78.5</ele><time>2026-03-25T09:06:47.523Z</time></trkpt><trkpt lat="38.0993933" lon="12.7378967"><ele>78.0</ele><time>2026-03-25T09:06:48.521Z</time></trkpt><trkpt lat="38.0994967" lon="12.7377667"><ele>77.5</ele><time>2026-03-25T09:06:49.522Z</time></trkpt><trkpt lat="38.0996" lon="12.7376383"><ele>77.0</ele><time>2026-03-25T09:06:50.522Z</time></trkpt><trkpt lat="38.0996983" lon="12.7375167"><ele>76.75</ele><time>2026-03-25T09:06:51.519Z</time></trkpt><trkpt lat="38.0997967" lon="12.7373983"><ele>76.5</ele><time>2026-03-25T09:06:52.52Z</time></trkpt><trkpt lat="38.099895" lon="12.73728"><ele>76.25</ele><time>2026-03-25T09:06:53.526Z</time></trkpt><trkpt lat="38.0999883" lon="12.7371683"><ele>76.0</ele><time>2026-03-25T09:06:54.516Z</time></trkpt><trkpt lat="38.1000733" lon="12.73707"><ele>75.39999999999999</ele><time>2026-03-25T09:06:55.519Z</time></trkpt><trkpt lat="38.1001417" lon="12.7369883"><ele>74.8</ele><time>2026-03-25T09:06:56.519Z</time></trkpt><trkpt lat="38.1001967" lon="12.7369217"><ele>74.19999999999999</ele><time>2026-03-25T09:06:57.518Z</time></trkpt><trkpt lat="38.1002567" lon="12.7368483"><ele>73.6</ele><time>2026-03-25T09:06:58.518Z</time></trkpt><trkpt lat="38.10033" lon="12.7367533"><ele>73.0</ele><time>2026-03-25T09:06:59.523Z</time></trkpt><trkpt lat="38.1004133" lon="12.7366533"><ele>73.0</ele><time>2026-03-25T09:07:00.523Z</time></trkpt><trkpt lat="38.1004967" lon="12.736555"><ele>73.0</ele><time>2026-03-25T09:07:01.521Z</time></trkpt><trkpt lat="38.100575" lon="12.7364617"><ele>73.0</ele><time>2026-03-25T09:07:02.52Z</time></trkpt><trkpt lat="38.1006483" lon="12.7363767"><ele>73.0</ele><time>2026-03-25T09:07:03.52Z</time></trkpt><trkpt lat="38.10072" lon="12.736295"><ele>73.0</ele><time>2026-03-25T09:07:04.518Z</time></trkpt><trkpt lat="38.1007933" lon="12.73621"><ele>72.4</ele><time>2026-03-25T09:07:05.519Z</time></trkpt><trkpt lat="38.1008717" lon="12.7361133"><ele>71.8</ele><time>2026-03-25T09:07:06.518Z</time></trkpt><trkpt lat="38.100945" lon="12.7360217"><ele>71.2</ele><time>2026-03-25T09:07:07.519Z</time></trkpt><trkpt lat="38.1010167" lon="12.7359333"><ele>70.6</ele><time>2026-03-25T09:07:08.523Z</time></trkpt><trkpt lat="38.10109" lon="12.7358483"><ele>70.0</ele><time>2026-03-25T09:07:09.516Z</time></trkpt><trkpt lat="38.1011667" lon="12.7357667"><ele>70.0</ele><time>2026-03-25T09:07:10.521Z</time></trkpt><trkpt lat="38.10125" lon="12.735695"><ele>70.0</ele><time>2026-03-25T09:07:11.52Z</time></trkpt><trkpt lat="38.1013433" lon="12.7356333"><ele>70.0</ele><time>2026-03-25T09:07:12.521Z</time></trkpt><trkpt lat="38.1014567" lon="12.7355833"><ele>70.0</ele><time>2026-03-25T09:07:13.525Z</time></trkpt><trkpt lat="38.10158" lon="12.7355433"><ele>69.0</ele><time>2026-03-25T09:07:14.523Z</time></trkpt><trkpt lat="38.1017167" lon="12.7355067"><ele>68.0</ele><time>2026-03-25T09:07:15.52Z</time></trkpt><trkpt lat="38.1018633" lon="12.7354767"><ele>67.0</ele><time>2026-03-25T09:07:16.519Z</time></trkpt><trkpt lat="38.1020067" lon="12.7354517"><ele>66.0</ele><time>2026-03-25T09:07:17.519Z</time></trkpt><trkpt lat="38.1021383" lon="12.7354333"><ele>66.0</ele><time>2026-03-25T09:07:18.521Z</time></trkpt><trkpt lat="38.1022633" lon="12.7354167"><ele>66.0</ele><time>2026-03-25T09:07:19.518Z</time></trkpt><trkpt lat="38.1023883" lon="12.7354017"><ele>66.0</ele><time>2026-03-25T09:07:20.523Z</time></trkpt><trkpt lat="38.102515" lon="12.7353833"><ele>66.0</ele><time>2026-03-25T09:07:21.522Z</time></trkpt><trkpt lat="38.1026467" lon="12.7353633"><ele>65.25</ele><time>2026-03-25T09:07:22.519Z</time></trkpt><trkpt lat="38.102785" lon="12.7353467"><ele>64.5</ele><time>2026-03-25T09:07:23.521Z</time></trkpt><trkpt lat="38.1029267" lon="12.7353333"><ele>63.75</ele><time>2026-03-25T09:07:24.524Z</time></trkpt><trkpt lat="38.1030667" lon="12.73532"><ele>63.0</ele><time>2026-03-25T09:07:25.521Z</time></trkpt><trkpt lat="38.1031983" lon="12.7353067"><ele>62.75</ele><time>2026-03-25T09:07:26.524Z</time></trkpt><trkpt lat="38.103325" lon="12.7352933"><ele>62.5</ele><time>2026-03-25T09:07:27.52Z</time></trkpt><trkpt lat="38.1034517" lon="12.7352783"><ele>62.25</ele><time>2026-03-25T09:07:28.523Z</time></trkpt><trkpt lat="38.1035767" lon="12.735265"><ele>62.0</ele><time>2026-03-25T09:07:29.522Z</time></trkpt><trkpt lat="38.1037017" lon="12.73525"><ele>62.0</ele><time>2026-03-25T09:07:30.522Z</time></trkpt><trkpt lat="38.1038217" lon="12.7352333"><ele>62.0</ele><time>2026-03-25T09:07:31.525Z</time></trkpt><trkpt lat="38.1039367" lon="12.73522"><ele>62.0</ele><time>2026-03-25T09:07:32.521Z</time></trkpt><trkpt lat="38.104035" lon="12.7352083"><ele>62.0</ele><time>2026-03-25T09:07:33.525Z</time></trkpt><trkpt lat="38.104115" lon="12.7351983"><ele>62.0</ele><time>2026-03-25T09:07:34.526Z</time></trkpt><trkpt lat="38.1041933" lon="12.73519"><ele>60.75</ele><time>2026-03-25T09:07:35.529Z</time></trkpt><trkpt lat="38.1042783" lon="12.7351817"><ele>59.5</ele><time>2026-03-25T09:07:36.53Z</time></trkpt><trkpt lat="38.10438" lon="12.7351683"><ele>58.25</ele><time>2026-03-25T09:07:37.521Z</time></trkpt><trkpt lat="38.1045067" lon="12.735145"><ele>57.0</ele><time>2026-03-25T09:07:38.528Z</time></trkpt><trkpt lat="38.1046667" lon="12.7351167"><ele>57.0</ele><time>2026-03-25T09:07:39.521Z</time></trkpt><trkpt lat="38.1048383" lon="12.7351"><ele>57.0</ele><time>2026-03-25T09:07:40.525Z</time></trkpt><trkpt lat="38.1050183" lon="12.7350917"><ele>57.0</ele><time>2026-03-25T09:07:41.525Z</time></trkpt><trkpt lat="38.1052167" lon="12.7350867"><ele>56.33333333333333</ele><time>2026-03-25T09:07:42.524Z</time></trkpt><trkpt lat="38.10542" lon="12.7350733"><ele>55.666666666666664</ele><time>2026-03-25T09:07:43.522Z</time></trkpt><trkpt lat="38.1056117" lon="12.7350517"><ele>55.0</ele><time>2026-03-25T09:07:44.523Z</time></trkpt><trkpt lat="38.1057917" lon="12.735035"><ele>54.666666666666664</ele><time>2026-03-25T09:07:45.525Z</time></trkpt><trkpt lat="38.10596" lon="12.7350267"><ele>54.33333333333333</ele><time>2026-03-25T09:07:46.521Z</time></trkpt><trkpt lat="38.1061233" lon="12.7350317"><ele>54.0</ele><time>2026-03-25T09:07:47.522Z</time></trkpt><trkpt lat="38.1062917" lon="12.7350417"><ele>54.0</ele><time>2026-03-25T09:07:48.523Z</time></trkpt><trkpt lat="38.1064517" lon="12.7350583"><ele>54.0</ele><time>2026-03-25T09:07:49.519Z</time></trkpt><trkpt lat="38.1066" lon="12.7350717"><ele>54.0</ele><time>2026-03-25T09:07:50.524Z</time></trkpt><trkpt lat="38.1067483" lon="12.7350867"><ele>53.66666666666667</ele><time>2026-03-25T09:07:51.523Z</time></trkpt><trkpt lat="38.10691" lon="12.7351067"><ele>53.333333333333336</ele><time>2026-03-25T09:07:52.522Z</time></trkpt><trkpt lat="38.10708" lon="12.7351233"><ele>53.0</ele><time>2026-03-25T09:07:53.522Z</time></trkpt><trkpt lat="38.1072617" lon="12.735145"><ele>51.66666666666667</ele><time>2026-03-25T09:07:54.522Z</time></trkpt><trkpt lat="38.1074483" lon="12.7351633"><ele>50.33333333333333</ele><time>2026-03-25T09:07:55.522Z</time></trkpt><trkpt lat="38.1076467" lon="12.7351767"><ele>49.0</ele><time>2026-03-25T09:07:56.523Z</time></trkpt><trkpt lat="38.10785" lon="12.7351833"><ele>49.0</ele><time>2026-03-25T09:07:57.523Z</time></trkpt><trkpt lat="38.1080517" lon="12.735175"><ele>49.0</ele><time>2026-03-25T09:07:58.522Z</time></trkpt><trkpt lat="38.1082467" lon="12.7351583"><ele>49.0</ele><time>2026-03-25T09:07:59.523Z</time></trkpt><trkpt lat="38.108425" lon="12.73514"><ele>48.666666666666664</ele><time>2026-03-25T09:08:00.522Z</time></trkpt><trkpt lat="38.108595" lon="12.73512"><ele>48.33333333333333</ele><time>2026-03-25T09:08:01.52Z</time></trkpt><trkpt lat="38.108755" lon="12.7351"><ele>48.0</ele><time>2026-03-25T09:08:02.523Z</time></trkpt><trkpt lat="38.108905" lon="12.73508"><ele>48.0</ele><time>2026-03-25T09:08:03.521Z</time></trkpt><trkpt lat="38.1090467" lon="12.7350633"><ele>48.0</ele><time>2026-03-25T09:08:04.522Z</time></trkpt><trkpt lat="38.1091817" lon="12.73505"><ele>48.0</ele><time>2026-03-25T09:08:05.521Z</time></trkpt><trkpt lat="38.10931" lon="12.7350367"><ele>48.0</ele><time>2026-03-25T09:08:06.52Z</time></trkpt><trkpt lat="38.10943" lon="12.7350217"><ele>47.8</ele><time>2026-03-25T09:08:07.524Z</time></trkpt><trkpt lat="38.1095467" lon="12.7350083"><ele>47.599999999999994</ele><time>2026-03-25T09:08:08.528Z</time></trkpt><trkpt lat="38.1096583" lon="12.7349917"><ele>47.400000000000006</ele><time>2026-03-25T09:08:09.521Z</time></trkpt><trkpt lat="38.1097617" lon="12.7349783"><ele>47.2</ele><time>2026-03-25T09:08:10.522Z</time></trkpt><trkpt lat="38.10986" lon="12.7349683"><ele>47.0</ele><time>2026-03-25T09:08:11.524Z</time></trkpt><trkpt lat="38.1099733" lon="12.7349567"><ele>47.0</ele><time>2026-03-25T09:08:12.524Z</time></trkpt><trkpt lat="38.110105" lon="12.7349433"><ele>47.0</ele><time>2026-03-25T09:08:13.523Z</time></trkpt><trkpt lat="38.1102583" lon="12.7349267"><ele>47.0</ele><time>2026-03-25T09:08:14.524Z</time></trkpt><trkpt lat="38.1104317" lon="12.7349033"><ele>47.0</ele><time>2026-03-25T09:08:15.526Z</time></trkpt><trkpt lat="38.110615" lon="12.7348767"><ele>47.0</ele><time>2026-03-25T09:08:16.524Z</time></trkpt><trkpt lat="38.11081" lon="12.73485"><ele>47.0</ele><time>2026-03-25T09:08:17.522Z</time></trkpt><trkpt lat="38.1110183" lon="12.7348233"><ele>46.33333333333333</ele><time>2026-03-25T09:08:18.522Z</time></trkpt><trkpt lat="38.1112283" lon="12.7347983"><ele>45.666666666666664</ele><time>2026-03-25T09:08:19.523Z</time></trkpt><trkpt lat="38.11144" lon="12.7347733"><ele>45.0</ele><time>2026-03-25T09:08:20.527Z</time></trkpt><trkpt lat="38.1116383" lon="12.7347483"><ele>44.666666666666664</ele><time>2026-03-25T09:08:21.52Z</time></trkpt><trkpt lat="38.11184" lon="12.7347267"><ele>44.33333333333333</ele><time>2026-03-25T09:08:22.52Z</time></trkpt><trkpt lat="38.1120483" lon="12.7347033"><ele>44.0</ele><time>2026-03-25T09:08:23.52Z</time></trkpt><trkpt lat="38.1122583" lon="12.7346767"><ele>44.0</ele><time>2026-03-25T09:08:24.523Z</time></trkpt><trkpt lat="38.1124733" lon="12.7346467"><ele>44.0</ele><time>2026-03-25T09:08:25.523Z</time></trkpt><trkpt lat="38.1126883" lon="12.7346217"><ele>44.0</ele><time>2026-03-25T09:08:26.522Z</time></trkpt><trkpt lat="38.112905" lon="12.734595"><ele>44.0</ele><time>2026-03-25T09:08:27.521Z</time></trkpt><trkpt lat="38.1131267" lon="12.734565"><ele>44.0</ele><time>2026-03-25T09:08:28.522Z</time></trkpt><trkpt lat="38.1133517" lon="12.734535"><ele>44.0</ele><time>2026-03-25T09:08:29.522Z</time></trkpt><trkpt lat="38.1135783" lon="12.73451"><ele>43.0</ele><time>2026-03-25T09:08:30.522Z</time></trkpt><trkpt lat="38.113805" lon="12.734485"><ele>42.0</ele><time>2026-03-25T09:08:31.521Z</time></trkpt><trkpt lat="38.1140283" lon="12.73446"><ele>41.333333333333336</ele><time>2026-03-25T09:08:32.523Z</time></trkpt><trkpt lat="38.1142433" lon="12.734435"><ele>40.66666666666667</ele><time>2026-03-25T09:08:33.52Z</time></trkpt><trkpt lat="38.1144433" lon="12.734415"><ele>40.0</ele><time>2026-03-25T09:08:34.522Z</time></trkpt><trkpt lat="38.11464" lon="12.7343917"><ele>39.333333333333336</ele><time>2026-03-25T09:08:35.525Z</time></trkpt><trkpt lat="38.1148433" lon="12.7343633"><ele>38.666666666666664</ele><time>2026-03-25T09:08:36.523Z</time></trkpt><trkpt lat="38.1150467" lon="12.7343333"><ele>38.0</ele><time>2026-03-25T09:08:37.522Z</time></trkpt><trkpt lat="38.1152533" lon="12.734305"><ele>38.0</ele><time>2026-03-25T09:08:38.526Z</time></trkpt><trkpt lat="38.1154567" lon="12.7342783"><ele>38.0</ele><time>2026-03-25T09:08:39.522Z</time></trkpt><trkpt lat="38.1156583" lon="12.734255"><ele>38.0</ele><time>2026-03-25T09:08:40.524Z</time></trkpt><trkpt lat="38.1158567" lon="12.7342333"><ele>37.33333333333333</ele><time>2026-03-25T09:08:41.523Z</time></trkpt><trkpt lat="38.1160517" lon="12.7342133"><ele>36.666666666666664</ele><time>2026-03-25T09:08:42.522Z</time></trkpt><trkpt lat="38.1162483" lon="12.734195"><ele>36.0</ele><time>2026-03-25T09:08:43.525Z</time></trkpt><trkpt lat="38.1164433" lon="12.734175"><ele>36.0</ele><time>2026-03-25T09:08:44.522Z</time></trkpt><trkpt lat="38.1166367" lon="12.734155"><ele>36.0</ele><time>2026-03-25T09:08:45.524Z</time></trkpt><trkpt lat="38.1168317" lon="12.73413"><ele>36.0</ele><time>2026-03-25T09:08:46.524Z</time></trkpt><trkpt lat="38.1170283" lon="12.7341083"><ele>36.0</ele><time>2026-03-25T09:08:47.521Z</time></trkpt><trkpt lat="38.1172283" lon="12.734085"><ele>36.0</ele><time>2026-03-25T09:08:48.522Z</time></trkpt><trkpt lat="38.1174283" lon="12.7340567"><ele>36.0</ele><time>2026-03-25T09:08:49.522Z</time></trkpt><trkpt lat="38.11763" lon="12.7340283"><ele>35.666666666666664</ele><time>2026-03-25T09:08:50.525Z</time></trkpt><trkpt lat="38.1178333" lon="12.734005"><ele>35.33333333333333</ele><time>2026-03-25T09:08:51.522Z</time></trkpt><trkpt lat="38.1180367" lon="12.73398"><ele>35.0</ele><time>2026-03-25T09:08:52.523Z</time></trkpt><trkpt lat="38.1182417" lon="12.733955"><ele>34.0</ele><time>2026-03-25T09:08:53.523Z</time></trkpt><trkpt lat="38.1184483" lon="12.73393"><ele>33.0</ele><time>2026-03-25T09:08:54.52Z</time></trkpt><trkpt lat="38.1186533" lon="12.7339067"><ele>32.0</ele><time>2026-03-25T09:08:55.521Z</time></trkpt><trkpt lat="38.11886" lon="12.7338817"><ele>31.0</ele><time>2026-03-25T09:08:56.521Z</time></trkpt><trkpt lat="38.1190683" lon="12.7338583"><ele>30.0</ele><time>2026-03-25T09:08:57.525Z</time></trkpt><trkpt lat="38.1192733" lon="12.7338333"><ele>29.0</ele><time>2026-03-25T09:08:58.525Z</time></trkpt><trkpt lat="38.11948" lon="12.7338067"><ele>29.0</ele><time>2026-03-25T09:08:59.52Z</time></trkpt><trkpt lat="38.119685" lon="12.7337783"><ele>29.0</ele><time>2026-03-25T09:09:00.525Z</time></trkpt><trkpt lat="38.1198917" lon="12.7337533"><ele>29.0</ele><time>2026-03-25T09:09:01.522Z</time></trkpt><trkpt lat="38.1200967" lon="12.7337267"><ele>28.666666666666664</ele><time>2026-03-25T09:09:02.524Z</time></trkpt><trkpt lat="38.1203017" lon="12.7336983"><ele>28.333333333333336</ele><time>2026-03-25T09:09:03.524Z</time></trkpt><trkpt lat="38.1205083" lon="12.7336733"><ele>28.0</ele><time>2026-03-25T09:09:04.523Z</time></trkpt><trkpt lat="38.1207133" lon="12.7336467"><ele>27.0</ele><time>2026-03-25T09:09:05.528Z</time></trkpt><trkpt lat="38.1209183" lon="12.73362"><ele>26.0</ele><time>2026-03-25T09:09:06.526Z</time></trkpt><trkpt lat="38.1211233" lon="12.733595"><ele>25.0</ele><time>2026-03-25T09:09:07.527Z</time></trkpt><trkpt lat="38.1213283" lon="12.73357"><ele>25.0</ele><time>2026-03-25T09:09:08.525Z</time></trkpt><trkpt lat="38.1215383" lon="12.733545"><ele>25.0</ele><time>2026-03-25T09:09:09.525Z</time></trkpt><trkpt lat="38.1217483" lon="12.7335167"><ele>25.0</ele><time>2026-03-25T09:09:10.523Z</time></trkpt><trkpt lat="38.1219617" lon="12.7334883"><ele>25.0</ele><time>2026-03-25T09:09:11.525Z</time></trkpt><trkpt lat="38.1221767" lon="12.73346"><ele>25.0</ele><time>2026-03-25T09:09:12.525Z</time></trkpt><trkpt lat="38.1223933" lon="12.7334317"><ele>25.0</ele><time>2026-03-25T09:09:13.522Z</time></trkpt><trkpt lat="38.1226117" lon="12.7334033"><ele>24.666666666666668</ele><time>2026-03-25T09:09:14.522Z</time></trkpt><trkpt lat="38.1228233" lon="12.733375"><ele>24.333333333333336</ele><time>2026-03-25T09:09:15.522Z</time></trkpt><trkpt lat="38.1230217" lon="12.7333517"><ele>24.0</ele><time>2026-03-25T09:09:16.524Z</time></trkpt><trkpt lat="38.1232067" lon="12.73333"><ele>24.333333333333336</ele><time>2026-03-25T09:09:17.526Z</time></trkpt><trkpt lat="38.1233817" lon="12.7333117"><ele>24.666666666666668</ele><time>2026-03-25T09:09:18.523Z</time></trkpt><trkpt lat="38.123545" lon="12.73329"><ele>25.0</ele><time>2026-03-25T09:09:19.52Z</time></trkpt><trkpt lat="38.1236983" lon="12.73327"><ele>25.0</ele><time>2026-03-25T09:09:20.528Z</time></trkpt><trkpt lat="38.1238483" lon="12.73325"><ele>25.0</ele><time>2026-03-25T09:09:21.52Z</time></trkpt><trkpt lat="38.1239967" lon="12.7332333"><ele>25.0</ele><time>2026-03-25T09:09:22.521Z</time></trkpt><trkpt lat="38.12415" lon="12.7332117"><ele>24.666666666666668</ele><time>2026-03-25T09:09:23.521Z</time></trkpt><trkpt lat="38.124315" lon="12.7331833"><ele>24.333333333333336</ele><time>2026-03-25T09:09:24.524Z</time></trkpt><trkpt lat="38.1244917" lon="12.733155"><ele>24.0</ele><time>2026-03-25T09:09:25.523Z</time></trkpt><trkpt lat="38.12468" lon="12.7331317"><ele>24.0</ele><time>2026-03-25T09:09:26.525Z</time></trkpt><trkpt lat="38.12488" lon="12.7331133"><ele>24.0</ele><time>2026-03-25T09:09:27.522Z</time></trkpt><trkpt lat="38.1250867" lon="12.7330967"><ele>24.0</ele><time>2026-03-25T09:09:28.52Z</time></trkpt><trkpt lat="38.1253017" lon="12.7330817"><ele>24.0</ele><time>2026-03-25T09:09:29.521Z</time></trkpt><trkpt lat="38.1255167" lon="12.7330567"><ele>24.0</ele><time>2026-03-25T09:09:30.52Z</time></trkpt><trkpt lat="38.12574" lon="12.73303"><ele>24.0</ele><time>2026-03-25T09:09:31.522Z</time></trkpt><trkpt lat="38.1259667" lon="12.7330017"><ele>24.0</ele><time>2026-03-25T09:09:32.526Z</time></trkpt><trkpt lat="38.126195" lon="12.73297"><ele>24.0</ele><time>2026-03-25T09:09:33.521Z</time></trkpt><trkpt lat="38.1264267" lon="12.7329383"><ele>23.5</ele><time>2026-03-25T09:09:34.521Z</time></trkpt><trkpt lat="38.126665" lon="12.73291"><ele>23.0</ele><time>2026-03-25T09:09:35.521Z</time></trkpt><trkpt lat="38.1269033" lon="12.7328817"><ele>23.0</ele><time>2026-03-25T09:09:36.523Z</time></trkpt><trkpt lat="38.127145" lon="12.732855"><ele>23.0</ele><time>2026-03-25T09:09:37.522Z</time></trkpt><trkpt lat="38.12739" lon="12.7328233"><ele>22.5</ele><time>2026-03-25T09:09:38.524Z</time></trkpt><trkpt lat="38.1276383" lon="12.7327917"><ele>22.0</ele><time>2026-03-25T09:09:39.524Z</time></trkpt><trkpt lat="38.127895" lon="12.73276"><ele>22.0</ele><time>2026-03-25T09:09:40.522Z</time></trkpt><trkpt lat="38.1281417" lon="12.73273"><ele>22.0</ele><time>2026-03-25T09:09:41.522Z</time></trkpt><trkpt lat="38.12838" lon="12.7327017"><ele>20.5</ele><time>2026-03-25T09:09:42.525Z</time></trkpt><trkpt lat="38.128615" lon="12.7326717"><ele>19.0</ele><time>2026-03-25T09:09:43.523Z</time></trkpt><trkpt lat="38.1288417" lon="12.7326417"><ele>19.0</ele><time>2026-03-25T09:09:44.522Z</time></trkpt><trkpt lat="38.1290533" lon="12.7326167"><ele>19.0</ele><time>2026-03-25T09:09:45.521Z</time></trkpt><trkpt lat="38.1292583" lon="12.7325983"><ele>19.0</ele><time>2026-03-25T09:09:46.522Z</time></trkpt><trkpt lat="38.1294667" lon="12.7325833"><ele>19.666666666666664</ele><time>2026-03-25T09:09:47.52Z</time></trkpt><trkpt lat="38.12968" lon="12.7325817"><ele>20.333333333333332</ele><time>2026-03-25T09:09:48.521Z</time></trkpt><trkpt lat="38.129895" lon="12.732595"><ele>21.0</ele><time>2026-03-25T09:09:49.522Z</time></trkpt><trkpt lat="38.1301133" lon="12.7326283"><ele>21.666666666666668</ele><time>2026-03-25T09:09:50.523Z</time></trkpt><trkpt lat="38.1303317" lon="12.7326767"><ele>22.333333333333336</ele><time>2026-03-25T09:09:51.523Z</time></trkpt><trkpt lat="38.1305433" lon="12.7327367"><ele>23.0</ele><time>2026-03-25T09:09:52.523Z</time></trkpt><trkpt lat="38.1307417" lon="12.7328"><ele>24.333333333333336</ele><time>2026-03-25T09:09:53.523Z</time></trkpt><trkpt lat="38.1309367" lon="12.7328667"><ele>25.666666666666668</ele><time>2026-03-25T09:09:54.522Z</time></trkpt><trkpt lat="38.1311333" lon="12.732935"><ele>27.0</ele><time>2026-03-25T09:09:55.52Z</time></trkpt><trkpt lat="38.13133" lon="12.73301"><ele>27.0</ele><time>2026-03-25T09:09:56.521Z</time></trkpt><trkpt lat="38.131525" lon="12.733095"><ele>27.0</ele><time>2026-03-25T09:09:57.521Z</time></trkpt><trkpt lat="38.1317183" lon="12.7331917"><ele>27.0</ele><time>2026-03-25T09:09:58.522Z</time></trkpt><trkpt lat="38.1319083" lon="12.7332967"><ele>27.0</ele><time>2026-03-25T09:09:59.52Z</time></trkpt><trkpt lat="38.1320967" lon="12.7334067"><ele>27.0</ele><time>2026-03-25T09:10:00.522Z</time></trkpt><trkpt lat="38.1322783" lon="12.7335117"><ele>27.0</ele><time>2026-03-25T09:10:01.524Z</time></trkpt><trkpt lat="38.13245" lon="12.73361"><ele>27.0</ele><time>2026-03-25T09:10:02.524Z</time></trkpt><trkpt lat="38.1326133" lon="12.733705"><ele>27.0</ele><time>2026-03-25T09:10:03.521Z</time></trkpt><trkpt lat="38.13277" lon="12.7338"><ele>27.0</ele><time>2026-03-25T09:10:04.52Z</time></trkpt><trkpt lat="38.1329283" lon="12.733895"><ele>27.0</ele><time>2026-03-25T09:10:05.524Z</time></trkpt><trkpt lat="38.133085" lon="12.7339967"><ele>27.0</ele><time>2026-03-25T09:10:06.522Z</time></trkpt><trkpt lat="38.1332417" lon="12.73411"><ele>27.0</ele><time>2026-03-25T09:10:07.52Z</time></trkpt><trkpt lat="38.1333983" lon="12.73424"><ele>26.666666666666664</ele><time>2026-03-25T09:10:08.524Z</time></trkpt><trkpt lat="38.1335533" lon="12.7343817"><ele>26.333333333333332</ele><time>2026-03-25T09:10:09.521Z</time></trkpt><trkpt lat="38.1337067" lon="12.7345433"><ele>26.0</ele><time>2026-03-25T09:10:10.523Z</time></trkpt><trkpt lat="38.1338583" lon="12.7347167"><ele>26.0</ele><time>2026-03-25T09:10:11.521Z</time></trkpt><trkpt lat="38.1340117" lon="12.7348883"><ele>26.0</ele><time>2026-03-25T09:10:12.521Z</time></trkpt><trkpt lat="38.1341667" lon="12.7350583"><ele>26.0</ele><time>2026-03-25T09:10:13.521Z</time></trkpt><trkpt lat="38.134315" lon="12.7352317"><ele>26.0</ele><time>2026-03-25T09:10:14.52Z</time></trkpt><trkpt lat="38.1344633" lon="12.735405"><ele>26.0</ele><time>2026-03-25T09:10:15.522Z</time></trkpt><trkpt lat="38.134605" lon="12.7355717"><ele>26.0</ele><time>2026-03-25T09:10:16.525Z</time></trkpt><trkpt lat="38.1347433" lon="12.73573"><ele>26.0</ele><time>2026-03-25T09:10:17.52Z</time></trkpt><trkpt lat="38.1348767" lon="12.7358833"><ele>26.0</ele><time>2026-03-25T09:10:18.521Z</time></trkpt><trkpt lat="38.13501" lon="12.7360317"><ele>26.0</ele><time>2026-03-25T09:10:19.521Z</time></trkpt><trkpt lat="38.1351417" lon="12.7361817"><ele>25.666666666666664</ele><time>2026-03-25T09:10:20.528Z</time></trkpt><trkpt lat="38.1352717" lon="12.73633"><ele>25.333333333333336</ele><time>2026-03-25T09:10:21.524Z</time></trkpt><trkpt lat="38.1354033" lon="12.736475"><ele>25.0</ele><time>2026-03-25T09:10:22.522Z</time></trkpt><trkpt lat="38.135535" lon="12.7366283"><ele>25.0</ele><time>2026-03-25T09:10:23.525Z</time></trkpt><trkpt lat="38.1356667" lon="12.73678"><ele>25.0</ele><time>2026-03-25T09:10:24.522Z</time></trkpt><trkpt lat="38.1357983" lon="12.7369367"><ele>25.0</ele><time>2026-03-25T09:10:25.526Z</time></trkpt><trkpt lat="38.1359283" lon="12.7370917"><ele>24.0</ele><time>2026-03-25T09:10:26.522Z</time></trkpt><trkpt lat="38.13606" lon="12.7372483"><ele>23.0</ele><time>2026-03-25T09:10:27.522Z</time></trkpt><trkpt lat="38.1361933" lon="12.737405"><ele>22.0</ele><time>2026-03-25T09:10:28.522Z</time></trkpt><trkpt lat="38.1363233" lon="12.737555"><ele>22.0</ele><time>2026-03-25T09:10:29.522Z</time></trkpt><trkpt lat="38.13645" lon="12.7377033"><ele>22.0</ele><time>2026-03-25T09:10:30.523Z</time></trkpt><trkpt lat="38.136575" lon="12.73785"><ele>22.0</ele><time>2026-03-25T09:10:31.521Z</time></trkpt><trkpt lat="38.1367033" lon="12.7379967"><ele>22.0</ele><time>2026-03-25T09:10:32.525Z</time></trkpt><trkpt lat="38.13683" lon="12.7381467"><ele>22.0</ele><time>2026-03-25T09:10:33.523Z</time></trkpt><trkpt lat="38.13696" lon="12.738295"><ele>22.0</ele><time>2026-03-25T09:10:34.525Z</time></trkpt><trkpt lat="38.13709" lon="12.738445"><ele>23.0</ele><time>2026-03-25T09:10:35.521Z</time></trkpt><trkpt lat="38.1372217" lon="12.7385933"><ele>24.0</ele><time>2026-03-25T09:10:36.524Z</time></trkpt><trkpt lat="38.1373517" lon="12.7387383"><ele>25.0</ele><time>2026-03-25T09:10:37.52Z</time></trkpt><trkpt lat="38.1374833" lon="12.7388833"><ele>25.0</ele><time>2026-03-25T09:10:38.524Z</time></trkpt><trkpt lat="38.1376217" lon="12.7390167"><ele>25.0</ele><time>2026-03-25T09:10:39.521Z</time></trkpt><trkpt lat="38.1377667" lon="12.7391333"><ele>25.0</ele><time>2026-03-25T09:10:40.524Z</time></trkpt><trkpt lat="38.1379117" lon="12.7392367"><ele>25.0</ele><time>2026-03-25T09:10:41.521Z</time></trkpt><trkpt lat="38.1380667" lon="12.73932"><ele>25.0</ele><time>2026-03-25T09:10:42.522Z</time></trkpt><trkpt lat="38.13823" lon="12.7393783"><ele>25.0</ele><time>2026-03-25T09:10:43.522Z</time></trkpt><trkpt lat="38.1384" lon="12.739415"><ele>29.0</ele><time>2026-03-25T09:10:44.526Z</time></trkpt><trkpt lat="38.13857" lon="12.739435"><ele>33.0</ele><time>2026-03-25T09:10:45.52Z</time></trkpt><trkpt lat="38.1387317" lon="12.7394483"><ele>37.0</ele><time>2026-03-25T09:10:46.521Z</time></trkpt><trkpt lat="38.1388917" lon="12.7394617"><ele>37.0</ele><time>2026-03-25T09:10:47.52Z</time></trkpt><trkpt lat="38.13905" lon="12.7394783"><ele>37.0</ele><time>2026-03-25T09:10:48.524Z</time></trkpt><trkpt lat="38.1392033" lon="12.7394817"><ele>37.0</ele><time>2026-03-25T09:10:49.524Z</time></trkpt><trkpt lat="38.139355" lon="12.7394583"><ele>37.0</ele><time>2026-03-25T09:10:50.522Z</time></trkpt><trkpt lat="38.1395117" lon="12.739405"><ele>37.0</ele><time>2026-03-25T09:10:51.524Z</time></trkpt><trkpt lat="38.1396717" lon="12.7393217"><ele>37.0</ele><time>2026-03-25T09:10:52.522Z</time></trkpt><trkpt lat="38.1398183" lon="12.7392317"><ele>36.5</ele><time>2026-03-25T09:10:53.527Z</time></trkpt><trkpt lat="38.1399517" lon="12.7391467"><ele>36.0</ele><time>2026-03-25T09:10:54.522Z</time></trkpt><trkpt lat="38.1400733" lon="12.7390717"><ele>35.5</ele><time>2026-03-25T09:10:55.523Z</time></trkpt><trkpt lat="38.1401867" lon="12.7389967"><ele>35.0</ele><time>2026-03-25T09:10:56.524Z</time></trkpt><trkpt lat="38.1403067" lon="12.7389167"><ele>35.0</ele><time>2026-03-25T09:10:57.522Z</time></trkpt><trkpt lat="38.140425" lon="12.7388383"><ele>35.0</ele><time>2026-03-25T09:10:58.523Z</time></trkpt><trkpt lat="38.14054" lon="12.73877"><ele>35.0</ele><time>2026-03-25T09:10:59.524Z</time></trkpt><trkpt lat="38.1406533" lon="12.7387117"><ele>35.0</ele><time>2026-03-25T09:11:00.525Z</time></trkpt><trkpt lat="38.140775" lon="12.7386767"><ele>40.25</ele><time>2026-03-25T09:11:01.521Z</time></trkpt><trkpt lat="38.1409017" lon="12.7386617"><ele>45.5</ele><time>2026-03-25T09:11:02.52Z</time></trkpt><trkpt lat="38.1410333" lon="12.7386717"><ele>50.75</ele><time>2026-03-25T09:11:03.522Z</time></trkpt><trkpt lat="38.1411667" lon="12.7387067"><ele>56.0</ele><time>2026-03-25T09:11:04.523Z</time></trkpt><trkpt lat="38.1413017" lon="12.7387667"><ele>56.0</ele><time>2026-03-25T09:11:05.524Z</time></trkpt><trkpt lat="38.14144" lon="12.7388467"><ele>56.0</ele><time>2026-03-25T09:11:06.521Z</time></trkpt><trkpt lat="38.1415783" lon="12.7389283"><ele>56.0</ele><time>2026-03-25T09:11:07.521Z</time></trkpt><trkpt lat="38.1417167" lon="12.7390083"><ele>56.0</ele><time>2026-03-25T09:11:08.522Z</time></trkpt><trkpt lat="38.141855" lon="12.7390867"><ele>56.0</ele><time>2026-03-25T09:11:09.525Z</time></trkpt><trkpt lat="38.1419917" lon="12.7391683"><ele>56.0</ele><time>2026-03-25T09:11:10.523Z</time></trkpt><trkpt lat="38.1421317" lon="12.739245"><ele>56.0</ele><time>2026-03-25T09:11:11.52Z</time></trkpt><trkpt lat="38.1422683" lon="12.7393217"><ele>56.0</ele><time>2026-03-25T09:11:12.524Z</time></trkpt><trkpt lat="38.1424083" lon="12.7393933"><ele>56.0</ele><time>2026-03-25T09:11:13.521Z</time></trkpt><trkpt lat="38.1425467" lon="12.73946"><ele>56.0</ele><time>2026-03-25T09:11:14.521Z</time></trkpt><trkpt lat="38.1426867" lon="12.7395183"><ele>57.75</ele><time>2026-03-25T09:11:15.522Z</time></trkpt><trkpt lat="38.1428283" lon="12.7395733"><ele>59.5</ele><time>2026-03-25T09:11:16.526Z</time></trkpt><trkpt lat="38.1429667" lon="12.7396233"><ele>61.25</ele><time>2026-03-25T09:11:17.521Z</time></trkpt><trkpt lat="38.1430967" lon="12.73967"><ele>63.0</ele><time>2026-03-25T09:11:18.522Z</time></trkpt><trkpt lat="38.143225" lon="12.73972"><ele>63.0</ele><time>2026-03-25T09:11:19.526Z</time></trkpt><trkpt lat="38.1433517" lon="12.7397667"><ele>63.0</ele><time>2026-03-25T09:11:20.525Z</time></trkpt><trkpt lat="38.1434767" lon="12.7398167"><ele>63.0</ele><time>2026-03-25T09:11:21.525Z</time></trkpt><trkpt lat="38.1435983" lon="12.7398717"><ele>63.0</ele><time>2026-03-25T09:11:22.524Z</time></trkpt><trkpt lat="38.14372" lon="12.7399333"><ele>63.0</ele><time>2026-03-25T09:11:23.521Z</time></trkpt><trkpt lat="38.1438433" lon="12.7399983"><ele>63.0</ele><time>2026-03-25T09:11:24.527Z</time></trkpt><trkpt lat="38.1439683" lon="12.7400667"><ele>63.0</ele><time>2026-03-25T09:11:25.523Z</time></trkpt><trkpt lat="38.1440967" lon="12.74014"><ele>63.0</ele><time>2026-03-25T09:11:26.522Z</time></trkpt><trkpt lat="38.1442233" lon="12.740215"><ele>66.5</ele><time>2026-03-25T09:11:27.522Z</time></trkpt><trkpt lat="38.1443483" lon="12.74029"><ele>70.0</ele><time>2026-03-25T09:11:28.525Z</time></trkpt><trkpt lat="38.1444733" lon="12.7403583"><ele>73.5</ele><time>2026-03-25T09:11:29.52Z</time></trkpt><trkpt lat="38.1445983" lon="12.7404117"><ele>77.0</ele><time>2026-03-25T09:11:30.523Z</time></trkpt><trkpt lat="38.1447267" lon="12.74045"><ele>77.0</ele><time>2026-03-25T09:11:31.522Z</time></trkpt><trkpt lat="38.1448583" lon="12.74047"><ele>77.0</ele><time>2026-03-25T09:11:32.522Z</time></trkpt><trkpt lat="38.1449933" lon="12.74047"><ele>77.0</ele><time>2026-03-25T09:11:33.525Z</time></trkpt><trkpt lat="38.1451317" lon="12.7404533"><ele>77.0</ele><time>2026-03-25T09:11:34.522Z</time></trkpt><trkpt lat="38.1452717" lon="12.74042"><ele>77.25</ele><time>2026-03-25T09:11:35.522Z</time></trkpt><trkpt lat="38.1454133" lon="12.7403683"><ele>77.5</ele><time>2026-03-25T09:11:36.528Z</time></trkpt><trkpt lat="38.14555" lon="12.74031"><ele>77.75</ele><time>2026-03-25T09:11:37.522Z</time></trkpt><trkpt lat="38.145685" lon="12.740245"><ele>78.0</ele><time>2026-03-25T09:11:38.522Z</time></trkpt><trkpt lat="38.14595" lon="12.74012"><ele>78.0</ele><time>2026-03-25T09:11:40.521Z</time></trkpt><trkpt lat="38.1460833" lon="12.74006"><ele>78.0</ele><time>2026-03-25T09:11:41.523Z</time></trkpt><trkpt lat="38.1462117" lon="12.7400017"><ele>78.0</ele><time>2026-03-25T09:11:42.521Z</time></trkpt><trkpt lat="38.14634" lon="12.7399417"><ele>78.0</ele><time>2026-03-25T09:11:43.522Z</time></trkpt><trkpt lat="38.1464667" lon="12.73988"><ele>79.5</ele><time>2026-03-25T09:11:44.523Z</time></trkpt><trkpt lat="38.1466" lon="12.7398167"><ele>81.0</ele><time>2026-03-25T09:11:45.524Z</time></trkpt><trkpt lat="38.1467333" lon="12.7397517"><ele>82.5</ele><time>2026-03-25T09:11:46.521Z</time></trkpt><trkpt lat="38.14687" lon="12.739685"><ele>84.0</ele><time>2026-03-25T09:11:47.52Z</time></trkpt><trkpt lat="38.147005" lon="12.73962"><ele>84.0</ele><time>2026-03-25T09:11:48.523Z</time></trkpt><trkpt lat="38.1471433" lon="12.739565"><ele>84.0</ele><time>2026-03-25T09:11:49.52Z</time></trkpt><trkpt lat="38.1472833" lon="12.7395067"><ele>84.0</ele><time>2026-03-25T09:11:50.523Z</time></trkpt><trkpt lat="38.1474283" lon="12.7394533"><ele>84.0</ele><time>2026-03-25T09:11:51.52Z</time></trkpt><trkpt lat="38.147575" lon="12.739405"><ele>84.66666666666667</ele><time>2026-03-25T09:11:52.524Z</time></trkpt><trkpt lat="38.1477267" lon="12.73936"><ele>85.33333333333334</ele><time>2026-03-25T09:11:53.524Z</time></trkpt><trkpt lat="38.147875" lon="12.7393183"><ele>86.0</ele><time>2026-03-25T09:11:54.524Z</time></trkpt><trkpt lat="38.1480217" lon="12.7392733"><ele>86.0</ele><time>2026-03-25T09:11:55.525Z</time></trkpt><trkpt lat="38.1481683" lon="12.7392283"><ele>86.0</ele><time>2026-03-25T09:11:56.523Z</time></trkpt><trkpt lat="38.1483083" lon="12.739185"><ele>86.0</ele><time>2026-03-25T09:11:57.52Z</time></trkpt><trkpt lat="38.14844" lon="12.7391483"><ele>86.0</ele><time>2026-03-25T09:11:58.522Z</time></trkpt><trkpt lat="38.1485683" lon="12.7391117"><ele>86.0</ele><time>2026-03-25T09:11:59.522Z</time></trkpt><trkpt lat="38.148695" lon="12.739075"><ele>86.0</ele><time>2026-03-25T09:12:00.52Z</time></trkpt><trkpt lat="38.148815" lon="12.73904"><ele>86.0</ele><time>2026-03-25T09:12:01.521Z</time></trkpt><trkpt lat="38.14894" lon="12.739005"><ele>86.0</ele><time>2026-03-25T09:12:02.523Z</time></trkpt><trkpt lat="38.14907" lon="12.7389683"><ele>86.0</ele><time>2026-03-25T09:12:03.522Z</time></trkpt><trkpt lat="38.14921" lon="12.7389283"><ele>86.0</ele><time>2026-03-25T09:12:04.519Z</time></trkpt><trkpt lat="38.1493533" lon="12.738885"><ele>86.0</ele><time>2026-03-25T09:12:05.52Z</time></trkpt><trkpt lat="38.1494983" lon="12.738835"><ele>86.0</ele><time>2026-03-25T09:12:06.522Z</time></trkpt><trkpt lat="38.149635" lon="12.738785"><ele>86.0</ele><time>2026-03-25T09:12:07.521Z</time></trkpt><trkpt lat="38.1497683" lon="12.7387367"><ele>86.0</ele><time>2026-03-25T09:12:08.523Z</time></trkpt><trkpt lat="38.1499033" lon="12.738685"><ele>86.0</ele><time>2026-03-25T09:12:09.523Z</time></trkpt><trkpt lat="38.1500367" lon="12.7386333"><ele>86.0</ele><time>2026-03-25T09:12:10.524Z</time></trkpt><trkpt lat="38.1501683" lon="12.73858"><ele>86.0</ele><time>2026-03-25T09:12:11.523Z</time></trkpt><trkpt lat="38.1503" lon="12.7385233"><ele>86.0</ele><time>2026-03-25T09:12:12.52Z</time></trkpt><trkpt lat="38.1504317" lon="12.7384717"><ele>86.0</ele><time>2026-03-25T09:12:13.525Z</time></trkpt><trkpt lat="38.150565" lon="12.73842"><ele>86.0</ele><time>2026-03-25T09:12:14.524Z</time></trkpt><trkpt lat="38.1506967" lon="12.7383667"><ele>84.75</ele><time>2026-03-25T09:12:15.521Z</time></trkpt><trkpt lat="38.1508317" lon="12.7383133"><ele>83.5</ele><time>2026-03-25T09:12:16.526Z</time></trkpt><trkpt lat="38.1509667" lon="12.7382567"><ele>82.25</ele><time>2026-03-25T09:12:17.522Z</time></trkpt><trkpt lat="38.1511017" lon="12.7382017"><ele>81.0</ele><time>2026-03-25T09:12:18.522Z</time></trkpt><trkpt lat="38.1512367" lon="12.7381483"><ele>81.0</ele><time>2026-03-25T09:12:19.52Z</time></trkpt><trkpt lat="38.1513717" lon="12.73809"><ele>81.0</ele><time>2026-03-25T09:12:20.525Z</time></trkpt><trkpt lat="38.151505" lon="12.7380333"><ele>81.0</ele><time>2026-03-25T09:12:21.522Z</time></trkpt><trkpt lat="38.1516367" lon="12.7379767"><ele>81.0</ele><time>2026-03-25T09:12:22.521Z</time></trkpt><trkpt lat="38.15177" lon="12.7379233"><ele>81.0</ele><time>2026-03-25T09:12:23.522Z</time></trkpt><trkpt lat="38.151905" lon="12.73787"><ele>81.0</ele><time>2026-03-25T09:12:24.523Z</time></trkpt><trkpt lat="38.15204" lon="12.7378167"><ele>81.0</ele><time>2026-03-25T09:12:25.523Z</time></trkpt><trkpt lat="38.1521717" lon="12.7377617"><ele>81.0</ele><time>2026-03-25T09:12:26.525Z</time></trkpt><trkpt lat="38.152305" lon="12.7377083"><ele>80.5</ele><time>2026-03-25T09:12:27.52Z</time></trkpt><trkpt lat="38.1524417" lon="12.7376567"><ele>80.0</ele><time>2026-03-25T09:12:28.524Z</time></trkpt><trkpt lat="38.15258" lon="12.737605"><ele>79.5</ele><time>2026-03-25T09:12:29.522Z</time></trkpt><trkpt lat="38.1527217" lon="12.73756"><ele>79.0</ele><time>2026-03-25T09:12:30.52Z</time></trkpt><trkpt lat="38.15286" lon="12.737525"><ele>79.0</ele><time>2026-03-25T09:12:31.521Z</time></trkpt><trkpt lat="38.1529983" lon="12.7374983"><ele>79.0</ele><time>2026-03-25T09:12:32.524Z</time></trkpt><trkpt lat="38.1531333" lon="12.7374767"><ele>79.0</ele><time>2026-03-25T09:12:33.521Z</time></trkpt><trkpt lat="38.153265" lon="12.7374667"><ele>79.0</ele><time>2026-03-25T09:12:34.523Z</time></trkpt><trkpt lat="38.1533917" lon="12.7374633"><ele>79.2</ele><time>2026-03-25T09:12:35.523Z</time></trkpt><trkpt lat="38.1535083" lon="12.7374617"><ele>79.4</ele><time>2026-03-25T09:12:36.522Z</time></trkpt><trkpt lat="38.15362" lon="12.7374633"><ele>79.6</ele><time>2026-03-25T09:12:37.521Z</time></trkpt><trkpt lat="38.1537233" lon="12.7374683"><ele>79.8</ele><time>2026-03-25T09:12:38.526Z</time></trkpt><trkpt lat="38.1538267" lon="12.737475"><ele>80.0</ele><time>2026-03-25T09:12:39.52Z</time></trkpt><trkpt lat="38.153925" lon="12.7374817"><ele>80.0</ele><time>2026-03-25T09:12:40.523Z</time></trkpt><trkpt lat="38.1540133" lon="12.7374867"><ele>80.0</ele><time>2026-03-25T09:12:41.519Z</time></trkpt><trkpt lat="38.1540883" lon="12.73749"><ele>80.0</ele><time>2026-03-25T09:12:42.523Z</time></trkpt><trkpt lat="38.1541567" lon="12.7374933"><ele>80.0</ele><time>2026-03-25T09:12:43.523Z</time></trkpt><trkpt lat="38.1542667" lon="12.737495"><ele>80.0</ele><time>2026-03-25T09:12:45.521Z</time></trkpt><trkpt lat="38.15438" lon="12.7375017"><ele>80.0</ele><time>2026-03-25T09:12:55.522Z</time></trkpt><trkpt lat="38.1544767" lon="12.737505"><ele>80.0</ele><time>2026-03-25T09:12:57.525Z</time></trkpt><trkpt lat="38.1545883" lon="12.73751"><ele>80.0</ele><time>2026-03-25T09:12:59.52Z</time></trkpt><trkpt lat="38.1546967" lon="12.7375267"><ele>80.0</ele><time>2026-03-25T09:13:01.523Z</time></trkpt><trkpt lat="38.1548067" lon="12.7375333"><ele>80.0</ele><time>2026-03-25T09:13:03.521Z</time></trkpt><trkpt lat="38.1548833" lon="12.7375417"><ele>79.2</ele><time>2026-03-25T09:13:05.524Z</time></trkpt><trkpt lat="38.154995" lon="12.7375417"><ele>78.4</ele><time>2026-03-25T09:14:15.525Z</time></trkpt><trkpt lat="38.1550883" lon="12.737535"><ele>77.6</ele><time>2026-03-25T09:14:17.524Z</time></trkpt><trkpt lat="38.1552067" lon="12.73753"><ele>76.8</ele><time>2026-03-25T09:14:19.522Z</time></trkpt><trkpt lat="38.1552733" lon="12.7375267"><ele>76.0</ele><time>2026-03-25T09:14:20.525Z</time></trkpt><trkpt lat="38.1553417" lon="12.737525"><ele>76.0</ele><time>2026-03-25T09:14:21.52Z</time></trkpt><trkpt lat="38.15541" lon="12.7375267"><ele>76.0</ele><time>2026-03-25T09:14:22.522Z</time></trkpt><trkpt lat="38.15548" lon="12.7375283"><ele>76.0</ele><time>2026-03-25T09:14:23.524Z</time></trkpt><trkpt lat="38.1555533" lon="12.7375317"><ele>76.0</ele><time>2026-03-25T09:14:24.524Z</time></trkpt><trkpt lat="38.15563" lon="12.737535"><ele>76.0</ele><time>2026-03-25T09:14:25.521Z</time></trkpt><trkpt lat="38.1557033" lon="12.73754"><ele>76.0</ele><time>2026-03-25T09:14:26.523Z</time></trkpt><trkpt lat="38.1557733" lon="12.7375467"><ele>76.0</ele><time>2026-03-25T09:14:27.525Z</time></trkpt><trkpt lat="38.1558383" lon="12.737555"><ele>75.0</ele><time>2026-03-25T09:14:28.522Z</time></trkpt><trkpt lat="38.1559617" lon="12.7375783"><ele>74.0</ele><time>2026-03-25T09:14:30.522Z</time></trkpt><trkpt lat="38.1560267" lon="12.7375883"><ele>73.0</ele><time>2026-03-25T09:14:31.525Z</time></trkpt><trkpt lat="38.1561017" lon="12.7375967"><ele>72.0</ele><time>2026-03-25T09:14:32.529Z</time></trkpt><trkpt lat="38.1561767" lon="12.7376033"><ele>71.0</ele><time>2026-03-25T09:14:33.525Z</time></trkpt><trkpt lat="38.1562433" lon="12.7376033"><ele>70.0</ele><time>2026-03-25T09:14:34.524Z</time></trkpt><trkpt lat="38.1563567" lon="12.7376083"><ele>70.0</ele><time>2026-03-25T09:14:36.523Z</time></trkpt><trkpt lat="38.1564883" lon="12.73761"><ele>70.0</ele><time>2026-03-25T09:14:38.523Z</time></trkpt><trkpt lat="38.1565717" lon="12.7376183"><ele>70.0</ele><time>2026-03-25T09:14:39.521Z</time></trkpt><trkpt lat="38.1566667" lon="12.737625"><ele>70.0</ele><time>2026-03-25T09:14:40.526Z</time></trkpt><trkpt lat="38.1567667" lon="12.7376233"><ele>70.0</ele><time>2026-03-25T09:14:41.523Z</time></trkpt><trkpt lat="38.1568767" lon="12.7376217"><ele>69.5</ele><time>2026-03-25T09:14:42.526Z</time></trkpt><trkpt lat="38.1569883" lon="12.7376217"><ele>69.0</ele><time>2026-03-25T09:14:43.527Z</time></trkpt><trkpt lat="38.157095" lon="12.737625"><ele>68.5</ele><time>2026-03-25T09:14:44.524Z</time></trkpt><trkpt lat="38.15721" lon="12.7376283"><ele>68.0</ele><time>2026-03-25T09:14:45.525Z</time></trkpt><trkpt lat="38.1573333" lon="12.7376417"><ele>67.25</ele><time>2026-03-25T09:14:46.525Z</time></trkpt><trkpt lat="38.1574583" lon="12.7376517"><ele>66.5</ele><time>2026-03-25T09:14:47.523Z</time></trkpt><trkpt lat="38.1575867" lon="12.7376583"><ele>65.75</ele><time>2026-03-25T09:14:48.523Z</time></trkpt><trkpt lat="38.1577133" lon="12.7376583"><ele>65.0</ele><time>2026-03-25T09:14:49.522Z</time></trkpt><trkpt lat="38.1578367" lon="12.737655"><ele>65.0</ele><time>2026-03-25T09:14:50.523Z</time></trkpt><trkpt lat="38.1579583" lon="12.73764"><ele>65.0</ele><time>2026-03-25T09:14:51.524Z</time></trkpt><trkpt lat="38.1580817" lon="12.7376233"><ele>65.0</ele><time>2026-03-25T09:14:52.527Z</time></trkpt><trkpt lat="38.1581983" lon="12.737605"><ele>65.0</ele><time>2026-03-25T09:14:53.52Z</time></trkpt><trkpt lat="38.1583117" lon="12.7375767"><ele>63.5</ele><time>2026-03-25T09:14:54.522Z</time></trkpt><trkpt lat="38.1584283" lon="12.73755"><ele>62.0</ele><time>2026-03-25T09:14:55.523Z</time></trkpt><trkpt lat="38.1585383" lon="12.737525"><ele>60.5</ele><time>2026-03-25T09:14:56.526Z</time></trkpt><trkpt lat="38.1586517" lon="12.7375033"><ele>59.0</ele><time>2026-03-25T09:14:57.53Z</time></trkpt><trkpt lat="38.1587667" lon="12.7374833"><ele>59.0</ele><time>2026-03-25T09:14:58.524Z</time></trkpt><trkpt lat="38.1588783" lon="12.7374583"><ele>59.00000000000001</ele><time>2026-03-25T09:14:59.522Z</time></trkpt><trkpt lat="38.1589867" lon="12.7374383"><ele>59.00000000000001</ele><time>2026-03-25T09:15:00.524Z</time></trkpt><trkpt lat="38.15909" lon="12.7374133"><ele>59.0</ele><time>2026-03-25T09:15:01.524Z</time></trkpt><trkpt lat="38.1591933" lon="12.7373967"><ele>59.0</ele><time>2026-03-25T09:15:02.525Z</time></trkpt><trkpt lat="38.1592917" lon="12.7373783"><ele>58.5</ele><time>2026-03-25T09:15:03.524Z</time></trkpt><trkpt lat="38.15939" lon="12.7373583"><ele>58.0</ele><time>2026-03-25T09:15:04.524Z</time></trkpt><trkpt lat="38.1594933" lon="12.7373317"><ele>57.5</ele><time>2026-03-25T09:15:05.524Z</time></trkpt><trkpt lat="38.15961" lon="12.7373017"><ele>57.0</ele><time>2026-03-25T09:15:06.527Z</time></trkpt><trkpt lat="38.1597417" lon="12.73727"><ele>55.33333333333333</ele><time>2026-03-25T09:15:07.524Z</time></trkpt><trkpt lat="38.1598833" lon="12.7372383"><ele>53.666666666666664</ele><time>2026-03-25T09:15:08.524Z</time></trkpt><trkpt lat="38.160035" lon="12.7372"><ele>52.0</ele><time>2026-03-25T09:15:09.521Z</time></trkpt><trkpt lat="38.1601933" lon="12.737155"><ele>52.0</ele><time>2026-03-25T09:15:10.522Z</time></trkpt><trkpt lat="38.160365" lon="12.737105"><ele>52.0</ele><time>2026-03-25T09:15:11.52Z</time></trkpt><trkpt lat="38.1605467" lon="12.7370567"><ele>52.0</ele><time>2026-03-25T09:15:12.522Z</time></trkpt><trkpt lat="38.16073" lon="12.7370067"><ele>51.33333333333333</ele><time>2026-03-25T09:15:13.522Z</time></trkpt><trkpt lat="38.160925" lon="12.73695"><ele>50.66666666666667</ele><time>2026-03-25T09:15:14.524Z</time></trkpt><trkpt lat="38.1611267" lon="12.7368917"><ele>50.0</ele><time>2026-03-25T09:15:15.525Z</time></trkpt><trkpt lat="38.1613333" lon="12.736835"><ele>48.0</ele><time>2026-03-25T09:15:16.522Z</time></trkpt><trkpt lat="38.1615433" lon="12.73678"><ele>46.0</ele><time>2026-03-25T09:15:17.53Z</time></trkpt><trkpt lat="38.1617533" lon="12.7367233"><ele>44.0</ele><time>2026-03-25T09:15:18.519Z</time></trkpt><trkpt lat="38.1619567" lon="12.7366683"><ele>44.0</ele><time>2026-03-25T09:15:19.522Z</time></trkpt><trkpt lat="38.1621567" lon="12.7366133"><ele>44.0</ele><time>2026-03-25T09:15:20.519Z</time></trkpt><trkpt lat="38.1623583" lon="12.73656"><ele>44.0</ele><time>2026-03-25T09:15:21.524Z</time></trkpt><trkpt lat="38.1625667" lon="12.73651"><ele>43.33333333333333</ele><time>2026-03-25T09:15:22.518Z</time></trkpt><trkpt lat="38.1627783" lon="12.736455"><ele>42.666666666666664</ele><time>2026-03-25T09:15:23.52Z</time></trkpt><trkpt lat="38.1629917" lon="12.7363967"><ele>42.0</ele><time>2026-03-25T09:15:24.52Z</time></trkpt><trkpt lat="38.1632083" lon="12.7363367"><ele>41.0</ele><time>2026-03-25T09:15:25.518Z</time></trkpt><trkpt lat="38.1634233" lon="12.736275"><ele>40.0</ele><time>2026-03-25T09:15:26.526Z</time></trkpt><trkpt lat="38.1636383" lon="12.7362117"><ele>39.0</ele><time>2026-03-25T09:15:27.519Z</time></trkpt><trkpt lat="38.1638567" lon="12.7361483"><ele>38.0</ele><time>2026-03-25T09:15:28.52Z</time></trkpt><trkpt lat="38.1640733" lon="12.7360917"><ele>37.0</ele><time>2026-03-25T09:15:29.522Z</time></trkpt><trkpt lat="38.164285" lon="12.736035"><ele>36.0</ele><time>2026-03-25T09:15:30.521Z</time></trkpt><trkpt lat="38.1644833" lon="12.7359833"><ele>36.0</ele><time>2026-03-25T09:15:31.522Z</time></trkpt><trkpt lat="38.164675" lon="12.7359317"><ele>36.0</ele><time>2026-03-25T09:15:32.523Z</time></trkpt><trkpt lat="38.1648667" lon="12.73588"><ele>36.0</ele><time>2026-03-25T09:15:33.52Z</time></trkpt><trkpt lat="38.1650567" lon="12.735825"><ele>35.333333333333336</ele><time>2026-03-25T09:15:34.521Z</time></trkpt><trkpt lat="38.165245" lon="12.7357683"><ele>34.66666666666667</ele><time>2026-03-25T09:15:35.521Z</time></trkpt><trkpt lat="38.1654317" lon="12.7357117"><ele>34.0</ele><time>2026-03-25T09:15:36.522Z</time></trkpt><trkpt lat="38.1656117" lon="12.7356617"><ele>33.333333333333336</ele><time>2026-03-25T09:15:37.52Z</time></trkpt><trkpt lat="38.165785" lon="12.7356133"><ele>32.666666666666664</ele><time>2026-03-25T09:15:38.521Z</time></trkpt><trkpt lat="38.1659483" lon="12.7355667"><ele>32.0</ele><time>2026-03-25T09:15:39.519Z</time></trkpt><trkpt lat="38.166105" lon="12.7355217"><ele>32.0</ele><time>2026-03-25T09:15:40.521Z</time></trkpt><trkpt lat="38.1662533" lon="12.7354783"><ele>32.0</ele><time>2026-03-25T09:15:41.521Z</time></trkpt><trkpt lat="38.1663917" lon="12.7354383"><ele>32.0</ele><time>2026-03-25T09:15:42.523Z</time></trkpt><trkpt lat="38.1665217" lon="12.7353983"><ele>32.0</ele><time>2026-03-25T09:15:43.52Z</time></trkpt><trkpt lat="38.1666467" lon="12.73536"><ele>31.6</ele><time>2026-03-25T09:15:44.523Z</time></trkpt><trkpt lat="38.1667633" lon="12.735325"><ele>31.200000000000003</ele><time>2026-03-25T09:15:45.521Z</time></trkpt><trkpt lat="38.1668733" lon="12.73529"><ele>30.8</ele><time>2026-03-25T09:15:46.519Z</time></trkpt><trkpt lat="38.166975" lon="12.7352567"><ele>30.4</ele><time>2026-03-25T09:15:47.52Z</time></trkpt><trkpt lat="38.1670717" lon="12.7352283"><ele>30.0</ele><time>2026-03-25T09:15:48.521Z</time></trkpt><trkpt lat="38.167155" lon="12.7352067"><ele>30.0</ele><time>2026-03-25T09:15:49.522Z</time></trkpt><trkpt lat="38.1672183" lon="12.7351817"><ele>30.0</ele><time>2026-03-25T09:15:50.524Z</time></trkpt><trkpt lat="38.1672783" lon="12.73515"><ele>30.0</ele><time>2026-03-25T09:15:51.526Z</time></trkpt><trkpt lat="38.1673517" lon="12.735035"><ele>30.0</ele><time>2026-03-25T09:15:53.521Z</time></trkpt><trkpt lat="38.1673533" lon="12.734935"><ele>30.0</ele><time>2026-03-25T09:15:54.522Z</time></trkpt><trkpt lat="38.1673333" lon="12.7348183"><ele>30.0</ele><time>2026-03-25T09:15:55.523Z</time></trkpt><trkpt lat="38.1672517" lon="12.7346367"><ele>30.0</ele><time>2026-03-25T09:15:56.522Z</time></trkpt><trkpt lat="38.1671883" lon="12.734455"><ele>30.0</ele><time>2026-03-25T09:15:57.526Z</time></trkpt><trkpt lat="38.16714" lon="12.734275"><ele>30.0</ele><time>2026-03-25T09:15:58.523Z</time></trkpt><trkpt lat="38.1670967" lon="12.7340983"><ele>30.4</ele><time>2026-03-25T09:15:59.52Z</time></trkpt><trkpt lat="38.1670533" lon="12.7339383"><ele>30.8</ele><time>2026-03-25T09:16:00.521Z</time></trkpt><trkpt lat="38.1670167" lon="12.733795"><ele>31.200000000000003</ele><time>2026-03-25T09:16:01.52Z</time></trkpt><trkpt lat="38.1669833" lon="12.7336683"><ele>31.6</ele><time>2026-03-25T09:16:02.521Z</time></trkpt><trkpt lat="38.1669567" lon="12.7335617"><ele>32.0</ele><time>2026-03-25T09:16:03.52Z</time></trkpt><trkpt lat="38.1669417" lon="12.7334767"><ele>32.0</ele><time>2026-03-25T09:16:04.521Z</time></trkpt><trkpt lat="38.1669833" lon="12.7333667"><ele>32.0</ele><time>2026-03-25T09:16:06.521Z</time></trkpt><trkpt lat="38.16705" lon="12.73334"><ele>32.0</ele><time>2026-03-25T09:16:07.52Z</time></trkpt><trkpt lat="38.1671533" lon="12.7333267"><ele>32.0</ele><time>2026-03-25T09:16:08.523Z</time></trkpt><trkpt lat="38.167275" lon="12.7333167"><ele>32.0</ele><time>2026-03-25T09:16:09.52Z</time></trkpt><trkpt lat="38.1674117" lon="12.733305"><ele>32.0</ele><time>2026-03-25T09:16:10.521Z</time></trkpt><trkpt lat="38.1675533" lon="12.7332867"><ele>32.0</ele><time>2026-03-25T09:16:11.522Z</time></trkpt><trkpt lat="38.1676883" lon="12.7332733"><ele>32.0</ele><time>2026-03-25T09:16:12.522Z</time></trkpt><trkpt lat="38.167815" lon="12.7332583"><ele>32.0</ele><time>2026-03-25T09:16:13.525Z</time></trkpt><trkpt lat="38.1679517" lon="12.73324"><ele>32.0</ele><time>2026-03-25T09:16:14.523Z</time></trkpt><trkpt lat="38.1681033" lon="12.7332183"><ele>32.0</ele><time>2026-03-25T09:16:15.522Z</time></trkpt><trkpt lat="38.168275" lon="12.733195"><ele>32.0</ele><time>2026-03-25T09:16:16.523Z</time></trkpt><trkpt lat="38.16846" lon="12.73317"><ele>31.0</ele><time>2026-03-25T09:16:17.52Z</time></trkpt><trkpt lat="38.1686417" lon="12.733145"><ele>30.0</ele><time>2026-03-25T09:16:18.525Z</time></trkpt><trkpt lat="38.16881" lon="12.7331233"><ele>29.0</ele><time>2026-03-25T09:16:19.524Z</time></trkpt><trkpt lat="38.16897" lon="12.7331033"><ele>27.666666666666664</ele><time>2026-03-25T09:16:20.524Z</time></trkpt><trkpt lat="38.169125" lon="12.7330833"><ele>26.333333333333336</ele><time>2026-03-25T09:16:21.522Z</time></trkpt><trkpt lat="38.1692767" lon="12.7330617"><ele>25.0</ele><time>2026-03-25T09:16:22.522Z</time></trkpt><trkpt lat="38.1694317" lon="12.733045"><ele>25.0</ele><time>2026-03-25T09:16:23.524Z</time></trkpt><trkpt lat="38.1695917" lon="12.7330233"><ele>25.0</ele><time>2026-03-25T09:16:24.522Z</time></trkpt><trkpt lat="38.1697533" lon="12.7329983"><ele>25.0</ele><time>2026-03-25T09:16:25.523Z</time></trkpt><trkpt lat="38.169905" lon="12.732975"><ele>24.25</ele><time>2026-03-25T09:16:26.52Z</time></trkpt><trkpt lat="38.170045" lon="12.7329567"><ele>23.5</ele><time>2026-03-25T09:16:27.519Z</time></trkpt><trkpt lat="38.1701733" lon="12.73294"><ele>22.75</ele><time>2026-03-25T09:16:28.521Z</time></trkpt><trkpt lat="38.17029" lon="12.73292"><ele>22.0</ele><time>2026-03-25T09:16:29.522Z</time></trkpt><trkpt lat="38.1703983" lon="12.7329067"><ele>22.0</ele><time>2026-03-25T09:16:30.524Z</time></trkpt><trkpt lat="38.1705133" lon="12.732885"><ele>22.0</ele><time>2026-03-25T09:16:31.524Z</time></trkpt><trkpt lat="38.170645" lon="12.7328617"><ele>22.0</ele><time>2026-03-25T09:16:32.524Z</time></trkpt><trkpt lat="38.17079" lon="12.73284"><ele>22.0</ele><time>2026-03-25T09:16:33.52Z</time></trkpt><trkpt lat="38.1709517" lon="12.7328267"><ele>21.333333333333332</ele><time>2026-03-25T09:16:34.524Z</time></trkpt><trkpt lat="38.1711283" lon="12.7328133"><ele>20.666666666666668</ele><time>2026-03-25T09:16:35.524Z</time></trkpt><trkpt lat="38.171315" lon="12.7327967"><ele>20.0</ele><time>2026-03-25T09:16:36.523Z</time></trkpt><trkpt lat="38.1714967" lon="12.7327783"><ele>20.0</ele><time>2026-03-25T09:16:37.524Z</time></trkpt><trkpt lat="38.171675" lon="12.7327567"><ele>20.0</ele><time>2026-03-25T09:16:38.522Z</time></trkpt><trkpt lat="38.171855" lon="12.732735"><ele>20.0</ele><time>2026-03-25T09:16:39.521Z</time></trkpt><trkpt lat="38.1720283" lon="12.7327117"><ele>20.0</ele><time>2026-03-25T09:16:40.519Z</time></trkpt><trkpt lat="38.1721917" lon="12.73269"><ele>20.0</ele><time>2026-03-25T09:16:41.521Z</time></trkpt><trkpt lat="38.1723517" lon="12.73267"><ele>20.0</ele><time>2026-03-25T09:16:42.522Z</time></trkpt><trkpt lat="38.17251" lon="12.7326517"><ele>19.25</ele><time>2026-03-25T09:16:43.524Z</time></trkpt><trkpt lat="38.1726633" lon="12.7326317"><ele>18.5</ele><time>2026-03-25T09:16:44.524Z</time></trkpt><trkpt lat="38.1728083" lon="12.7326133"><ele>17.75</ele><time>2026-03-25T09:16:45.521Z</time></trkpt><trkpt lat="38.1729483" lon="12.7325917"><ele>17.0</ele><time>2026-03-25T09:16:46.522Z</time></trkpt><trkpt lat="38.1730833" lon="12.7325717"><ele>17.0</ele><time>2026-03-25T09:16:47.519Z</time></trkpt><trkpt lat="38.1732233" lon="12.73255"><ele>17.0</ele><time>2026-03-25T09:16:48.522Z</time></trkpt><trkpt lat="38.1733617" lon="12.7325283"><ele>17.0</ele><time>2026-03-25T09:16:49.522Z</time></trkpt><trkpt lat="38.173495" lon="12.73251"><ele>17.0</ele><time>2026-03-25T09:16:50.523Z</time></trkpt><trkpt lat="38.173625" lon="12.732495"><ele>17.0</ele><time>2026-03-25T09:16:51.521Z</time></trkpt><trkpt lat="38.17375" lon="12.7324783"><ele>17.0</ele><time>2026-03-25T09:16:52.522Z</time></trkpt><trkpt lat="38.17387" lon="12.7324617"><ele>17.0</ele><time>2026-03-25T09:16:53.52Z</time></trkpt><trkpt lat="38.1739833" lon="12.7324467"><ele>17.0</ele><time>2026-03-25T09:16:54.524Z</time></trkpt><trkpt lat="38.174095" lon="12.73243"><ele>16.6</ele><time>2026-03-25T09:16:55.52Z</time></trkpt><trkpt lat="38.1742033" lon="12.732415"><ele>16.2</ele><time>2026-03-25T09:16:56.522Z</time></trkpt><trkpt lat="38.17431" lon="12.7324017"><ele>15.8</ele><time>2026-03-25T09:16:57.524Z</time></trkpt><trkpt lat="38.17441" lon="12.7323883"><ele>15.4</ele><time>2026-03-25T09:16:58.522Z</time></trkpt><trkpt lat="38.1745017" lon="12.7323717"><ele>15.0</ele><time>2026-03-25T09:16:59.522Z</time></trkpt><trkpt lat="38.174595" lon="12.732355"><ele>15.0</ele><time>2026-03-25T09:17:00.522Z</time></trkpt><trkpt lat="38.1746983" lon="12.7323383"><ele>15.0</ele><time>2026-03-25T09:17:01.521Z</time></trkpt><trkpt lat="38.1748133" lon="12.732325"><ele>15.0</ele><time>2026-03-25T09:17:02.52Z</time></trkpt><trkpt lat="38.1749367" lon="12.73231"><ele>15.0</ele><time>2026-03-25T09:17:03.523Z</time></trkpt><trkpt lat="38.175055" lon="12.7322983"><ele>14.4</ele><time>2026-03-25T09:17:04.523Z</time></trkpt><trkpt lat="38.1751633" lon="12.73229"><ele>13.8</ele><time>2026-03-25T09:17:05.522Z</time></trkpt><trkpt lat="38.175265" lon="12.73228"><ele>13.2</ele><time>2026-03-25T09:17:06.523Z</time></trkpt><trkpt lat="38.1753617" lon="12.7322683"><ele>12.6</ele><time>2026-03-25T09:17:07.523Z</time></trkpt><trkpt lat="38.1754533" lon="12.73226"><ele>12.0</ele><time>2026-03-25T09:17:08.523Z</time></trkpt><trkpt lat="38.1755433" lon="12.73225"><ele>12.0</ele><time>2026-03-25T09:17:09.523Z</time></trkpt><trkpt lat="38.1756317" lon="12.7322383"><ele>12.0</ele><time>2026-03-25T09:17:10.519Z</time></trkpt><trkpt lat="38.17572" lon="12.7322267"><ele>12.0</ele><time>2026-03-25T09:17:11.523Z</time></trkpt><trkpt lat="38.1758083" lon="12.732215"><ele>12.0</ele><time>2026-03-25T09:17:12.525Z</time></trkpt><trkpt lat="38.1758983" lon="12.7322033"><ele>12.0</ele><time>2026-03-25T09:17:13.526Z</time></trkpt><trkpt lat="38.1759833" lon="12.7321933"><ele>12.0</ele><time>2026-03-25T09:17:14.523Z</time></trkpt><trkpt lat="38.176065" lon="12.7321833"><ele>11.666666666666666</ele><time>2026-03-25T09:17:15.523Z</time></trkpt><trkpt lat="38.1761417" lon="12.73217"><ele>11.333333333333334</ele><time>2026-03-25T09:17:16.521Z</time></trkpt><trkpt lat="38.1762183" lon="12.7321567"><ele>11.0</ele><time>2026-03-25T09:17:17.521Z</time></trkpt><trkpt lat="38.1762917" lon="12.7321483"><ele>10.666666666666668</ele><time>2026-03-25T09:17:18.523Z</time></trkpt><trkpt lat="38.1763667" lon="12.7321417"><ele>10.333333333333334</ele><time>2026-03-25T09:17:19.527Z</time></trkpt><trkpt lat="38.1764417" lon="12.732135"><ele>10.0</ele><time>2026-03-25T09:17:20.525Z</time></trkpt><trkpt lat="38.176515" lon="12.7321267"><ele>10.0</ele><time>2026-03-25T09:17:21.525Z</time></trkpt><trkpt lat="38.1765817" lon="12.7321167"><ele>10.0</ele><time>2026-03-25T09:17:22.522Z</time></trkpt><trkpt lat="38.176695" lon="12.7321033"><ele>10.0</ele><time>2026-03-25T09:17:24.525Z</time></trkpt><trkpt lat="38.1767783" lon="12.7320467"><ele>10.0</ele><time>2026-03-25T09:17:33.523Z</time></trkpt><trkpt lat="38.1767867" lon="12.7319333"><ele>10.0</ele><time>2026-03-25T09:17:53.521Z</time></trkpt><trkpt lat="38.1767817" lon="12.73182"><ele>10.166666666666668</ele><time>2026-03-25T09:17:55.523Z</time></trkpt><trkpt lat="38.1767717" lon="12.731715"><ele>10.333333333333334</ele><time>2026-03-25T09:17:57.52Z</time></trkpt><trkpt lat="38.1766817" lon="12.731655"><ele>10.5</ele><time>2026-03-25T09:18:48.522Z</time></trkpt><trkpt lat="38.1767683" lon="12.73168"><ele>10.666666666666666</ele><time>2026-03-25T09:19:42.522Z</time></trkpt><trkpt lat="38.1766983" lon="12.7316733"><ele>10.833333333333332</ele><time>2026-03-25T09:20:10.523Z</time></trkpt><trkpt lat="38.1766207" lon="12.7317155"><ele>11.0</ele><time>2026-03-25T09:22:12.658Z</time></trkpt><trkpt lat="38.1765595" lon="12.7317694"><ele>11.0</ele><time>2026-03-25T09:22:16.545Z</time></trkpt><trkpt lat="38.1766009" lon="12.7318315"><ele>11.0</ele><time>2026-03-25T09:22:28.651Z</time></trkpt><trkpt lat="38.1766908" lon="12.7318517"><ele>11.0</ele><time>2026-03-25T09:23:10.626Z</time></trkpt></trkseg></trk></gpx>